<?xml version='1.0' encoding='UTF-8'?><gpx version="1.1" creator="JPX - https://github.com/jenetics/jpx" xmlns="http://www.topografix.com/GPX/1/1"><trk><trkseg><trkpt lat="44.7740756" lon="9.2941198"><ele>1107.0</ele><time>2026-03-29T12:35:28.17Z</time></trkpt><trkpt lat="44.7740455" lon="9.2940398"><ele>1107.0</ele><time>2026-03-29T12:36:10.171Z</time></trkpt><trkpt lat="44.7741164" lon="9.2940269"><ele>1107.0</ele><time>2026-03-29T12:43:01.17Z</time></trkpt><trkpt lat="44.7740476" lon="9.2940369"><ele>1107.0</ele><time>2026-03-29T12:45:27.17Z</time></trkpt><trkpt lat="44.7740894" lon="9.2941056"><ele>1107.0</ele><time>2026-03-29T12:48:50.005Z</time></trkpt><trkpt lat="44.7740735" lon="9.2942033"><ele>1107.0</ele><time>2026-03-29T12:48:57.17Z</time></trkpt><trkpt lat="44.7740481" lon="9.2942874"><ele>1107.0</ele><time>2026-03-29T12:49:06.17Z</time></trkpt><trkpt lat="44.77399" lon="9.2942526"><ele>1107.0</ele><time>2026-03-29T12:49:29.169Z</time></trkpt><trkpt lat="44.7740471" lon="9.2941935"><ele>1107.0</ele><time>2026-03-29T13:00:55.169Z</time></trkpt><trkpt lat="44.7740747" lon="9.2941056"><ele>1107.0</ele><time>2026-03-29T13:01:13.168Z</time></trkpt><trkpt lat="44.7740945" lon="9.2940121"><ele>1107.0</ele><time>2026-03-29T13:01:29.169Z</time></trkpt><trkpt lat="44.774075" lon="9.2941033"><ele>1107.0</ele><time>2026-03-29T13:06:44.168Z</time></trkpt><trkpt lat="44.7740678" lon="9.2941955"><ele>1107.0</ele><time>2026-03-29T13:06:51.168Z</time></trkpt><trkpt lat="44.7740427" lon="9.2942862"><ele>1107.0</ele><time>2026-03-29T13:07:10.169Z</time></trkpt><trkpt lat="44.7740092" lon="9.2943628"><ele>1107.0</ele><time>2026-03-29T13:07:17.168Z</time></trkpt><trkpt lat="44.7739593" lon="9.2944528"><ele>1107.0</ele><time>2026-03-29T13:11:10.168Z</time></trkpt><trkpt lat="44.7740238" lon="9.2944631"><ele>1107.0</ele><time>2026-03-29T13:11:18.168Z</time></trkpt><trkpt lat="44.7740346" lon="9.2945574"><ele>1107.0</ele><time>2026-03-29T13:11:20.169Z</time></trkpt><trkpt lat="44.7740576" lon="9.2943837"><ele>1107.0</ele><time>2026-03-29T13:11:24.169Z</time></trkpt><trkpt lat="44.7740749" lon="9.2942909"><ele>1107.0</ele><time>2026-03-29T13:11:27.169Z</time></trkpt><trkpt lat="44.7740545" lon="9.2942057"><ele>1107.0</ele><time>2026-03-29T13:11:47.167Z</time></trkpt><trkpt lat="44.7740882" lon="9.2941244"><ele>1107.0</ele><time>2026-03-29T13:11:52.169Z</time></trkpt><trkpt lat="44.7740943" lon="9.2940326"><ele>1107.0</ele><time>2026-03-29T13:25:40.167Z</time></trkpt><trkpt lat="44.7740536" lon="9.2941095"><ele>1107.0</ele><time>2026-03-29T13:29:28.167Z</time></trkpt><trkpt lat="44.7740503" lon="9.2942138"><ele>1107.0</ele><time>2026-03-29T13:29:39.168Z</time></trkpt><trkpt lat="44.7740315" lon="9.294302"><ele>1107.0</ele><time>2026-03-29T13:30:40.167Z</time></trkpt><trkpt lat="44.7739646" lon="9.2943025"><ele>1107.0</ele><time>2026-03-29T13:30:49.153Z</time></trkpt><trkpt lat="44.7740287" lon="9.2942569"><ele>1107.0</ele><time>2026-03-29T13:49:45.166Z</time></trkpt><trkpt lat="44.7740311" lon="9.2943508"><ele>1107.0</ele><time>2026-03-29T13:49:55.165Z</time></trkpt><trkpt lat="44.7740475" lon="9.2944441"><ele>1107.0</ele><time>2026-03-29T13:50:05.166Z</time></trkpt><trkpt lat="44.7740826" lon="9.2943677"><ele>1107.0</ele><time>2026-03-29T13:50:24.166Z</time></trkpt><trkpt lat="44.774026" lon="9.2944068"><ele>1107.0</ele><time>2026-03-29T13:50:30.166Z</time></trkpt><trkpt lat="44.7740394" lon="9.2942835"><ele>1107.0</ele><time>2026-03-29T14:00:34.165Z</time></trkpt><trkpt lat="44.7740507" lon="9.2941947"><ele>1107.0</ele><time>2026-03-29T14:01:30.166Z</time></trkpt><trkpt lat="44.7740705" lon="9.2940876"><ele>1107.0</ele><time>2026-03-29T14:03:19.166Z</time></trkpt><trkpt lat="44.7741151" lon="9.2940004"><ele>1107.0</ele><time>2026-03-29T14:04:44.344Z</time></trkpt><trkpt lat="44.7742042" lon="9.2940181"><ele>1107.0</ele><time>2026-03-29T14:04:47.366Z</time></trkpt><trkpt lat="44.7743257" lon="9.2941061"><ele>1107.0</ele><time>2026-03-29T14:04:49.345Z</time></trkpt><trkpt lat="44.7744606" lon="9.2942625"><ele>1107.3333333333333</ele><time>2026-03-29T14:04:51.339Z</time></trkpt><trkpt lat="44.7745189" lon="9.294388"><ele>1107.6666666666665</ele><time>2026-03-29T14:04:52.346Z</time></trkpt><trkpt lat="44.7746099" lon="9.2946668"><ele>1108.0</ele><time>2026-03-29T14:04:54.349Z</time></trkpt><trkpt lat="44.7746746" lon="9.2949166"><ele>1108.0</ele><time>2026-03-29T14:04:56.338Z</time></trkpt><trkpt lat="44.7747722" lon="9.2950944"><ele>1108.0</ele><time>2026-03-29T14:04:58.335Z</time></trkpt><trkpt lat="44.7749116" lon="9.2952011"><ele>1108.0</ele><time>2026-03-29T14:05:00.352Z</time></trkpt><trkpt lat="44.7750664" lon="9.2952788"><ele>1108.0</ele><time>2026-03-29T14:05:02.329Z</time></trkpt><trkpt lat="44.7751362" lon="9.2953381"><ele>1108.0</ele><time>2026-03-29T14:05:03.338Z</time></trkpt><trkpt lat="44.7752649" lon="9.2954976"><ele>1108.0</ele><time>2026-03-29T14:05:05.334Z</time></trkpt><trkpt lat="44.7753861" lon="9.2956949"><ele>1108.0</ele><time>2026-03-29T14:05:07.326Z</time></trkpt><trkpt lat="44.7754475" lon="9.2957955"><ele>1107.75</ele><time>2026-03-29T14:05:08.332Z</time></trkpt><trkpt lat="44.7755121" lon="9.2958944"><ele>1107.5</ele><time>2026-03-29T14:05:09.337Z</time></trkpt><trkpt lat="44.7755856" lon="9.2959818"><ele>1107.25</ele><time>2026-03-29T14:05:10.344Z</time></trkpt><trkpt lat="44.7757642" lon="9.2960863"><ele>1107.0</ele><time>2026-03-29T14:05:12.336Z</time></trkpt><trkpt lat="44.7758581" lon="9.2961103"><ele>1107.0</ele><time>2026-03-29T14:05:13.335Z</time></trkpt><trkpt lat="44.7759512" lon="9.2961228"><ele>1107.0</ele><time>2026-03-29T14:05:14.338Z</time></trkpt><trkpt lat="44.7761257" lon="9.2961479"><ele>1107.0</ele><time>2026-03-29T14:05:16.323Z</time></trkpt><trkpt lat="44.7762146" lon="9.2961461"><ele>1107.0</ele><time>2026-03-29T14:05:17.334Z</time></trkpt><trkpt lat="44.7763062" lon="9.2961194"><ele>1108.0</ele><time>2026-03-29T14:05:18.335Z</time></trkpt><trkpt lat="44.7763967" lon="9.2960648"><ele>1109.0</ele><time>2026-03-29T14:05:19.36Z</time></trkpt><trkpt lat="44.7765594" lon="9.2959094"><ele>1110.0</ele><time>2026-03-29T14:05:21.342Z</time></trkpt><trkpt lat="44.7767089" lon="9.2958541"><ele>1112.0</ele><time>2026-03-29T14:05:23.357Z</time></trkpt><trkpt lat="44.7768759" lon="9.2959355"><ele>1114.0</ele><time>2026-03-29T14:05:25.334Z</time></trkpt><trkpt lat="44.7769757" lon="9.295967"><ele>1116.0</ele><time>2026-03-29T14:05:26.347Z</time></trkpt><trkpt lat="44.777167" lon="9.2958641"><ele>1110.0</ele><time>2026-03-29T14:05:28.344Z</time></trkpt><trkpt lat="44.7773501" lon="9.2955709"><ele>1104.0</ele><time>2026-03-29T14:05:30.355Z</time></trkpt><trkpt lat="44.7775515" lon="9.2953556"><ele>1103.6666666666667</ele><time>2026-03-29T14:05:32.356Z</time></trkpt><trkpt lat="44.7777851" lon="9.2953374"><ele>1103.3333333333335</ele><time>2026-03-29T14:05:34.33Z</time></trkpt><trkpt lat="44.777934" lon="9.2953766"><ele>1103.0</ele><time>2026-03-29T14:05:35.336Z</time></trkpt><trkpt lat="44.7780999" lon="9.2954394"><ele>1103.0</ele><time>2026-03-29T14:05:36.354Z</time></trkpt><trkpt lat="44.7782517" lon="9.2955188"><ele>1103.0</ele><time>2026-03-29T14:05:37.358Z</time></trkpt><trkpt lat="44.7783856" lon="9.2956146"><ele>1103.0</ele><time>2026-03-29T14:05:38.385Z</time></trkpt><trkpt lat="44.7786375" lon="9.2957883"><ele>1105.0</ele><time>2026-03-29T14:05:40.324Z</time></trkpt><trkpt lat="44.7787729" lon="9.2958736"><ele>1107.0</ele><time>2026-03-29T14:05:41.329Z</time></trkpt><trkpt lat="44.7789061" lon="9.2959858"><ele>1109.0</ele><time>2026-03-29T14:05:42.341Z</time></trkpt><trkpt lat="44.7790357" lon="9.2961215"><ele>1109.0</ele><time>2026-03-29T14:05:43.344Z</time></trkpt><trkpt lat="44.7792969" lon="9.2964143"><ele>1109.0</ele><time>2026-03-29T14:05:45.331Z</time></trkpt><trkpt lat="44.7795402" lon="9.2966951"><ele>1111.5</ele><time>2026-03-29T14:05:47.323Z</time></trkpt><trkpt lat="44.7797214" lon="9.2969506"><ele>1114.0</ele><time>2026-03-29T14:05:49.323Z</time></trkpt><trkpt lat="44.7798329" lon="9.2972343"><ele>1116.3333333333333</ele><time>2026-03-29T14:05:51.334Z</time></trkpt><trkpt lat="44.779881" lon="9.2973776"><ele>1118.6666666666667</ele><time>2026-03-29T14:05:52.363Z</time></trkpt><trkpt lat="44.780032" lon="9.2976521"><ele>1121.0</ele><time>2026-03-29T14:05:54.33Z</time></trkpt><trkpt lat="44.7801269" lon="9.2977786"><ele>1120.25</ele><time>2026-03-29T14:05:55.338Z</time></trkpt><trkpt lat="44.7802197" lon="9.2978938"><ele>1119.5</ele><time>2026-03-29T14:05:56.339Z</time></trkpt><trkpt lat="44.7803099" lon="9.2979783"><ele>1118.75</ele><time>2026-03-29T14:05:57.343Z</time></trkpt><trkpt lat="44.7805162" lon="9.2980236"><ele>1118.0</ele><time>2026-03-29T14:05:59.339Z</time></trkpt><trkpt lat="44.7807604" lon="9.2979929"><ele>1117.6666666666667</ele><time>2026-03-29T14:06:01.319Z</time></trkpt><trkpt lat="44.7810326" lon="9.2979704"><ele>1117.3333333333333</ele><time>2026-03-29T14:06:03.334Z</time></trkpt><trkpt lat="44.7811632" lon="9.2979641"><ele>1117.0</ele><time>2026-03-29T14:06:04.337Z</time></trkpt><trkpt lat="44.7812839" lon="9.2979773"><ele>1117.0</ele><time>2026-03-29T14:06:05.355Z</time></trkpt><trkpt lat="44.7813835" lon="9.2980278"><ele>1117.0</ele><time>2026-03-29T14:06:06.364Z</time></trkpt><trkpt lat="44.7815207" lon="9.2982206"><ele>1117.0</ele><time>2026-03-29T14:06:08.339Z</time></trkpt><trkpt lat="44.7815781" lon="9.2983429"><ele>1117.0</ele><time>2026-03-29T14:06:09.339Z</time></trkpt><trkpt lat="44.7817609" lon="9.2985281"><ele>1117.0</ele><time>2026-03-29T14:06:11.343Z</time></trkpt><trkpt lat="44.7820145" lon="9.2985428"><ele>1117.0</ele><time>2026-03-29T14:06:13.336Z</time></trkpt><trkpt lat="44.7821457" lon="9.2985353"><ele>1117.0</ele><time>2026-03-29T14:06:14.35Z</time></trkpt><trkpt lat="44.7823807" lon="9.298552"><ele>1117.0</ele><time>2026-03-29T14:06:16.336Z</time></trkpt><trkpt lat="44.7824694" lon="9.2985894"><ele>1117.0</ele><time>2026-03-29T14:06:17.343Z</time></trkpt><trkpt lat="44.7825809" lon="9.2987678"><ele>1117.0</ele><time>2026-03-29T14:06:19.325Z</time></trkpt><trkpt lat="44.7826167" lon="9.2989013"><ele>1117.0</ele><time>2026-03-29T14:06:20.383Z</time></trkpt><trkpt lat="44.7827451" lon="9.2992019"><ele>1117.6666666666665</ele><time>2026-03-29T14:06:22.327Z</time></trkpt><trkpt lat="44.782832" lon="9.2993489"><ele>1118.3333333333333</ele><time>2026-03-29T14:06:23.336Z</time></trkpt><trkpt lat="44.7830101" lon="9.2996406"><ele>1119.0</ele><time>2026-03-29T14:06:25.329Z</time></trkpt><trkpt lat="44.7832144" lon="9.2997648"><ele>1120.75</ele><time>2026-03-29T14:06:27.339Z</time></trkpt><trkpt lat="44.7833187" lon="9.2997651"><ele>1122.5</ele><time>2026-03-29T14:06:28.344Z</time></trkpt><trkpt lat="44.783524" lon="9.2996836"><ele>1124.25</ele><time>2026-03-29T14:06:30.315Z</time></trkpt><trkpt lat="44.7836119" lon="9.2995989"><ele>1126.0</ele><time>2026-03-29T14:06:31.36Z</time></trkpt><trkpt lat="44.7837717" lon="9.2995049"><ele>1126.0</ele><time>2026-03-29T14:06:33.325Z</time></trkpt><trkpt lat="44.7838412" lon="9.2995289"><ele>1126.0</ele><time>2026-03-29T14:06:34.327Z</time></trkpt><trkpt lat="44.7838987" lon="9.299582"><ele>1126.0</ele><time>2026-03-29T14:06:35.336Z</time></trkpt><trkpt lat="44.7840389" lon="9.2996098"><ele>1126.0</ele><time>2026-03-29T14:06:37.335Z</time></trkpt><trkpt lat="44.784195" lon="9.2994799"><ele>1126.0</ele><time>2026-03-29T14:06:39.332Z</time></trkpt><trkpt lat="44.7842789" lon="9.2994259"><ele>1126.0</ele><time>2026-03-29T14:06:40.332Z</time></trkpt><trkpt lat="44.7843822" lon="9.2993936"><ele>1126.0</ele><time>2026-03-29T14:06:41.345Z</time></trkpt><trkpt lat="44.7845015" lon="9.2993909"><ele>1126.0</ele><time>2026-03-29T14:06:42.345Z</time></trkpt><trkpt lat="44.7847634" lon="9.2994786"><ele>1127.0</ele><time>2026-03-29T14:06:44.342Z</time></trkpt><trkpt lat="44.7850451" lon="9.2996293"><ele>1128.0</ele><time>2026-03-29T14:06:46.331Z</time></trkpt><trkpt lat="44.7853372" lon="9.2998063"><ele>1131.5</ele><time>2026-03-29T14:06:48.316Z</time></trkpt><trkpt lat="44.7854862" lon="9.2998999"><ele>1135.0</ele><time>2026-03-29T14:06:49.327Z</time></trkpt><trkpt lat="44.7857795" lon="9.3000874"><ele>1134.0</ele><time>2026-03-29T14:06:51.322Z</time></trkpt><trkpt lat="44.7860584" lon="9.3002626"><ele>1133.0</ele><time>2026-03-29T14:06:53.325Z</time></trkpt><trkpt lat="44.7863294" lon="9.3004261"><ele>1133.0</ele><time>2026-03-29T14:06:55.316Z</time></trkpt><trkpt lat="44.7864716" lon="9.3004964"><ele>1133.0</ele><time>2026-03-29T14:06:56.325Z</time></trkpt><trkpt lat="44.7866192" lon="9.3005591"><ele>1133.0</ele><time>2026-03-29T14:06:57.328Z</time></trkpt><trkpt lat="44.7867627" lon="9.3006156"><ele>1137.6666666666667</ele><time>2026-03-29T14:06:58.333Z</time></trkpt><trkpt lat="44.7868962" lon="9.3006659"><ele>1142.3333333333333</ele><time>2026-03-29T14:06:59.342Z</time></trkpt><trkpt lat="44.7870184" lon="9.3006998"><ele>1147.0</ele><time>2026-03-29T14:07:00.343Z</time></trkpt><trkpt lat="44.7872226" lon="9.3006128"><ele>1144.75</ele><time>2026-03-29T14:07:02.328Z</time></trkpt><trkpt lat="44.7873027" lon="9.3004988"><ele>1142.5</ele><time>2026-03-29T14:07:03.358Z</time></trkpt><trkpt lat="44.7874577" lon="9.3003353"><ele>1140.25</ele><time>2026-03-29T14:07:05.35Z</time></trkpt><trkpt lat="44.7875855" lon="9.3003706"><ele>1138.0</ele><time>2026-03-29T14:07:07.344Z</time></trkpt><trkpt lat="44.7876246" lon="9.300577"><ele>1142.5</ele><time>2026-03-29T14:07:09.338Z</time></trkpt><trkpt lat="44.7876279" lon="9.3009325"><ele>1147.0</ele><time>2026-03-29T14:07:11.341Z</time></trkpt><trkpt lat="44.7876344" lon="9.3012596"><ele>1146.25</ele><time>2026-03-29T14:07:13.342Z</time></trkpt><trkpt lat="44.7876379" lon="9.3015304"><ele>1145.5</ele><time>2026-03-29T14:07:15.328Z</time></trkpt><trkpt lat="44.7876511" lon="9.3016473"><ele>1144.75</ele><time>2026-03-29T14:07:16.33Z</time></trkpt><trkpt lat="44.7876867" lon="9.3017409"><ele>1144.0</ele><time>2026-03-29T14:07:17.343Z</time></trkpt><trkpt lat="44.7878259" lon="9.3018051"><ele>1144.0</ele><time>2026-03-29T14:07:19.328Z</time></trkpt><trkpt lat="44.7879122" lon="9.3017718"><ele>1144.0</ele><time>2026-03-29T14:07:20.33Z</time></trkpt><trkpt lat="44.7881097" lon="9.3016498"><ele>1144.0</ele><time>2026-03-29T14:07:22.318Z</time></trkpt><trkpt lat="44.7882039" lon="9.3016136"><ele>1144.0</ele><time>2026-03-29T14:07:23.341Z</time></trkpt><trkpt lat="44.7883787" lon="9.3016341"><ele>1144.0</ele><time>2026-03-29T14:07:25.326Z</time></trkpt><trkpt lat="44.7884634" lon="9.3016986"><ele>1144.0</ele><time>2026-03-29T14:07:26.341Z</time></trkpt><trkpt lat="44.7886277" lon="9.3018524"><ele>1144.0</ele><time>2026-03-29T14:07:28.462Z</time></trkpt><trkpt lat="44.7887692" lon="9.3018941"><ele>1144.0</ele><time>2026-03-29T14:07:30.326Z</time></trkpt><trkpt lat="44.7888282" lon="9.3018421"><ele>1141.0</ele><time>2026-03-29T14:07:31.33Z</time></trkpt><trkpt lat="44.7888754" lon="9.3017383"><ele>1138.0</ele><time>2026-03-29T14:07:32.334Z</time></trkpt><trkpt lat="44.7889129" lon="9.3015876"><ele>1135.0</ele><time>2026-03-29T14:07:33.357Z</time></trkpt><trkpt lat="44.7890304" lon="9.3012681"><ele>1135.0</ele><time>2026-03-29T14:07:35.333Z</time></trkpt><trkpt lat="44.7891169" lon="9.3011373"><ele>1135.0</ele><time>2026-03-29T14:07:36.344Z</time></trkpt><trkpt lat="44.7893095" lon="9.3009915"><ele>1135.0</ele><time>2026-03-29T14:07:38.339Z</time></trkpt><trkpt lat="44.7894972" lon="9.3009006"><ele>1134.6666666666665</ele><time>2026-03-29T14:07:40.353Z</time></trkpt><trkpt lat="44.7896517" lon="9.3006881"><ele>1134.3333333333333</ele><time>2026-03-29T14:07:42.34Z</time></trkpt><trkpt lat="44.7897474" lon="9.3005794"><ele>1134.0</ele><time>2026-03-29T14:07:43.345Z</time></trkpt><trkpt lat="44.7899786" lon="9.3004556"><ele>1134.0</ele><time>2026-03-29T14:07:45.348Z</time></trkpt><trkpt lat="44.7902105" lon="9.3005146"><ele>1134.0</ele><time>2026-03-29T14:07:47.331Z</time></trkpt><trkpt lat="44.7903376" lon="9.3006028"><ele>1134.0</ele><time>2026-03-29T14:07:48.372Z</time></trkpt><trkpt lat="44.7906504" lon="9.3007761"><ele>1136.0</ele><time>2026-03-29T14:07:50.342Z</time></trkpt><trkpt lat="44.7909667" lon="9.3008488"><ele>1138.0</ele><time>2026-03-29T14:07:52.344Z</time></trkpt><trkpt lat="44.7910921" lon="9.3008186"><ele>1140.0</ele><time>2026-03-29T14:07:53.346Z</time></trkpt><trkpt lat="44.7912709" lon="9.3006615"><ele>1140.0</ele><time>2026-03-29T14:07:55.338Z</time></trkpt><trkpt lat="44.7913904" lon="9.3006859"><ele>1140.0</ele><time>2026-03-29T14:07:57.349Z</time></trkpt><trkpt lat="44.7914209" lon="9.3008963"><ele>1140.0</ele><time>2026-03-29T14:07:59.343Z</time></trkpt><trkpt lat="44.7913919" lon="9.3010459"><ele>1140.0</ele><time>2026-03-29T14:08:00.364Z</time></trkpt><trkpt lat="44.7912892" lon="9.3013468"><ele>1137.3333333333333</ele><time>2026-03-29T14:08:02.369Z</time></trkpt><trkpt lat="44.7912485" lon="9.3015426"><ele>1134.6666666666665</ele><time>2026-03-29T14:08:03.398Z</time></trkpt><trkpt lat="44.791149" lon="9.3019246"><ele>1132.0</ele><time>2026-03-29T14:08:05.354Z</time></trkpt><trkpt lat="44.7909709" lon="9.3022071"><ele>1138.6666666666665</ele><time>2026-03-29T14:08:07.351Z</time></trkpt><trkpt lat="44.7908202" lon="9.3024708"><ele>1145.3333333333333</ele><time>2026-03-29T14:08:09.331Z</time></trkpt><trkpt lat="44.7907622" lon="9.3026439"><ele>1152.0</ele><time>2026-03-29T14:08:10.341Z</time></trkpt><trkpt lat="44.7907114" lon="9.3028293"><ele>1152.0</ele><time>2026-03-29T14:08:11.349Z</time></trkpt><trkpt lat="44.7906606" lon="9.3030128"><ele>1152.0</ele><time>2026-03-29T14:08:12.365Z</time></trkpt><trkpt lat="44.7905387" lon="9.3033401"><ele>1152.0</ele><time>2026-03-29T14:08:14.339Z</time></trkpt><trkpt lat="44.7903737" lon="9.3036376"><ele>1143.5</ele><time>2026-03-29T14:08:16.363Z</time></trkpt><trkpt lat="44.7902325" lon="9.3040031"><ele>1135.0</ele><time>2026-03-29T14:08:18.355Z</time></trkpt><trkpt lat="44.7901932" lon="9.3043516"><ele>1135.0</ele><time>2026-03-29T14:08:20.329Z</time></trkpt><trkpt lat="44.7902249" lon="9.3047041"><ele>1135.0</ele><time>2026-03-29T14:08:22.342Z</time></trkpt><trkpt lat="44.7902416" lon="9.3048571"><ele>1135.0</ele><time>2026-03-29T14:08:23.345Z</time></trkpt><trkpt lat="44.7902875" lon="9.3051013"><ele>1137.25</ele><time>2026-03-29T14:08:25.334Z</time></trkpt><trkpt lat="44.7904085" lon="9.3052303"><ele>1139.5</ele><time>2026-03-29T14:08:27.329Z</time></trkpt><trkpt lat="44.790487" lon="9.3052268"><ele>1141.75</ele><time>2026-03-29T14:08:28.338Z</time></trkpt><trkpt lat="44.7906745" lon="9.3051736"><ele>1144.0</ele><time>2026-03-29T14:08:30.332Z</time></trkpt><trkpt lat="44.7907799" lon="9.3052056"><ele>1141.0</ele><time>2026-03-29T14:08:31.361Z</time></trkpt><trkpt lat="44.7910164" lon="9.3054369"><ele>1138.0</ele><time>2026-03-29T14:08:33.348Z</time></trkpt><trkpt lat="44.7913147" lon="9.3058045"><ele>1138.0</ele><time>2026-03-29T14:08:35.322Z</time></trkpt><trkpt lat="44.7914669" lon="9.3060035"><ele>1138.0</ele><time>2026-03-29T14:08:36.369Z</time></trkpt><trkpt lat="44.791739" lon="9.3063649"><ele>1138.5</ele><time>2026-03-29T14:08:38.338Z</time></trkpt><trkpt lat="44.7918587" lon="9.306525"><ele>1139.0</ele><time>2026-03-29T14:08:39.338Z</time></trkpt><trkpt lat="44.7919532" lon="9.3066563"><ele>1139.5</ele><time>2026-03-29T14:08:40.348Z</time></trkpt><trkpt lat="44.7920309" lon="9.3067546"><ele>1140.0</ele><time>2026-03-29T14:08:41.356Z</time></trkpt><trkpt lat="44.7921927" lon="9.3068569"><ele>1140.0</ele><time>2026-03-29T14:08:43.334Z</time></trkpt><trkpt lat="44.7922944" lon="9.3068608"><ele>1140.0</ele><time>2026-03-29T14:08:44.344Z</time></trkpt><trkpt lat="44.7924966" lon="9.3068184"><ele>1140.0</ele><time>2026-03-29T14:08:46.396Z</time></trkpt><trkpt lat="44.7926649" lon="9.3067613"><ele>1136.8</ele><time>2026-03-29T14:08:48.336Z</time></trkpt><trkpt lat="44.7927426" lon="9.3067711"><ele>1133.6</ele><time>2026-03-29T14:08:49.346Z</time></trkpt><trkpt lat="44.7928319" lon="9.3068959"><ele>1130.4</ele><time>2026-03-29T14:08:51.332Z</time></trkpt><trkpt lat="44.7928356" lon="9.3069884"><ele>1127.2</ele><time>2026-03-29T14:08:52.339Z</time></trkpt><trkpt lat="44.7928144" lon="9.3071033"><ele>1124.0</ele><time>2026-03-29T14:08:53.368Z</time></trkpt><trkpt lat="44.7927014" lon="9.3073404"><ele>1127.3333333333335</ele><time>2026-03-29T14:08:55.354Z</time></trkpt><trkpt lat="44.7926279" lon="9.3075874"><ele>1130.6666666666667</ele><time>2026-03-29T14:08:57.342Z</time></trkpt><trkpt lat="44.7926517" lon="9.3077428"><ele>1134.0</ele><time>2026-03-29T14:08:58.359Z</time></trkpt><trkpt lat="44.7927672" lon="9.308113"><ele>1134.0</ele><time>2026-03-29T14:09:00.338Z</time></trkpt><trkpt lat="44.7928415" lon="9.3083113"><ele>1134.0</ele><time>2026-03-29T14:09:01.339Z</time></trkpt><trkpt lat="44.7929299" lon="9.3084813"><ele>1134.0</ele><time>2026-03-29T14:09:02.339Z</time></trkpt><trkpt lat="44.7930199" lon="9.3086156"><ele>1134.0</ele><time>2026-03-29T14:09:03.343Z</time></trkpt><trkpt lat="44.7930979" lon="9.3087364"><ele>1132.0</ele><time>2026-03-29T14:09:04.354Z</time></trkpt><trkpt lat="44.7932552" lon="9.3089501"><ele>1130.0</ele><time>2026-03-29T14:09:06.306Z</time></trkpt><trkpt lat="44.7933594" lon="9.3089949"><ele>1128.0</ele><time>2026-03-29T14:09:07.341Z</time></trkpt><trkpt lat="44.7935469" lon="9.3090573"><ele>1128.0</ele><time>2026-03-29T14:09:09.349Z</time></trkpt><trkpt lat="44.7936239" lon="9.3092651"><ele>1128.0</ele><time>2026-03-29T14:09:11.307Z</time></trkpt><trkpt lat="44.7936244" lon="9.3094071"><ele>1128.0</ele><time>2026-03-29T14:09:12.312Z</time></trkpt><trkpt lat="44.7936474" lon="9.3097256"><ele>1131.0</ele><time>2026-03-29T14:09:14.358Z</time></trkpt><trkpt lat="44.7937941" lon="9.3100683"><ele>1134.0</ele><time>2026-03-29T14:09:16.326Z</time></trkpt><trkpt lat="44.793905" lon="9.3102451"><ele>1137.6666666666667</ele><time>2026-03-29T14:09:17.334Z</time></trkpt><trkpt lat="44.7941246" lon="9.3105811"><ele>1141.3333333333335</ele><time>2026-03-29T14:09:19.327Z</time></trkpt><trkpt lat="44.7942049" lon="9.3107153"><ele>1145.0</ele><time>2026-03-29T14:09:20.339Z</time></trkpt><trkpt lat="44.7942884" lon="9.3109549"><ele>1145.0</ele><time>2026-03-29T14:09:22.331Z</time></trkpt><trkpt lat="44.7942682" lon="9.3111776"><ele>1145.0</ele><time>2026-03-29T14:09:24.343Z</time></trkpt><trkpt lat="44.7942766" lon="9.3113491"><ele>1145.0</ele><time>2026-03-29T14:09:26.347Z</time></trkpt><trkpt lat="44.7943852" lon="9.3114033"><ele>1145.0</ele><time>2026-03-29T14:09:28.337Z</time></trkpt><trkpt lat="44.7944676" lon="9.311365"><ele>1142.3333333333335</ele><time>2026-03-29T14:09:29.348Z</time></trkpt><trkpt lat="44.7946924" lon="9.3111726"><ele>1139.6666666666667</ele><time>2026-03-29T14:09:31.331Z</time></trkpt><trkpt lat="44.7948279" lon="9.3110311"><ele>1137.0</ele><time>2026-03-29T14:09:32.33Z</time></trkpt><trkpt lat="44.7949754" lon="9.3108768"><ele>1132.5</ele><time>2026-03-29T14:09:33.343Z</time></trkpt><trkpt lat="44.7952724" lon="9.3106128"><ele>1128.0</ele><time>2026-03-29T14:09:35.362Z</time></trkpt><trkpt lat="44.7954087" lon="9.3104961"><ele>1128.0</ele><time>2026-03-29T14:09:36.367Z</time></trkpt><trkpt lat="44.7956379" lon="9.3102846"><ele>1128.0</ele><time>2026-03-29T14:09:38.349Z</time></trkpt><trkpt lat="44.795884" lon="9.3101598"><ele>1129.3333333333333</ele><time>2026-03-29T14:09:40.336Z</time></trkpt><trkpt lat="44.7961599" lon="9.3100701"><ele>1130.6666666666665</ele><time>2026-03-29T14:09:42.339Z</time></trkpt><trkpt lat="44.7963171" lon="9.3100511"><ele>1132.0</ele><time>2026-03-29T14:09:43.353Z</time></trkpt><trkpt lat="44.7964799" lon="9.3100558"><ele>1132.0</ele><time>2026-03-29T14:09:44.358Z</time></trkpt><trkpt lat="44.7967979" lon="9.3100708"><ele>1132.0</ele><time>2026-03-29T14:09:46.341Z</time></trkpt><trkpt lat="44.7969432" lon="9.3100691"><ele>1128.5</ele><time>2026-03-29T14:09:47.363Z</time></trkpt><trkpt lat="44.7972004" lon="9.3100833"><ele>1125.0</ele><time>2026-03-29T14:09:49.359Z</time></trkpt><trkpt lat="44.7974667" lon="9.3101964"><ele>1117.5</ele><time>2026-03-29T14:09:51.342Z</time></trkpt><trkpt lat="44.7977599" lon="9.3103863"><ele>1110.0</ele><time>2026-03-29T14:09:53.341Z</time></trkpt><trkpt lat="44.7978925" lon="9.3104994"><ele>1122.5</ele><time>2026-03-29T14:09:54.358Z</time></trkpt><trkpt lat="44.7981856" lon="9.3106541"><ele>1135.0</ele><time>2026-03-29T14:09:56.353Z</time></trkpt><trkpt lat="44.7983434" lon="9.3107034"><ele>1135.0</ele><time>2026-03-29T14:09:57.354Z</time></trkpt><trkpt lat="44.7984917" lon="9.3107631"><ele>1135.0</ele><time>2026-03-29T14:09:58.373Z</time></trkpt><trkpt lat="44.7987287" lon="9.3109016"><ele>1135.0</ele><time>2026-03-29T14:10:00.343Z</time></trkpt><trkpt lat="44.7988594" lon="9.3109299"><ele>1130.6666666666665</ele><time>2026-03-29T14:10:01.376Z</time></trkpt><trkpt lat="44.7991342" lon="9.3109316"><ele>1126.3333333333333</ele><time>2026-03-29T14:10:03.338Z</time></trkpt><trkpt lat="44.7992569" lon="9.3109746"><ele>1122.0</ele><time>2026-03-29T14:10:04.352Z</time></trkpt><trkpt lat="44.7994642" lon="9.3112026"><ele>1119.0</ele><time>2026-03-29T14:10:06.354Z</time></trkpt><trkpt lat="44.799569" lon="9.3115729"><ele>1116.0</ele><time>2026-03-29T14:10:08.34Z</time></trkpt><trkpt lat="44.7996107" lon="9.3117658"><ele>1113.0</ele><time>2026-03-29T14:10:09.429Z</time></trkpt><trkpt lat="44.7997312" lon="9.3120629"><ele>1113.0</ele><time>2026-03-29T14:10:11.346Z</time></trkpt><trkpt lat="44.7998899" lon="9.3122324"><ele>1113.0</ele><time>2026-03-29T14:10:13.322Z</time></trkpt><trkpt lat="44.7999604" lon="9.3123253"><ele>1113.0</ele><time>2026-03-29T14:10:14.325Z</time></trkpt><trkpt lat="44.800023" lon="9.3124224"><ele>1113.0</ele><time>2026-03-29T14:10:15.336Z</time></trkpt><trkpt lat="44.8001249" lon="9.3126059"><ele>1111.8</ele><time>2026-03-29T14:10:17.324Z</time></trkpt><trkpt lat="44.8001702" lon="9.3126928"><ele>1110.6</ele><time>2026-03-29T14:10:18.35Z</time></trkpt><trkpt lat="44.8002439" lon="9.3128579"><ele>1109.4</ele><time>2026-03-29T14:10:20.353Z</time></trkpt><trkpt lat="44.8003035" lon="9.3130001"><ele>1108.2</ele><time>2026-03-29T14:10:22.334Z</time></trkpt><trkpt lat="44.8003421" lon="9.3130936"><ele>1107.0</ele><time>2026-03-29T14:10:24.357Z</time></trkpt><trkpt lat="44.8003467" lon="9.3132156"><ele>1107.0</ele><time>2026-03-29T14:10:39.329Z</time></trkpt><trkpt lat="44.8003839" lon="9.3133134"><ele>1107.0</ele><time>2026-03-29T14:10:42.329Z</time></trkpt><trkpt lat="44.8004545" lon="9.313418"><ele>1107.0</ele><time>2026-03-29T14:11:48.353Z</time></trkpt><trkpt lat="44.8004954" lon="9.3135511"><ele>1107.0</ele><time>2026-03-29T14:11:50.349Z</time></trkpt><trkpt lat="44.8004236" lon="9.3136804"><ele>1107.0</ele><time>2026-03-29T14:11:54.337Z</time></trkpt><trkpt lat="44.8003707" lon="9.3137374"><ele>1107.0</ele><time>2026-03-29T14:11:55.342Z</time></trkpt><trkpt lat="44.8002772" lon="9.3138618"><ele>1107.0</ele><time>2026-03-29T14:11:57.325Z</time></trkpt><trkpt lat="44.8002344" lon="9.3139423"><ele>1107.0</ele><time>2026-03-29T14:11:58.328Z</time></trkpt><trkpt lat="44.8001812" lon="9.3141441"><ele>1107.0</ele><time>2026-03-29T14:12:00.318Z</time></trkpt><trkpt lat="44.8001622" lon="9.3144003"><ele>1111.5</ele><time>2026-03-29T14:12:02.314Z</time></trkpt><trkpt lat="44.8001487" lon="9.3145381"><ele>1116.0</ele><time>2026-03-29T14:12:03.339Z</time></trkpt><trkpt lat="44.8000554" lon="9.3147606"><ele>1120.5</ele><time>2026-03-29T14:12:05.325Z</time></trkpt><trkpt lat="44.7999862" lon="9.3148546"><ele>1125.0</ele><time>2026-03-29T14:12:06.327Z</time></trkpt><trkpt lat="44.7998654" lon="9.3151084"><ele>1125.0</ele><time>2026-03-29T14:12:08.32Z</time></trkpt><trkpt lat="44.7998384" lon="9.3152774"><ele>1125.0</ele><time>2026-03-29T14:12:09.322Z</time></trkpt><trkpt lat="44.7998292" lon="9.3154571"><ele>1125.0</ele><time>2026-03-29T14:12:10.332Z</time></trkpt><trkpt lat="44.7997927" lon="9.3157951"><ele>1122.0</ele><time>2026-03-29T14:12:12.318Z</time></trkpt><trkpt lat="44.7997109" lon="9.3160913"><ele>1119.0</ele><time>2026-03-29T14:12:14.326Z</time></trkpt><trkpt lat="44.7996577" lon="9.3162271"><ele>1116.0</ele><time>2026-03-29T14:12:15.352Z</time></trkpt><trkpt lat="44.7995454" lon="9.3165041"><ele>1113.5</ele><time>2026-03-29T14:12:17.323Z</time></trkpt><trkpt lat="44.7995052" lon="9.3168283"><ele>1111.0</ele><time>2026-03-29T14:12:19.318Z</time></trkpt><trkpt lat="44.7995861" lon="9.3171701"><ele>1111.3333333333333</ele><time>2026-03-29T14:12:21.311Z</time></trkpt><trkpt lat="44.7996129" lon="9.3175441"><ele>1111.6666666666667</ele><time>2026-03-29T14:12:23.305Z</time></trkpt><trkpt lat="44.7996029" lon="9.3177621"><ele>1112.0</ele><time>2026-03-29T14:12:24.309Z</time></trkpt><trkpt lat="44.7995947" lon="9.3179749"><ele>1111.6666666666667</ele><time>2026-03-29T14:12:25.331Z</time></trkpt><trkpt lat="44.7995805" lon="9.3181664"><ele>1111.3333333333333</ele><time>2026-03-29T14:12:26.337Z</time></trkpt><trkpt lat="44.7994914" lon="9.3184665"><ele>1111.0</ele><time>2026-03-29T14:12:28.337Z</time></trkpt><trkpt lat="44.7993094" lon="9.3186713"><ele>1115.0</ele><time>2026-03-29T14:12:30.326Z</time></trkpt><trkpt lat="44.7991922" lon="9.3187849"><ele>1119.0</ele><time>2026-03-29T14:12:31.333Z</time></trkpt><trkpt lat="44.7990797" lon="9.3189236"><ele>1123.0</ele><time>2026-03-29T14:12:32.343Z</time></trkpt><trkpt lat="44.7989837" lon="9.3190613"><ele>1127.0</ele><time>2026-03-29T14:12:33.358Z</time></trkpt><trkpt lat="44.7987977" lon="9.319242"><ele>1127.0</ele><time>2026-03-29T14:12:35.317Z</time></trkpt><trkpt lat="44.7987037" lon="9.3192796"><ele>1127.0</ele><time>2026-03-29T14:12:36.323Z</time></trkpt><trkpt lat="44.7986102" lon="9.3193043"><ele>1127.0</ele><time>2026-03-29T14:12:37.324Z</time></trkpt><trkpt lat="44.798413" lon="9.3193891"><ele>1127.0</ele><time>2026-03-29T14:12:39.326Z</time></trkpt><trkpt lat="44.7982786" lon="9.3195751"><ele>1126.4</ele><time>2026-03-29T14:12:41.316Z</time></trkpt><trkpt lat="44.7982714" lon="9.3196813"><ele>1125.8000000000002</ele><time>2026-03-29T14:12:42.316Z</time></trkpt><trkpt lat="44.7983014" lon="9.3197798"><ele>1125.2</ele><time>2026-03-29T14:12:43.321Z</time></trkpt><trkpt lat="44.7983807" lon="9.3198633"><ele>1124.6000000000001</ele><time>2026-03-29T14:12:44.322Z</time></trkpt><trkpt lat="44.7984945" lon="9.3199494"><ele>1124.0</ele><time>2026-03-29T14:12:45.323Z</time></trkpt><trkpt lat="44.7986286" lon="9.3200464"><ele>1124.0</ele><time>2026-03-29T14:12:46.344Z</time></trkpt><trkpt lat="44.7988572" lon="9.3202343"><ele>1124.0</ele><time>2026-03-29T14:12:48.317Z</time></trkpt><trkpt lat="44.7989882" lon="9.320449"><ele>1124.25</ele><time>2026-03-29T14:12:50.322Z</time></trkpt><trkpt lat="44.7990159" lon="9.3206171"><ele>1124.5</ele><time>2026-03-29T14:12:51.333Z</time></trkpt><trkpt lat="44.7990352" lon="9.3209503"><ele>1124.75</ele><time>2026-03-29T14:12:53.315Z</time></trkpt><trkpt lat="44.7989999" lon="9.3210641"><ele>1125.0</ele><time>2026-03-29T14:12:54.318Z</time></trkpt><trkpt lat="44.7989287" lon="9.3211339"><ele>1125.0</ele><time>2026-03-29T14:12:55.323Z</time></trkpt><trkpt lat="44.7988399" lon="9.3211759"><ele>1125.0</ele><time>2026-03-29T14:12:56.331Z</time></trkpt><trkpt lat="44.7986155" lon="9.3213318"><ele>1125.0</ele><time>2026-03-29T14:12:58.324Z</time></trkpt><trkpt lat="44.7983672" lon="9.3216343"><ele>1130.6666666666667</ele><time>2026-03-29T14:13:00.333Z</time></trkpt><trkpt lat="44.7981419" lon="9.3219123"><ele>1136.3333333333335</ele><time>2026-03-29T14:13:02.328Z</time></trkpt><trkpt lat="44.7980222" lon="9.322017"><ele>1142.0</ele><time>2026-03-29T14:13:03.339Z</time></trkpt><trkpt lat="44.7977724" lon="9.3221971"><ele>1142.6666666666667</ele><time>2026-03-29T14:13:05.34Z</time></trkpt><trkpt lat="44.7975447" lon="9.3222585"><ele>1143.3333333333333</ele><time>2026-03-29T14:13:07.328Z</time></trkpt><trkpt lat="44.7974509" lon="9.3223071"><ele>1144.0</ele><time>2026-03-29T14:13:08.367Z</time></trkpt><trkpt lat="44.7973589" lon="9.3225498"><ele>1144.0</ele><time>2026-03-29T14:13:10.323Z</time></trkpt><trkpt lat="44.7973322" lon="9.3229403"><ele>1144.0</ele><time>2026-03-29T14:13:12.316Z</time></trkpt><trkpt lat="44.7972932" lon="9.3233851"><ele>1138.5</ele><time>2026-03-29T14:13:14.335Z</time></trkpt><trkpt lat="44.7972735" lon="9.3236001"><ele>1133.0</ele><time>2026-03-29T14:13:15.339Z</time></trkpt><trkpt lat="44.7971766" lon="9.3240076"><ele>1131.0</ele><time>2026-03-29T14:13:17.326Z</time></trkpt><trkpt lat="44.7970975" lon="9.3241983"><ele>1129.0</ele><time>2026-03-29T14:13:18.359Z</time></trkpt><trkpt lat="44.7969607" lon="9.3245391"><ele>1127.0</ele><time>2026-03-29T14:13:20.333Z</time></trkpt><trkpt lat="44.7969479" lon="9.3247018"><ele>1125.0</ele><time>2026-03-29T14:13:21.344Z</time></trkpt><trkpt lat="44.7969989" lon="9.3250203"><ele>1123.0</ele><time>2026-03-29T14:13:23.327Z</time></trkpt><trkpt lat="44.7969607" lon="9.3253683"><ele>1139.5</ele><time>2026-03-29T14:13:25.32Z</time></trkpt><trkpt lat="44.7967884" lon="9.3256569"><ele>1156.0</ele><time>2026-03-29T14:13:27.32Z</time></trkpt><trkpt lat="44.7966634" lon="9.3259156"><ele>1156.0</ele><time>2026-03-29T14:13:29.312Z</time></trkpt><trkpt lat="44.796663" lon="9.3260699"><ele>1156.0</ele><time>2026-03-29T14:13:30.321Z</time></trkpt><trkpt lat="44.7967732" lon="9.3263933"><ele>1156.0</ele><time>2026-03-29T14:13:32.317Z</time></trkpt><trkpt lat="44.7968077" lon="9.3265516"><ele>1155.6666666666665</ele><time>2026-03-29T14:13:33.323Z</time></trkpt><trkpt lat="44.7967417" lon="9.3268523"><ele>1155.3333333333333</ele><time>2026-03-29T14:13:35.319Z</time></trkpt><trkpt lat="44.7967784" lon="9.327147"><ele>1155.0</ele><time>2026-03-29T14:13:37.304Z</time></trkpt><trkpt lat="44.79684" lon="9.3272854"><ele>1150.4</ele><time>2026-03-29T14:13:38.311Z</time></trkpt><trkpt lat="44.7969022" lon="9.3274126"><ele>1145.8</ele><time>2026-03-29T14:13:39.314Z</time></trkpt><trkpt lat="44.7969619" lon="9.3275358"><ele>1141.2</ele><time>2026-03-29T14:13:40.317Z</time></trkpt><trkpt lat="44.7970186" lon="9.3276535"><ele>1136.6</ele><time>2026-03-29T14:13:41.32Z</time></trkpt><trkpt lat="44.7970934" lon="9.3277609"><ele>1132.0</ele><time>2026-03-29T14:13:42.323Z</time></trkpt><trkpt lat="44.7971522" lon="9.3278788"><ele>1132.0</ele><time>2026-03-29T14:13:43.331Z</time></trkpt><trkpt lat="44.7972044" lon="9.3279941"><ele>1132.0</ele><time>2026-03-29T14:13:44.337Z</time></trkpt><trkpt lat="44.7972391" lon="9.3281098"><ele>1132.0</ele><time>2026-03-29T14:13:45.346Z</time></trkpt><trkpt lat="44.797248" lon="9.3282108"><ele>1132.0</ele><time>2026-03-29T14:13:46.347Z</time></trkpt><trkpt lat="44.7971452" lon="9.3283053"><ele>1132.0</ele><time>2026-03-29T14:13:48.337Z</time></trkpt><trkpt lat="44.7970471" lon="9.3282938"><ele>1134.6666666666665</ele><time>2026-03-29T14:13:49.337Z</time></trkpt><trkpt lat="44.7969142" lon="9.3282704"><ele>1137.3333333333333</ele><time>2026-03-29T14:13:50.345Z</time></trkpt><trkpt lat="44.796758" lon="9.3282671"><ele>1140.0</ele><time>2026-03-29T14:13:51.361Z</time></trkpt><trkpt lat="44.7964904" lon="9.3284011"><ele>1140.3333333333333</ele><time>2026-03-29T14:13:53.323Z</time></trkpt><trkpt lat="44.7962951" lon="9.3286473"><ele>1140.6666666666665</ele><time>2026-03-29T14:13:55.324Z</time></trkpt><trkpt lat="44.7962165" lon="9.3287816"><ele>1141.0</ele><time>2026-03-29T14:13:56.343Z</time></trkpt><trkpt lat="44.7961427" lon="9.3290054"><ele>1141.0</ele><time>2026-03-29T14:13:58.325Z</time></trkpt><trkpt lat="44.7961792" lon="9.3291004"><ele>1141.0</ele><time>2026-03-29T14:13:59.333Z</time></trkpt><trkpt lat="44.7962472" lon="9.3291584"><ele>1141.0</ele><time>2026-03-29T14:14:00.34Z</time></trkpt><trkpt lat="44.7963934" lon="9.3290674"><ele>1141.0</ele><time>2026-03-29T14:14:02.327Z</time></trkpt><trkpt lat="44.7964409" lon="9.3289488"><ele>1141.0</ele><time>2026-03-29T14:14:03.329Z</time></trkpt><trkpt lat="44.7965669" lon="9.3287649"><ele>1139.6666666666665</ele><time>2026-03-29T14:14:05.326Z</time></trkpt><trkpt lat="44.7967657" lon="9.3288308"><ele>1138.3333333333333</ele><time>2026-03-29T14:14:07.307Z</time></trkpt><trkpt lat="44.7968851" lon="9.3289526"><ele>1137.0</ele><time>2026-03-29T14:14:08.314Z</time></trkpt><trkpt lat="44.7970084" lon="9.3290969"><ele>1137.0</ele><time>2026-03-29T14:14:09.336Z</time></trkpt><trkpt lat="44.7972599" lon="9.3293608"><ele>1137.0</ele><time>2026-03-29T14:14:11.323Z</time></trkpt><trkpt lat="44.7975299" lon="9.3294988"><ele>1137.0</ele><time>2026-03-29T14:14:13.312Z</time></trkpt><trkpt lat="44.7976551" lon="9.3295649"><ele>1137.0</ele><time>2026-03-29T14:14:14.317Z</time></trkpt><trkpt lat="44.7979104" lon="9.3297229"><ele>1137.0</ele><time>2026-03-29T14:14:16.326Z</time></trkpt><trkpt lat="44.7981462" lon="9.3298304"><ele>1138.3333333333333</ele><time>2026-03-29T14:14:18.317Z</time></trkpt><trkpt lat="44.7982655" lon="9.3299073"><ele>1139.6666666666665</ele><time>2026-03-29T14:14:19.327Z</time></trkpt><trkpt lat="44.7984567" lon="9.3301171"><ele>1141.0</ele><time>2026-03-29T14:14:21.324Z</time></trkpt><trkpt lat="44.7986249" lon="9.3303726"><ele>1141.0</ele><time>2026-03-29T14:14:23.31Z</time></trkpt><trkpt lat="44.7987007" lon="9.3305073"><ele>1141.0</ele><time>2026-03-29T14:14:24.328Z</time></trkpt><trkpt lat="44.7988294" lon="9.3308266"><ele>1141.0</ele><time>2026-03-29T14:14:26.322Z</time></trkpt><trkpt lat="44.798888" lon="9.3309964"><ele>1135.0</ele><time>2026-03-29T14:14:27.333Z</time></trkpt><trkpt lat="44.7990551" lon="9.3313549"><ele>1129.0</ele><time>2026-03-29T14:14:29.325Z</time></trkpt><trkpt lat="44.7991704" lon="9.3315248"><ele>1122.5</ele><time>2026-03-29T14:14:30.336Z</time></trkpt><trkpt lat="44.7994074" lon="9.3318459"><ele>1116.0</ele><time>2026-03-29T14:14:32.327Z</time></trkpt><trkpt lat="44.7996438" lon="9.3321228"><ele>1105.0</ele><time>2026-03-29T14:14:34.315Z</time></trkpt><trkpt lat="44.7999575" lon="9.332297"><ele>1094.0</ele><time>2026-03-29T14:14:36.321Z</time></trkpt><trkpt lat="44.8001166" lon="9.3323618"><ele>1096.6666666666667</ele><time>2026-03-29T14:14:37.323Z</time></trkpt><trkpt lat="44.8002606" lon="9.3324251"><ele>1099.3333333333333</ele><time>2026-03-29T14:14:38.327Z</time></trkpt><trkpt lat="44.8005371" lon="9.3325688"><ele>1102.0</ele><time>2026-03-29T14:14:40.316Z</time></trkpt><trkpt lat="44.8006696" lon="9.3326556"><ele>1102.0</ele><time>2026-03-29T14:14:41.327Z</time></trkpt><trkpt lat="44.8009217" lon="9.3328416"><ele>1102.0</ele><time>2026-03-29T14:14:43.316Z</time></trkpt><trkpt lat="44.8010391" lon="9.3329463"><ele>1102.0</ele><time>2026-03-29T14:14:44.319Z</time></trkpt><trkpt lat="44.80114" lon="9.3330791"><ele>1102.3333333333333</ele><time>2026-03-29T14:14:45.322Z</time></trkpt><trkpt lat="44.8012329" lon="9.3332349"><ele>1102.6666666666667</ele><time>2026-03-29T14:14:46.337Z</time></trkpt><trkpt lat="44.8014045" lon="9.3335464"><ele>1103.0</ele><time>2026-03-29T14:14:48.317Z</time></trkpt><trkpt lat="44.8015061" lon="9.3336609"><ele>1093.0</ele><time>2026-03-29T14:14:49.318Z</time></trkpt><trkpt lat="44.8016962" lon="9.333896"><ele>1083.0</ele><time>2026-03-29T14:14:51.32Z</time></trkpt><trkpt lat="44.8017589" lon="9.3342218"><ele>1083.0</ele><time>2026-03-29T14:14:53.332Z</time></trkpt><trkpt lat="44.8017485" lon="9.3345721"><ele>1083.0</ele><time>2026-03-29T14:14:55.327Z</time></trkpt><trkpt lat="44.8017815" lon="9.3347439"><ele>1083.0</ele><time>2026-03-29T14:14:56.329Z</time></trkpt><trkpt lat="44.8019417" lon="9.3351013"><ele>1079.0</ele><time>2026-03-29T14:14:58.321Z</time></trkpt><trkpt lat="44.802116" lon="9.3354583"><ele>1075.0</ele><time>2026-03-29T14:15:00.319Z</time></trkpt><trkpt lat="44.8022037" lon="9.3356218"><ele>1075.0</ele><time>2026-03-29T14:15:01.329Z</time></trkpt><trkpt lat="44.8023827" lon="9.3359656"><ele>1075.0</ele><time>2026-03-29T14:15:03.333Z</time></trkpt><trkpt lat="44.8025827" lon="9.3363208"><ele>1075.0</ele><time>2026-03-29T14:15:05.336Z</time></trkpt><trkpt lat="44.8028377" lon="9.3366826"><ele>1075.0</ele><time>2026-03-29T14:15:07.322Z</time></trkpt><trkpt lat="44.8029824" lon="9.3368606"><ele>1075.0</ele><time>2026-03-29T14:15:08.325Z</time></trkpt><trkpt lat="44.8032644" lon="9.3371909"><ele>1075.0</ele><time>2026-03-29T14:15:10.33Z</time></trkpt><trkpt lat="44.8035292" lon="9.337491"><ele>1066.6666666666665</ele><time>2026-03-29T14:15:12.323Z</time></trkpt><trkpt lat="44.8036495" lon="9.3376331"><ele>1058.3333333333333</ele><time>2026-03-29T14:15:13.325Z</time></trkpt><trkpt lat="44.8038281" lon="9.3379541"><ele>1050.0</ele><time>2026-03-29T14:15:15.316Z</time></trkpt><trkpt lat="44.803878" lon="9.3381464"><ele>1044.0</ele><time>2026-03-29T14:15:16.324Z</time></trkpt><trkpt lat="44.8038939" lon="9.3383461"><ele>1038.0</ele><time>2026-03-29T14:15:17.331Z</time></trkpt><trkpt lat="44.8038354" lon="9.3387036"><ele>1032.0</ele><time>2026-03-29T14:15:19.33Z</time></trkpt><trkpt lat="44.8037799" lon="9.3388606"><ele>1033.0</ele><time>2026-03-29T14:15:20.335Z</time></trkpt><trkpt lat="44.8036689" lon="9.3391966"><ele>1034.0</ele><time>2026-03-29T14:15:22.333Z</time></trkpt><trkpt lat="44.803613" lon="9.3393601"><ele>1035.0</ele><time>2026-03-29T14:15:23.341Z</time></trkpt><trkpt lat="44.8035634" lon="9.3395216"><ele>1037.0</ele><time>2026-03-29T14:15:24.354Z</time></trkpt><trkpt lat="44.8035317" lon="9.3398566"><ele>1039.0</ele><time>2026-03-29T14:15:26.313Z</time></trkpt><trkpt lat="44.8035697" lon="9.3400078"><ele>1041.0</ele><time>2026-03-29T14:15:27.321Z</time></trkpt><trkpt lat="44.8036512" lon="9.3401253"><ele>1041.0</ele><time>2026-03-29T14:15:28.337Z</time></trkpt><trkpt lat="44.8038757" lon="9.3402579"><ele>1041.0</ele><time>2026-03-29T14:15:30.328Z</time></trkpt><trkpt lat="44.8041081" lon="9.3403973"><ele>1038.0</ele><time>2026-03-29T14:15:32.341Z</time></trkpt><trkpt lat="44.8042671" lon="9.3406086"><ele>1035.0</ele><time>2026-03-29T14:15:34.323Z</time></trkpt><trkpt lat="44.8043014" lon="9.3407578"><ele>1032.0</ele><time>2026-03-29T14:15:35.324Z</time></trkpt><trkpt lat="44.8043042" lon="9.3409236"><ele>1029.0</ele><time>2026-03-29T14:15:36.325Z</time></trkpt><trkpt lat="44.8042849" lon="9.3411026"><ele>1022.5</ele><time>2026-03-29T14:15:37.335Z</time></trkpt><trkpt lat="44.8042369" lon="9.3414546"><ele>1016.0</ele><time>2026-03-29T14:15:39.315Z</time></trkpt><trkpt lat="44.8042467" lon="9.3418058"><ele>1016.0</ele><time>2026-03-29T14:15:41.318Z</time></trkpt><trkpt lat="44.8042985" lon="9.3419676"><ele>1016.0</ele><time>2026-03-29T14:15:42.328Z</time></trkpt><trkpt lat="44.804379" lon="9.3421066"><ele>1016.0</ele><time>2026-03-29T14:15:43.333Z</time></trkpt><trkpt lat="44.8044789" lon="9.3422191"><ele>1016.0</ele><time>2026-03-29T14:15:44.349Z</time></trkpt><trkpt lat="44.8046504" lon="9.3424568"><ele>1019.3333333333334</ele><time>2026-03-29T14:15:46.333Z</time></trkpt><trkpt lat="44.8046972" lon="9.342606"><ele>1022.6666666666667</ele><time>2026-03-29T14:15:47.332Z</time></trkpt><trkpt lat="44.804684" lon="9.3429161"><ele>1026.0</ele><time>2026-03-29T14:15:49.324Z</time></trkpt><trkpt lat="44.8045251" lon="9.3431559"><ele>1015.5</ele><time>2026-03-29T14:15:51.328Z</time></trkpt><trkpt lat="44.8042966" lon="9.3433448"><ele>1005.0</ele><time>2026-03-29T14:15:53.326Z</time></trkpt><trkpt lat="44.8040552" lon="9.3435523"><ele>1005.0</ele><time>2026-03-29T14:15:55.318Z</time></trkpt><trkpt lat="44.8039489" lon="9.3436644"><ele>1005.0</ele><time>2026-03-29T14:15:56.336Z</time></trkpt><trkpt lat="44.8037755" lon="9.343942"><ele>1005.0</ele><time>2026-03-29T14:15:58.344Z</time></trkpt><trkpt lat="44.8036934" lon="9.3442353"><ele>1005.25</ele><time>2026-03-29T14:16:00.333Z</time></trkpt><trkpt lat="44.8037059" lon="9.3443629"><ele>1005.5</ele><time>2026-03-29T14:16:01.338Z</time></trkpt><trkpt lat="44.8037697" lon="9.3444643"><ele>1005.75</ele><time>2026-03-29T14:16:02.339Z</time></trkpt><trkpt lat="44.8039769" lon="9.3445778"><ele>1006.0</ele><time>2026-03-29T14:16:04.331Z</time></trkpt><trkpt lat="44.8040867" lon="9.3446368"><ele>1003.3333333333333</ele><time>2026-03-29T14:16:05.342Z</time></trkpt><trkpt lat="44.8042117" lon="9.3448569"><ele>1000.6666666666667</ele><time>2026-03-29T14:16:07.33Z</time></trkpt><trkpt lat="44.8042301" lon="9.3450215"><ele>998.0</ele><time>2026-03-29T14:16:08.335Z</time></trkpt><trkpt lat="44.8042259" lon="9.3454476"><ele>993.3333333333334</ele><time>2026-03-29T14:16:10.328Z</time></trkpt><trkpt lat="44.8042277" lon="9.3456344"><ele>988.6666666666667</ele><time>2026-03-29T14:16:11.343Z</time></trkpt><trkpt lat="44.8042879" lon="9.3459341"><ele>984.0</ele><time>2026-03-29T14:16:13.329Z</time></trkpt><trkpt lat="44.8043806" lon="9.3460523"><ele>985.0</ele><time>2026-03-29T14:16:14.331Z</time></trkpt><trkpt lat="44.8046466" lon="9.3463131"><ele>986.0</ele><time>2026-03-29T14:16:16.329Z</time></trkpt><trkpt lat="44.8047751" lon="9.3464491"><ele>986.0</ele><time>2026-03-29T14:16:17.369Z</time></trkpt><trkpt lat="44.8050517" lon="9.3466534"><ele>986.0</ele><time>2026-03-29T14:16:19.325Z</time></trkpt><trkpt lat="44.8054004" lon="9.3467888"><ele>991.0</ele><time>2026-03-29T14:16:21.345Z</time></trkpt><trkpt lat="44.8056969" lon="9.3469011"><ele>996.0</ele><time>2026-03-29T14:16:23.316Z</time></trkpt><trkpt lat="44.8058299" lon="9.3469608"><ele>1001.0</ele><time>2026-03-29T14:16:24.321Z</time></trkpt><trkpt lat="44.8061309" lon="9.3471838"><ele>994.5</ele><time>2026-03-29T14:16:26.318Z</time></trkpt><trkpt lat="44.8064587" lon="9.3475413"><ele>988.0</ele><time>2026-03-29T14:16:28.317Z</time></trkpt><trkpt lat="44.8067154" lon="9.3478561"><ele>993.3333333333333</ele><time>2026-03-29T14:16:30.312Z</time></trkpt><trkpt lat="44.8068524" lon="9.3481791"><ele>998.6666666666667</ele><time>2026-03-29T14:16:32.316Z</time></trkpt><trkpt lat="44.8068566" lon="9.3483983"><ele>1004.0</ele><time>2026-03-29T14:16:33.323Z</time></trkpt><trkpt lat="44.8068027" lon="9.3488823"><ele>992.3333333333334</ele><time>2026-03-29T14:16:35.32Z</time></trkpt><trkpt lat="44.806766" lon="9.3491189"><ele>980.6666666666667</ele><time>2026-03-29T14:16:36.319Z</time></trkpt><trkpt lat="44.8067334" lon="9.3493523"><ele>969.0</ele><time>2026-03-29T14:16:37.328Z</time></trkpt><trkpt lat="44.806671" lon="9.3497629"><ele>969.0</ele><time>2026-03-29T14:16:39.341Z</time></trkpt><trkpt lat="44.8065345" lon="9.350039"><ele>969.0</ele><time>2026-03-29T14:16:41.33Z</time></trkpt><trkpt lat="44.8063014" lon="9.3501619"><ele>969.0</ele><time>2026-03-29T14:16:43.341Z</time></trkpt><trkpt lat="44.8061875" lon="9.3502116"><ele>969.0</ele><time>2026-03-29T14:16:44.345Z</time></trkpt><trkpt lat="44.806012" lon="9.3503994"><ele>969.0</ele><time>2026-03-29T14:16:46.325Z</time></trkpt><trkpt lat="44.8059637" lon="9.3505486"><ele>963.6666666666667</ele><time>2026-03-29T14:16:47.35Z</time></trkpt><trkpt lat="44.8059104" lon="9.3508338"><ele>958.3333333333334</ele><time>2026-03-29T14:16:49.337Z</time></trkpt><trkpt lat="44.8058661" lon="9.3510701"><ele>953.0</ele><time>2026-03-29T14:16:51.337Z</time></trkpt><trkpt lat="44.8058272" lon="9.3512833"><ele>954.6666666666667</ele><time>2026-03-29T14:16:53.328Z</time></trkpt><trkpt lat="44.8057872" lon="9.3514919"><ele>956.3333333333333</ele><time>2026-03-29T14:16:55.331Z</time></trkpt><trkpt lat="44.8057505" lon="9.3517258"><ele>958.0</ele><time>2026-03-29T14:16:57.323Z</time></trkpt><trkpt lat="44.8057452" lon="9.3519796"><ele>958.0</ele><time>2026-03-29T14:16:59.32Z</time></trkpt><trkpt lat="44.8057742" lon="9.3521066"><ele>958.0</ele><time>2026-03-29T14:17:00.327Z</time></trkpt><trkpt lat="44.8058202" lon="9.3522231"><ele>958.0</ele><time>2026-03-29T14:17:01.33Z</time></trkpt><trkpt lat="44.8058792" lon="9.3524594"><ele>958.0</ele><time>2026-03-29T14:17:03.318Z</time></trkpt><trkpt lat="44.805871" lon="9.3525893"><ele>957.0</ele><time>2026-03-29T14:17:04.331Z</time></trkpt><trkpt lat="44.8058057" lon="9.3528306"><ele>956.0</ele><time>2026-03-29T14:17:06.32Z</time></trkpt><trkpt lat="44.8057294" lon="9.3530824"><ele>955.0</ele><time>2026-03-29T14:17:08.329Z</time></trkpt><trkpt lat="44.8056269" lon="9.3533458"><ele>955.25</ele><time>2026-03-29T14:17:10.325Z</time></trkpt><trkpt lat="44.8054955" lon="9.3535881"><ele>955.5</ele><time>2026-03-29T14:17:12.315Z</time></trkpt><trkpt lat="44.8054227" lon="9.3537008"><ele>955.75</ele><time>2026-03-29T14:17:13.324Z</time></trkpt><trkpt lat="44.8053467" lon="9.3538143"><ele>956.0</ele><time>2026-03-29T14:17:14.323Z</time></trkpt><trkpt lat="44.8051869" lon="9.3540344"><ele>951.5</ele><time>2026-03-29T14:17:16.341Z</time></trkpt><trkpt lat="44.8050167" lon="9.3542259"><ele>947.0</ele><time>2026-03-29T14:17:18.32Z</time></trkpt><trkpt lat="44.804925" lon="9.3543216"><ele>942.5</ele><time>2026-03-29T14:17:19.321Z</time></trkpt><trkpt lat="44.8048329" lon="9.3544139"><ele>938.0</ele><time>2026-03-29T14:17:20.326Z</time></trkpt><trkpt lat="44.8046779" lon="9.3545799"><ele>938.0</ele><time>2026-03-29T14:17:22.321Z</time></trkpt><trkpt lat="44.8046247" lon="9.3546636"><ele>938.0</ele><time>2026-03-29T14:17:23.339Z</time></trkpt><trkpt lat="44.8045882" lon="9.354861"><ele>938.0</ele><time>2026-03-29T14:17:25.34Z</time></trkpt><trkpt lat="44.8046084" lon="9.3551084"><ele>938.0</ele><time>2026-03-29T14:17:27.324Z</time></trkpt><trkpt lat="44.8046052" lon="9.3553986"><ele>942.0</ele><time>2026-03-29T14:17:29.334Z</time></trkpt><trkpt lat="44.8045949" lon="9.3557086"><ele>946.0</ele><time>2026-03-29T14:17:31.333Z</time></trkpt><trkpt lat="44.8045679" lon="9.3559824"><ele>950.0</ele><time>2026-03-29T14:17:33.334Z</time></trkpt><trkpt lat="44.8044754" lon="9.3561711"><ele>950.0</ele><time>2026-03-29T14:17:35.353Z</time></trkpt><trkpt lat="44.8043385" lon="9.3562575"><ele>950.0</ele><time>2026-03-29T14:17:37.347Z</time></trkpt><trkpt lat="44.8042025" lon="9.356309"><ele>950.0</ele><time>2026-03-29T14:17:39.352Z</time></trkpt><trkpt lat="44.8040906" lon="9.3564246"><ele>950.0</ele><time>2026-03-29T14:17:41.353Z</time></trkpt><trkpt lat="44.8040397" lon="9.3566386"><ele>944.25</ele><time>2026-03-29T14:17:43.332Z</time></trkpt><trkpt lat="44.8040215" lon="9.3569131"><ele>938.5</ele><time>2026-03-29T14:17:45.329Z</time></trkpt><trkpt lat="44.8040159" lon="9.3570553"><ele>932.75</ele><time>2026-03-29T14:17:46.332Z</time></trkpt><trkpt lat="44.8040014" lon="9.3572004"><ele>927.0</ele><time>2026-03-29T14:17:47.346Z</time></trkpt><trkpt lat="44.803896" lon="9.3575883"><ele>927.5</ele><time>2026-03-29T14:17:49.337Z</time></trkpt><trkpt lat="44.8037054" lon="9.3580584"><ele>928.0</ele><time>2026-03-29T14:17:51.346Z</time></trkpt><trkpt lat="44.8035334" lon="9.3583959"><ele>922.75</ele><time>2026-03-29T14:17:53.335Z</time></trkpt><trkpt lat="44.8034727" lon="9.3585338"><ele>917.5</ele><time>2026-03-29T14:17:54.34Z</time></trkpt><trkpt lat="44.8033346" lon="9.3587006"><ele>912.25</ele><time>2026-03-29T14:17:56.323Z</time></trkpt><trkpt lat="44.8032451" lon="9.3587221"><ele>907.0</ele><time>2026-03-29T14:17:57.327Z</time></trkpt><trkpt lat="44.8031445" lon="9.3586915"><ele>907.0</ele><time>2026-03-29T14:17:58.331Z</time></trkpt><trkpt lat="44.8030375" lon="9.3586231"><ele>907.0</ele><time>2026-03-29T14:17:59.335Z</time></trkpt><trkpt lat="44.8029152" lon="9.3585579"><ele>907.0</ele><time>2026-03-29T14:18:00.337Z</time></trkpt><trkpt lat="44.8027589" lon="9.3585388"><ele>907.0</ele><time>2026-03-29T14:18:01.337Z</time></trkpt><trkpt lat="44.8023744" lon="9.3585638"><ele>902.3333333333333</ele><time>2026-03-29T14:18:03.323Z</time></trkpt><trkpt lat="44.8021899" lon="9.3585741"><ele>897.6666666666667</ele><time>2026-03-29T14:18:04.324Z</time></trkpt><trkpt lat="44.8020147" lon="9.3585913"><ele>893.0</ele><time>2026-03-29T14:18:05.343Z</time></trkpt><trkpt lat="44.8018515" lon="9.3586233"><ele>893.6666666666667</ele><time>2026-03-29T14:18:06.352Z</time></trkpt><trkpt lat="44.8015825" lon="9.3587928"><ele>894.3333333333333</ele><time>2026-03-29T14:18:08.326Z</time></trkpt><trkpt lat="44.8014859" lon="9.3589413"><ele>895.0</ele><time>2026-03-29T14:18:09.329Z</time></trkpt><trkpt lat="44.8014037" lon="9.3590936"><ele>895.0</ele><time>2026-03-29T14:18:10.345Z</time></trkpt><trkpt lat="44.8012274" lon="9.3593064"><ele>895.0</ele><time>2026-03-29T14:18:12.343Z</time></trkpt><trkpt lat="44.8010157" lon="9.3592646"><ele>895.0</ele><time>2026-03-29T14:18:14.324Z</time></trkpt><trkpt lat="44.8008916" lon="9.3591459"><ele>891.5</ele><time>2026-03-29T14:18:15.332Z</time></trkpt><trkpt lat="44.8006372" lon="9.3588856"><ele>888.0</ele><time>2026-03-29T14:18:17.331Z</time></trkpt><trkpt lat="44.8005209" lon="9.3587778"><ele>881.3333333333333</ele><time>2026-03-29T14:18:18.334Z</time></trkpt><trkpt lat="44.8004074" lon="9.3587038"><ele>874.6666666666666</ele><time>2026-03-29T14:18:19.335Z</time></trkpt><trkpt lat="44.8001644" lon="9.3587518"><ele>868.0</ele><time>2026-03-29T14:18:21.319Z</time></trkpt><trkpt lat="44.8000387" lon="9.3588356"><ele>870.6666666666666</ele><time>2026-03-29T14:18:22.327Z</time></trkpt><trkpt lat="44.7999135" lon="9.3588789"><ele>873.3333333333333</ele><time>2026-03-29T14:18:23.339Z</time></trkpt><trkpt lat="44.7996376" lon="9.3588356"><ele>876.0</ele><time>2026-03-29T14:18:25.32Z</time></trkpt><trkpt lat="44.7994979" lon="9.3588458"><ele>869.6666666666667</ele><time>2026-03-29T14:18:26.335Z</time></trkpt><trkpt lat="44.7992916" lon="9.3590228"><ele>863.3333333333334</ele><time>2026-03-29T14:18:28.32Z</time></trkpt><trkpt lat="44.7992546" lon="9.3591726"><ele>857.0</ele><time>2026-03-29T14:18:29.331Z</time></trkpt><trkpt lat="44.7993165" lon="9.3594996"><ele>856.3333333333334</ele><time>2026-03-29T14:18:31.322Z</time></trkpt><trkpt lat="44.7993597" lon="9.3596786"><ele>855.6666666666667</ele><time>2026-03-29T14:18:32.338Z</time></trkpt><trkpt lat="44.7993682" lon="9.3598888"><ele>855.0</ele><time>2026-03-29T14:18:33.34Z</time></trkpt><trkpt lat="44.7992474" lon="9.3603076"><ele>858.5</ele><time>2026-03-29T14:18:35.334Z</time></trkpt><trkpt lat="44.798991" lon="9.3606931"><ele>862.0</ele><time>2026-03-29T14:18:37.33Z</time></trkpt><trkpt lat="44.7988831" lon="9.3608649"><ele>862.0</ele><time>2026-03-29T14:18:38.331Z</time></trkpt><trkpt lat="44.7988104" lon="9.3610374"><ele>862.0</ele><time>2026-03-29T14:18:39.333Z</time></trkpt><trkpt lat="44.7987972" lon="9.361424"><ele>862.0</ele><time>2026-03-29T14:18:41.336Z</time></trkpt><trkpt lat="44.7988091" lon="9.3616423"><ele>861.5</ele><time>2026-03-29T14:18:42.341Z</time></trkpt><trkpt lat="44.7987852" lon="9.3620063"><ele>861.0</ele><time>2026-03-29T14:18:44.336Z</time></trkpt><trkpt lat="44.7986412" lon="9.3622234"><ele>861.6666666666667</ele><time>2026-03-29T14:18:46.322Z</time></trkpt><trkpt lat="44.7985129" lon="9.3622639"><ele>862.3333333333334</ele><time>2026-03-29T14:18:47.334Z</time></trkpt><trkpt lat="44.7982317" lon="9.3623431"><ele>863.0</ele><time>2026-03-29T14:18:49.329Z</time></trkpt><trkpt lat="44.7979909" lon="9.3626149"><ele>855.0</ele><time>2026-03-29T14:18:51.331Z</time></trkpt><trkpt lat="44.7978807" lon="9.3628206"><ele>847.0</ele><time>2026-03-29T14:18:52.333Z</time></trkpt><trkpt lat="44.7977792" lon="9.3630196"><ele>839.0</ele><time>2026-03-29T14:18:53.338Z</time></trkpt><trkpt lat="44.7976124" lon="9.3633448"><ele>835.3333333333334</ele><time>2026-03-29T14:18:55.327Z</time></trkpt><trkpt lat="44.7975369" lon="9.3634785"><ele>831.6666666666667</ele><time>2026-03-29T14:18:56.338Z</time></trkpt><trkpt lat="44.7974104" lon="9.3637043"><ele>828.0</ele><time>2026-03-29T14:18:58.353Z</time></trkpt><trkpt lat="44.7973206" lon="9.3638798"><ele>828.0</ele><time>2026-03-29T14:19:00.327Z</time></trkpt><trkpt lat="44.797245" lon="9.3640133"><ele>828.0</ele><time>2026-03-29T14:19:03.335Z</time></trkpt><trkpt lat="44.7971992" lon="9.3640808"><ele>828.0</ele><time>2026-03-29T14:19:06.331Z</time></trkpt><trkpt lat="44.797123" lon="9.3643261"><ele>828.0</ele><time>2026-03-29T14:20:35.342Z</time></trkpt><trkpt lat="44.7970049" lon="9.3646708"><ele>826.5</ele><time>2026-03-29T14:20:37.343Z</time></trkpt><trkpt lat="44.7969259" lon="9.3650846"><ele>825.0</ele><time>2026-03-29T14:20:39.345Z</time></trkpt><trkpt lat="44.7968622" lon="9.3654925"><ele>813.0</ele><time>2026-03-29T14:20:41.339Z</time></trkpt><trkpt lat="44.7967462" lon="9.3658888"><ele>801.0</ele><time>2026-03-29T14:20:43.357Z</time></trkpt><trkpt lat="44.7965567" lon="9.3662696"><ele>801.0</ele><time>2026-03-29T14:20:45.329Z</time></trkpt><trkpt lat="44.7964389" lon="9.3664421"><ele>801.0</ele><time>2026-03-29T14:20:46.343Z</time></trkpt><trkpt lat="44.7961727" lon="9.3667806"><ele>796.0</ele><time>2026-03-29T14:20:48.332Z</time></trkpt><trkpt lat="44.7959129" lon="9.3670986"><ele>791.0</ele><time>2026-03-29T14:20:50.331Z</time></trkpt><trkpt lat="44.7956605" lon="9.3674086"><ele>791.0</ele><time>2026-03-29T14:20:52.33Z</time></trkpt><trkpt lat="44.7954261" lon="9.3677638"><ele>791.0</ele><time>2026-03-29T14:20:54.335Z</time></trkpt><trkpt lat="44.7952971" lon="9.3681916"><ele>791.5</ele><time>2026-03-29T14:20:56.339Z</time></trkpt><trkpt lat="44.7952874" lon="9.3684154"><ele>792.0</ele><time>2026-03-29T14:20:57.359Z</time></trkpt><trkpt lat="44.7953707" lon="9.3688498"><ele>794.6666666666667</ele><time>2026-03-29T14:20:59.331Z</time></trkpt><trkpt lat="44.7954289" lon="9.3690564"><ele>797.3333333333334</ele><time>2026-03-29T14:21:00.348Z</time></trkpt><trkpt lat="44.7954655" lon="9.3692504"><ele>800.0</ele><time>2026-03-29T14:21:01.36Z</time></trkpt><trkpt lat="44.7953974" lon="9.3695608"><ele>791.3333333333334</ele><time>2026-03-29T14:21:03.332Z</time></trkpt><trkpt lat="44.7951579" lon="9.3697341"><ele>782.6666666666667</ele><time>2026-03-29T14:21:05.315Z</time></trkpt><trkpt lat="44.7950179" lon="9.3698076"><ele>774.0</ele><time>2026-03-29T14:21:06.322Z</time></trkpt><trkpt lat="44.7948749" lon="9.3698836"><ele>774.0</ele><time>2026-03-29T14:21:07.335Z</time></trkpt><trkpt lat="44.7947186" lon="9.3699698"><ele>774.0</ele><time>2026-03-29T14:21:08.337Z</time></trkpt><trkpt lat="44.7943827" lon="9.3701641"><ele>771.3333333333334</ele><time>2026-03-29T14:21:10.336Z</time></trkpt><trkpt lat="44.7942255" lon="9.3702524"><ele>768.6666666666667</ele><time>2026-03-29T14:21:11.347Z</time></trkpt><trkpt lat="44.7940825" lon="9.3703326"><ele>766.0</ele><time>2026-03-29T14:21:12.353Z</time></trkpt><trkpt lat="44.7938259" lon="9.3704606"><ele>766.0</ele><time>2026-03-29T14:21:14.346Z</time></trkpt><trkpt lat="44.7936035" lon="9.3705133"><ele>766.0</ele><time>2026-03-29T14:21:16.333Z</time></trkpt><trkpt lat="44.7934739" lon="9.3703691"><ele>766.0</ele><time>2026-03-29T14:21:18.338Z</time></trkpt><trkpt lat="44.7934909" lon="9.3700629"><ele>766.0</ele><time>2026-03-29T14:21:20.327Z</time></trkpt><trkpt lat="44.7935074" lon="9.3698338"><ele>766.0</ele><time>2026-03-29T14:21:21.336Z</time></trkpt><trkpt lat="44.7935019" lon="9.3693501"><ele>758.0</ele><time>2026-03-29T14:21:23.333Z</time></trkpt><trkpt lat="44.793467" lon="9.3689263"><ele>750.0</ele><time>2026-03-29T14:21:25.324Z</time></trkpt><trkpt lat="44.7934787" lon="9.3684685"><ele>755.0</ele><time>2026-03-29T14:21:27.328Z</time></trkpt><trkpt lat="44.7935134" lon="9.3679833"><ele>760.0</ele><time>2026-03-29T14:21:29.333Z</time></trkpt><trkpt lat="44.7935597" lon="9.3675073"><ele>757.5</ele><time>2026-03-29T14:21:31.333Z</time></trkpt><trkpt lat="44.7936545" lon="9.367011"><ele>755.0</ele><time>2026-03-29T14:21:33.342Z</time></trkpt><trkpt lat="44.7937414" lon="9.3664996"><ele>753.0</ele><time>2026-03-29T14:21:35.332Z</time></trkpt><trkpt lat="44.7937859" lon="9.3662526"><ele>751.0</ele><time>2026-03-29T14:21:36.334Z</time></trkpt><trkpt lat="44.7938591" lon="9.3660285"><ele>749.0</ele><time>2026-03-29T14:21:37.337Z</time></trkpt><trkpt lat="44.7940434" lon="9.3655848"><ele>742.0</ele><time>2026-03-29T14:21:39.346Z</time></trkpt><trkpt lat="44.7941621" lon="9.3650823"><ele>735.0</ele><time>2026-03-29T14:21:41.337Z</time></trkpt><trkpt lat="44.7941864" lon="9.3645764"><ele>732.5</ele><time>2026-03-29T14:21:43.335Z</time></trkpt><trkpt lat="44.7941394" lon="9.3640811"><ele>730.0</ele><time>2026-03-29T14:21:45.319Z</time></trkpt><trkpt lat="44.7940996" lon="9.3638305"><ele>730.0</ele><time>2026-03-29T14:21:46.322Z</time></trkpt><trkpt lat="44.794054" lon="9.3635791"><ele>730.0</ele><time>2026-03-29T14:21:47.342Z</time></trkpt><trkpt lat="44.7939514" lon="9.3630796"><ele>731.0</ele><time>2026-03-29T14:21:49.333Z</time></trkpt><trkpt lat="44.7939006" lon="9.3628446"><ele>732.0</ele><time>2026-03-29T14:21:50.34Z</time></trkpt><trkpt lat="44.7938042" lon="9.3623944"><ele>732.3333333333334</ele><time>2026-03-29T14:21:52.326Z</time></trkpt><trkpt lat="44.7937569" lon="9.3621778"><ele>732.6666666666667</ele><time>2026-03-29T14:21:53.333Z</time></trkpt><trkpt lat="44.793706" lon="9.3619566"><ele>733.0</ele><time>2026-03-29T14:21:54.34Z</time></trkpt><trkpt lat="44.7936525" lon="9.36173"><ele>734.0</ele><time>2026-03-29T14:21:55.341Z</time></trkpt><trkpt lat="44.793553" lon="9.3612671"><ele>735.0</ele><time>2026-03-29T14:21:57.342Z</time></trkpt><trkpt lat="44.7934682" lon="9.3608886"><ele>728.5</ele><time>2026-03-29T14:21:59.344Z</time></trkpt><trkpt lat="44.7932879" lon="9.3606941"><ele>722.0</ele><time>2026-03-29T14:22:01.345Z</time></trkpt><trkpt lat="44.7930279" lon="9.3607311"><ele>722.0</ele><time>2026-03-29T14:22:03.345Z</time></trkpt><trkpt lat="44.7928967" lon="9.3608448"><ele>722.0</ele><time>2026-03-29T14:22:04.346Z</time></trkpt><trkpt lat="44.7927594" lon="9.3610203"><ele>722.0</ele><time>2026-03-29T14:22:05.346Z</time></trkpt><trkpt lat="44.7926317" lon="9.3612171"><ele>717.5</ele><time>2026-03-29T14:22:06.353Z</time></trkpt><trkpt lat="44.792399" lon="9.3615446"><ele>713.0</ele><time>2026-03-29T14:22:08.345Z</time></trkpt><trkpt lat="44.7922727" lon="9.3616519"><ele>713.0</ele><time>2026-03-29T14:22:09.347Z</time></trkpt><trkpt lat="44.7921387" lon="9.3617058"><ele>713.0</ele><time>2026-03-29T14:22:10.356Z</time></trkpt><trkpt lat="44.791861" lon="9.3616181"><ele>713.0</ele><time>2026-03-29T14:22:12.351Z</time></trkpt><trkpt lat="44.7915902" lon="9.3612704"><ele>711.0</ele><time>2026-03-29T14:22:14.346Z</time></trkpt><trkpt lat="44.7914554" lon="9.3610533"><ele>709.0</ele><time>2026-03-29T14:22:15.37Z</time></trkpt><trkpt lat="44.7912067" lon="9.3606581"><ele>710.5</ele><time>2026-03-29T14:22:17.353Z</time></trkpt><trkpt lat="44.7910517" lon="9.3602363"><ele>712.0</ele><time>2026-03-29T14:22:19.336Z</time></trkpt><trkpt lat="44.790972" lon="9.3600208"><ele>706.0</ele><time>2026-03-29T14:22:20.335Z</time></trkpt><trkpt lat="44.7907314" lon="9.3596218"><ele>700.0</ele><time>2026-03-29T14:22:22.354Z</time></trkpt><trkpt lat="44.7904672" lon="9.3592751"><ele>700.0</ele><time>2026-03-29T14:22:24.336Z</time></trkpt><trkpt lat="44.7902219" lon="9.3589513"><ele>700.0</ele><time>2026-03-29T14:22:26.351Z</time></trkpt><trkpt lat="44.7899852" lon="9.3586723"><ele>696.3333333333334</ele><time>2026-03-29T14:22:28.328Z</time></trkpt><trkpt lat="44.7898602" lon="9.3585574"><ele>692.6666666666666</ele><time>2026-03-29T14:22:29.345Z</time></trkpt><trkpt lat="44.789719" lon="9.3584615"><ele>689.0</ele><time>2026-03-29T14:22:30.352Z</time></trkpt><trkpt lat="44.7893955" lon="9.3583785"><ele>683.5</ele><time>2026-03-29T14:22:32.34Z</time></trkpt><trkpt lat="44.7890592" lon="9.3584659"><ele>678.0</ele><time>2026-03-29T14:22:34.331Z</time></trkpt><trkpt lat="44.7888889" lon="9.3585398"><ele>678.0</ele><time>2026-03-29T14:22:35.341Z</time></trkpt><trkpt lat="44.7885941" lon="9.3586703"><ele>678.0</ele><time>2026-03-29T14:22:37.331Z</time></trkpt><trkpt lat="44.7884716" lon="9.3587106"><ele>678.0</ele><time>2026-03-29T14:22:38.335Z</time></trkpt><trkpt lat="44.7883595" lon="9.3587141"><ele>674.5</ele><time>2026-03-29T14:22:39.341Z</time></trkpt><trkpt lat="44.7881605" lon="9.3585473"><ele>671.0</ele><time>2026-03-29T14:22:41.349Z</time></trkpt><trkpt lat="44.7879465" lon="9.3582451"><ele>671.0</ele><time>2026-03-29T14:22:43.341Z</time></trkpt><trkpt lat="44.7878347" lon="9.3580849"><ele>671.0</ele><time>2026-03-29T14:22:44.361Z</time></trkpt><trkpt lat="44.7876932" lon="9.3577121"><ele>663.5</ele><time>2026-03-29T14:22:46.344Z</time></trkpt><trkpt lat="44.7876432" lon="9.3572318"><ele>656.0</ele><time>2026-03-29T14:22:48.335Z</time></trkpt><trkpt lat="44.7876227" lon="9.356742"><ele>654.5</ele><time>2026-03-29T14:22:50.34Z</time></trkpt><trkpt lat="44.7876082" lon="9.3565046"><ele>653.0</ele><time>2026-03-29T14:22:51.361Z</time></trkpt><trkpt lat="44.7875747" lon="9.3560686"><ele>653.0</ele><time>2026-03-29T14:22:53.333Z</time></trkpt><trkpt lat="44.7875542" lon="9.3558705"><ele>653.0</ele><time>2026-03-29T14:22:54.331Z</time></trkpt><trkpt lat="44.7875294" lon="9.3556951"><ele>653.0</ele><time>2026-03-29T14:22:55.339Z</time></trkpt><trkpt lat="44.7874104" lon="9.3554281"><ele>653.6666666666666</ele><time>2026-03-29T14:22:57.336Z</time></trkpt><trkpt lat="44.7873046" lon="9.3553713"><ele>654.3333333333334</ele><time>2026-03-29T14:22:58.342Z</time></trkpt><trkpt lat="44.787025" lon="9.3554424"><ele>655.0</ele><time>2026-03-29T14:23:00.355Z</time></trkpt><trkpt lat="44.7866449" lon="9.3556378"><ele>647.5</ele><time>2026-03-29T14:23:02.35Z</time></trkpt><trkpt lat="44.7864439" lon="9.3557361"><ele>640.0</ele><time>2026-03-29T14:23:03.354Z</time></trkpt><trkpt lat="44.7860969" lon="9.355911"><ele>637.0</ele><time>2026-03-29T14:23:05.337Z</time></trkpt><trkpt lat="44.7858367" lon="9.3561226"><ele>634.0</ele><time>2026-03-29T14:23:07.334Z</time></trkpt><trkpt lat="44.7857389" lon="9.3562816"><ele>632.6666666666667</ele><time>2026-03-29T14:23:08.335Z</time></trkpt><trkpt lat="44.7856491" lon="9.3564568"><ele>631.3333333333334</ele><time>2026-03-29T14:23:09.341Z</time></trkpt><trkpt lat="44.7855469" lon="9.3566196"><ele>630.0</ele><time>2026-03-29T14:23:10.344Z</time></trkpt><trkpt lat="44.7854177" lon="9.3567564"><ele>630.0</ele><time>2026-03-29T14:23:11.347Z</time></trkpt><trkpt lat="44.7852744" lon="9.3568765"><ele>630.0</ele><time>2026-03-29T14:23:12.345Z</time></trkpt><trkpt lat="44.7850215" lon="9.3570469"><ele>630.0</ele><time>2026-03-29T14:23:14.351Z</time></trkpt><trkpt lat="44.7848157" lon="9.3570233"><ele>628.25</ele><time>2026-03-29T14:23:16.351Z</time></trkpt><trkpt lat="44.7847224" lon="9.3569071"><ele>626.5</ele><time>2026-03-29T14:23:17.352Z</time></trkpt><trkpt lat="44.784631" lon="9.3567608"><ele>624.75</ele><time>2026-03-29T14:23:18.35Z</time></trkpt><trkpt lat="44.7845399" lon="9.3566274"><ele>623.0</ele><time>2026-03-29T14:23:19.355Z</time></trkpt><trkpt lat="44.784306" lon="9.3564646"><ele>621.0</ele><time>2026-03-29T14:23:21.369Z</time></trkpt><trkpt lat="44.7840051" lon="9.3564598"><ele>619.0</ele><time>2026-03-29T14:23:23.346Z</time></trkpt><trkpt lat="44.7837254" lon="9.3564939"><ele>619.0</ele><time>2026-03-29T14:23:25.344Z</time></trkpt><trkpt lat="44.7836105" lon="9.3565034"><ele>619.0</ele><time>2026-03-29T14:23:26.347Z</time></trkpt><trkpt lat="44.7835042" lon="9.356501"><ele>619.0</ele><time>2026-03-29T14:23:27.35Z</time></trkpt><trkpt lat="44.7833117" lon="9.3564513"><ele>619.0</ele><time>2026-03-29T14:23:29.34Z</time></trkpt><trkpt lat="44.7832281" lon="9.3563995"><ele>615.6666666666667</ele><time>2026-03-29T14:23:30.35Z</time></trkpt><trkpt lat="44.7831501" lon="9.3563443"><ele>612.3333333333334</ele><time>2026-03-29T14:23:31.354Z</time></trkpt><trkpt lat="44.7829771" lon="9.3562818"><ele>609.0</ele><time>2026-03-29T14:23:33.352Z</time></trkpt><trkpt lat="44.782798" lon="9.3563509"><ele>610.3333333333334</ele><time>2026-03-29T14:23:35.36Z</time></trkpt><trkpt lat="44.7827135" lon="9.3565541"><ele>611.6666666666667</ele><time>2026-03-29T14:23:37.345Z</time></trkpt><trkpt lat="44.7827712" lon="9.3568238"><ele>613.0</ele><time>2026-03-29T14:23:39.341Z</time></trkpt><trkpt lat="44.7828359" lon="9.3569783"><ele>613.0</ele><time>2026-03-29T14:23:40.345Z</time></trkpt><trkpt lat="44.7829065" lon="9.3571346"><ele>613.0</ele><time>2026-03-29T14:23:41.393Z</time></trkpt><trkpt lat="44.7830502" lon="9.3574291"><ele>613.0</ele><time>2026-03-29T14:23:43.352Z</time></trkpt><trkpt lat="44.7831109" lon="9.3577108"><ele>610.6666666666667</ele><time>2026-03-29T14:23:45.338Z</time></trkpt><trkpt lat="44.7830731" lon="9.3578401"><ele>608.3333333333334</ele><time>2026-03-29T14:23:46.345Z</time></trkpt><trkpt lat="44.7828884" lon="9.3580708"><ele>606.0</ele><time>2026-03-29T14:23:48.347Z</time></trkpt><trkpt lat="44.7827721" lon="9.3581934"><ele>600.3333333333334</ele><time>2026-03-29T14:23:49.349Z</time></trkpt><trkpt lat="44.7826654" lon="9.3583155"><ele>594.6666666666667</ele><time>2026-03-29T14:23:50.349Z</time></trkpt><trkpt lat="44.7825372" lon="9.3585806"><ele>589.0</ele><time>2026-03-29T14:23:52.34Z</time></trkpt><trkpt lat="44.7825444" lon="9.3587231"><ele>589.6666666666667</ele><time>2026-03-29T14:23:53.378Z</time></trkpt><trkpt lat="44.7827011" lon="9.3589926"><ele>590.3333333333334</ele><time>2026-03-29T14:23:55.344Z</time></trkpt><trkpt lat="44.7828051" lon="9.3591328"><ele>591.0</ele><time>2026-03-29T14:23:56.356Z</time></trkpt><trkpt lat="44.7829631" lon="9.3594373"><ele>586.5</ele><time>2026-03-29T14:23:58.388Z</time></trkpt><trkpt lat="44.7829659" lon="9.3597696"><ele>582.0</ele><time>2026-03-29T14:24:00.348Z</time></trkpt><trkpt lat="44.7828149" lon="9.3600279"><ele>579.0</ele><time>2026-03-29T14:24:02.345Z</time></trkpt><trkpt lat="44.7825841" lon="9.3600883"><ele>576.0</ele><time>2026-03-29T14:24:04.342Z</time></trkpt><trkpt lat="44.7822837" lon="9.3599638"><ele>576.0</ele><time>2026-03-29T14:24:06.329Z</time></trkpt><trkpt lat="44.7821221" lon="9.3598804"><ele>576.0</ele><time>2026-03-29T14:24:07.334Z</time></trkpt><trkpt lat="44.7819729" lon="9.3598046"><ele>576.0</ele><time>2026-03-29T14:24:08.337Z</time></trkpt><trkpt lat="44.7818405" lon="9.3597408"><ele>574.0</ele><time>2026-03-29T14:24:09.35Z</time></trkpt><trkpt lat="44.7816001" lon="9.3596396"><ele>572.0</ele><time>2026-03-29T14:24:11.334Z</time></trkpt><trkpt lat="44.7813845" lon="9.3595249"><ele>572.0</ele><time>2026-03-29T14:24:13.334Z</time></trkpt><trkpt lat="44.781292" lon="9.3594263"><ele>572.0</ele><time>2026-03-29T14:24:14.339Z</time></trkpt><trkpt lat="44.7811512" lon="9.3591699"><ele>572.0</ele><time>2026-03-29T14:24:16.335Z</time></trkpt><trkpt lat="44.7810784" lon="9.3590474"><ele>571.25</ele><time>2026-03-29T14:24:17.341Z</time></trkpt><trkpt lat="44.7809972" lon="9.3589451"><ele>570.5</ele><time>2026-03-29T14:24:18.343Z</time></trkpt><trkpt lat="44.7807964" lon="9.3588329"><ele>569.75</ele><time>2026-03-29T14:24:20.334Z</time></trkpt><trkpt lat="44.780683" lon="9.3588049"><ele>569.0</ele><time>2026-03-29T14:24:21.347Z</time></trkpt><trkpt lat="44.7804459" lon="9.3586913"><ele>569.0</ele><time>2026-03-29T14:24:23.33Z</time></trkpt><trkpt lat="44.7803352" lon="9.3585966"><ele>569.0</ele><time>2026-03-29T14:24:24.337Z</time></trkpt><trkpt lat="44.7801535" lon="9.3583349"><ele>569.0</ele><time>2026-03-29T14:24:26.338Z</time></trkpt><trkpt lat="44.780082" lon="9.3581721"><ele>563.5</ele><time>2026-03-29T14:24:27.342Z</time></trkpt><trkpt lat="44.7799602" lon="9.3578606"><ele>558.0</ele><time>2026-03-29T14:24:29.341Z</time></trkpt><trkpt lat="44.7797972" lon="9.3576019"><ele>558.0</ele><time>2026-03-29T14:24:31.334Z</time></trkpt><trkpt lat="44.7797104" lon="9.357481"><ele>558.0</ele><time>2026-03-29T14:24:32.339Z</time></trkpt><trkpt lat="44.7795119" lon="9.3572483"><ele>558.0</ele><time>2026-03-29T14:24:34.348Z</time></trkpt><trkpt lat="44.7792027" lon="9.3570309"><ele>555.0</ele><time>2026-03-29T14:24:36.346Z</time></trkpt><trkpt lat="44.7788712" lon="9.3568951"><ele>552.0</ele><time>2026-03-29T14:24:38.344Z</time></trkpt><trkpt lat="44.7787217" lon="9.3568491"><ele>549.0</ele><time>2026-03-29T14:24:39.352Z</time></trkpt><trkpt lat="44.7784411" lon="9.3567629"><ele>546.0</ele><time>2026-03-29T14:24:41.331Z</time></trkpt><trkpt lat="44.7783086" lon="9.3567251"><ele>543.0</ele><time>2026-03-29T14:24:42.354Z</time></trkpt><trkpt lat="44.7780476" lon="9.3566973"><ele>543.0</ele><time>2026-03-29T14:24:44.331Z</time></trkpt><trkpt lat="44.7779224" lon="9.3567079"><ele>543.0</ele><time>2026-03-29T14:24:45.332Z</time></trkpt><trkpt lat="44.7778037" lon="9.3567103"><ele>543.0</ele><time>2026-03-29T14:24:46.349Z</time></trkpt><trkpt lat="44.7776945" lon="9.3566768"><ele>543.0</ele><time>2026-03-29T14:24:47.347Z</time></trkpt><trkpt lat="44.7775047" lon="9.3564708"><ele>541.3333333333334</ele><time>2026-03-29T14:24:49.339Z</time></trkpt><trkpt lat="44.7774062" lon="9.3563058"><ele>539.6666666666667</ele><time>2026-03-29T14:24:50.345Z</time></trkpt><trkpt lat="44.7772987" lon="9.3561221"><ele>538.0</ele><time>2026-03-29T14:24:51.369Z</time></trkpt><trkpt lat="44.7771007" lon="9.3558344"><ele>538.0</ele><time>2026-03-29T14:24:53.329Z</time></trkpt><trkpt lat="44.7768545" lon="9.3557066"><ele>538.0</ele><time>2026-03-29T14:24:55.334Z</time></trkpt><trkpt lat="44.7767102" lon="9.3557103"><ele>538.0</ele><time>2026-03-29T14:24:56.351Z</time></trkpt><trkpt lat="44.7764348" lon="9.3557574"><ele>533.3333333333334</ele><time>2026-03-29T14:24:58.337Z</time></trkpt><trkpt lat="44.7762984" lon="9.3557506"><ele>528.6666666666666</ele><time>2026-03-29T14:24:59.347Z</time></trkpt><trkpt lat="44.7761579" lon="9.3557161"><ele>524.0</ele><time>2026-03-29T14:25:00.35Z</time></trkpt><trkpt lat="44.7758704" lon="9.3556071"><ele>521.3333333333333</ele><time>2026-03-29T14:25:02.342Z</time></trkpt><trkpt lat="44.7757375" lon="9.3555548"><ele>518.6666666666666</ele><time>2026-03-29T14:25:03.414Z</time></trkpt><trkpt lat="44.7755226" lon="9.3554701"><ele>516.0</ele><time>2026-03-29T14:25:05.351Z</time></trkpt><trkpt lat="44.7754357" lon="9.3554254"><ele>516.0</ele><time>2026-03-29T14:25:06.355Z</time></trkpt><trkpt lat="44.7753329" lon="9.3552588"><ele>516.0</ele><time>2026-03-29T14:25:08.347Z</time></trkpt><trkpt lat="44.7753157" lon="9.355128"><ele>516.0</ele><time>2026-03-29T14:25:09.354Z</time></trkpt><trkpt lat="44.7752695" lon="9.3548323"><ele>516.0</ele><time>2026-03-29T14:25:11.338Z</time></trkpt><trkpt lat="44.775207" lon="9.3547078"><ele>516.0</ele><time>2026-03-29T14:25:12.342Z</time></trkpt><trkpt lat="44.7750289" lon="9.3545951"><ele>516.0</ele><time>2026-03-29T14:25:14.336Z</time></trkpt><trkpt lat="44.7749354" lon="9.3546246"><ele>516.0</ele><time>2026-03-29T14:25:15.336Z</time></trkpt><trkpt lat="44.7748522" lon="9.3547144"><ele>511.33333333333337</ele><time>2026-03-29T14:25:16.342Z</time></trkpt><trkpt lat="44.7747606" lon="9.3550149"><ele>506.6666666666667</ele><time>2026-03-29T14:25:18.332Z</time></trkpt><trkpt lat="44.774765" lon="9.3551941"><ele>502.0</ele><time>2026-03-29T14:25:19.336Z</time></trkpt><trkpt lat="44.7747974" lon="9.3553886"><ele>500.5</ele><time>2026-03-29T14:25:20.352Z</time></trkpt><trkpt lat="44.7749017" lon="9.3558441"><ele>499.0</ele><time>2026-03-29T14:25:22.357Z</time></trkpt><trkpt lat="44.7750286" lon="9.3563633"><ele>497.0</ele><time>2026-03-29T14:25:24.341Z</time></trkpt><trkpt lat="44.7750895" lon="9.3566134"><ele>495.0</ele><time>2026-03-29T14:25:25.361Z</time></trkpt><trkpt lat="44.775201" lon="9.3570891"><ele>497.5</ele><time>2026-03-29T14:25:27.342Z</time></trkpt><trkpt lat="44.7752574" lon="9.3575391"><ele>500.0</ele><time>2026-03-29T14:25:29.339Z</time></trkpt><trkpt lat="44.7752554" lon="9.3577665"><ele>496.5</ele><time>2026-03-29T14:25:30.346Z</time></trkpt><trkpt lat="44.7752469" lon="9.3581601"><ele>493.0</ele><time>2026-03-29T14:25:32.351Z</time></trkpt><trkpt lat="44.7753555" lon="9.3584188"><ele>493.0</ele><time>2026-03-29T14:25:34.335Z</time></trkpt><trkpt lat="44.7754627" lon="9.3584914"><ele>493.0</ele><time>2026-03-29T14:25:35.343Z</time></trkpt><trkpt lat="44.7755772" lon="9.3585748"><ele>493.0</ele><time>2026-03-29T14:25:36.346Z</time></trkpt><trkpt lat="44.7756824" lon="9.3586938"><ele>493.0</ele><time>2026-03-29T14:25:37.345Z</time></trkpt><trkpt lat="44.7759066" lon="9.3590426"><ele>493.0</ele><time>2026-03-29T14:25:39.341Z</time></trkpt><trkpt lat="44.7761369" lon="9.359458"><ele>493.0</ele><time>2026-03-29T14:25:41.344Z</time></trkpt><trkpt lat="44.7763639" lon="9.3598254"><ele>490.5</ele><time>2026-03-29T14:25:43.355Z</time></trkpt><trkpt lat="44.7766311" lon="9.3600643"><ele>488.0</ele><time>2026-03-29T14:25:45.339Z</time></trkpt><trkpt lat="44.7767635" lon="9.3601488"><ele>490.66666666666663</ele><time>2026-03-29T14:25:46.355Z</time></trkpt><trkpt lat="44.776935" lon="9.3603481"><ele>493.33333333333337</ele><time>2026-03-29T14:25:48.347Z</time></trkpt><trkpt lat="44.7769754" lon="9.3604735"><ele>496.0</ele><time>2026-03-29T14:25:49.352Z</time></trkpt><trkpt lat="44.7769279" lon="9.3607604"><ele>492.0</ele><time>2026-03-29T14:25:51.342Z</time></trkpt><trkpt lat="44.7767496" lon="9.3610799"><ele>488.0</ele><time>2026-03-29T14:25:53.349Z</time></trkpt><trkpt lat="44.7766541" lon="9.3612279"><ele>484.0</ele><time>2026-03-29T14:25:54.351Z</time></trkpt><trkpt lat="44.7765504" lon="9.3615381"><ele>485.33333333333337</ele><time>2026-03-29T14:25:56.364Z</time></trkpt><trkpt lat="44.7766581" lon="9.3618696"><ele>486.66666666666663</ele><time>2026-03-29T14:25:58.339Z</time></trkpt><trkpt lat="44.7767759" lon="9.3620094"><ele>488.0</ele><time>2026-03-29T14:25:59.345Z</time></trkpt><trkpt lat="44.7769684" lon="9.3622841"><ele>488.0</ele><time>2026-03-29T14:26:01.343Z</time></trkpt><trkpt lat="44.7769776" lon="9.3626299"><ele>488.0</ele><time>2026-03-29T14:26:03.327Z</time></trkpt><trkpt lat="44.7769302" lon="9.362878"><ele>488.0</ele><time>2026-03-29T14:26:04.37Z</time></trkpt><trkpt lat="44.776843" lon="9.3634256"><ele>478.0</ele><time>2026-03-29T14:26:06.331Z</time></trkpt><trkpt lat="44.7768035" lon="9.3636691"><ele>468.0</ele><time>2026-03-29T14:26:07.344Z</time></trkpt><trkpt lat="44.7766799" lon="9.3641036"><ele>468.0</ele><time>2026-03-29T14:26:09.332Z</time></trkpt><trkpt lat="44.7765897" lon="9.3642939"><ele>468.0</ele><time>2026-03-29T14:26:10.333Z</time></trkpt><trkpt lat="44.776387" lon="9.3646714"><ele>469.0</ele><time>2026-03-29T14:26:12.329Z</time></trkpt><trkpt lat="44.7762837" lon="9.3648651"><ele>470.0</ele><time>2026-03-29T14:26:13.347Z</time></trkpt><trkpt lat="44.776092" lon="9.3652281"><ele>465.0</ele><time>2026-03-29T14:26:15.341Z</time></trkpt><trkpt lat="44.7759289" lon="9.365498"><ele>460.0</ele><time>2026-03-29T14:26:17.346Z</time></trkpt><trkpt lat="44.7757547" lon="9.3655598"><ele>455.0</ele><time>2026-03-29T14:26:19.348Z</time></trkpt><trkpt lat="44.77562" lon="9.3653679"><ele>455.0</ele><time>2026-03-29T14:26:21.329Z</time></trkpt><trkpt lat="44.7755919" lon="9.3652239"><ele>455.0</ele><time>2026-03-29T14:26:22.365Z</time></trkpt><trkpt lat="44.7754601" lon="9.3649683"><ele>455.0</ele><time>2026-03-29T14:26:24.333Z</time></trkpt><trkpt lat="44.7751982" lon="9.3647874"><ele>452.0</ele><time>2026-03-29T14:26:26.326Z</time></trkpt><trkpt lat="44.7750867" lon="9.3646526"><ele>449.0</ele><time>2026-03-29T14:26:27.332Z</time></trkpt><trkpt lat="44.775001" lon="9.3644668"><ele>446.0</ele><time>2026-03-29T14:26:28.337Z</time></trkpt><trkpt lat="44.7748499" lon="9.3640464"><ele>447.0</ele><time>2026-03-29T14:26:30.378Z</time></trkpt><trkpt lat="44.7746575" lon="9.3637599"><ele>448.0</ele><time>2026-03-29T14:26:32.332Z</time></trkpt><trkpt lat="44.7745154" lon="9.3636718"><ele>449.0</ele><time>2026-03-29T14:26:33.333Z</time></trkpt><trkpt lat="44.7743589" lon="9.3635921"><ele>444.0</ele><time>2026-03-29T14:26:34.35Z</time></trkpt><trkpt lat="44.7740657" lon="9.3634369"><ele>439.0</ele><time>2026-03-29T14:26:36.336Z</time></trkpt><trkpt lat="44.7739325" lon="9.3633878"><ele>439.0</ele><time>2026-03-29T14:26:37.346Z</time></trkpt><trkpt lat="44.7737951" lon="9.3633778"><ele>439.0</ele><time>2026-03-29T14:26:38.358Z</time></trkpt><trkpt lat="44.7735071" lon="9.3634938"><ele>439.0</ele><time>2026-03-29T14:26:40.353Z</time></trkpt><trkpt lat="44.7733631" lon="9.3635835"><ele>433.0</ele><time>2026-03-29T14:26:41.353Z</time></trkpt><trkpt lat="44.7731219" lon="9.3637391"><ele>427.0</ele><time>2026-03-29T14:26:43.363Z</time></trkpt><trkpt lat="44.7730005" lon="9.3639603"><ele>427.0</ele><time>2026-03-29T14:26:45.343Z</time></trkpt><trkpt lat="44.773025" lon="9.3642571"><ele>427.0</ele><time>2026-03-29T14:26:47.35Z</time></trkpt><trkpt lat="44.7730527" lon="9.3643976"><ele>427.0</ele><time>2026-03-29T14:26:48.349Z</time></trkpt><trkpt lat="44.7730822" lon="9.3645273"><ele>427.0</ele><time>2026-03-29T14:26:49.349Z</time></trkpt><trkpt lat="44.7731312" lon="9.3647743"><ele>426.5</ele><time>2026-03-29T14:26:51.344Z</time></trkpt><trkpt lat="44.7731437" lon="9.3649076"><ele>426.0</ele><time>2026-03-29T14:26:52.357Z</time></trkpt><trkpt lat="44.7730842" lon="9.3651665"><ele>425.5</ele><time>2026-03-29T14:26:54.334Z</time></trkpt><trkpt lat="44.7730182" lon="9.3652868"><ele>425.0</ele><time>2026-03-29T14:26:55.334Z</time></trkpt><trkpt lat="44.7729399" lon="9.3654239"><ele>423.66666666666663</ele><time>2026-03-29T14:26:56.339Z</time></trkpt><trkpt lat="44.772857" lon="9.3655766"><ele>422.33333333333337</ele><time>2026-03-29T14:26:57.354Z</time></trkpt><trkpt lat="44.7727128" lon="9.3659019"><ele>421.0</ele><time>2026-03-29T14:26:59.347Z</time></trkpt><trkpt lat="44.7726454" lon="9.3662816"><ele>419.0</ele><time>2026-03-29T14:27:01.333Z</time></trkpt><trkpt lat="44.7726357" lon="9.3664758"><ele>417.0</ele><time>2026-03-29T14:27:02.335Z</time></trkpt><trkpt lat="44.7726366" lon="9.3666568"><ele>415.0</ele><time>2026-03-29T14:27:03.353Z</time></trkpt><trkpt lat="44.7727289" lon="9.3669303"><ele>415.0</ele><time>2026-03-29T14:27:05.337Z</time></trkpt><trkpt lat="44.7729297" lon="9.3670813"><ele>415.0</ele><time>2026-03-29T14:27:07.328Z</time></trkpt><trkpt lat="44.7730356" lon="9.3671778"><ele>415.0</ele><time>2026-03-29T14:27:08.336Z</time></trkpt><trkpt lat="44.7731219" lon="9.3673093"><ele>413.0</ele><time>2026-03-29T14:27:09.355Z</time></trkpt><trkpt lat="44.7732122" lon="9.3676599"><ele>411.0</ele><time>2026-03-29T14:27:11.343Z</time></trkpt><trkpt lat="44.7731932" lon="9.3679924"><ele>414.0</ele><time>2026-03-29T14:27:13.339Z</time></trkpt><trkpt lat="44.7730316" lon="9.3682696"><ele>417.0</ele><time>2026-03-29T14:27:15.336Z</time></trkpt><trkpt lat="44.772835" lon="9.368579"><ele>417.0</ele><time>2026-03-29T14:27:17.325Z</time></trkpt><trkpt lat="44.7727446" lon="9.3687318"><ele>417.0</ele><time>2026-03-29T14:27:18.337Z</time></trkpt><trkpt lat="44.7726725" lon="9.3688893"><ele>417.0</ele><time>2026-03-29T14:27:19.338Z</time></trkpt><trkpt lat="44.7726002" lon="9.3692188"><ele>409.33333333333337</ele><time>2026-03-29T14:27:21.335Z</time></trkpt><trkpt lat="44.7725812" lon="9.3695553"><ele>401.6666666666667</ele><time>2026-03-29T14:27:23.336Z</time></trkpt><trkpt lat="44.7725737" lon="9.3697216"><ele>394.0</ele><time>2026-03-29T14:27:24.348Z</time></trkpt><trkpt lat="44.7725597" lon="9.3700323"><ele>392.6666666666667</ele><time>2026-03-29T14:27:26.331Z</time></trkpt><trkpt lat="44.7725654" lon="9.3703266"><ele>391.33333333333337</ele><time>2026-03-29T14:27:28.336Z</time></trkpt><trkpt lat="44.7726121" lon="9.3705884"><ele>390.0</ele><time>2026-03-29T14:27:30.336Z</time></trkpt><trkpt lat="44.7727184" lon="9.3708106"><ele>391.25</ele><time>2026-03-29T14:27:32.325Z</time></trkpt><trkpt lat="44.7727844" lon="9.3709163"><ele>392.5</ele><time>2026-03-29T14:27:33.326Z</time></trkpt><trkpt lat="44.772837" lon="9.3710338"><ele>393.75</ele><time>2026-03-29T14:27:34.354Z</time></trkpt><trkpt lat="44.7728675" lon="9.3712941"><ele>395.0</ele><time>2026-03-29T14:27:36.332Z</time></trkpt><trkpt lat="44.7728594" lon="9.3715936"><ele>395.0</ele><time>2026-03-29T14:27:38.332Z</time></trkpt><trkpt lat="44.7728697" lon="9.3717586"><ele>395.0</ele><time>2026-03-29T14:27:39.335Z</time></trkpt><trkpt lat="44.7728981" lon="9.3720716"><ele>395.0</ele><time>2026-03-29T14:27:41.311Z</time></trkpt><trkpt lat="44.772886" lon="9.3722278"><ele>393.3333333333333</ele><time>2026-03-29T14:27:42.324Z</time></trkpt><trkpt lat="44.7728501" lon="9.3723794"><ele>391.66666666666663</ele><time>2026-03-29T14:27:43.334Z</time></trkpt><trkpt lat="44.7727434" lon="9.3726866"><ele>390.0</ele><time>2026-03-29T14:27:45.318Z</time></trkpt><trkpt lat="44.7726884" lon="9.3728533"><ele>383.3333333333333</ele><time>2026-03-29T14:27:46.319Z</time></trkpt><trkpt lat="44.7726262" lon="9.3730268"><ele>376.66666666666663</ele><time>2026-03-29T14:27:47.327Z</time></trkpt><trkpt lat="44.7725619" lon="9.3732123"><ele>370.0</ele><time>2026-03-29T14:27:48.34Z</time></trkpt><trkpt lat="44.772426" lon="9.3735879"><ele>370.0</ele><time>2026-03-29T14:27:50.338Z</time></trkpt><trkpt lat="44.7723452" lon="9.3737484"><ele>370.0</ele><time>2026-03-29T14:27:51.343Z</time></trkpt><trkpt lat="44.7721241" lon="9.3739253"><ele>370.0</ele><time>2026-03-29T14:27:53.35Z</time></trkpt><trkpt lat="44.7718325" lon="9.3739718"><ele>366.66666666666663</ele><time>2026-03-29T14:27:55.329Z</time></trkpt><trkpt lat="44.7716932" lon="9.3739896"><ele>363.3333333333333</ele><time>2026-03-29T14:27:56.342Z</time></trkpt><trkpt lat="44.7714642" lon="9.3740914"><ele>360.0</ele><time>2026-03-29T14:27:58.339Z</time></trkpt><trkpt lat="44.7713434" lon="9.3743538"><ele>360.0</ele><time>2026-03-29T14:28:00.333Z</time></trkpt><trkpt lat="44.771315" lon="9.3745409"><ele>360.0</ele><time>2026-03-29T14:28:01.34Z</time></trkpt><trkpt lat="44.7712859" lon="9.3747333"><ele>360.0</ele><time>2026-03-29T14:28:02.343Z</time></trkpt><trkpt lat="44.7711804" lon="9.3750243"><ele>356.5</ele><time>2026-03-29T14:28:04.348Z</time></trkpt><trkpt lat="44.7709869" lon="9.3750996"><ele>353.0</ele><time>2026-03-29T14:28:06.342Z</time></trkpt><trkpt lat="44.7707214" lon="9.375072"><ele>353.0</ele><time>2026-03-29T14:28:08.337Z</time></trkpt><trkpt lat="44.770447" lon="9.3750378"><ele>353.0</ele><time>2026-03-29T14:28:10.363Z</time></trkpt><trkpt lat="44.7702164" lon="9.3751039"><ele>351.33333333333337</ele><time>2026-03-29T14:28:12.341Z</time></trkpt><trkpt lat="44.7701421" lon="9.3752083"><ele>349.6666666666667</ele><time>2026-03-29T14:28:13.347Z</time></trkpt><trkpt lat="44.7700436" lon="9.3755146"><ele>348.0</ele><time>2026-03-29T14:28:15.335Z</time></trkpt><trkpt lat="44.7699639" lon="9.3756598"><ele>347.6666666666667</ele><time>2026-03-29T14:28:16.344Z</time></trkpt><trkpt lat="44.7698581" lon="9.3757914"><ele>347.33333333333337</ele><time>2026-03-29T14:28:17.345Z</time></trkpt><trkpt lat="44.7696626" lon="9.376069"><ele>347.0</ele><time>2026-03-29T14:28:19.34Z</time></trkpt><trkpt lat="44.7695994" lon="9.3762423"><ele>347.33333333333337</ele><time>2026-03-29T14:28:20.342Z</time></trkpt><trkpt lat="44.7695575" lon="9.3764326"><ele>347.6666666666667</ele><time>2026-03-29T14:28:21.357Z</time></trkpt><trkpt lat="44.7694784" lon="9.3767656"><ele>348.0</ele><time>2026-03-29T14:28:23.348Z</time></trkpt><trkpt lat="44.7693154" lon="9.3770105"><ele>344.6666666666667</ele><time>2026-03-29T14:28:25.338Z</time></trkpt><trkpt lat="44.7692031" lon="9.3771249"><ele>341.33333333333337</ele><time>2026-03-29T14:28:26.34Z</time></trkpt><trkpt lat="44.7689697" lon="9.3773695"><ele>338.0</ele><time>2026-03-29T14:28:28.337Z</time></trkpt><trkpt lat="44.7688657" lon="9.3774863"><ele>338.0</ele><time>2026-03-29T14:28:29.346Z</time></trkpt><trkpt lat="44.7687182" lon="9.3777693"><ele>338.0</ele><time>2026-03-29T14:28:31.335Z</time></trkpt><trkpt lat="44.7686747" lon="9.3779533"><ele>338.0</ele><time>2026-03-29T14:28:32.341Z</time></trkpt><trkpt lat="44.7686282" lon="9.3781468"><ele>338.75</ele><time>2026-03-29T14:28:33.344Z</time></trkpt><trkpt lat="44.7685632" lon="9.3783336"><ele>339.5</ele><time>2026-03-29T14:28:34.346Z</time></trkpt><trkpt lat="44.7684799" lon="9.3785065"><ele>340.25</ele><time>2026-03-29T14:28:35.345Z</time></trkpt><trkpt lat="44.7683934" lon="9.3786633"><ele>341.0</ele><time>2026-03-29T14:28:36.345Z</time></trkpt><trkpt lat="44.7683256" lon="9.3788071"><ele>334.33333333333337</ele><time>2026-03-29T14:28:37.347Z</time></trkpt><trkpt lat="44.7682779" lon="9.3791116"><ele>327.6666666666667</ele><time>2026-03-29T14:28:39.352Z</time></trkpt><trkpt lat="44.768305" lon="9.3792711"><ele>321.0</ele><time>2026-03-29T14:28:40.357Z</time></trkpt><trkpt lat="44.7684034" lon="9.3796111"><ele>319.6666666666667</ele><time>2026-03-29T14:28:42.335Z</time></trkpt><trkpt lat="44.7684541" lon="9.3797954"><ele>318.33333333333337</ele><time>2026-03-29T14:28:43.35Z</time></trkpt><trkpt lat="44.7685144" lon="9.3801769"><ele>317.0</ele><time>2026-03-29T14:28:45.349Z</time></trkpt><trkpt lat="44.7685241" lon="9.3803681"><ele>318.6666666666667</ele><time>2026-03-29T14:28:46.353Z</time></trkpt><trkpt lat="44.7685312" lon="9.3805544"><ele>320.3333333333333</ele><time>2026-03-29T14:28:47.351Z</time></trkpt><trkpt lat="44.7685484" lon="9.3809099"><ele>322.0</ele><time>2026-03-29T14:28:49.344Z</time></trkpt><trkpt lat="44.7685579" lon="9.3810799"><ele>319.0</ele><time>2026-03-29T14:28:50.357Z</time></trkpt><trkpt lat="44.7685717" lon="9.3813924"><ele>316.0</ele><time>2026-03-29T14:28:52.337Z</time></trkpt><trkpt lat="44.7685789" lon="9.3815384"><ele>313.0</ele><time>2026-03-29T14:28:53.349Z</time></trkpt><trkpt lat="44.7686109" lon="9.381829"><ele>313.0</ele><time>2026-03-29T14:28:55.337Z</time></trkpt><trkpt lat="44.7687132" lon="9.3821471"><ele>313.0</ele><time>2026-03-29T14:28:57.343Z</time></trkpt><trkpt lat="44.768781" lon="9.3823041"><ele>313.0</ele><time>2026-03-29T14:28:58.343Z</time></trkpt><trkpt lat="44.768851" lon="9.3824556"><ele>311.3333333333333</ele><time>2026-03-29T14:28:59.348Z</time></trkpt><trkpt lat="44.7689877" lon="9.3827508"><ele>309.6666666666667</ele><time>2026-03-29T14:29:01.345Z</time></trkpt><trkpt lat="44.7690602" lon="9.382892"><ele>308.0</ele><time>2026-03-29T14:29:02.347Z</time></trkpt><trkpt lat="44.7691272" lon="9.3830309"><ele>308.0</ele><time>2026-03-29T14:29:03.351Z</time></trkpt><trkpt lat="44.7691924" lon="9.3831636"><ele>308.0</ele><time>2026-03-29T14:29:04.362Z</time></trkpt><trkpt lat="44.7693147" lon="9.3834246"><ele>308.0</ele><time>2026-03-29T14:29:06.334Z</time></trkpt><trkpt lat="44.7693734" lon="9.3835471"><ele>308.0</ele><time>2026-03-29T14:29:07.341Z</time></trkpt><trkpt lat="44.7694272" lon="9.3836663"><ele>308.0</ele><time>2026-03-29T14:29:08.346Z</time></trkpt><trkpt lat="44.7694773" lon="9.3837763"><ele>308.0</ele><time>2026-03-29T14:29:09.358Z</time></trkpt><trkpt lat="44.769525" lon="9.3838795"><ele>308.0</ele><time>2026-03-29T14:29:10.359Z</time></trkpt><trkpt lat="44.7695727" lon="9.3839788"><ele>308.0</ele><time>2026-03-29T14:29:11.359Z</time></trkpt><trkpt lat="44.7696632" lon="9.3841701"><ele>308.0</ele><time>2026-03-29T14:29:13.339Z</time></trkpt><trkpt lat="44.7697077" lon="9.3842633"><ele>305.0</ele><time>2026-03-29T14:29:14.347Z</time></trkpt><trkpt lat="44.7698004" lon="9.3844441"><ele>302.0</ele><time>2026-03-29T14:29:16.348Z</time></trkpt><trkpt lat="44.7699009" lon="9.3846443"><ele>299.0</ele><time>2026-03-29T14:29:18.351Z</time></trkpt><trkpt lat="44.7700037" lon="9.3848529"><ele>295.6666666666667</ele><time>2026-03-29T14:29:20.347Z</time></trkpt><trkpt lat="44.7701145" lon="9.3851216"><ele>292.3333333333333</ele><time>2026-03-29T14:29:22.339Z</time></trkpt><trkpt lat="44.7701429" lon="9.3852813"><ele>289.0</ele><time>2026-03-29T14:29:23.373Z</time></trkpt><trkpt lat="44.7701434" lon="9.3855364"><ele>288.0</ele><time>2026-03-29T14:29:25.347Z</time></trkpt><trkpt lat="44.7701062" lon="9.3856823"><ele>287.0</ele><time>2026-03-29T14:29:27.321Z</time></trkpt><trkpt lat="44.7700853" lon="9.3857684"><ele>286.0</ele><time>2026-03-29T14:29:29.34Z</time></trkpt><trkpt lat="44.7700884" lon="9.3859104"><ele>285.0</ele><time>2026-03-29T14:29:38.344Z</time></trkpt><trkpt lat="44.7701684" lon="9.3860203"><ele>284.0</ele><time>2026-03-29T14:29:40.351Z</time></trkpt><trkpt lat="44.7702394" lon="9.3860461"><ele>284.0</ele><time>2026-03-29T14:29:41.356Z</time></trkpt><trkpt lat="44.7704149" lon="9.386083"><ele>284.0</ele><time>2026-03-29T14:29:43.349Z</time></trkpt><trkpt lat="44.7705089" lon="9.3860973"><ele>284.0</ele><time>2026-03-29T14:29:44.348Z</time></trkpt><trkpt lat="44.7705986" lon="9.3861079"><ele>284.0</ele><time>2026-03-29T14:29:45.352Z</time></trkpt><trkpt lat="44.7707715" lon="9.3861478"><ele>284.0</ele><time>2026-03-29T14:29:47.339Z</time></trkpt><trkpt lat="44.7708515" lon="9.3861786"><ele>284.0</ele><time>2026-03-29T14:29:48.341Z</time></trkpt><trkpt lat="44.7710165" lon="9.3862363"><ele>284.0</ele><time>2026-03-29T14:29:50.332Z</time></trkpt><trkpt lat="44.7711037" lon="9.3862643"><ele>284.0</ele><time>2026-03-29T14:29:51.338Z</time></trkpt><trkpt lat="44.7711944" lon="9.3862923"><ele>284.0</ele><time>2026-03-29T14:29:52.341Z</time></trkpt><trkpt lat="44.7712872" lon="9.3863149"><ele>281.25</ele><time>2026-03-29T14:29:53.345Z</time></trkpt><trkpt lat="44.7714729" lon="9.3863596"><ele>278.5</ele><time>2026-03-29T14:29:55.345Z</time></trkpt><trkpt lat="44.7715589" lon="9.3863811"><ele>275.75</ele><time>2026-03-29T14:29:56.349Z</time></trkpt><trkpt lat="44.7717064" lon="9.3864258"><ele>273.0</ele><time>2026-03-29T14:29:58.348Z</time></trkpt><trkpt lat="44.771814" lon="9.3864916"><ele>272.6666666666667</ele><time>2026-03-29T14:30:00.336Z</time></trkpt><trkpt lat="44.7718889" lon="9.3865461"><ele>272.3333333333333</ele><time>2026-03-29T14:30:02.351Z</time></trkpt><trkpt lat="44.7719591" lon="9.3865709"><ele>272.0</ele><time>2026-03-29T14:30:04.367Z</time></trkpt><trkpt lat="44.7720294" lon="9.386592"><ele>271.66666666666663</ele><time>2026-03-29T14:30:06.342Z</time></trkpt><trkpt lat="44.7720919" lon="9.3866091"><ele>271.3333333333333</ele><time>2026-03-29T14:30:08.343Z</time></trkpt><trkpt lat="44.7721787" lon="9.3866188"><ele>271.0</ele><time>2026-03-29T14:46:20.343Z</time></trkpt><trkpt lat="44.7722489" lon="9.3866149"><ele>271.0</ele><time>2026-03-29T14:46:29.35Z</time></trkpt><trkpt lat="44.7723365" lon="9.3865798"><ele>271.0</ele><time>2026-03-29T14:46:31.341Z</time></trkpt><trkpt lat="44.7724152" lon="9.3865816"><ele>271.0</ele><time>2026-03-29T14:46:32.354Z</time></trkpt><trkpt lat="44.772506" lon="9.3866013"><ele>271.0</ele><time>2026-03-29T14:46:33.363Z</time></trkpt><trkpt lat="44.7727076" lon="9.3866519"><ele>270.0</ele><time>2026-03-29T14:46:35.346Z</time></trkpt><trkpt lat="44.7729297" lon="9.3867126"><ele>269.0</ele><time>2026-03-29T14:46:37.325Z</time></trkpt><trkpt lat="44.7730302" lon="9.3867361"><ele>268.0</ele><time>2026-03-29T14:46:38.348Z</time></trkpt><trkpt lat="44.7731215" lon="9.3867568"><ele>267.0</ele><time>2026-03-29T14:46:39.37Z</time></trkpt><trkpt lat="44.7733137" lon="9.3868036"><ele>263.0</ele><time>2026-03-29T14:46:41.353Z</time></trkpt><trkpt lat="44.774112" lon="9.3869216"><ele>276.0</ele><time>2026-03-29T14:46:47.348Z</time></trkpt><trkpt lat="44.7754171" lon="9.3886023"><ele>276.0</ele><time>2026-03-29T14:47:00.167Z</time></trkpt><trkpt lat="44.7754681" lon="9.3887871"><ele>276.0</ele><time>2026-03-29T14:47:01.167Z</time></trkpt><trkpt lat="44.7755223" lon="9.3889709"><ele>276.0</ele><time>2026-03-29T14:47:02.168Z</time></trkpt><trkpt lat="44.7755974" lon="9.3891304"><ele>276.0</ele><time>2026-03-29T14:47:03.167Z</time></trkpt><trkpt lat="44.7756866" lon="9.3892863"><ele>274.5</ele><time>2026-03-29T14:47:04.168Z</time></trkpt><trkpt lat="44.77578" lon="9.3894349"><ele>273.0</ele><time>2026-03-29T14:47:05.167Z</time></trkpt><trkpt lat="44.7758762" lon="9.3895776"><ele>271.5</ele><time>2026-03-29T14:47:06.168Z</time></trkpt><trkpt lat="44.7759737" lon="9.3897102"><ele>270.0</ele><time>2026-03-29T14:47:07.168Z</time></trkpt><trkpt lat="44.7760664" lon="9.3898289"><ele>270.0</ele><time>2026-03-29T14:47:08.168Z</time></trkpt><trkpt lat="44.7761528" lon="9.3899252"><ele>270.0</ele><time>2026-03-29T14:47:09.168Z</time></trkpt><trkpt lat="44.7762423" lon="9.3899925"><ele>270.0</ele><time>2026-03-29T14:47:10.168Z</time></trkpt><trkpt lat="44.7763257" lon="9.3900375"><ele>270.0</ele><time>2026-03-29T14:47:11.167Z</time></trkpt><trkpt lat="44.7764001" lon="9.3900702"><ele>270.0</ele><time>2026-03-29T14:47:12.168Z</time></trkpt><trkpt lat="44.7764641" lon="9.3900978"><ele>270.0</ele><time>2026-03-29T14:47:13.168Z</time></trkpt><trkpt lat="44.7765635" lon="9.3901688"><ele>270.0</ele><time>2026-03-29T14:47:15.168Z</time></trkpt><trkpt lat="44.776617" lon="9.3902671"><ele>270.0</ele><time>2026-03-29T14:47:17.167Z</time></trkpt><trkpt lat="44.7766239" lon="9.3903582"><ele>270.0</ele><time>2026-03-29T14:47:19.167Z</time></trkpt><trkpt lat="44.7766083" lon="9.3904748"><ele>270.0</ele><time>2026-03-29T14:47:22.166Z</time></trkpt><trkpt lat="44.7765992" lon="9.3905816"><ele>270.0</ele><time>2026-03-29T14:47:40.168Z</time></trkpt><trkpt lat="44.7766177" lon="9.3907017"><ele>270.0</ele><time>2026-03-29T14:47:42.168Z</time></trkpt><trkpt lat="44.7766616" lon="9.3907735"><ele>271.5</ele><time>2026-03-29T14:47:43.167Z</time></trkpt><trkpt lat="44.776731" lon="9.3908483"><ele>273.0</ele><time>2026-03-29T14:47:44.168Z</time></trkpt><trkpt lat="44.7768238" lon="9.3909314"><ele>274.5</ele><time>2026-03-29T14:47:45.167Z</time></trkpt><trkpt lat="44.7769308" lon="9.3910289"><ele>276.0</ele><time>2026-03-29T14:47:46.168Z</time></trkpt><trkpt lat="44.7770493" lon="9.3911375"><ele>276.0</ele><time>2026-03-29T14:47:47.168Z</time></trkpt><trkpt lat="44.7771781" lon="9.3912562"><ele>276.0</ele><time>2026-03-29T14:47:48.166Z</time></trkpt><trkpt lat="44.7773179" lon="9.3913894"><ele>276.0</ele><time>2026-03-29T14:47:49.168Z</time></trkpt><trkpt lat="44.7774666" lon="9.3915403"><ele>277.3333333333333</ele><time>2026-03-29T14:47:50.168Z</time></trkpt><trkpt lat="44.777622" lon="9.3917045"><ele>278.66666666666663</ele><time>2026-03-29T14:47:51.167Z</time></trkpt><trkpt lat="44.7777784" lon="9.3918853"><ele>280.0</ele><time>2026-03-29T14:47:52.167Z</time></trkpt><trkpt lat="44.7779357" lon="9.3920798"><ele>271.66666666666663</ele><time>2026-03-29T14:47:53.167Z</time></trkpt><trkpt lat="44.7780921" lon="9.3922862"><ele>263.3333333333333</ele><time>2026-03-29T14:47:54.167Z</time></trkpt><trkpt lat="44.7782465" lon="9.3925109"><ele>255.0</ele><time>2026-03-29T14:47:55.167Z</time></trkpt><trkpt lat="44.7783977" lon="9.3927536"><ele>259.5</ele><time>2026-03-29T14:47:56.167Z</time></trkpt><trkpt lat="44.7785437" lon="9.3930138"><ele>264.0</ele><time>2026-03-29T14:47:57.167Z</time></trkpt><trkpt lat="44.7786828" lon="9.3932897"><ele>264.0</ele><time>2026-03-29T14:47:58.168Z</time></trkpt><trkpt lat="44.7788173" lon="9.3935791"><ele>264.0</ele><time>2026-03-29T14:47:59.167Z</time></trkpt><trkpt lat="44.7789472" lon="9.3938786"><ele>258.5</ele><time>2026-03-29T14:48:00.168Z</time></trkpt><trkpt lat="44.7790687" lon="9.394186"><ele>253.0</ele><time>2026-03-29T14:48:01.167Z</time></trkpt><trkpt lat="44.7791816" lon="9.3945"><ele>251.0</ele><time>2026-03-29T14:48:02.167Z</time></trkpt><trkpt lat="44.7792816" lon="9.3948226"><ele>249.0</ele><time>2026-03-29T14:48:03.168Z</time></trkpt><trkpt lat="44.7793717" lon="9.3951517"><ele>262.0</ele><time>2026-03-29T14:48:04.167Z</time></trkpt><trkpt lat="44.7794539" lon="9.3954851"><ele>275.0</ele><time>2026-03-29T14:48:05.168Z</time></trkpt><trkpt lat="44.7795286" lon="9.3958262"><ele>275.0</ele><time>2026-03-29T14:48:06.167Z</time></trkpt><trkpt lat="44.7795935" lon="9.3961734"><ele>275.0</ele><time>2026-03-29T14:48:07.166Z</time></trkpt><trkpt lat="44.7796483" lon="9.3965255"><ele>271.0</ele><time>2026-03-29T14:48:08.168Z</time></trkpt><trkpt lat="44.7796928" lon="9.3968808"><ele>267.0</ele><time>2026-03-29T14:48:09.167Z</time></trkpt><trkpt lat="44.7797267" lon="9.3972287"><ele>264.0</ele><time>2026-03-29T14:48:10.167Z</time></trkpt><trkpt lat="44.7797515" lon="9.3975612"><ele>261.0</ele><time>2026-03-29T14:48:11.167Z</time></trkpt><trkpt lat="44.7797736" lon="9.397881"><ele>260.6666666666667</ele><time>2026-03-29T14:48:12.167Z</time></trkpt><trkpt lat="44.7797946" lon="9.3981884"><ele>260.33333333333337</ele><time>2026-03-29T14:48:13.168Z</time></trkpt><trkpt lat="44.7798178" lon="9.3984973"><ele>260.0</ele><time>2026-03-29T14:48:14.168Z</time></trkpt><trkpt lat="44.7798484" lon="9.3988069"><ele>258.5</ele><time>2026-03-29T14:48:15.166Z</time></trkpt><trkpt lat="44.779892" lon="9.3991157"><ele>257.0</ele><time>2026-03-29T14:48:16.168Z</time></trkpt><trkpt lat="44.779949" lon="9.399426"><ele>254.5</ele><time>2026-03-29T14:48:17.167Z</time></trkpt><trkpt lat="44.7800207" lon="9.3997334"><ele>252.0</ele><time>2026-03-29T14:48:18.167Z</time></trkpt><trkpt lat="44.780104" lon="9.4000373"><ele>253.5</ele><time>2026-03-29T14:48:19.167Z</time></trkpt><trkpt lat="44.7802065" lon="9.4003361"><ele>255.0</ele><time>2026-03-29T14:48:20.168Z</time></trkpt><trkpt lat="44.7803234" lon="9.4006261"><ele>255.0</ele><time>2026-03-29T14:48:21.168Z</time></trkpt><trkpt lat="44.7804563" lon="9.4009077"><ele>255.0</ele><time>2026-03-29T14:48:22.168Z</time></trkpt><trkpt lat="44.7806074" lon="9.4011758"><ele>251.5</ele><time>2026-03-29T14:48:23.168Z</time></trkpt><trkpt lat="44.780767" lon="9.4014372"><ele>248.0</ele><time>2026-03-29T14:48:24.168Z</time></trkpt><trkpt lat="44.7809334" lon="9.401692"><ele>247.5</ele><time>2026-03-29T14:48:25.168Z</time></trkpt><trkpt lat="44.7811035" lon="9.4019376"><ele>247.0</ele><time>2026-03-29T14:48:26.168Z</time></trkpt><trkpt lat="44.7812675" lon="9.4021731"><ele>247.0</ele><time>2026-03-29T14:48:27.168Z</time></trkpt><trkpt lat="44.781428" lon="9.4024068"><ele>247.0</ele><time>2026-03-29T14:48:28.167Z</time></trkpt><trkpt lat="44.7815782" lon="9.4026279"><ele>247.0</ele><time>2026-03-29T14:48:29.168Z</time></trkpt><trkpt lat="44.7817222" lon="9.4028435"><ele>246.0</ele><time>2026-03-29T14:48:30.168Z</time></trkpt><trkpt lat="44.781865" lon="9.4030538"><ele>245.0</ele><time>2026-03-29T14:48:31.168Z</time></trkpt><trkpt lat="44.782009" lon="9.4032606"><ele>244.0</ele><time>2026-03-29T14:48:32.168Z</time></trkpt><trkpt lat="44.7821513" lon="9.4034621"><ele>244.0</ele><time>2026-03-29T14:48:33.168Z</time></trkpt><trkpt lat="44.7822933" lon="9.4036631"><ele>244.0</ele><time>2026-03-29T14:48:34.168Z</time></trkpt><trkpt lat="44.7824361" lon="9.4038645"><ele>244.0</ele><time>2026-03-29T14:48:35.167Z</time></trkpt><trkpt lat="44.7825796" lon="9.4040667"><ele>243.0</ele><time>2026-03-29T14:48:36.168Z</time></trkpt><trkpt lat="44.7827247" lon="9.4042721"><ele>242.0</ele><time>2026-03-29T14:48:37.167Z</time></trkpt><trkpt lat="44.7828711" lon="9.4044797"><ele>241.0</ele><time>2026-03-29T14:48:38.168Z</time></trkpt><trkpt lat="44.7830164" lon="9.4046873"><ele>241.0</ele><time>2026-03-29T14:48:39.168Z</time></trkpt><trkpt lat="44.7831606" lon="9.4048956"><ele>241.0</ele><time>2026-03-29T14:48:40.168Z</time></trkpt><trkpt lat="44.7833036" lon="9.4051025"><ele>241.0</ele><time>2026-03-29T14:48:41.168Z</time></trkpt><trkpt lat="44.7834448" lon="9.4053094"><ele>242.0</ele><time>2026-03-29T14:48:42.167Z</time></trkpt><trkpt lat="44.7835866" lon="9.4055155"><ele>243.0</ele><time>2026-03-29T14:48:43.168Z</time></trkpt><trkpt lat="44.783729" lon="9.4057207"><ele>244.0</ele><time>2026-03-29T14:48:44.167Z</time></trkpt><trkpt lat="44.7838724" lon="9.405928"><ele>244.0</ele><time>2026-03-29T14:48:45.167Z</time></trkpt><trkpt lat="44.7840154" lon="9.4061379"><ele>244.0</ele><time>2026-03-29T14:48:46.168Z</time></trkpt><trkpt lat="44.7841601" lon="9.4063471"><ele>244.0</ele><time>2026-03-29T14:48:47.168Z</time></trkpt><trkpt lat="44.7843039" lon="9.4065546"><ele>244.66666666666666</ele><time>2026-03-29T14:48:48.167Z</time></trkpt><trkpt lat="44.7844491" lon="9.4067607"><ele>245.33333333333331</ele><time>2026-03-29T14:48:49.167Z</time></trkpt><trkpt lat="44.7845933" lon="9.4069656"><ele>246.0</ele><time>2026-03-29T14:48:50.167Z</time></trkpt><trkpt lat="44.7847377" lon="9.4071712"><ele>246.66666666666669</ele><time>2026-03-29T14:48:51.168Z</time></trkpt><trkpt lat="44.7848819" lon="9.4073761"><ele>247.33333333333334</ele><time>2026-03-29T14:48:52.168Z</time></trkpt><trkpt lat="44.7850304" lon="9.407582"><ele>248.0</ele><time>2026-03-29T14:48:53.167Z</time></trkpt><trkpt lat="44.7851871" lon="9.4077963"><ele>247.0</ele><time>2026-03-29T14:48:54.166Z</time></trkpt><trkpt lat="44.7853508" lon="9.4080156"><ele>246.0</ele><time>2026-03-29T14:48:55.167Z</time></trkpt><trkpt lat="44.7855228" lon="9.4082456"><ele>246.0</ele><time>2026-03-29T14:48:56.168Z</time></trkpt><trkpt lat="44.7856957" lon="9.4084764"><ele>246.0</ele><time>2026-03-29T14:48:57.168Z</time></trkpt><trkpt lat="44.7858692" lon="9.4087059"><ele>246.0</ele><time>2026-03-29T14:48:58.167Z</time></trkpt><trkpt lat="44.7860445" lon="9.4089377"><ele>246.0</ele><time>2026-03-29T14:48:59.168Z</time></trkpt><trkpt lat="44.7862208" lon="9.4091684"><ele>246.0</ele><time>2026-03-29T14:49:00.167Z</time></trkpt><trkpt lat="44.7863978" lon="9.4093971"><ele>246.0</ele><time>2026-03-29T14:49:01.168Z</time></trkpt><trkpt lat="44.7865713" lon="9.4096236"><ele>247.0</ele><time>2026-03-29T14:49:02.167Z</time></trkpt><trkpt lat="44.7867431" lon="9.4098469"><ele>248.0</ele><time>2026-03-29T14:49:03.168Z</time></trkpt><trkpt lat="44.7869134" lon="9.4100696"><ele>244.0</ele><time>2026-03-29T14:49:04.166Z</time></trkpt><trkpt lat="44.7870842" lon="9.4102922"><ele>240.0</ele><time>2026-03-29T14:49:05.168Z</time></trkpt><trkpt lat="44.7872552" lon="9.4105149"><ele>240.0</ele><time>2026-03-29T14:49:06.168Z</time></trkpt><trkpt lat="44.7874265" lon="9.4107382"><ele>240.0</ele><time>2026-03-29T14:49:07.168Z</time></trkpt><trkpt lat="44.7875965" lon="9.4109616"><ele>239.0</ele><time>2026-03-29T14:49:08.168Z</time></trkpt><trkpt lat="44.7877664" lon="9.4111845"><ele>238.0</ele><time>2026-03-29T14:49:09.167Z</time></trkpt><trkpt lat="44.7879386" lon="9.4114066"><ele>238.0</ele><time>2026-03-29T14:49:10.167Z</time></trkpt><trkpt lat="44.7881096" lon="9.4116295"><ele>238.0</ele><time>2026-03-29T14:49:11.168Z</time></trkpt><trkpt lat="44.7882803" lon="9.4118522"><ele>238.0</ele><time>2026-03-29T14:49:12.167Z</time></trkpt><trkpt lat="44.7884515" lon="9.4120748"><ele>238.0</ele><time>2026-03-29T14:49:13.167Z</time></trkpt><trkpt lat="44.7886221" lon="9.4122979"><ele>237.5</ele><time>2026-03-29T14:49:14.167Z</time></trkpt><trkpt lat="44.7887924" lon="9.4125213"><ele>237.0</ele><time>2026-03-29T14:49:15.168Z</time></trkpt><trkpt lat="44.7889626" lon="9.4127449"><ele>237.0</ele><time>2026-03-29T14:49:16.168Z</time></trkpt><trkpt lat="44.7891335" lon="9.4129667"><ele>237.0</ele><time>2026-03-29T14:49:17.168Z</time></trkpt><trkpt lat="44.7893044" lon="9.4131886"><ele>236.5</ele><time>2026-03-29T14:49:18.167Z</time></trkpt><trkpt lat="44.7894751" lon="9.413409"><ele>236.0</ele><time>2026-03-29T14:49:19.168Z</time></trkpt><trkpt lat="44.7896423" lon="9.4136322"><ele>238.0</ele><time>2026-03-29T14:49:20.168Z</time></trkpt><trkpt lat="44.7898075" lon="9.4138581"><ele>240.0</ele><time>2026-03-29T14:49:21.168Z</time></trkpt><trkpt lat="44.7899746" lon="9.4140841"><ele>240.0</ele><time>2026-03-29T14:49:22.167Z</time></trkpt><trkpt lat="44.7901442" lon="9.4143104"><ele>240.0</ele><time>2026-03-29T14:49:23.168Z</time></trkpt><trkpt lat="44.7903162" lon="9.4145389"><ele>249.5</ele><time>2026-03-29T14:49:24.168Z</time></trkpt><trkpt lat="44.7904855" lon="9.4147704"><ele>259.0</ele><time>2026-03-29T14:49:25.167Z</time></trkpt><trkpt lat="44.7906558" lon="9.4149999"><ele>259.0</ele><time>2026-03-29T14:49:26.167Z</time></trkpt><trkpt lat="44.7908264" lon="9.4152292"><ele>259.0</ele><time>2026-03-29T14:49:27.167Z</time></trkpt><trkpt lat="44.7956776" lon="9.4215833"><ele>255.0</ele><time>2026-03-29T14:49:55.168Z</time></trkpt><trkpt lat="44.795805" lon="9.4217696"><ele>251.0</ele><time>2026-03-29T14:49:56.168Z</time></trkpt><trkpt lat="44.7959358" lon="9.4219426"><ele>247.0</ele><time>2026-03-29T14:49:57.168Z</time></trkpt><trkpt lat="44.7960681" lon="9.4221182"><ele>244.66666666666666</ele><time>2026-03-29T14:49:58.167Z</time></trkpt><trkpt lat="44.7962088" lon="9.4222825"><ele>242.33333333333331</ele><time>2026-03-29T14:49:59.167Z</time></trkpt><trkpt lat="44.7963521" lon="9.4224239"><ele>240.0</ele><time>2026-03-29T14:50:00.167Z</time></trkpt><trkpt lat="44.7965026" lon="9.4225506"><ele>240.0</ele><time>2026-03-29T14:50:01.168Z</time></trkpt><trkpt lat="44.7966605" lon="9.4226666"><ele>240.0</ele><time>2026-03-29T14:50:02.167Z</time></trkpt><trkpt lat="44.7968238" lon="9.4227721"><ele>240.0</ele><time>2026-03-29T14:50:03.168Z</time></trkpt><trkpt lat="44.796991" lon="9.4228668"><ele>240.66666666666669</ele><time>2026-03-29T14:50:04.168Z</time></trkpt><trkpt lat="44.797162" lon="9.4229511"><ele>241.33333333333334</ele><time>2026-03-29T14:50:05.168Z</time></trkpt><trkpt lat="44.7973396" lon="9.42302"><ele>242.0</ele><time>2026-03-29T14:50:06.167Z</time></trkpt><trkpt lat="44.7975252" lon="9.4230801"><ele>241.66666666666669</ele><time>2026-03-29T14:50:07.168Z</time></trkpt><trkpt lat="44.7977148" lon="9.4231313"><ele>241.33333333333331</ele><time>2026-03-29T14:50:08.167Z</time></trkpt><trkpt lat="44.7979072" lon="9.4231744"><ele>241.0</ele><time>2026-03-29T14:50:09.167Z</time></trkpt><trkpt lat="44.7980998" lon="9.4232095"><ele>241.0</ele><time>2026-03-29T14:50:10.168Z</time></trkpt><trkpt lat="44.7982873" lon="9.423239"><ele>241.0</ele><time>2026-03-29T14:50:11.167Z</time></trkpt><trkpt lat="44.7984706" lon="9.423267"><ele>241.0</ele><time>2026-03-29T14:50:12.168Z</time></trkpt><trkpt lat="44.7986482" lon="9.4232909"><ele>239.33333333333331</ele><time>2026-03-29T14:50:13.167Z</time></trkpt><trkpt lat="44.7988262" lon="9.4233153"><ele>237.66666666666669</ele><time>2026-03-29T14:50:14.168Z</time></trkpt><trkpt lat="44.7990081" lon="9.4233485"><ele>236.0</ele><time>2026-03-29T14:50:15.167Z</time></trkpt><trkpt lat="44.7991908" lon="9.4233874"><ele>235.33333333333334</ele><time>2026-03-29T14:50:16.168Z</time></trkpt><trkpt lat="44.7993749" lon="9.4234358"><ele>234.66666666666669</ele><time>2026-03-29T14:50:17.168Z</time></trkpt><trkpt lat="44.79956" lon="9.4234989"><ele>234.0</ele><time>2026-03-29T14:50:18.167Z</time></trkpt><trkpt lat="44.7997455" lon="9.4235792"><ele>234.0</ele><time>2026-03-29T14:50:19.168Z</time></trkpt><trkpt lat="44.799933" lon="9.4236767"><ele>234.0</ele><time>2026-03-29T14:50:20.167Z</time></trkpt><trkpt lat="44.8001189" lon="9.4237844"><ele>234.0</ele><time>2026-03-29T14:50:21.168Z</time></trkpt><trkpt lat="44.8003138" lon="9.4239087"><ele>231.5</ele><time>2026-03-29T14:50:22.168Z</time></trkpt><trkpt lat="44.8005222" lon="9.424049"><ele>229.0</ele><time>2026-03-29T14:50:23.168Z</time></trkpt><trkpt lat="44.8007477" lon="9.4242045"><ele>229.0</ele><time>2026-03-29T14:50:24.167Z</time></trkpt><trkpt lat="44.8009828" lon="9.4243691"><ele>229.0</ele><time>2026-03-29T14:50:25.166Z</time></trkpt><trkpt lat="44.8012261" lon="9.4245407"><ele>226.5</ele><time>2026-03-29T14:50:26.168Z</time></trkpt><trkpt lat="44.8014775" lon="9.4247188"><ele>224.0</ele><time>2026-03-29T14:50:27.166Z</time></trkpt><trkpt lat="44.8017338" lon="9.4248982"><ele>227.5</ele><time>2026-03-29T14:50:28.166Z</time></trkpt><trkpt lat="44.8019928" lon="9.425085"><ele>231.0</ele><time>2026-03-29T14:50:29.166Z</time></trkpt><trkpt lat="44.8022532" lon="9.425279"><ele>229.0</ele><time>2026-03-29T14:50:30.167Z</time></trkpt><trkpt lat="44.8025115" lon="9.4254825"><ele>227.0</ele><time>2026-03-29T14:50:31.168Z</time></trkpt><trkpt lat="44.8027642" lon="9.4257"><ele>227.0</ele><time>2026-03-29T14:50:32.168Z</time></trkpt><trkpt lat="44.8030101" lon="9.4259327"><ele>227.0</ele><time>2026-03-29T14:50:33.167Z</time></trkpt><trkpt lat="44.803248" lon="9.4261808"><ele>227.5</ele><time>2026-03-29T14:50:34.168Z</time></trkpt><trkpt lat="44.8034784" lon="9.4264439"><ele>228.0</ele><time>2026-03-29T14:50:35.168Z</time></trkpt><trkpt lat="44.8037006" lon="9.4267206"><ele>229.0</ele><time>2026-03-29T14:50:36.168Z</time></trkpt><trkpt lat="44.8039212" lon="9.4270091"><ele>230.0</ele><time>2026-03-29T14:50:37.167Z</time></trkpt><trkpt lat="44.8041432" lon="9.427304"><ele>229.0</ele><time>2026-03-29T14:50:38.168Z</time></trkpt><trkpt lat="44.8043701" lon="9.4276014"><ele>228.0</ele><time>2026-03-29T14:50:39.168Z</time></trkpt><trkpt lat="44.8045995" lon="9.4279016"><ele>227.0</ele><time>2026-03-29T14:50:40.168Z</time></trkpt><trkpt lat="44.8048307" lon="9.4282031"><ele>226.0</ele><time>2026-03-29T14:50:41.167Z</time></trkpt><trkpt lat="44.8050625" lon="9.4285046"><ele>226.0</ele><time>2026-03-29T14:50:42.168Z</time></trkpt><trkpt lat="44.8052858" lon="9.4287925"><ele>226.0</ele><time>2026-03-29T14:50:43.167Z</time></trkpt><trkpt lat="44.805492" lon="9.4290578"><ele>226.0</ele><time>2026-03-29T14:50:44.168Z</time></trkpt><trkpt lat="44.8056835" lon="9.4293062"><ele>226.0</ele><time>2026-03-29T14:50:45.167Z</time></trkpt><trkpt lat="44.8058603" lon="9.4295387"><ele>227.0</ele><time>2026-03-29T14:50:46.168Z</time></trkpt><trkpt lat="44.8060208" lon="9.429759"><ele>228.0</ele><time>2026-03-29T14:50:47.168Z</time></trkpt><trkpt lat="44.8061626" lon="9.4299662"><ele>229.0</ele><time>2026-03-29T14:50:48.168Z</time></trkpt><trkpt lat="44.8062941" lon="9.4301659"><ele>229.0</ele><time>2026-03-29T14:50:49.168Z</time></trkpt><trkpt lat="44.8064116" lon="9.430354"><ele>229.0</ele><time>2026-03-29T14:50:50.167Z</time></trkpt><trkpt lat="44.8065144" lon="9.4305303"><ele>229.0</ele><time>2026-03-29T14:50:51.168Z</time></trkpt><trkpt lat="44.8066067" lon="9.4306944"><ele>229.0</ele><time>2026-03-29T14:50:52.167Z</time></trkpt><trkpt lat="44.806687" lon="9.4308475"><ele>229.0</ele><time>2026-03-29T14:50:53.168Z</time></trkpt><trkpt lat="44.8067577" lon="9.4309873"><ele>229.0</ele><time>2026-03-29T14:50:54.168Z</time></trkpt><trkpt lat="44.8068217" lon="9.4311139"><ele>229.0</ele><time>2026-03-29T14:50:55.168Z</time></trkpt><trkpt lat="44.8068797" lon="9.4312266"><ele>230.0</ele><time>2026-03-29T14:50:56.168Z</time></trkpt><trkpt lat="44.8069282" lon="9.4313259"><ele>230.99999999999997</ele><time>2026-03-29T14:50:57.168Z</time></trkpt><trkpt lat="44.806971" lon="9.4314124"><ele>231.99999999999997</ele><time>2026-03-29T14:50:58.168Z</time></trkpt><trkpt lat="44.8070309" lon="9.4315361"><ele>233.0</ele><time>2026-03-29T14:51:00.168Z</time></trkpt><trkpt lat="44.8070765" lon="9.4316387"><ele>234.0</ele><time>2026-03-29T14:51:03.167Z</time></trkpt><trkpt lat="44.8071417" lon="9.4317605"><ele>234.0</ele><time>2026-03-29T14:51:05.167Z</time></trkpt><trkpt lat="44.8071967" lon="9.431826"><ele>233.99999999999997</ele><time>2026-03-29T14:51:06.167Z</time></trkpt><trkpt lat="44.8072664" lon="9.4318861"><ele>233.99999999999997</ele><time>2026-03-29T14:51:07.167Z</time></trkpt><trkpt lat="44.8073485" lon="9.4319384"><ele>234.0</ele><time>2026-03-29T14:51:08.167Z</time></trkpt><trkpt lat="44.80744" lon="9.4319941"><ele>234.0</ele><time>2026-03-29T14:51:09.166Z</time></trkpt><trkpt lat="44.807537" lon="9.4320548"><ele>234.0</ele><time>2026-03-29T14:51:10.167Z</time></trkpt><trkpt lat="44.8076444" lon="9.4321254"><ele>234.0</ele><time>2026-03-29T14:51:11.166Z</time></trkpt><trkpt lat="44.8077596" lon="9.4322054"><ele>234.0</ele><time>2026-03-29T14:51:12.167Z</time></trkpt><trkpt lat="44.8078803" lon="9.4322915"><ele>234.0</ele><time>2026-03-29T14:51:13.168Z</time></trkpt><trkpt lat="44.8079904" lon="9.4323732"><ele>232.6</ele><time>2026-03-29T14:51:14.168Z</time></trkpt><trkpt lat="44.8080945" lon="9.4324524"><ele>231.2</ele><time>2026-03-29T14:51:15.167Z</time></trkpt><trkpt lat="44.8081932" lon="9.432525"><ele>229.79999999999998</ele><time>2026-03-29T14:51:16.167Z</time></trkpt><trkpt lat="44.8082884" lon="9.432582"><ele>228.39999999999998</ele><time>2026-03-29T14:51:17.168Z</time></trkpt><trkpt lat="44.8083738" lon="9.4325977"><ele>227.0</ele><time>2026-03-29T14:51:18.168Z</time></trkpt><trkpt lat="44.8084426" lon="9.4325713"><ele>227.00000000000003</ele><time>2026-03-29T14:51:19.166Z</time></trkpt><trkpt lat="44.8084932" lon="9.4325117"><ele>227.0</ele><time>2026-03-29T14:51:20.166Z</time></trkpt><trkpt lat="44.8085153" lon="9.4324185"><ele>227.0</ele><time>2026-03-29T14:51:21.168Z</time></trkpt><trkpt lat="44.808493" lon="9.4323247"><ele>227.0</ele><time>2026-03-29T14:51:22.168Z</time></trkpt><trkpt lat="44.8084409" lon="9.4322494"><ele>227.00000000000003</ele><time>2026-03-29T14:51:23.166Z</time></trkpt><trkpt lat="44.8083706" lon="9.432173"><ele>227.0</ele><time>2026-03-29T14:51:24.166Z</time></trkpt><trkpt lat="44.8082937" lon="9.4320967"><ele>229.00000000000003</ele><time>2026-03-29T14:51:25.167Z</time></trkpt><trkpt lat="44.808214" lon="9.4320255"><ele>231.0</ele><time>2026-03-29T14:51:26.167Z</time></trkpt><trkpt lat="44.8081371" lon="9.4319616"><ele>233.0</ele><time>2026-03-29T14:51:27.168Z</time></trkpt><trkpt lat="44.8080683" lon="9.4319069"><ele>235.0</ele><time>2026-03-29T14:51:28.168Z</time></trkpt><trkpt lat="44.8080038" lon="9.4318561"><ele>237.00000000000003</ele><time>2026-03-29T14:51:29.168Z</time></trkpt><trkpt lat="44.8079471" lon="9.4318105"><ele>239.0</ele><time>2026-03-29T14:51:30.168Z</time></trkpt><trkpt lat="44.8078449" lon="9.4317282"><ele>239.00000000000003</ele><time>2026-03-29T14:51:32.168Z</time></trkpt><trkpt lat="44.8077389" lon="9.4316299"><ele>239.0</ele><time>2026-03-29T14:51:34.168Z</time></trkpt><trkpt lat="44.8076882" lon="9.4315627"><ele>239.0</ele><time>2026-03-29T14:51:35.167Z</time></trkpt><trkpt lat="44.8076374" lon="9.4314846"><ele>239.0</ele><time>2026-03-29T14:51:36.168Z</time></trkpt><trkpt lat="44.8075917" lon="9.4313906"><ele>239.00000000000003</ele><time>2026-03-29T14:51:37.167Z</time></trkpt><trkpt lat="44.807559" lon="9.4312833"><ele>239.0</ele><time>2026-03-29T14:51:38.168Z</time></trkpt><trkpt lat="44.8075457" lon="9.431169"><ele>239.33333333333334</ele><time>2026-03-29T14:51:39.167Z</time></trkpt><trkpt lat="44.8075548" lon="9.4310541"><ele>239.66666666666669</ele><time>2026-03-29T14:51:40.168Z</time></trkpt><trkpt lat="44.80758" lon="9.4309392"><ele>240.0</ele><time>2026-03-29T14:51:41.166Z</time></trkpt><trkpt lat="44.8076218" lon="9.4308383"><ele>240.33333333333331</ele><time>2026-03-29T14:51:42.166Z</time></trkpt><trkpt lat="44.8076756" lon="9.4307544"><ele>240.66666666666666</ele><time>2026-03-29T14:51:43.167Z</time></trkpt><trkpt lat="44.8077393" lon="9.4306897"><ele>241.0</ele><time>2026-03-29T14:51:44.167Z</time></trkpt><trkpt lat="44.8078122" lon="9.4306417"><ele>242.20000000000002</ele><time>2026-03-29T14:51:45.166Z</time></trkpt><trkpt lat="44.8078911" lon="9.4306154"><ele>243.40000000000003</ele><time>2026-03-29T14:51:46.166Z</time></trkpt><trkpt lat="44.8079743" lon="9.430612"><ele>244.6</ele><time>2026-03-29T14:51:47.167Z</time></trkpt><trkpt lat="44.80806" lon="9.4306331"><ele>245.8</ele><time>2026-03-29T14:51:48.168Z</time></trkpt><trkpt lat="44.8081513" lon="9.4306764"><ele>247.0</ele><time>2026-03-29T14:51:49.167Z</time></trkpt><trkpt lat="44.8082507" lon="9.4307293"><ele>247.0</ele><time>2026-03-29T14:51:50.167Z</time></trkpt><trkpt lat="44.808352" lon="9.430784"><ele>247.0</ele><time>2026-03-29T14:51:51.167Z</time></trkpt><trkpt lat="44.8084578" lon="9.4308413"><ele>247.0</ele><time>2026-03-29T14:51:52.167Z</time></trkpt><trkpt lat="44.8085677" lon="9.4309008"><ele>247.0</ele><time>2026-03-29T14:51:53.168Z</time></trkpt><trkpt lat="44.8086789" lon="9.4309593"><ele>248.0</ele><time>2026-03-29T14:51:54.167Z</time></trkpt><trkpt lat="44.8087949" lon="9.4310189"><ele>249.0</ele><time>2026-03-29T14:51:55.167Z</time></trkpt><trkpt lat="44.8089198" lon="9.4310805"><ele>250.0</ele><time>2026-03-29T14:51:56.167Z</time></trkpt><trkpt lat="44.8090633" lon="9.4311453"><ele>251.0</ele><time>2026-03-29T14:51:57.168Z</time></trkpt><trkpt lat="44.8092159" lon="9.4312258"><ele>248.33333333333334</ele><time>2026-03-29T14:51:58.168Z</time></trkpt><trkpt lat="44.8093756" lon="9.4313132"><ele>245.66666666666669</ele><time>2026-03-29T14:51:59.167Z</time></trkpt><trkpt lat="44.8095417" lon="9.4314034"><ele>243.0</ele><time>2026-03-29T14:52:00.168Z</time></trkpt><trkpt lat="44.8097103" lon="9.4314964"><ele>243.0</ele><time>2026-03-29T14:52:01.167Z</time></trkpt><trkpt lat="44.80987" lon="9.4315802"><ele>243.0</ele><time>2026-03-29T14:52:02.167Z</time></trkpt><trkpt lat="44.8100146" lon="9.4316572"><ele>243.0</ele><time>2026-03-29T14:52:03.166Z</time></trkpt><trkpt lat="44.8101445" lon="9.4317282"><ele>243.75</ele><time>2026-03-29T14:52:04.168Z</time></trkpt><trkpt lat="44.8102631" lon="9.4317903"><ele>244.5</ele><time>2026-03-29T14:52:05.168Z</time></trkpt><trkpt lat="44.810373" lon="9.4318432"><ele>245.25</ele><time>2026-03-29T14:52:06.168Z</time></trkpt><trkpt lat="44.8104749" lon="9.4318847"><ele>246.0</ele><time>2026-03-29T14:52:07.168Z</time></trkpt><trkpt lat="44.8105752" lon="9.4319128"><ele>246.0</ele><time>2026-03-29T14:52:08.168Z</time></trkpt><trkpt lat="44.8106837" lon="9.4319252"><ele>246.0</ele><time>2026-03-29T14:52:09.168Z</time></trkpt><trkpt lat="44.8107993" lon="9.4319269"><ele>246.0</ele><time>2026-03-29T14:52:10.167Z</time></trkpt><trkpt lat="44.8109226" lon="9.4319172"><ele>246.0</ele><time>2026-03-29T14:52:11.168Z</time></trkpt><trkpt lat="44.8110494" lon="9.4318878"><ele>246.75</ele><time>2026-03-29T14:52:12.168Z</time></trkpt><trkpt lat="44.8111782" lon="9.4318374"><ele>247.5</ele><time>2026-03-29T14:52:13.168Z</time></trkpt><trkpt lat="44.8113087" lon="9.4317726"><ele>248.25</ele><time>2026-03-29T14:52:14.167Z</time></trkpt><trkpt lat="44.8114295" lon="9.4317007"><ele>249.0</ele><time>2026-03-29T14:52:15.167Z</time></trkpt><trkpt lat="44.8115287" lon="9.4316365"><ele>249.0</ele><time>2026-03-29T14:52:16.167Z</time></trkpt><trkpt lat="44.811616" lon="9.4315812"><ele>248.99999999999997</ele><time>2026-03-29T14:52:17.168Z</time></trkpt><trkpt lat="44.8117038" lon="9.4315254"><ele>248.99999999999997</ele><time>2026-03-29T14:52:18.168Z</time></trkpt><trkpt lat="44.8117878" lon="9.431473"><ele>249.0</ele><time>2026-03-29T14:52:19.167Z</time></trkpt><trkpt lat="44.8118734" lon="9.4314216"><ele>249.0</ele><time>2026-03-29T14:52:20.167Z</time></trkpt><trkpt lat="44.8119653" lon="9.4313775"><ele>249.75</ele><time>2026-03-29T14:52:21.167Z</time></trkpt><trkpt lat="44.8120745" lon="9.4313378"><ele>250.5</ele><time>2026-03-29T14:52:22.168Z</time></trkpt><trkpt lat="44.8121963" lon="9.4313235"><ele>251.25</ele><time>2026-03-29T14:52:23.168Z</time></trkpt><trkpt lat="44.8123245" lon="9.4313451"><ele>252.0</ele><time>2026-03-29T14:52:24.168Z</time></trkpt><trkpt lat="44.812467" lon="9.4314063"><ele>252.0</ele><time>2026-03-29T14:52:25.168Z</time></trkpt><trkpt lat="44.812632" lon="9.4315013"><ele>252.0</ele><time>2026-03-29T14:52:26.167Z</time></trkpt><trkpt lat="44.812823" lon="9.4316107"><ele>252.0</ele><time>2026-03-29T14:52:27.168Z</time></trkpt><trkpt lat="44.8130008" lon="9.4317083"><ele>252.33333333333331</ele><time>2026-03-29T14:52:28.168Z</time></trkpt><trkpt lat="44.8131779" lon="9.4317914"><ele>252.66666666666666</ele><time>2026-03-29T14:52:29.168Z</time></trkpt><trkpt lat="44.8133666" lon="9.4318304"><ele>253.0</ele><time>2026-03-29T14:52:30.168Z</time></trkpt><trkpt lat="44.8135584" lon="9.4318299"><ele>252.0</ele><time>2026-03-29T14:52:31.168Z</time></trkpt><trkpt lat="44.8137458" lon="9.4318035"><ele>251.0</ele><time>2026-03-29T14:52:32.168Z</time></trkpt><trkpt lat="44.8139268" lon="9.4317428"><ele>250.0</ele><time>2026-03-29T14:52:33.167Z</time></trkpt><trkpt lat="44.8141059" lon="9.4316434"><ele>250.0</ele><time>2026-03-29T14:52:34.168Z</time></trkpt><trkpt lat="44.814275" lon="9.4315227"><ele>250.0</ele><time>2026-03-29T14:52:35.167Z</time></trkpt><trkpt lat="44.8144276" lon="9.4313684"><ele>250.0</ele><time>2026-03-29T14:52:36.168Z</time></trkpt><trkpt lat="44.8145778" lon="9.4311829"><ele>250.66666666666666</ele><time>2026-03-29T14:52:37.168Z</time></trkpt><trkpt lat="44.8147278" lon="9.4309891"><ele>251.33333333333331</ele><time>2026-03-29T14:52:38.168Z</time></trkpt><trkpt lat="44.8148881" lon="9.4307844"><ele>252.0</ele><time>2026-03-29T14:52:39.167Z</time></trkpt><trkpt lat="44.8150538" lon="9.4305714"><ele>251.0</ele><time>2026-03-29T14:52:40.168Z</time></trkpt><trkpt lat="44.8151968" lon="9.4303878"><ele>250.0</ele><time>2026-03-29T14:52:41.167Z</time></trkpt><trkpt lat="44.8153221" lon="9.4302227"><ele>249.0</ele><time>2026-03-29T14:52:42.168Z</time></trkpt><trkpt lat="44.8154265" lon="9.4300795"><ele>249.0</ele><time>2026-03-29T14:52:43.167Z</time></trkpt><trkpt lat="44.815519" lon="9.4299619"><ele>249.0</ele><time>2026-03-29T14:52:44.167Z</time></trkpt><trkpt lat="44.8156214" lon="9.4298864"><ele>249.0</ele><time>2026-03-29T14:52:45.168Z</time></trkpt><trkpt lat="44.8157371" lon="9.4298443"><ele>249.0</ele><time>2026-03-29T14:52:46.168Z</time></trkpt><trkpt lat="44.8158528" lon="9.4298548"><ele>249.66666666666669</ele><time>2026-03-29T14:52:47.168Z</time></trkpt><trkpt lat="44.8159909" lon="9.4299063"><ele>250.33333333333334</ele><time>2026-03-29T14:52:48.166Z</time></trkpt><trkpt lat="44.816169" lon="9.4299798"><ele>251.0</ele><time>2026-03-29T14:52:49.166Z</time></trkpt><trkpt lat="44.8163392" lon="9.43005"><ele>251.0</ele><time>2026-03-29T14:52:50.167Z</time></trkpt><trkpt lat="44.8164981" lon="9.4301148"><ele>251.0</ele><time>2026-03-29T14:52:51.167Z</time></trkpt><trkpt lat="44.8166558" lon="9.430184"><ele>251.0</ele><time>2026-03-29T14:52:52.168Z</time></trkpt><trkpt lat="44.8167998" lon="9.4302664"><ele>253.0</ele><time>2026-03-29T14:52:53.167Z</time></trkpt><trkpt lat="44.8169212" lon="9.4303599"><ele>255.0</ele><time>2026-03-29T14:52:54.167Z</time></trkpt><trkpt lat="44.8170213" lon="9.4304752"><ele>257.0</ele><time>2026-03-29T14:52:55.168Z</time></trkpt><trkpt lat="44.8170989" lon="9.4306167"><ele>259.0</ele><time>2026-03-29T14:52:56.168Z</time></trkpt><trkpt lat="44.8171628" lon="9.4307963"><ele>260.66666666666663</ele><time>2026-03-29T14:52:57.167Z</time></trkpt><trkpt lat="44.8172086" lon="9.4310123"><ele>262.3333333333333</ele><time>2026-03-29T14:52:58.167Z</time></trkpt><trkpt lat="44.8172416" lon="9.4312554"><ele>264.0</ele><time>2026-03-29T14:52:59.166Z</time></trkpt><trkpt lat="44.8172779" lon="9.4315209"><ele>266.3333333333333</ele><time>2026-03-29T14:53:00.168Z</time></trkpt><trkpt lat="44.8173164" lon="9.4318095"><ele>268.66666666666663</ele><time>2026-03-29T14:53:01.168Z</time></trkpt><trkpt lat="44.8173559" lon="9.4320981"><ele>271.0</ele><time>2026-03-29T14:53:02.168Z</time></trkpt><trkpt lat="44.8173946" lon="9.4323873"><ele>272.66666666666663</ele><time>2026-03-29T14:53:03.167Z</time></trkpt><trkpt lat="44.8174286" lon="9.4326704"><ele>274.3333333333333</ele><time>2026-03-29T14:53:04.168Z</time></trkpt><trkpt lat="44.8174459" lon="9.4329427"><ele>276.0</ele><time>2026-03-29T14:53:05.168Z</time></trkpt><trkpt lat="44.8174238" lon="9.4332117"><ele>276.6666666666667</ele><time>2026-03-29T14:53:06.168Z</time></trkpt><trkpt lat="44.8173726" lon="9.4334643"><ele>277.33333333333337</ele><time>2026-03-29T14:53:07.168Z</time></trkpt><trkpt lat="44.8173016" lon="9.4336795"><ele>278.0</ele><time>2026-03-29T14:53:08.168Z</time></trkpt><trkpt lat="44.8172129" lon="9.4338482"><ele>280.0</ele><time>2026-03-29T14:53:09.167Z</time></trkpt><trkpt lat="44.8170958" lon="9.4339903"><ele>282.0</ele><time>2026-03-29T14:53:10.167Z</time></trkpt><trkpt lat="44.8169902" lon="9.4341052"><ele>284.0</ele><time>2026-03-29T14:53:11.168Z</time></trkpt><trkpt lat="44.8169207" lon="9.4342181"><ele>286.0</ele><time>2026-03-29T14:53:12.168Z</time></trkpt><trkpt lat="44.8168832" lon="9.4343368"><ele>286.0</ele><time>2026-03-29T14:53:13.168Z</time></trkpt><trkpt lat="44.816885" lon="9.4344625"><ele>286.0</ele><time>2026-03-29T14:53:14.167Z</time></trkpt><trkpt lat="44.8169266" lon="9.4345909"><ele>286.0</ele><time>2026-03-29T14:53:15.168Z</time></trkpt><trkpt lat="44.8169996" lon="9.4347343"><ele>286.0</ele><time>2026-03-29T14:53:16.168Z</time></trkpt><trkpt lat="44.8170918" lon="9.4348864"><ele>286.5</ele><time>2026-03-29T14:53:17.168Z</time></trkpt><trkpt lat="44.8171893" lon="9.4350465"><ele>287.0</ele><time>2026-03-29T14:53:18.168Z</time></trkpt><trkpt lat="44.8172797" lon="9.4351954"><ele>287.5</ele><time>2026-03-29T14:53:19.168Z</time></trkpt><trkpt lat="44.8173637" lon="9.4353363"><ele>288.0</ele><time>2026-03-29T14:53:20.168Z</time></trkpt><trkpt lat="44.817445" lon="9.4354765"><ele>288.75</ele><time>2026-03-29T14:53:21.168Z</time></trkpt><trkpt lat="44.8175293" lon="9.4356192"><ele>289.5</ele><time>2026-03-29T14:53:22.167Z</time></trkpt><trkpt lat="44.8176108" lon="9.4357512"><ele>290.25</ele><time>2026-03-29T14:53:23.168Z</time></trkpt><trkpt lat="44.8177003" lon="9.4358769"><ele>291.0</ele><time>2026-03-29T14:53:24.167Z</time></trkpt><trkpt lat="44.8178092" lon="9.43599"><ele>291.0</ele><time>2026-03-29T14:53:25.167Z</time></trkpt><trkpt lat="44.8179321" lon="9.4360811"><ele>291.0</ele><time>2026-03-29T14:53:26.167Z</time></trkpt><trkpt lat="44.8180565" lon="9.4361644"><ele>291.0</ele><time>2026-03-29T14:53:27.167Z</time></trkpt><trkpt lat="44.8181574" lon="9.4362567"><ele>291.0</ele><time>2026-03-29T14:53:28.168Z</time></trkpt><trkpt lat="44.8182211" lon="9.4363874"><ele>291.0</ele><time>2026-03-29T14:53:29.168Z</time></trkpt><trkpt lat="44.8182463" lon="9.4365471"><ele>291.0</ele><time>2026-03-29T14:53:30.167Z</time></trkpt><trkpt lat="44.8182487" lon="9.4367347"><ele>291.0</ele><time>2026-03-29T14:53:31.168Z</time></trkpt><trkpt lat="44.8182487" lon="9.4369476"><ele>291.0</ele><time>2026-03-29T14:53:32.168Z</time></trkpt><trkpt lat="44.8182535" lon="9.4371897"><ele>291.6666666666667</ele><time>2026-03-29T14:53:33.168Z</time></trkpt><trkpt lat="44.8182574" lon="9.4374592"><ele>292.33333333333337</ele><time>2026-03-29T14:53:34.168Z</time></trkpt><trkpt lat="44.8182605" lon="9.4376887"><ele>293.0</ele><time>2026-03-29T14:53:35.167Z</time></trkpt><trkpt lat="44.8182663" lon="9.4379008"><ele>293.0</ele><time>2026-03-29T14:53:36.168Z</time></trkpt><trkpt lat="44.8182905" lon="9.438083"><ele>293.0</ele><time>2026-03-29T14:53:37.167Z</time></trkpt><trkpt lat="44.8183451" lon="9.4382479"><ele>293.0</ele><time>2026-03-29T14:53:38.168Z</time></trkpt><trkpt lat="44.8184362" lon="9.4383956"><ele>293.0</ele><time>2026-03-29T14:53:39.167Z</time></trkpt><trkpt lat="44.8185563" lon="9.4385301"><ele>297.25</ele><time>2026-03-29T14:53:40.168Z</time></trkpt><trkpt lat="44.8186862" lon="9.4386593"><ele>301.5</ele><time>2026-03-29T14:53:41.168Z</time></trkpt><trkpt lat="44.8188027" lon="9.4387938"><ele>305.75</ele><time>2026-03-29T14:53:42.167Z</time></trkpt><trkpt lat="44.8188866" lon="9.4389433"><ele>310.0</ele><time>2026-03-29T14:53:43.168Z</time></trkpt><trkpt lat="44.8189319" lon="9.4391166"><ele>310.0</ele><time>2026-03-29T14:53:44.167Z</time></trkpt><trkpt lat="44.8189361" lon="9.4393128"><ele>310.0</ele><time>2026-03-29T14:53:45.167Z</time></trkpt><trkpt lat="44.8189482" lon="9.4395073"><ele>310.0</ele><time>2026-03-29T14:53:46.168Z</time></trkpt><trkpt lat="44.8189881" lon="9.4397046"><ele>310.0</ele><time>2026-03-29T14:53:47.166Z</time></trkpt><trkpt lat="44.8190522" lon="9.4398806"><ele>310.0</ele><time>2026-03-29T14:53:48.168Z</time></trkpt><trkpt lat="44.8191264" lon="9.4400277"><ele>310.0</ele><time>2026-03-29T14:53:49.168Z</time></trkpt><trkpt lat="44.8192143" lon="9.4401522"><ele>310.0</ele><time>2026-03-29T14:53:50.167Z</time></trkpt><trkpt lat="44.8193183" lon="9.4402493"><ele>310.0</ele><time>2026-03-29T14:53:51.168Z</time></trkpt><trkpt lat="44.819429" lon="9.4403295"><ele>311.0</ele><time>2026-03-29T14:53:52.168Z</time></trkpt><trkpt lat="44.8195383" lon="9.4404111"><ele>312.0</ele><time>2026-03-29T14:53:53.167Z</time></trkpt><trkpt lat="44.8196467" lon="9.4404948"><ele>313.0</ele><time>2026-03-29T14:53:54.167Z</time></trkpt><trkpt lat="44.8197497" lon="9.440594"><ele>314.0</ele><time>2026-03-29T14:53:55.168Z</time></trkpt><trkpt lat="44.8198506" lon="9.4407145"><ele>314.0</ele><time>2026-03-29T14:53:56.168Z</time></trkpt><trkpt lat="44.819954" lon="9.4408691"><ele>314.0</ele><time>2026-03-29T14:53:57.167Z</time></trkpt><trkpt lat="44.8200445" lon="9.4410141"><ele>314.0</ele><time>2026-03-29T14:53:58.167Z</time></trkpt><trkpt lat="44.8201443" lon="9.4410954"><ele>314.0</ele><time>2026-03-29T14:53:59.167Z</time></trkpt><trkpt lat="44.8202712" lon="9.4411317"><ele>318.0</ele><time>2026-03-29T14:54:00.168Z</time></trkpt><trkpt lat="44.8204375" lon="9.4411314"><ele>322.0</ele><time>2026-03-29T14:54:01.168Z</time></trkpt><trkpt lat="44.8206376" lon="9.4411306"><ele>326.0</ele><time>2026-03-29T14:54:02.167Z</time></trkpt><trkpt lat="44.820816" lon="9.4411259"><ele>326.0</ele><time>2026-03-29T14:54:03.168Z</time></trkpt><trkpt lat="44.8209703" lon="9.4410862"><ele>326.0</ele><time>2026-03-29T14:54:04.168Z</time></trkpt><trkpt lat="44.8211069" lon="9.4410211"><ele>326.0</ele><time>2026-03-29T14:54:05.168Z</time></trkpt><trkpt lat="44.8212343" lon="9.4409864"><ele>326.0</ele><time>2026-03-29T14:54:06.168Z</time></trkpt><trkpt lat="44.8213689" lon="9.4410009"><ele>328.25</ele><time>2026-03-29T14:54:07.167Z</time></trkpt><trkpt lat="44.8214842" lon="9.4410693"><ele>330.5</ele><time>2026-03-29T14:54:08.167Z</time></trkpt><trkpt lat="44.8215658" lon="9.4412037"><ele>332.75</ele><time>2026-03-29T14:54:09.166Z</time></trkpt><trkpt lat="44.8216135" lon="9.4413839"><ele>335.0</ele><time>2026-03-29T14:54:10.167Z</time></trkpt><trkpt lat="44.821641" lon="9.4416211"><ele>335.0</ele><time>2026-03-29T14:54:11.168Z</time></trkpt><trkpt lat="44.821643" lon="9.4418649"><ele>335.0</ele><time>2026-03-29T14:54:12.167Z</time></trkpt><trkpt lat="44.8216417" lon="9.4420739"><ele>335.0</ele><time>2026-03-29T14:54:13.167Z</time></trkpt><trkpt lat="44.8216649" lon="9.4422714"><ele>334.33333333333337</ele><time>2026-03-29T14:54:14.168Z</time></trkpt><trkpt lat="44.8217286" lon="9.4424426"><ele>333.6666666666667</ele><time>2026-03-29T14:54:15.168Z</time></trkpt><trkpt lat="44.8218359" lon="9.4425976"><ele>333.0</ele><time>2026-03-29T14:54:16.167Z</time></trkpt><trkpt lat="44.8219648" lon="9.4427478"><ele>337.75</ele><time>2026-03-29T14:54:17.168Z</time></trkpt><trkpt lat="44.8220602" lon="9.4428765"><ele>342.5</ele><time>2026-03-29T14:54:18.167Z</time></trkpt><trkpt lat="44.8221194" lon="9.4430016"><ele>347.25</ele><time>2026-03-29T14:54:19.168Z</time></trkpt><trkpt lat="44.8221396" lon="9.4431435"><ele>352.0</ele><time>2026-03-29T14:54:20.168Z</time></trkpt><trkpt lat="44.822123" lon="9.4432968"><ele>352.0</ele><time>2026-03-29T14:54:21.167Z</time></trkpt><trkpt lat="44.8220826" lon="9.4434653"><ele>352.0</ele><time>2026-03-29T14:54:22.167Z</time></trkpt><trkpt lat="44.8220378" lon="9.44365"><ele>352.0</ele><time>2026-03-29T14:54:23.168Z</time></trkpt><trkpt lat="44.8219644" lon="9.4438102"><ele>352.0</ele><time>2026-03-29T14:54:24.168Z</time></trkpt><trkpt lat="44.8218504" lon="9.4439424"><ele>350.6</ele><time>2026-03-29T14:54:25.167Z</time></trkpt><trkpt lat="44.821738" lon="9.4440406"><ele>349.20000000000005</ele><time>2026-03-29T14:54:26.168Z</time></trkpt><trkpt lat="44.8216412" lon="9.4441284"><ele>347.8</ele><time>2026-03-29T14:54:27.168Z</time></trkpt><trkpt lat="44.8215629" lon="9.4442203"><ele>346.4</ele><time>2026-03-29T14:54:28.168Z</time></trkpt><trkpt lat="44.8214996" lon="9.4443297"><ele>345.0</ele><time>2026-03-29T14:54:29.167Z</time></trkpt><trkpt lat="44.8214578" lon="9.4444673"><ele>347.75</ele><time>2026-03-29T14:54:30.168Z</time></trkpt><trkpt lat="44.8214206" lon="9.4446433"><ele>350.5</ele><time>2026-03-29T14:54:31.167Z</time></trkpt><trkpt lat="44.8213836" lon="9.4448401"><ele>353.25</ele><time>2026-03-29T14:54:32.168Z</time></trkpt><trkpt lat="44.8213484" lon="9.4450412"><ele>356.0</ele><time>2026-03-29T14:54:33.168Z</time></trkpt><trkpt lat="44.8213183" lon="9.445222"><ele>356.0</ele><time>2026-03-29T14:54:34.168Z</time></trkpt><trkpt lat="44.8212934" lon="9.4453737"><ele>356.0</ele><time>2026-03-29T14:54:35.168Z</time></trkpt><trkpt lat="44.8212835" lon="9.4455074"><ele>356.0</ele><time>2026-03-29T14:54:36.168Z</time></trkpt><trkpt lat="44.8213179" lon="9.4456152"><ele>356.0</ele><time>2026-03-29T14:54:37.168Z</time></trkpt><trkpt lat="44.8213748" lon="9.4456934"><ele>356.0</ele><time>2026-03-29T14:54:38.167Z</time></trkpt><trkpt lat="44.8214581" lon="9.4457267"><ele>356.0</ele><time>2026-03-29T14:54:39.167Z</time></trkpt><trkpt lat="44.8215403" lon="9.4456937"><ele>356.0</ele><time>2026-03-29T14:54:40.167Z</time></trkpt><trkpt lat="44.8216529" lon="9.44539"><ele>356.0</ele><time>2026-03-29T14:54:42.357Z</time></trkpt><trkpt lat="44.8216902" lon="9.4451789"><ele>367.0</ele><time>2026-03-29T14:54:43.379Z</time></trkpt><trkpt lat="44.822423" lon="9.4448872"><ele>368.3333333333333</ele><time>2026-03-29T14:54:55.418Z</time></trkpt><trkpt lat="44.8226489" lon="9.4447645"><ele>369.6666666666667</ele><time>2026-03-29T14:54:57.165Z</time></trkpt><trkpt lat="44.822718" lon="9.4446329"><ele>371.0</ele><time>2026-03-29T14:54:58.166Z</time></trkpt><trkpt lat="44.8227809" lon="9.4444995"><ele>371.0</ele><time>2026-03-29T14:54:59.167Z</time></trkpt><trkpt lat="44.8228444" lon="9.4443649"><ele>371.0</ele><time>2026-03-29T14:55:00.167Z</time></trkpt><trkpt lat="44.8229181" lon="9.4442427"><ele>371.0</ele><time>2026-03-29T14:55:01.167Z</time></trkpt><trkpt lat="44.823007" lon="9.4441234"><ele>371.0</ele><time>2026-03-29T14:55:02.166Z</time></trkpt><trkpt lat="44.8231141" lon="9.4440291"><ele>371.0</ele><time>2026-03-29T14:55:03.167Z</time></trkpt><trkpt lat="44.8232402" lon="9.4439513"><ele>371.0</ele><time>2026-03-29T14:55:04.167Z</time></trkpt><trkpt lat="44.823372" lon="9.4438795"><ele>371.0</ele><time>2026-03-29T14:55:05.167Z</time></trkpt><trkpt lat="44.8234851" lon="9.4437865"><ele>371.0</ele><time>2026-03-29T14:55:06.167Z</time></trkpt><trkpt lat="44.8235889" lon="9.4436524"><ele>375.75</ele><time>2026-03-29T14:55:07.166Z</time></trkpt><trkpt lat="44.8236541" lon="9.4434984"><ele>380.5</ele><time>2026-03-29T14:55:08.166Z</time></trkpt><trkpt lat="44.8236736" lon="9.4433231"><ele>385.25</ele><time>2026-03-29T14:55:09.166Z</time></trkpt><trkpt lat="44.8236378" lon="9.4431459"><ele>390.0</ele><time>2026-03-29T14:55:10.166Z</time></trkpt><trkpt lat="44.8235585" lon="9.442976"><ele>386.3333333333333</ele><time>2026-03-29T14:55:11.166Z</time></trkpt><trkpt lat="44.8234406" lon="9.4428143"><ele>382.66666666666663</ele><time>2026-03-29T14:55:12.166Z</time></trkpt><trkpt lat="44.8233163" lon="9.4426631"><ele>379.0</ele><time>2026-03-29T14:55:13.167Z</time></trkpt><trkpt lat="44.8232422" lon="9.442522"><ele>379.0</ele><time>2026-03-29T14:55:14.165Z</time></trkpt><trkpt lat="44.8232126" lon="9.442366"><ele>379.0</ele><time>2026-03-29T14:55:15.167Z</time></trkpt><trkpt lat="44.8232424" lon="9.4422338"><ele>379.0</ele><time>2026-03-29T14:55:16.167Z</time></trkpt><trkpt lat="44.823319" lon="9.4420967"><ele>379.0</ele><time>2026-03-29T14:55:17.167Z</time></trkpt><trkpt lat="44.8234361" lon="9.4419361"><ele>386.0</ele><time>2026-03-29T14:55:18.167Z</time></trkpt><trkpt lat="44.8235514" lon="9.4417615"><ele>393.0</ele><time>2026-03-29T14:55:19.166Z</time></trkpt><trkpt lat="44.823635" lon="9.4415768"><ele>400.0</ele><time>2026-03-29T14:55:20.165Z</time></trkpt><trkpt lat="44.8236837" lon="9.4413687"><ele>400.6666666666667</ele><time>2026-03-29T14:55:21.167Z</time></trkpt><trkpt lat="44.8236862" lon="9.4411245"><ele>401.33333333333337</ele><time>2026-03-29T14:55:22.167Z</time></trkpt><trkpt lat="44.8236682" lon="9.4408548"><ele>402.0</ele><time>2026-03-29T14:55:23.166Z</time></trkpt><trkpt lat="44.823652" lon="9.4405614"><ele>403.0</ele><time>2026-03-29T14:55:24.167Z</time></trkpt><trkpt lat="44.8236408" lon="9.4402792"><ele>404.0</ele><time>2026-03-29T14:55:25.167Z</time></trkpt><trkpt lat="44.8236275" lon="9.4400283"><ele>405.0</ele><time>2026-03-29T14:55:26.166Z</time></trkpt><trkpt lat="44.8236251" lon="9.4398126"><ele>404.75</ele><time>2026-03-29T14:55:27.166Z</time></trkpt><trkpt lat="44.8236523" lon="9.4396183"><ele>404.5</ele><time>2026-03-29T14:55:28.166Z</time></trkpt><trkpt lat="44.8237085" lon="9.439459"><ele>404.25</ele><time>2026-03-29T14:55:29.167Z</time></trkpt><trkpt lat="44.8237974" lon="9.4393325"><ele>404.0</ele><time>2026-03-29T14:55:30.167Z</time></trkpt><trkpt lat="44.8239805" lon="9.4391294"><ele>404.0</ele><time>2026-03-29T14:55:32.165Z</time></trkpt><trkpt lat="44.8240187" lon="9.4390096"><ele>404.0</ele><time>2026-03-29T14:55:33.373Z</time></trkpt><trkpt lat="44.8232875" lon="9.4372725"><ele>405.3333333333333</ele><time>2026-03-29T14:55:45.941Z</time></trkpt><trkpt lat="44.8233729" lon="9.4369422"><ele>406.66666666666663</ele><time>2026-03-29T14:55:47.166Z</time></trkpt><trkpt lat="44.8234602" lon="9.4367111"><ele>408.0</ele><time>2026-03-29T14:55:48.167Z</time></trkpt><trkpt lat="44.8235315" lon="9.4364842"><ele>416.0</ele><time>2026-03-29T14:55:49.167Z</time></trkpt><trkpt lat="44.8235871" lon="9.4362513"><ele>424.0</ele><time>2026-03-29T14:55:50.167Z</time></trkpt><trkpt lat="44.823611" lon="9.435994"><ele>432.0</ele><time>2026-03-29T14:55:51.167Z</time></trkpt><trkpt lat="44.8236227" lon="9.4357004"><ele>431.0</ele><time>2026-03-29T14:55:52.167Z</time></trkpt><trkpt lat="44.8237084" lon="9.4350704"><ele>430.0</ele><time>2026-03-29T14:55:54.375Z</time></trkpt><trkpt lat="44.8241829" lon="9.4344457"><ele>430.5</ele><time>2026-03-29T14:56:07.758Z</time></trkpt><trkpt lat="44.8241942" lon="9.4349231"><ele>431.0</ele><time>2026-03-29T14:56:09.167Z</time></trkpt><trkpt lat="44.8243414" lon="9.4355683"><ele>431.0</ele><time>2026-03-29T14:56:11.167Z</time></trkpt><trkpt lat="44.8237084" lon="9.4350704"><ele>452.0</ele><time>2026-03-29T14:56:11.437Z</time></trkpt><trkpt lat="44.8257656" lon="9.4377352"><ele>452.0</ele><time>2026-03-29T14:56:24.167Z</time></trkpt><trkpt lat="44.825887" lon="9.437852"><ele>452.0</ele><time>2026-03-29T14:56:25.167Z</time></trkpt><trkpt lat="44.8244126" lon="9.4359041"><ele>452.0</ele><time>2026-03-29T14:56:25.452Z</time></trkpt><trkpt lat="44.8258897" lon="9.4378493"><ele>459.0</ele><time>2026-03-29T14:56:38.096Z</time></trkpt><trkpt lat="44.8272774" lon="9.4406239"><ele>476.0</ele><time>2026-03-29T14:56:39.679Z</time></trkpt><trkpt lat="44.8274504" lon="9.4390578"><ele>482.0</ele><time>2026-03-29T14:56:48.462Z</time></trkpt><trkpt lat="44.8274185" lon="9.4373284"><ele>493.0</ele><time>2026-03-29T14:56:55.377Z</time></trkpt><trkpt lat="44.8280625" lon="9.4345866"><ele>517.0</ele><time>2026-03-29T14:57:09.343Z</time></trkpt><trkpt lat="44.8299729" lon="9.4331201"><ele>533.0</ele><time>2026-03-29T14:57:23.371Z</time></trkpt><trkpt lat="44.8315415" lon="9.4314871"><ele>533.0</ele><time>2026-03-29T14:57:35.338Z</time></trkpt><trkpt lat="44.8319321" lon="9.4316333"><ele>533.0</ele><time>2026-03-29T14:57:49.865Z</time></trkpt><trkpt lat="44.8317861" lon="9.4320879"><ele>536.3333333333333</ele><time>2026-03-29T14:57:51.167Z</time></trkpt><trkpt lat="44.8317123" lon="9.432317"><ele>539.6666666666666</ele><time>2026-03-29T14:57:52.167Z</time></trkpt><trkpt lat="44.8316437" lon="9.432505"><ele>543.0</ele><time>2026-03-29T14:57:53.165Z</time></trkpt><trkpt lat="44.8315987" lon="9.4326818"><ele>543.0</ele><time>2026-03-29T14:57:54.166Z</time></trkpt><trkpt lat="44.8315867" lon="9.4328743"><ele>543.0</ele><time>2026-03-29T14:57:55.165Z</time></trkpt><trkpt lat="44.8316057" lon="9.4330686"><ele>543.0</ele><time>2026-03-29T14:57:56.166Z</time></trkpt><trkpt lat="44.8315989" lon="9.4332444"><ele>543.0</ele><time>2026-03-29T14:57:57.798Z</time></trkpt><trkpt lat="44.8311118" lon="9.4347069"><ele>552.6666666666666</ele><time>2026-03-29T14:58:10.167Z</time></trkpt><trkpt lat="44.8311301" lon="9.4349422"><ele>562.3333333333333</ele><time>2026-03-29T14:58:11.166Z</time></trkpt><trkpt lat="44.8311152" lon="9.4352124"><ele>572.0</ele><time>2026-03-29T14:58:12.167Z</time></trkpt><trkpt lat="44.8310903" lon="9.4355057"><ele>573.3333333333333</ele><time>2026-03-29T14:58:13.167Z</time></trkpt><trkpt lat="44.8310703" lon="9.4357585"><ele>574.6666666666666</ele><time>2026-03-29T14:58:14.166Z</time></trkpt><trkpt lat="44.8310573" lon="9.4359745"><ele>576.0</ele><time>2026-03-29T14:58:15.166Z</time></trkpt><trkpt lat="44.8311074" lon="9.4363141"><ele>579.0</ele><time>2026-03-29T14:58:17.392Z</time></trkpt><trkpt lat="44.832075" lon="9.4389074"><ele>579.0</ele><time>2026-03-29T14:58:30.166Z</time></trkpt><trkpt lat="44.8322591" lon="9.4389846"><ele>579.0</ele><time>2026-03-29T14:58:32.167Z</time></trkpt><trkpt lat="44.8323504" lon="9.4387671"><ele>579.0</ele><time>2026-03-29T14:58:34.39Z</time></trkpt><trkpt lat="44.8327344" lon="9.4357001"><ele>617.0</ele><time>2026-03-29T14:58:48.366Z</time></trkpt><trkpt lat="44.8340229" lon="9.4361027"><ele>617.0</ele><time>2026-03-29T14:59:12.167Z</time></trkpt><trkpt lat="44.8338745" lon="9.4362814"><ele>617.0</ele><time>2026-03-29T14:59:13.168Z</time></trkpt><trkpt lat="44.8337368" lon="9.4364372"><ele>617.0</ele><time>2026-03-29T14:59:14.167Z</time></trkpt><trkpt lat="44.833627" lon="9.4365765"><ele>618.75</ele><time>2026-03-29T14:59:15.168Z</time></trkpt><trkpt lat="44.8335552" lon="9.4367217"><ele>620.5</ele><time>2026-03-29T14:59:16.168Z</time></trkpt><trkpt lat="44.8335231" lon="9.4368852"><ele>622.25</ele><time>2026-03-29T14:59:17.167Z</time></trkpt><trkpt lat="44.8335184" lon="9.4370501"><ele>624.0</ele><time>2026-03-29T14:59:18.168Z</time></trkpt><trkpt lat="44.8335557" lon="9.4371812"><ele>624.0</ele><time>2026-03-29T14:59:19.167Z</time></trkpt><trkpt lat="44.8337747" lon="9.4374501"><ele>624.0</ele><time>2026-03-29T14:59:21.365Z</time></trkpt><trkpt lat="44.8354553" lon="9.4398641"><ele>636.0</ele><time>2026-03-29T14:59:34.166Z</time></trkpt><trkpt lat="44.8354834" lon="9.4401148"><ele>648.0</ele><time>2026-03-29T14:59:35.361Z</time></trkpt><trkpt lat="44.8366097" lon="9.4420998"><ele>650.0</ele><time>2026-03-29T14:59:48.459Z</time></trkpt><trkpt lat="44.8368329" lon="9.4423185"><ele>652.0</ele><time>2026-03-29T14:59:50.351Z</time></trkpt><trkpt lat="44.8386327" lon="9.4414047"><ele>652.0</ele><time>2026-03-29T15:00:03.166Z</time></trkpt><trkpt lat="44.8387635" lon="9.4414684"><ele>652.0</ele><time>2026-03-29T15:00:04.166Z</time></trkpt><trkpt lat="44.8388887" lon="9.441513"><ele>652.0</ele><time>2026-03-29T15:00:05.166Z</time></trkpt><trkpt lat="44.8390293" lon="9.4414808"><ele>652.0</ele><time>2026-03-29T15:00:06.167Z</time></trkpt><trkpt lat="44.8391904" lon="9.4413853"><ele>667.0</ele><time>2026-03-29T15:00:07.167Z</time></trkpt><trkpt lat="44.8397386" lon="9.4411497"><ele>667.0</ele><time>2026-03-29T15:00:11.099Z</time></trkpt><trkpt lat="44.8400077" lon="9.4407875"><ele>667.0</ele><time>2026-03-29T15:00:13.338Z</time></trkpt><trkpt lat="44.8414055" lon="9.4390786"><ele>671.3333333333334</ele><time>2026-03-29T15:00:26.167Z</time></trkpt><trkpt lat="44.8415103" lon="9.4389363"><ele>675.6666666666666</ele><time>2026-03-29T15:00:27.166Z</time></trkpt><trkpt lat="44.8416501" lon="9.4388438"><ele>680.0</ele><time>2026-03-29T15:00:28.167Z</time></trkpt><trkpt lat="44.8418206" lon="9.438792"><ele>681.25</ele><time>2026-03-29T15:00:29.167Z</time></trkpt><trkpt lat="44.8420013" lon="9.4387925"><ele>682.5</ele><time>2026-03-29T15:00:30.167Z</time></trkpt><trkpt lat="44.8421362" lon="9.4388048"><ele>683.75</ele><time>2026-03-29T15:00:31.167Z</time></trkpt><trkpt lat="44.8422546" lon="9.4387604"><ele>685.0</ele><time>2026-03-29T15:00:32.165Z</time></trkpt><trkpt lat="44.8423646" lon="9.4386396"><ele>685.0</ele><time>2026-03-29T15:00:33.167Z</time></trkpt><trkpt lat="44.8424701" lon="9.4384394"><ele>685.0</ele><time>2026-03-29T15:00:34.166Z</time></trkpt><trkpt lat="44.842665" lon="9.4379811"><ele>667.0</ele><time>2026-03-29T15:00:36.167Z</time></trkpt><trkpt lat="44.8400077" lon="9.4407875"><ele>698.0</ele><time>2026-03-29T15:00:36.4Z</time></trkpt><trkpt lat="44.8444815" lon="9.4371599"><ele>698.0</ele><time>2026-03-29T15:00:49.167Z</time></trkpt><trkpt lat="44.8445942" lon="9.4372477"><ele>698.0</ele><time>2026-03-29T15:00:50.167Z</time></trkpt><trkpt lat="44.8447187" lon="9.437378"><ele>698.0</ele><time>2026-03-29T15:00:51.166Z</time></trkpt><trkpt lat="44.8448843" lon="9.4374828"><ele>706.5</ele><time>2026-03-29T15:00:52.168Z</time></trkpt><trkpt lat="44.8452934" lon="9.4375983"><ele>715.0</ele><time>2026-03-29T15:00:54.486Z</time></trkpt><trkpt lat="44.8469077" lon="9.4386116"><ele>720.0</ele><time>2026-03-29T15:01:08.323Z</time></trkpt><trkpt lat="44.8471775" lon="9.4387611"><ele>725.0</ele><time>2026-03-29T15:01:09.167Z</time></trkpt><trkpt lat="44.8473362" lon="9.4388578"><ele>720.0</ele><time>2026-03-29T15:01:10.166Z</time></trkpt><trkpt lat="44.8474459" lon="9.4389726"><ele>715.0</ele><time>2026-03-29T15:01:11.165Z</time></trkpt><trkpt lat="44.8475403" lon="9.4390495"><ele>710.0</ele><time>2026-03-29T15:01:12.167Z</time></trkpt><trkpt lat="44.8476497" lon="9.4390549"><ele>705.0</ele><time>2026-03-29T15:01:13.166Z</time></trkpt><trkpt lat="44.8477802" lon="9.4389966"><ele>704.3333333333334</ele><time>2026-03-29T15:01:14.167Z</time></trkpt><trkpt lat="44.8479337" lon="9.43889"><ele>703.6666666666667</ele><time>2026-03-29T15:01:15.167Z</time></trkpt><trkpt lat="44.8481249" lon="9.4387379"><ele>703.0</ele><time>2026-03-29T15:01:16.167Z</time></trkpt><trkpt lat="44.8483261" lon="9.4385959"><ele>715.0</ele><time>2026-03-29T15:01:17.167Z</time></trkpt><trkpt lat="44.8452934" lon="9.4375983"><ele>722.0</ele><time>2026-03-29T15:01:18.14Z</time></trkpt><trkpt lat="44.8486354" lon="9.4383964"><ele>722.0</ele><time>2026-03-29T15:01:19.342Z</time></trkpt><trkpt lat="44.8487604" lon="9.4383629"><ele>722.0</ele><time>2026-03-29T15:01:20.364Z</time></trkpt><trkpt lat="44.8501476" lon="9.4400489"><ele>723.5</ele><time>2026-03-29T15:01:33.165Z</time></trkpt><trkpt lat="44.8502341" lon="9.4402604"><ele>725.0</ele><time>2026-03-29T15:01:34.167Z</time></trkpt><trkpt lat="44.8503457" lon="9.4403809"><ele>726.5</ele><time>2026-03-29T15:01:35.166Z</time></trkpt><trkpt lat="44.8504623" lon="9.4404662"><ele>728.0</ele><time>2026-03-29T15:01:36.167Z</time></trkpt><trkpt lat="44.8506926" lon="9.4404015"><ele>728.0</ele><time>2026-03-29T15:01:38.167Z</time></trkpt><trkpt lat="44.8507859" lon="9.4402643"><ele>728.0</ele><time>2026-03-29T15:01:39.336Z</time></trkpt><trkpt lat="44.8509824" lon="9.4400046"><ele>728.0</ele><time>2026-03-29T15:01:41.358Z</time></trkpt><trkpt lat="44.8530809" lon="9.4401025"><ele>729.75</ele><time>2026-03-29T15:01:54.167Z</time></trkpt><trkpt lat="44.8532036" lon="9.4401854"><ele>731.5</ele><time>2026-03-29T15:01:55.166Z</time></trkpt><trkpt lat="44.8533009" lon="9.4403226"><ele>733.25</ele><time>2026-03-29T15:01:56.165Z</time></trkpt><trkpt lat="44.853379" lon="9.4405124"><ele>735.0</ele><time>2026-03-29T15:01:57.166Z</time></trkpt><trkpt lat="44.8534415" lon="9.4407207"><ele>741.6666666666666</ele><time>2026-03-29T15:01:58.167Z</time></trkpt><trkpt lat="44.8534832" lon="9.4409021"><ele>748.3333333333333</ele><time>2026-03-29T15:01:59.167Z</time></trkpt><trkpt lat="44.8535409" lon="9.4410932"><ele>755.0</ele><time>2026-03-29T15:02:00.167Z</time></trkpt><trkpt lat="44.8536419" lon="9.4412928"><ele>753.0</ele><time>2026-03-29T15:02:01.166Z</time></trkpt><trkpt lat="44.8537667" lon="9.4415118"><ele>751.0</ele><time>2026-03-29T15:02:02.167Z</time></trkpt><trkpt lat="44.8539001" lon="9.4417475"><ele>749.0</ele><time>2026-03-29T15:02:03.167Z</time></trkpt><trkpt lat="44.8540229" lon="9.4419584"><ele>749.0</ele><time>2026-03-29T15:02:04.165Z</time></trkpt><trkpt lat="44.8541262" lon="9.4421206"><ele>749.0</ele><time>2026-03-29T15:02:05.166Z</time></trkpt><trkpt lat="44.8542385" lon="9.4422296"><ele>749.0</ele><time>2026-03-29T15:02:06.166Z</time></trkpt><trkpt lat="44.8543711" lon="9.4422818"><ele>749.0</ele><time>2026-03-29T15:02:07.166Z</time></trkpt><trkpt lat="44.8545385" lon="9.4423169"><ele>750.5</ele><time>2026-03-29T15:02:08.167Z</time></trkpt><trkpt lat="44.8546822" lon="9.4423503"><ele>752.0</ele><time>2026-03-29T15:02:09.167Z</time></trkpt><trkpt lat="44.8548035" lon="9.4424309"><ele>753.5</ele><time>2026-03-29T15:02:10.166Z</time></trkpt><trkpt lat="44.8548881" lon="9.442551"><ele>755.0</ele><time>2026-03-29T15:02:11.167Z</time></trkpt><trkpt lat="44.854918" lon="9.4426951"><ele>755.0</ele><time>2026-03-29T15:02:12.166Z</time></trkpt><trkpt lat="44.8549047" lon="9.4428597"><ele>755.0</ele><time>2026-03-29T15:02:13.167Z</time></trkpt><trkpt lat="44.8548847" lon="9.4430467"><ele>755.0</ele><time>2026-03-29T15:02:14.165Z</time></trkpt><trkpt lat="44.8548988" lon="9.4432222"><ele>755.0</ele><time>2026-03-29T15:02:15.167Z</time></trkpt><trkpt lat="44.8549396" lon="9.4433967"><ele>753.4</ele><time>2026-03-29T15:02:16.167Z</time></trkpt><trkpt lat="44.8549899" lon="9.4435479"><ele>751.8</ele><time>2026-03-29T15:02:17.167Z</time></trkpt><trkpt lat="44.8550395" lon="9.443663"><ele>750.2</ele><time>2026-03-29T15:02:18.167Z</time></trkpt><trkpt lat="44.8550922" lon="9.4437361"><ele>748.6</ele><time>2026-03-29T15:02:19.166Z</time></trkpt><trkpt lat="44.8551761" lon="9.4438268"><ele>747.0</ele><time>2026-03-29T15:02:21.167Z</time></trkpt><trkpt lat="44.855244" lon="9.4438075"><ele>747.0</ele><time>2026-03-29T15:03:46.167Z</time></trkpt><trkpt lat="44.8553392" lon="9.4437251"><ele>747.0</ele><time>2026-03-29T15:03:48.166Z</time></trkpt><trkpt lat="44.8554155" lon="9.4436535"><ele>747.0</ele><time>2026-03-29T15:03:49.167Z</time></trkpt><trkpt lat="44.8555036" lon="9.4435732"><ele>747.0</ele><time>2026-03-29T15:03:50.165Z</time></trkpt><trkpt lat="44.8555833" lon="9.4434976"><ele>747.0</ele><time>2026-03-29T15:03:51.166Z</time></trkpt><trkpt lat="44.8556592" lon="9.4434221"><ele>747.0</ele><time>2026-03-29T15:03:52.167Z</time></trkpt><trkpt lat="44.8557303" lon="9.4433413"><ele>747.0</ele><time>2026-03-29T15:03:53.165Z</time></trkpt><trkpt lat="44.8557918" lon="9.4432582"><ele>747.0</ele><time>2026-03-29T15:03:54.166Z</time></trkpt><trkpt lat="44.8558452" lon="9.443167"><ele>747.0</ele><time>2026-03-29T15:03:55.166Z</time></trkpt><trkpt lat="44.8558846" lon="9.443073"><ele>747.0</ele><time>2026-03-29T15:03:56.167Z</time></trkpt><trkpt lat="44.8559155" lon="9.4429744"><ele>747.0</ele><time>2026-03-29T15:03:57.167Z</time></trkpt><trkpt lat="44.8559376" lon="9.4428685"><ele>744.6666666666666</ele><time>2026-03-29T15:03:58.167Z</time></trkpt><trkpt lat="44.855954" lon="9.4427626"><ele>742.3333333333334</ele><time>2026-03-29T15:03:59.166Z</time></trkpt><trkpt lat="44.8559669" lon="9.4426637"><ele>740.0</ele><time>2026-03-29T15:04:00.167Z</time></trkpt><trkpt lat="44.8559782" lon="9.4425654"><ele>737.6666666666667</ele><time>2026-03-29T15:04:01.166Z</time></trkpt><trkpt lat="44.8559878" lon="9.4424628"><ele>735.3333333333334</ele><time>2026-03-29T15:04:02.167Z</time></trkpt><trkpt lat="44.8559971" lon="9.4423522"><ele>733.0</ele><time>2026-03-29T15:04:03.166Z</time></trkpt><trkpt lat="44.8560043" lon="9.4422369"><ele>733.0</ele><time>2026-03-29T15:04:04.167Z</time></trkpt><trkpt lat="44.8560101" lon="9.4421143"><ele>733.0</ele><time>2026-03-29T15:04:05.167Z</time></trkpt><trkpt lat="44.8560028" lon="9.442002"><ele>733.0</ele><time>2026-03-29T15:04:06.167Z</time></trkpt><trkpt lat="44.8559857" lon="9.4418947"><ele>733.0</ele><time>2026-03-29T15:04:07.167Z</time></trkpt><trkpt lat="44.85596" lon="9.4417984"><ele>733.0</ele><time>2026-03-29T15:04:08.167Z</time></trkpt><trkpt lat="44.8559323" lon="9.4417059"><ele>733.0</ele><time>2026-03-29T15:04:09.167Z</time></trkpt><trkpt lat="44.8559058" lon="9.4416203"><ele>736.5999999999999</ele><time>2026-03-29T15:04:10.167Z</time></trkpt><trkpt lat="44.8558823" lon="9.4415369"><ele>740.1999999999999</ele><time>2026-03-29T15:04:11.167Z</time></trkpt><trkpt lat="44.8558498" lon="9.4413821"><ele>743.8</ele><time>2026-03-29T15:04:13.166Z</time></trkpt><trkpt lat="44.8558264" lon="9.4412287"><ele>747.4</ele><time>2026-03-29T15:04:15.167Z</time></trkpt><trkpt lat="44.8557996" lon="9.4410564"><ele>751.0</ele><time>2026-03-29T15:04:17.166Z</time></trkpt><trkpt lat="44.8557987" lon="9.4409611"><ele>752.0</ele><time>2026-03-29T15:04:18.167Z</time></trkpt><trkpt lat="44.8558232" lon="9.4408651"><ele>753.0</ele><time>2026-03-29T15:04:19.166Z</time></trkpt><trkpt lat="44.8558737" lon="9.4407829"><ele>754.0</ele><time>2026-03-29T15:04:20.167Z</time></trkpt><trkpt lat="44.855947" lon="9.4407158"><ele>755.0</ele><time>2026-03-29T15:04:21.166Z</time></trkpt><trkpt lat="44.8560336" lon="9.4406593"><ele>756.0</ele><time>2026-03-29T15:04:22.166Z</time></trkpt><trkpt lat="44.8561266" lon="9.4406023"><ele>757.0</ele><time>2026-03-29T15:04:23.167Z</time></trkpt><trkpt lat="44.8562045" lon="9.4405137"><ele>755.0</ele><time>2026-03-29T15:04:24.166Z</time></trkpt><trkpt lat="44.8562647" lon="9.4404134"><ele>753.0</ele><time>2026-03-29T15:04:25.167Z</time></trkpt><trkpt lat="44.8563068" lon="9.4402997"><ele>751.0</ele><time>2026-03-29T15:04:26.167Z</time></trkpt><trkpt lat="44.8563422" lon="9.4401761"><ele>749.0</ele><time>2026-03-29T15:04:27.167Z</time></trkpt><trkpt lat="44.8563687" lon="9.4400356"><ele>747.0</ele><time>2026-03-29T15:04:28.167Z</time></trkpt><trkpt lat="44.856393" lon="9.4398897"><ele>747.0</ele><time>2026-03-29T15:04:29.167Z</time></trkpt><trkpt lat="44.856407" lon="9.4397496"><ele>747.0</ele><time>2026-03-29T15:04:30.166Z</time></trkpt><trkpt lat="44.8564226" lon="9.4395955"><ele>747.0</ele><time>2026-03-29T15:04:31.167Z</time></trkpt><trkpt lat="44.8564414" lon="9.4394425"><ele>747.0</ele><time>2026-03-29T15:04:32.166Z</time></trkpt><trkpt lat="44.8564617" lon="9.4392826"><ele>747.0</ele><time>2026-03-29T15:04:33.167Z</time></trkpt><trkpt lat="44.8564847" lon="9.4391204"><ele>749.5</ele><time>2026-03-29T15:04:34.166Z</time></trkpt><trkpt lat="44.8565176" lon="9.4389439"><ele>752.0</ele><time>2026-03-29T15:04:35.166Z</time></trkpt><trkpt lat="44.8565795" lon="9.4387681"><ele>754.5</ele><time>2026-03-29T15:04:36.166Z</time></trkpt><trkpt lat="44.8566665" lon="9.4386008"><ele>757.0</ele><time>2026-03-29T15:04:37.167Z</time></trkpt><trkpt lat="44.856763" lon="9.4384555"><ele>756.6666666666667</ele><time>2026-03-29T15:04:38.166Z</time></trkpt><trkpt lat="44.8568792" lon="9.4383418"><ele>756.3333333333334</ele><time>2026-03-29T15:04:39.167Z</time></trkpt><trkpt lat="44.8570187" lon="9.4382641"><ele>756.0</ele><time>2026-03-29T15:04:40.166Z</time></trkpt><trkpt lat="44.8571845" lon="9.4382104"><ele>756.0</ele><time>2026-03-29T15:04:41.166Z</time></trkpt><trkpt lat="44.8573669" lon="9.4381798"><ele>756.0</ele><time>2026-03-29T15:04:42.166Z</time></trkpt><trkpt lat="44.8575217" lon="9.4381732"><ele>756.0</ele><time>2026-03-29T15:04:43.166Z</time></trkpt><trkpt lat="44.8576504" lon="9.4381566"><ele>756.1999999999999</ele><time>2026-03-29T15:04:44.167Z</time></trkpt><trkpt lat="44.8577572" lon="9.4381125"><ele>756.4</ele><time>2026-03-29T15:04:45.167Z</time></trkpt><trkpt lat="44.857835" lon="9.4380316"><ele>756.6</ele><time>2026-03-29T15:04:46.167Z</time></trkpt><trkpt lat="44.8578829" lon="9.4379216"><ele>756.8</ele><time>2026-03-29T15:04:47.166Z</time></trkpt><trkpt lat="44.8578953" lon="9.4377881"><ele>757.0</ele><time>2026-03-29T15:04:48.167Z</time></trkpt><trkpt lat="44.8578785" lon="9.4376414"><ele>755.8</ele><time>2026-03-29T15:04:49.167Z</time></trkpt><trkpt lat="44.8578479" lon="9.4374893"><ele>754.6</ele><time>2026-03-29T15:04:50.166Z</time></trkpt><trkpt lat="44.8578194" lon="9.4373512"><ele>753.4</ele><time>2026-03-29T15:04:51.167Z</time></trkpt><trkpt lat="44.8578094" lon="9.4372109"><ele>752.1999999999999</ele><time>2026-03-29T15:04:52.166Z</time></trkpt><trkpt lat="44.8578275" lon="9.4370542"><ele>751.0</ele><time>2026-03-29T15:04:53.167Z</time></trkpt><trkpt lat="44.8578806" lon="9.436916"><ele>751.0</ele><time>2026-03-29T15:04:54.167Z</time></trkpt><trkpt lat="44.8579605" lon="9.4367909"><ele>751.0</ele><time>2026-03-29T15:04:55.166Z</time></trkpt><trkpt lat="44.8580542" lon="9.4366541"><ele>751.0</ele><time>2026-03-29T15:04:56.167Z</time></trkpt><trkpt lat="44.8581504" lon="9.4365027"><ele>751.0</ele><time>2026-03-29T15:04:57.166Z</time></trkpt><trkpt lat="44.8582536" lon="9.4363293"><ele>749.0</ele><time>2026-03-29T15:04:58.167Z</time></trkpt><trkpt lat="44.858362" lon="9.4361442"><ele>747.0</ele><time>2026-03-29T15:04:59.167Z</time></trkpt><trkpt lat="44.8584775" lon="9.4359509"><ele>745.0</ele><time>2026-03-29T15:05:00.167Z</time></trkpt><trkpt lat="44.8585979" lon="9.4357367"><ele>745.0</ele><time>2026-03-29T15:05:01.167Z</time></trkpt><trkpt lat="44.8587195" lon="9.435527"><ele>745.0</ele><time>2026-03-29T15:05:02.166Z</time></trkpt><trkpt lat="44.8588449" lon="9.4353242"><ele>745.0</ele><time>2026-03-29T15:05:03.167Z</time></trkpt><trkpt lat="44.8589638" lon="9.435135"><ele>748.0</ele><time>2026-03-29T15:05:04.167Z</time></trkpt><trkpt lat="44.8590704" lon="9.4349638"><ele>751.0</ele><time>2026-03-29T15:05:05.167Z</time></trkpt><trkpt lat="44.8591728" lon="9.4348096"><ele>754.0</ele><time>2026-03-29T15:05:06.167Z</time></trkpt><trkpt lat="44.8592822" lon="9.4347024"><ele>757.0</ele><time>2026-03-29T15:05:07.167Z</time></trkpt><trkpt lat="44.8594163" lon="9.4346335"><ele>755.3333333333334</ele><time>2026-03-29T15:05:08.165Z</time></trkpt><trkpt lat="44.8595649" lon="9.4346146"><ele>753.6666666666666</ele><time>2026-03-29T15:05:09.167Z</time></trkpt><trkpt lat="44.8597146" lon="9.4346524"><ele>752.0</ele><time>2026-03-29T15:05:10.166Z</time></trkpt><trkpt lat="44.8598696" lon="9.4347362"><ele>752.0</ele><time>2026-03-29T15:05:11.165Z</time></trkpt><trkpt lat="44.8600406" lon="9.4348401"><ele>752.0</ele><time>2026-03-29T15:05:12.166Z</time></trkpt><trkpt lat="44.8601915" lon="9.4349222"><ele>752.0</ele><time>2026-03-29T15:05:13.166Z</time></trkpt><trkpt lat="44.8603185" lon="9.4349994"><ele>751.75</ele><time>2026-03-29T15:05:14.167Z</time></trkpt><trkpt lat="44.8604424" lon="9.4350442"><ele>751.5</ele><time>2026-03-29T15:05:15.167Z</time></trkpt><trkpt lat="44.8605669" lon="9.4350425"><ele>751.25</ele><time>2026-03-29T15:05:16.167Z</time></trkpt><trkpt lat="44.8606916" lon="9.434984"><ele>751.0</ele><time>2026-03-29T15:05:17.167Z</time></trkpt><trkpt lat="44.8608194" lon="9.4348958"><ele>748.0</ele><time>2026-03-29T15:05:18.167Z</time></trkpt><trkpt lat="44.8609708" lon="9.4348423"><ele>745.0</ele><time>2026-03-29T15:05:19.166Z</time></trkpt><trkpt lat="44.8611473" lon="9.4347824"><ele>742.0</ele><time>2026-03-29T15:05:20.167Z</time></trkpt><trkpt lat="44.8613276" lon="9.4346841"><ele>744.3333333333334</ele><time>2026-03-29T15:05:21.166Z</time></trkpt><trkpt lat="44.8615143" lon="9.4345752"><ele>746.6666666666666</ele><time>2026-03-29T15:05:22.167Z</time></trkpt><trkpt lat="44.8616885" lon="9.4344757"><ele>749.0</ele><time>2026-03-29T15:05:23.166Z</time></trkpt><trkpt lat="44.8618546" lon="9.4343632"><ele>749.0</ele><time>2026-03-29T15:05:24.166Z</time></trkpt><trkpt lat="44.8619968" lon="9.4342478"><ele>749.0</ele><time>2026-03-29T15:05:25.166Z</time></trkpt><trkpt lat="44.8621135" lon="9.434149"><ele>749.0</ele><time>2026-03-29T15:05:26.166Z</time></trkpt><trkpt lat="44.8622277" lon="9.434109"><ele>749.0</ele><time>2026-03-29T15:05:27.167Z</time></trkpt><trkpt lat="44.8623461" lon="9.4341271"><ele>749.0</ele><time>2026-03-29T15:05:28.167Z</time></trkpt><trkpt lat="44.8624776" lon="9.4341757"><ele>749.0</ele><time>2026-03-29T15:05:29.166Z</time></trkpt><trkpt lat="44.8626007" lon="9.4341967"><ele>749.0</ele><time>2026-03-29T15:05:30.167Z</time></trkpt><trkpt lat="44.8627111" lon="9.434161"><ele>749.0</ele><time>2026-03-29T15:05:31.167Z</time></trkpt><trkpt lat="44.8627986" lon="9.434071"><ele>748.75</ele><time>2026-03-29T15:05:32.167Z</time></trkpt><trkpt lat="44.8628622" lon="9.4339219"><ele>748.5</ele><time>2026-03-29T15:05:33.167Z</time></trkpt><trkpt lat="44.862914" lon="9.4337346"><ele>748.25</ele><time>2026-03-29T15:05:34.167Z</time></trkpt><trkpt lat="44.8629804" lon="9.433558"><ele>748.0</ele><time>2026-03-29T15:05:35.166Z</time></trkpt><trkpt lat="44.8630875" lon="9.433421"><ele>748.0</ele><time>2026-03-29T15:05:36.167Z</time></trkpt><trkpt lat="44.86322" lon="9.4333352"><ele>748.0</ele><time>2026-03-29T15:05:37.167Z</time></trkpt><trkpt lat="44.863372" lon="9.4333151"><ele>748.0</ele><time>2026-03-29T15:05:38.166Z</time></trkpt><trkpt lat="44.8635191" lon="9.4333237"><ele>748.0</ele><time>2026-03-29T15:05:39.166Z</time></trkpt><trkpt lat="44.8636497" lon="9.4333247"><ele>745.25</ele><time>2026-03-29T15:05:40.166Z</time></trkpt><trkpt lat="44.8637685" lon="9.4333009"><ele>742.5</ele><time>2026-03-29T15:05:41.167Z</time></trkpt><trkpt lat="44.863881" lon="9.433242"><ele>739.75</ele><time>2026-03-29T15:05:42.167Z</time></trkpt><trkpt lat="44.8639915" lon="9.4331339"><ele>737.0</ele><time>2026-03-29T15:05:43.167Z</time></trkpt><trkpt lat="44.8641043" lon="9.4329959"><ele>740.0</ele><time>2026-03-29T15:05:44.167Z</time></trkpt><trkpt lat="44.8642218" lon="9.4328345"><ele>743.0</ele><time>2026-03-29T15:05:45.167Z</time></trkpt><trkpt lat="44.8643504" lon="9.4326616"><ele>746.0</ele><time>2026-03-29T15:05:46.166Z</time></trkpt><trkpt lat="44.8644829" lon="9.4324941"><ele>742.6666666666666</ele><time>2026-03-29T15:05:47.166Z</time></trkpt><trkpt lat="44.8646289" lon="9.4323323"><ele>739.3333333333334</ele><time>2026-03-29T15:05:48.167Z</time></trkpt><trkpt lat="44.8647835" lon="9.4321795"><ele>736.0</ele><time>2026-03-29T15:05:49.166Z</time></trkpt><trkpt lat="44.8649402" lon="9.4320501"><ele>736.0</ele><time>2026-03-29T15:05:50.167Z</time></trkpt><trkpt lat="44.865093" lon="9.4319455"><ele>736.0</ele><time>2026-03-29T15:05:51.167Z</time></trkpt><trkpt lat="44.8652442" lon="9.431871"><ele>736.0</ele><time>2026-03-29T15:05:52.166Z</time></trkpt><trkpt lat="44.8653903" lon="9.4318234"><ele>733.0</ele><time>2026-03-29T15:05:53.167Z</time></trkpt><trkpt lat="44.8655354" lon="9.4317753"><ele>730.0</ele><time>2026-03-29T15:05:54.166Z</time></trkpt><trkpt lat="44.8656938" lon="9.4317146"><ele>727.0</ele><time>2026-03-29T15:05:55.166Z</time></trkpt><trkpt lat="44.8658617" lon="9.4316375"><ele>724.6666666666667</ele><time>2026-03-29T15:05:56.167Z</time></trkpt><trkpt lat="44.8660371" lon="9.4315527"><ele>722.3333333333334</ele><time>2026-03-29T15:05:57.166Z</time></trkpt><trkpt lat="44.866218" lon="9.4314717"><ele>720.0</ele><time>2026-03-29T15:05:58.167Z</time></trkpt><trkpt lat="44.8663922" lon="9.431409"><ele>720.0</ele><time>2026-03-29T15:05:59.167Z</time></trkpt><trkpt lat="44.866574" lon="9.4313737"><ele>720.0</ele><time>2026-03-29T15:06:00.167Z</time></trkpt><trkpt lat="44.8667563" lon="9.4313809"><ele>720.0</ele><time>2026-03-29T15:06:01.167Z</time></trkpt><trkpt lat="44.8669292" lon="9.4314304"><ele>721.0</ele><time>2026-03-29T15:06:02.167Z</time></trkpt><trkpt lat="44.8671011" lon="9.4315134"><ele>722.0</ele><time>2026-03-29T15:06:03.167Z</time></trkpt><trkpt lat="44.8672572" lon="9.431613"><ele>723.0</ele><time>2026-03-29T15:06:04.166Z</time></trkpt><trkpt lat="44.8674134" lon="9.4317425"><ele>723.0</ele><time>2026-03-29T15:06:05.167Z</time></trkpt><trkpt lat="44.8675639" lon="9.431874"><ele>723.0</ele><time>2026-03-29T15:06:06.167Z</time></trkpt><trkpt lat="44.8676968" lon="9.431991"><ele>723.0</ele><time>2026-03-29T15:06:07.167Z</time></trkpt><trkpt lat="44.8678385" lon="9.4320607"><ele>725.0</ele><time>2026-03-29T15:06:08.167Z</time></trkpt><trkpt lat="44.8679984" lon="9.4320988"><ele>727.0</ele><time>2026-03-29T15:06:09.166Z</time></trkpt><trkpt lat="44.8681722" lon="9.4321242"><ele>729.0</ele><time>2026-03-29T15:06:10.167Z</time></trkpt><trkpt lat="44.8683454" lon="9.4321734"><ele>729.3333333333334</ele><time>2026-03-29T15:06:11.167Z</time></trkpt><trkpt lat="44.8685132" lon="9.4322342"><ele>729.6666666666667</ele><time>2026-03-29T15:06:12.167Z</time></trkpt><trkpt lat="44.868683" lon="9.4323193"><ele>730.0</ele><time>2026-03-29T15:06:13.166Z</time></trkpt><trkpt lat="44.8688434" lon="9.4324327"><ele>730.0</ele><time>2026-03-29T15:06:14.166Z</time></trkpt><trkpt lat="44.8689729" lon="9.4325811"><ele>730.0</ele><time>2026-03-29T15:06:15.167Z</time></trkpt><trkpt lat="44.8690725" lon="9.4327513"><ele>730.0</ele><time>2026-03-29T15:06:16.167Z</time></trkpt><trkpt lat="44.8691437" lon="9.4329505"><ele>729.0</ele><time>2026-03-29T15:06:17.166Z</time></trkpt><trkpt lat="44.8692152" lon="9.4331581"><ele>728.0</ele><time>2026-03-29T15:06:18.166Z</time></trkpt><trkpt lat="44.8693012" lon="9.4333513"><ele>727.0</ele><time>2026-03-29T15:06:19.167Z</time></trkpt><trkpt lat="44.8693857" lon="9.4335283"><ele>727.0</ele><time>2026-03-29T15:06:20.166Z</time></trkpt><trkpt lat="44.8694669" lon="9.4336958"><ele>727.0</ele><time>2026-03-29T15:06:21.167Z</time></trkpt><trkpt lat="44.8695413" lon="9.4338501"><ele>727.0</ele><time>2026-03-29T15:06:22.166Z</time></trkpt><trkpt lat="44.8696154" lon="9.4339821"><ele>727.0</ele><time>2026-03-29T15:06:23.167Z</time></trkpt><trkpt lat="44.8697046" lon="9.4340843"><ele>727.0</ele><time>2026-03-29T15:06:24.166Z</time></trkpt><trkpt lat="44.8698174" lon="9.4341547"><ele>727.0</ele><time>2026-03-29T15:06:25.166Z</time></trkpt><trkpt lat="44.8699533" lon="9.4341922"><ele>727.0</ele><time>2026-03-29T15:06:26.167Z</time></trkpt><trkpt lat="44.8700999" lon="9.4342117"><ele>727.0</ele><time>2026-03-29T15:06:27.167Z</time></trkpt><trkpt lat="44.8702214" lon="9.4342325"><ele>727.0</ele><time>2026-03-29T15:06:28.167Z</time></trkpt><trkpt lat="44.8703202" lon="9.4342996"><ele>727.0</ele><time>2026-03-29T15:06:29.167Z</time></trkpt><trkpt lat="44.8703867" lon="9.4344119"><ele>727.0</ele><time>2026-03-29T15:06:30.166Z</time></trkpt><trkpt lat="44.8704347" lon="9.4345653"><ele>727.0</ele><time>2026-03-29T15:06:31.166Z</time></trkpt><trkpt lat="44.8704679" lon="9.4347179"><ele>727.0</ele><time>2026-03-29T15:06:32.166Z</time></trkpt><trkpt lat="44.8705144" lon="9.4348464"><ele>724.75</ele><time>2026-03-29T15:06:33.167Z</time></trkpt><trkpt lat="44.870591" lon="9.4349554"><ele>722.5</ele><time>2026-03-29T15:06:34.167Z</time></trkpt><trkpt lat="44.8706982" lon="9.4350528"><ele>720.25</ele><time>2026-03-29T15:06:35.167Z</time></trkpt><trkpt lat="44.8708304" lon="9.4351499"><ele>718.0</ele><time>2026-03-29T15:06:36.166Z</time></trkpt><trkpt lat="44.8709855" lon="9.4352582"><ele>718.0</ele><time>2026-03-29T15:06:37.166Z</time></trkpt><trkpt lat="44.8711618" lon="9.4353845"><ele>718.0</ele><time>2026-03-29T15:06:38.167Z</time></trkpt><trkpt lat="44.8713574" lon="9.4355324"><ele>718.0</ele><time>2026-03-29T15:06:39.166Z</time></trkpt><trkpt lat="44.8715288" lon="9.4356709"><ele>714.5</ele><time>2026-03-29T15:06:40.167Z</time></trkpt><trkpt lat="44.8716763" lon="9.4357897"><ele>711.0</ele><time>2026-03-29T15:06:41.167Z</time></trkpt><trkpt lat="44.8718062" lon="9.4358677"><ele>707.5</ele><time>2026-03-29T15:06:42.167Z</time></trkpt><trkpt lat="44.8719196" lon="9.435882"><ele>704.0</ele><time>2026-03-29T15:06:43.167Z</time></trkpt><trkpt lat="44.8720133" lon="9.4358367"><ele>704.0</ele><time>2026-03-29T15:06:44.167Z</time></trkpt><trkpt lat="44.8721035" lon="9.4357263"><ele>704.0</ele><time>2026-03-29T15:06:45.166Z</time></trkpt><trkpt lat="44.8721987" lon="9.4355477"><ele>704.0</ele><time>2026-03-29T15:06:46.166Z</time></trkpt><trkpt lat="44.8723137" lon="9.4353207"><ele>704.0</ele><time>2026-03-29T15:06:47.167Z</time></trkpt><trkpt lat="44.8724125" lon="9.4351136"><ele>704.0</ele><time>2026-03-29T15:06:48.166Z</time></trkpt><trkpt lat="44.8724961" lon="9.4349125"><ele>704.0</ele><time>2026-03-29T15:06:49.167Z</time></trkpt><trkpt lat="44.8725832" lon="9.4347366"><ele>702.6666666666666</ele><time>2026-03-29T15:06:50.167Z</time></trkpt><trkpt lat="44.8726982" lon="9.4346124"><ele>701.3333333333334</ele><time>2026-03-29T15:06:51.167Z</time></trkpt><trkpt lat="44.8728435" lon="9.4345247"><ele>700.0</ele><time>2026-03-29T15:06:52.166Z</time></trkpt><trkpt lat="44.87303" lon="9.4344589"><ele>700.0</ele><time>2026-03-29T15:06:53.167Z</time></trkpt><trkpt lat="44.8732498" lon="9.4344046"><ele>700.0</ele><time>2026-03-29T15:06:54.166Z</time></trkpt><trkpt lat="44.8734435" lon="9.434364"><ele>700.0</ele><time>2026-03-29T15:06:55.166Z</time></trkpt><trkpt lat="44.8736328" lon="9.434361"><ele>697.3333333333334</ele><time>2026-03-29T15:06:56.165Z</time></trkpt><trkpt lat="44.8738061" lon="9.4344064"><ele>694.6666666666666</ele><time>2026-03-29T15:06:57.167Z</time></trkpt><trkpt lat="44.8739632" lon="9.4344993"><ele>692.0</ele><time>2026-03-29T15:06:58.167Z</time></trkpt><trkpt lat="44.8741016" lon="9.4346103"><ele>693.25</ele><time>2026-03-29T15:06:59.166Z</time></trkpt><trkpt lat="44.8742292" lon="9.4347117"><ele>694.5</ele><time>2026-03-29T15:07:00.167Z</time></trkpt><trkpt lat="44.8743668" lon="9.4347654"><ele>695.75</ele><time>2026-03-29T15:07:01.166Z</time></trkpt><trkpt lat="44.8745106" lon="9.4347521"><ele>697.0</ele><time>2026-03-29T15:07:02.167Z</time></trkpt><trkpt lat="44.87466" lon="9.4346659"><ele>695.6666666666667</ele><time>2026-03-29T15:07:03.167Z</time></trkpt><trkpt lat="44.8748298" lon="9.4345173"><ele>694.3333333333334</ele><time>2026-03-29T15:07:04.167Z</time></trkpt><trkpt lat="44.8750074" lon="9.4343588"><ele>693.0</ele><time>2026-03-29T15:07:05.167Z</time></trkpt><trkpt lat="44.8751837" lon="9.4342429"><ele>691.3333333333334</ele><time>2026-03-29T15:07:06.167Z</time></trkpt><trkpt lat="44.8753607" lon="9.4341499"><ele>689.6666666666667</ele><time>2026-03-29T15:07:07.167Z</time></trkpt><trkpt lat="44.8755248" lon="9.4340904"><ele>688.0</ele><time>2026-03-29T15:07:08.166Z</time></trkpt><trkpt lat="44.8756779" lon="9.4340832"><ele>688.0</ele><time>2026-03-29T15:07:09.167Z</time></trkpt><trkpt lat="44.8758341" lon="9.4341447"><ele>688.0</ele><time>2026-03-29T15:07:10.167Z</time></trkpt><trkpt lat="44.8760058" lon="9.434238"><ele>688.0</ele><time>2026-03-29T15:07:11.166Z</time></trkpt><trkpt lat="44.8761631" lon="9.4343725"><ele>684.75</ele><time>2026-03-29T15:07:12.167Z</time></trkpt><trkpt lat="44.8762834" lon="9.4344814"><ele>681.5</ele><time>2026-03-29T15:07:13.167Z</time></trkpt><trkpt lat="44.8763567" lon="9.4346224"><ele>678.25</ele><time>2026-03-29T15:07:14.167Z</time></trkpt><trkpt lat="44.8763805" lon="9.4347794"><ele>675.0</ele><time>2026-03-29T15:07:15.166Z</time></trkpt><trkpt lat="44.8763718" lon="9.4349812"><ele>675.0</ele><time>2026-03-29T15:07:16.167Z</time></trkpt><trkpt lat="44.8763452" lon="9.4352436"><ele>675.0</ele><time>2026-03-29T15:07:17.167Z</time></trkpt><trkpt lat="44.8763092" lon="9.4355085"><ele>675.0</ele><time>2026-03-29T15:07:18.167Z</time></trkpt><trkpt lat="44.8762797" lon="9.4357208"><ele>675.75</ele><time>2026-03-29T15:07:19.167Z</time></trkpt><trkpt lat="44.8762568" lon="9.4359073"><ele>676.5</ele><time>2026-03-29T15:07:20.167Z</time></trkpt><trkpt lat="44.8762683" lon="9.4360793"><ele>677.25</ele><time>2026-03-29T15:07:21.166Z</time></trkpt><trkpt lat="44.8763317" lon="9.4362374"><ele>678.0</ele><time>2026-03-29T15:07:22.165Z</time></trkpt><trkpt lat="44.876443" lon="9.4363981"><ele>679.0</ele><time>2026-03-29T15:07:23.167Z</time></trkpt><trkpt lat="44.8765693" lon="9.4365785"><ele>680.0</ele><time>2026-03-29T15:07:24.166Z</time></trkpt><trkpt lat="44.8766674" lon="9.4367971"><ele>681.0</ele><time>2026-03-29T15:07:25.166Z</time></trkpt><trkpt lat="44.876738" lon="9.4370061"><ele>680.5</ele><time>2026-03-29T15:07:26.167Z</time></trkpt><trkpt lat="44.8767979" lon="9.4371785"><ele>680.0</ele><time>2026-03-29T15:07:27.167Z</time></trkpt><trkpt lat="44.8768722" lon="9.437312"><ele>679.5</ele><time>2026-03-29T15:07:28.167Z</time></trkpt><trkpt lat="44.87696" lon="9.4373877"><ele>679.0</ele><time>2026-03-29T15:07:29.166Z</time></trkpt><trkpt lat="44.877061" lon="9.4374038"><ele>679.0</ele><time>2026-03-29T15:07:30.167Z</time></trkpt><trkpt lat="44.8771887" lon="9.4373606"><ele>679.0</ele><time>2026-03-29T15:07:31.166Z</time></trkpt><trkpt lat="44.8773553" lon="9.4372801"><ele>679.0</ele><time>2026-03-29T15:07:32.167Z</time></trkpt><trkpt lat="44.8775297" lon="9.4371819"><ele>679.0</ele><time>2026-03-29T15:07:33.167Z</time></trkpt><trkpt lat="44.8776903" lon="9.4371048"><ele>679.0</ele><time>2026-03-29T15:07:34.167Z</time></trkpt><trkpt lat="44.8778612" lon="9.4370577"><ele>679.0</ele><time>2026-03-29T15:07:35.166Z</time></trkpt><trkpt lat="44.8780519" lon="9.4370338"><ele>679.0</ele><time>2026-03-29T15:07:36.167Z</time></trkpt><trkpt lat="44.8782519" lon="9.437005"><ele>679.0</ele><time>2026-03-29T15:07:37.167Z</time></trkpt><trkpt lat="44.8784539" lon="9.4369543"><ele>679.0</ele><time>2026-03-29T15:07:38.167Z</time></trkpt><trkpt lat="44.8786487" lon="9.4368927"><ele>677.75</ele><time>2026-03-29T15:07:39.166Z</time></trkpt><trkpt lat="44.8788065" lon="9.4368318"><ele>676.5</ele><time>2026-03-29T15:07:40.167Z</time></trkpt><trkpt lat="44.878937" lon="9.4367768"><ele>675.25</ele><time>2026-03-29T15:07:41.167Z</time></trkpt><trkpt lat="44.8790606" lon="9.4367368"><ele>674.0</ele><time>2026-03-29T15:07:42.167Z</time></trkpt><trkpt lat="44.8791759" lon="9.4367204"><ele>672.75</ele><time>2026-03-29T15:07:43.167Z</time></trkpt><trkpt lat="44.8792908" lon="9.4367461"><ele>671.5</ele><time>2026-03-29T15:07:44.166Z</time></trkpt><trkpt lat="44.8793936" lon="9.4368214"><ele>670.25</ele><time>2026-03-29T15:07:45.167Z</time></trkpt><trkpt lat="44.879482" lon="9.4369461"><ele>669.0</ele><time>2026-03-29T15:07:46.167Z</time></trkpt><trkpt lat="44.8795625" lon="9.4370789"><ele>669.0</ele><time>2026-03-29T15:07:47.167Z</time></trkpt><trkpt lat="44.8796448" lon="9.4371789"><ele>669.0</ele><time>2026-03-29T15:07:48.166Z</time></trkpt><trkpt lat="44.8797432" lon="9.4372314"><ele>669.0</ele><time>2026-03-29T15:07:49.167Z</time></trkpt><trkpt lat="44.8798515" lon="9.4372493"><ele>669.0</ele><time>2026-03-29T15:07:50.166Z</time></trkpt><trkpt lat="44.8799849" lon="9.4372169"><ele>669.6666666666666</ele><time>2026-03-29T15:07:51.166Z</time></trkpt><trkpt lat="44.8801417" lon="9.4371574"><ele>670.3333333333333</ele><time>2026-03-29T15:07:52.165Z</time></trkpt><trkpt lat="44.8803091" lon="9.4370903"><ele>671.0</ele><time>2026-03-29T15:07:53.166Z</time></trkpt><trkpt lat="44.8804581" lon="9.4370449"><ele>670.75</ele><time>2026-03-29T15:07:54.167Z</time></trkpt><trkpt lat="44.8805991" lon="9.4370411"><ele>670.5</ele><time>2026-03-29T15:07:55.167Z</time></trkpt><trkpt lat="44.8807386" lon="9.4370789"><ele>670.25</ele><time>2026-03-29T15:07:56.166Z</time></trkpt><trkpt lat="44.8808721" lon="9.4371308"><ele>670.0</ele><time>2026-03-29T15:07:57.167Z</time></trkpt><trkpt lat="44.8810181" lon="9.4371366"><ele>666.3333333333334</ele><time>2026-03-29T15:07:58.167Z</time></trkpt><trkpt lat="44.8811835" lon="9.437107"><ele>662.6666666666666</ele><time>2026-03-29T15:07:59.167Z</time></trkpt><trkpt lat="44.8813644" lon="9.4370713"><ele>659.0</ele><time>2026-03-29T15:08:00.166Z</time></trkpt><trkpt lat="44.8815623" lon="9.4370561"><ele>659.0</ele><time>2026-03-29T15:08:01.166Z</time></trkpt><trkpt lat="44.8817606" lon="9.437054"><ele>659.0</ele><time>2026-03-29T15:08:02.167Z</time></trkpt><trkpt lat="44.8819284" lon="9.4370362"><ele>659.0</ele><time>2026-03-29T15:08:03.167Z</time></trkpt><trkpt lat="44.8820655" lon="9.4369599"><ele>659.75</ele><time>2026-03-29T15:08:04.166Z</time></trkpt><trkpt lat="44.8821754" lon="9.4368639"><ele>660.5</ele><time>2026-03-29T15:08:05.166Z</time></trkpt><trkpt lat="44.8822773" lon="9.4368052"><ele>661.25</ele><time>2026-03-29T15:08:06.166Z</time></trkpt><trkpt lat="44.882396" lon="9.4367836"><ele>662.0</ele><time>2026-03-29T15:08:07.166Z</time></trkpt><trkpt lat="44.8825485" lon="9.4367528"><ele>661.6666666666666</ele><time>2026-03-29T15:08:08.166Z</time></trkpt><trkpt lat="44.8827282" lon="9.4366868"><ele>661.3333333333334</ele><time>2026-03-29T15:08:09.167Z</time></trkpt><trkpt lat="44.8829335" lon="9.4366051"><ele>661.0</ele><time>2026-03-29T15:08:10.167Z</time></trkpt><trkpt lat="44.8831211" lon="9.4365226"><ele>661.0</ele><time>2026-03-29T15:08:11.167Z</time></trkpt><trkpt lat="44.8833155" lon="9.4364321"><ele>661.0</ele><time>2026-03-29T15:08:12.167Z</time></trkpt><trkpt lat="44.8834987" lon="9.4363668"><ele>661.0</ele><time>2026-03-29T15:08:13.167Z</time></trkpt><trkpt lat="44.8836941" lon="9.4363284"><ele>662.6666666666667</ele><time>2026-03-29T15:08:14.167Z</time></trkpt><trkpt lat="44.8838923" lon="9.4363031"><ele>664.3333333333334</ele><time>2026-03-29T15:08:15.167Z</time></trkpt><trkpt lat="44.8840923" lon="9.4362732"><ele>666.0</ele><time>2026-03-29T15:08:16.167Z</time></trkpt><trkpt lat="44.8842783" lon="9.4362356"><ele>662.6666666666666</ele><time>2026-03-29T15:08:17.166Z</time></trkpt><trkpt lat="44.8844509" lon="9.4361568"><ele>659.3333333333333</ele><time>2026-03-29T15:08:18.166Z</time></trkpt><trkpt lat="44.884611" lon="9.4360451"><ele>656.0</ele><time>2026-03-29T15:08:19.167Z</time></trkpt><trkpt lat="44.8847517" lon="9.4359211"><ele>656.0</ele><time>2026-03-29T15:08:20.167Z</time></trkpt><trkpt lat="44.8848818" lon="9.4357909"><ele>656.0</ele><time>2026-03-29T15:08:21.166Z</time></trkpt><trkpt lat="44.8850096" lon="9.4356752"><ele>656.0</ele><time>2026-03-29T15:08:22.166Z</time></trkpt><trkpt lat="44.8851473" lon="9.4356022"><ele>654.6666666666666</ele><time>2026-03-29T15:08:23.167Z</time></trkpt><trkpt lat="44.8852952" lon="9.4355782"><ele>653.3333333333334</ele><time>2026-03-29T15:08:24.167Z</time></trkpt><trkpt lat="44.8854542" lon="9.4356102"><ele>652.0</ele><time>2026-03-29T15:08:25.166Z</time></trkpt><trkpt lat="44.8856143" lon="9.4356488"><ele>652.0</ele><time>2026-03-29T15:08:26.167Z</time></trkpt><trkpt lat="44.8857865" lon="9.4356328"><ele>652.0</ele><time>2026-03-29T15:08:27.166Z</time></trkpt><trkpt lat="44.8859769" lon="9.4355736"><ele>652.0</ele><time>2026-03-29T15:08:28.167Z</time></trkpt><trkpt lat="44.886151" lon="9.4354981"><ele>648.0</ele><time>2026-03-29T15:08:29.167Z</time></trkpt><trkpt lat="44.8863031" lon="9.4353934"><ele>644.0</ele><time>2026-03-29T15:08:30.167Z</time></trkpt><trkpt lat="44.8864516" lon="9.435257"><ele>640.0</ele><time>2026-03-29T15:08:31.165Z</time></trkpt><trkpt lat="44.886586" lon="9.4351013"><ele>640.0</ele><time>2026-03-29T15:08:32.166Z</time></trkpt><trkpt lat="44.8867005" lon="9.4349616"><ele>640.0</ele><time>2026-03-29T15:08:33.167Z</time></trkpt><trkpt lat="44.886807" lon="9.4348516"><ele>640.0</ele><time>2026-03-29T15:08:34.167Z</time></trkpt><trkpt lat="44.8869073" lon="9.4348141"><ele>640.0</ele><time>2026-03-29T15:08:35.167Z</time></trkpt><trkpt lat="44.8870249" lon="9.4348219"><ele>638.3333333333334</ele><time>2026-03-29T15:08:36.167Z</time></trkpt><trkpt lat="44.8871675" lon="9.4348522"><ele>636.6666666666666</ele><time>2026-03-29T15:08:37.167Z</time></trkpt><trkpt lat="44.8873222" lon="9.4348577"><ele>635.0</ele><time>2026-03-29T15:08:38.167Z</time></trkpt><trkpt lat="44.8874787" lon="9.4348445"><ele>633.0</ele><time>2026-03-29T15:08:39.167Z</time></trkpt><trkpt lat="44.8876487" lon="9.4348628"><ele>631.0</ele><time>2026-03-29T15:08:40.167Z</time></trkpt><trkpt lat="44.8878314" lon="9.4349045"><ele>629.0</ele><time>2026-03-29T15:08:41.167Z</time></trkpt><trkpt lat="44.8880245" lon="9.434912"><ele>629.0</ele><time>2026-03-29T15:08:42.167Z</time></trkpt><trkpt lat="44.8881977" lon="9.4349049"><ele>629.0</ele><time>2026-03-29T15:08:43.167Z</time></trkpt><trkpt lat="44.8883461" lon="9.434898"><ele>629.0</ele><time>2026-03-29T15:08:44.166Z</time></trkpt><trkpt lat="44.8884929" lon="9.434938"><ele>625.0</ele><time>2026-03-29T15:08:45.166Z</time></trkpt><trkpt lat="44.888647" lon="9.4350192"><ele>621.0</ele><time>2026-03-29T15:08:46.167Z</time></trkpt><trkpt lat="44.8888074" lon="9.4351457"><ele>617.0</ele><time>2026-03-29T15:08:47.166Z</time></trkpt><trkpt lat="44.8889549" lon="9.4352878"><ele>617.0</ele><time>2026-03-29T15:08:48.165Z</time></trkpt><trkpt lat="44.8890966" lon="9.4354166"><ele>617.0</ele><time>2026-03-29T15:08:49.167Z</time></trkpt><trkpt lat="44.8892489" lon="9.4355049"><ele>617.0</ele><time>2026-03-29T15:08:50.167Z</time></trkpt><trkpt lat="44.8894087" lon="9.4355337"><ele>612.0</ele><time>2026-03-29T15:08:51.167Z</time></trkpt><trkpt lat="44.889581" lon="9.4355045"><ele>607.0</ele><time>2026-03-29T15:08:52.167Z</time></trkpt><trkpt lat="44.8897861" lon="9.4354212"><ele>602.0</ele><time>2026-03-29T15:08:53.167Z</time></trkpt><trkpt lat="44.89" lon="9.4353376"><ele>600.0</ele><time>2026-03-29T15:08:54.167Z</time></trkpt><trkpt lat="44.8901947" lon="9.4352686"><ele>598.0</ele><time>2026-03-29T15:08:55.166Z</time></trkpt><trkpt lat="44.8903654" lon="9.4352045"><ele>596.0</ele><time>2026-03-29T15:08:56.167Z</time></trkpt><trkpt lat="44.8905132" lon="9.4351177"><ele>596.0</ele><time>2026-03-29T15:08:57.166Z</time></trkpt><trkpt lat="44.8906268" lon="9.4349779"><ele>596.0</ele><time>2026-03-29T15:08:58.166Z</time></trkpt><trkpt lat="44.8907224" lon="9.4348036"><ele>596.0</ele><time>2026-03-29T15:08:59.166Z</time></trkpt><trkpt lat="44.8908345" lon="9.4346474"><ele>592.3333333333333</ele><time>2026-03-29T15:09:00.167Z</time></trkpt><trkpt lat="44.8909871" lon="9.43451"><ele>588.6666666666666</ele><time>2026-03-29T15:09:01.167Z</time></trkpt><trkpt lat="44.8911546" lon="9.43438"><ele>585.0</ele><time>2026-03-29T15:09:02.167Z</time></trkpt><trkpt lat="44.8912984" lon="9.4342358"><ele>585.0</ele><time>2026-03-29T15:09:03.167Z</time></trkpt><trkpt lat="44.8914236" lon="9.4340756"><ele>585.0</ele><time>2026-03-29T15:09:04.167Z</time></trkpt><trkpt lat="44.8915447" lon="9.4339228"><ele>585.0</ele><time>2026-03-29T15:09:05.166Z</time></trkpt><trkpt lat="44.8916844" lon="9.4338062"><ele>582.3333333333334</ele><time>2026-03-29T15:09:06.167Z</time></trkpt><trkpt lat="44.8918452" lon="9.4337193"><ele>579.6666666666667</ele><time>2026-03-29T15:09:07.167Z</time></trkpt><trkpt lat="44.8920189" lon="9.4336546"><ele>577.0</ele><time>2026-03-29T15:09:08.166Z</time></trkpt><trkpt lat="44.8921863" lon="9.4335867"><ele>577.0</ele><time>2026-03-29T15:09:09.167Z</time></trkpt><trkpt lat="44.8923469" lon="9.4335013"><ele>577.0</ele><time>2026-03-29T15:09:10.167Z</time></trkpt><trkpt lat="44.8924852" lon="9.433405"><ele>577.0</ele><time>2026-03-29T15:09:11.167Z</time></trkpt><trkpt lat="44.8926068" lon="9.4333055"><ele>576.75</ele><time>2026-03-29T15:09:12.167Z</time></trkpt><trkpt lat="44.8927158" lon="9.4332042"><ele>576.5</ele><time>2026-03-29T15:09:13.167Z</time></trkpt><trkpt lat="44.8928174" lon="9.4331084"><ele>576.25</ele><time>2026-03-29T15:09:14.167Z</time></trkpt><trkpt lat="44.8929142" lon="9.4330217"><ele>576.0</ele><time>2026-03-29T15:09:15.166Z</time></trkpt><trkpt lat="44.8930088" lon="9.4329506"><ele>576.0</ele><time>2026-03-29T15:09:16.167Z</time></trkpt><trkpt lat="44.8931026" lon="9.4329002"><ele>576.0</ele><time>2026-03-29T15:09:17.166Z</time></trkpt><trkpt lat="44.8931916" lon="9.43286"><ele>576.0</ele><time>2026-03-29T15:09:18.167Z</time></trkpt><trkpt lat="44.8932749" lon="9.4328284"><ele>576.0</ele><time>2026-03-29T15:09:19.167Z</time></trkpt><trkpt lat="44.893354" lon="9.4328012"><ele>576.0</ele><time>2026-03-29T15:09:20.167Z</time></trkpt><trkpt lat="44.8934309" lon="9.432775"><ele>576.0</ele><time>2026-03-29T15:09:21.167Z</time></trkpt><trkpt lat="44.8935051" lon="9.4327518"><ele>576.1666666666666</ele><time>2026-03-29T15:09:22.167Z</time></trkpt><trkpt lat="44.8935745" lon="9.432728"><ele>576.3333333333334</ele><time>2026-03-29T15:09:23.167Z</time></trkpt><trkpt lat="44.8936379" lon="9.4327073"><ele>576.5</ele><time>2026-03-29T15:09:24.166Z</time></trkpt><trkpt lat="44.8937335" lon="9.4326821"><ele>576.6666666666667</ele><time>2026-03-29T15:09:26.166Z</time></trkpt><trkpt lat="44.8937926" lon="9.4326485"><ele>576.8333333333334</ele><time>2026-03-29T15:14:35.167Z</time></trkpt><trkpt lat="44.8938845" lon="9.4326118"><ele>577.0</ele><time>2026-03-29T15:14:37.166Z</time></trkpt><trkpt lat="44.8939491" lon="9.4325933"><ele>577.0</ele><time>2026-03-29T15:14:38.166Z</time></trkpt><trkpt lat="44.8940307" lon="9.4325858"><ele>577.0</ele><time>2026-03-29T15:14:39.167Z</time></trkpt><trkpt lat="44.8941186" lon="9.432587"><ele>577.0</ele><time>2026-03-29T15:14:40.166Z</time></trkpt><trkpt lat="44.8942058" lon="9.4325867"><ele>577.0</ele><time>2026-03-29T15:14:41.167Z</time></trkpt><trkpt lat="44.894308" lon="9.4325912"><ele>577.0</ele><time>2026-03-29T15:14:42.167Z</time></trkpt><trkpt lat="44.8944183" lon="9.4325994"><ele>575.75</ele><time>2026-03-29T15:14:43.166Z</time></trkpt><trkpt lat="44.8945394" lon="9.4326055"><ele>574.5</ele><time>2026-03-29T15:14:44.167Z</time></trkpt><trkpt lat="44.8946699" lon="9.432607"><ele>573.25</ele><time>2026-03-29T15:14:45.166Z</time></trkpt><trkpt lat="44.8948131" lon="9.4326043"><ele>572.0</ele><time>2026-03-29T15:14:46.167Z</time></trkpt><trkpt lat="44.8949625" lon="9.4326021"><ele>568.75</ele><time>2026-03-29T15:14:47.167Z</time></trkpt><trkpt lat="44.8951079" lon="9.4325989"><ele>565.5</ele><time>2026-03-29T15:14:48.167Z</time></trkpt><trkpt lat="44.8952484" lon="9.4326072"><ele>562.25</ele><time>2026-03-29T15:14:49.166Z</time></trkpt><trkpt lat="44.8953862" lon="9.4326381"><ele>559.0</ele><time>2026-03-29T15:14:50.166Z</time></trkpt><trkpt lat="44.8955222" lon="9.4327142"><ele>559.0</ele><time>2026-03-29T15:14:51.167Z</time></trkpt><trkpt lat="44.8956467" lon="9.432827"><ele>559.0</ele><time>2026-03-29T15:14:52.167Z</time></trkpt><trkpt lat="44.8957787" lon="9.432973"><ele>559.0</ele><time>2026-03-29T15:14:53.167Z</time></trkpt><trkpt lat="44.8959395" lon="9.4331419"><ele>559.0</ele><time>2026-03-29T15:14:54.166Z</time></trkpt><trkpt lat="44.8961234" lon="9.4333206"><ele>559.0</ele><time>2026-03-29T15:14:55.167Z</time></trkpt><trkpt lat="44.896297" lon="9.4334811"><ele>559.0</ele><time>2026-03-29T15:14:56.166Z</time></trkpt><trkpt lat="44.8964575" lon="9.4336251"><ele>559.0</ele><time>2026-03-29T15:14:57.167Z</time></trkpt><trkpt lat="44.8965962" lon="9.4337505"><ele>559.0</ele><time>2026-03-29T15:14:58.167Z</time></trkpt><trkpt lat="44.8967114" lon="9.4338552"><ele>559.0</ele><time>2026-03-29T15:14:59.166Z</time></trkpt><trkpt lat="44.8968126" lon="9.4339477"><ele>559.0</ele><time>2026-03-29T15:15:00.166Z</time></trkpt><trkpt lat="44.8969003" lon="9.4340386"><ele>560.8333333333334</ele><time>2026-03-29T15:15:01.167Z</time></trkpt><trkpt lat="44.8969708" lon="9.4341389"><ele>562.6666666666667</ele><time>2026-03-29T15:15:02.167Z</time></trkpt><trkpt lat="44.897016" lon="9.4342494"><ele>564.5</ele><time>2026-03-29T15:15:03.166Z</time></trkpt><trkpt lat="44.8970231" lon="9.4343592"><ele>566.3333333333334</ele><time>2026-03-29T15:15:04.166Z</time></trkpt><trkpt lat="44.8970011" lon="9.4344629"><ele>568.1666666666666</ele><time>2026-03-29T15:15:05.167Z</time></trkpt><trkpt lat="44.8969596" lon="9.4345669"><ele>570.0</ele><time>2026-03-29T15:15:06.167Z</time></trkpt><trkpt lat="44.8968999" lon="9.4346806"><ele>570.0</ele><time>2026-03-29T15:15:07.167Z</time></trkpt><trkpt lat="44.8968323" lon="9.4347996"><ele>570.0</ele><time>2026-03-29T15:15:08.166Z</time></trkpt><trkpt lat="44.896749" lon="9.4349242"><ele>570.0</ele><time>2026-03-29T15:15:09.167Z</time></trkpt><trkpt lat="44.8966784" lon="9.4350477"><ele>570.0</ele><time>2026-03-29T15:15:10.166Z</time></trkpt><trkpt lat="44.8966374" lon="9.4351996"><ele>565.25</ele><time>2026-03-29T15:15:11.167Z</time></trkpt><trkpt lat="44.8966266" lon="9.4353742"><ele>560.5</ele><time>2026-03-29T15:15:12.167Z</time></trkpt><trkpt lat="44.8966432" lon="9.4355487"><ele>555.75</ele><time>2026-03-29T15:15:13.166Z</time></trkpt><trkpt lat="44.8966816" lon="9.4357349"><ele>551.0</ele><time>2026-03-29T15:15:14.166Z</time></trkpt><trkpt lat="44.8967265" lon="9.4359284"><ele>552.25</ele><time>2026-03-29T15:15:15.166Z</time></trkpt><trkpt lat="44.8967721" lon="9.4361348"><ele>553.5</ele><time>2026-03-29T15:15:16.166Z</time></trkpt><trkpt lat="44.8967977" lon="9.4363308"><ele>554.75</ele><time>2026-03-29T15:15:17.166Z</time></trkpt><trkpt lat="44.896808" lon="9.4365217"><ele>556.0</ele><time>2026-03-29T15:15:18.165Z</time></trkpt><trkpt lat="44.8968025" lon="9.4367163"><ele>556.0</ele><time>2026-03-29T15:15:19.167Z</time></trkpt><trkpt lat="44.8967937" lon="9.4369083"><ele>556.0</ele><time>2026-03-29T15:15:20.167Z</time></trkpt><trkpt lat="44.8968003" lon="9.4370977"><ele>556.0</ele><time>2026-03-29T15:15:21.167Z</time></trkpt><trkpt lat="44.896832" lon="9.4372855"><ele>556.0</ele><time>2026-03-29T15:15:22.166Z</time></trkpt><trkpt lat="44.8968905" lon="9.43745"><ele>552.0</ele><time>2026-03-29T15:15:23.167Z</time></trkpt><trkpt lat="44.8969848" lon="9.4375805"><ele>548.0</ele><time>2026-03-29T15:15:24.167Z</time></trkpt><trkpt lat="44.8971138" lon="9.437705"><ele>544.0</ele><time>2026-03-29T15:15:25.166Z</time></trkpt><trkpt lat="44.8972716" lon="9.4378425"><ele>540.6666666666667</ele><time>2026-03-29T15:15:26.166Z</time></trkpt><trkpt lat="44.8974258" lon="9.4379728"><ele>537.3333333333334</ele><time>2026-03-29T15:15:27.167Z</time></trkpt><trkpt lat="44.8975781" lon="9.4380987"><ele>534.0</ele><time>2026-03-29T15:15:28.166Z</time></trkpt><trkpt lat="44.8977245" lon="9.4382221"><ele>531.6666666666666</ele><time>2026-03-29T15:15:29.167Z</time></trkpt><trkpt lat="44.8978674" lon="9.4383438"><ele>529.3333333333333</ele><time>2026-03-29T15:15:30.167Z</time></trkpt><trkpt lat="44.8980211" lon="9.4384693"><ele>527.0</ele><time>2026-03-29T15:15:31.166Z</time></trkpt><trkpt lat="44.8981707" lon="9.4385988"><ele>527.0</ele><time>2026-03-29T15:15:32.167Z</time></trkpt><trkpt lat="44.8983186" lon="9.4387363"><ele>527.0</ele><time>2026-03-29T15:15:33.167Z</time></trkpt><trkpt lat="44.898476" lon="9.4388903"><ele>527.0</ele><time>2026-03-29T15:15:34.166Z</time></trkpt><trkpt lat="44.8986394" lon="9.4390633"><ele>522.0</ele><time>2026-03-29T15:15:35.167Z</time></trkpt><trkpt lat="44.8987943" lon="9.439258"><ele>517.0</ele><time>2026-03-29T15:15:36.166Z</time></trkpt><trkpt lat="44.8989348" lon="9.4394641"><ele>512.0</ele><time>2026-03-29T15:15:37.166Z</time></trkpt><trkpt lat="44.8990742" lon="9.4396576"><ele>512.0</ele><time>2026-03-29T15:15:38.165Z</time></trkpt><trkpt lat="44.8992279" lon="9.4398323"><ele>512.0</ele><time>2026-03-29T15:15:39.166Z</time></trkpt><trkpt lat="44.8993832" lon="9.4400066"><ele>512.0</ele><time>2026-03-29T15:15:40.166Z</time></trkpt><trkpt lat="44.8995133" lon="9.4401918"><ele>510.66666666666663</ele><time>2026-03-29T15:15:41.166Z</time></trkpt><trkpt lat="44.8996109" lon="9.4403935"><ele>509.33333333333337</ele><time>2026-03-29T15:15:42.167Z</time></trkpt><trkpt lat="44.8996664" lon="9.4406034"><ele>508.0</ele><time>2026-03-29T15:15:43.167Z</time></trkpt><trkpt lat="44.8996926" lon="9.4408063"><ele>508.0</ele><time>2026-03-29T15:15:44.166Z</time></trkpt><trkpt lat="44.8997381" lon="9.4409978"><ele>508.0</ele><time>2026-03-29T15:15:45.167Z</time></trkpt><trkpt lat="44.899817" lon="9.4411779"><ele>508.0</ele><time>2026-03-29T15:15:46.167Z</time></trkpt><trkpt lat="44.8999193" lon="9.4413428"><ele>508.0</ele><time>2026-03-29T15:15:47.167Z</time></trkpt><trkpt lat="44.9000335" lon="9.4415112"><ele>508.33333333333337</ele><time>2026-03-29T15:15:48.165Z</time></trkpt><trkpt lat="44.900128" lon="9.441671"><ele>508.66666666666663</ele><time>2026-03-29T15:15:49.167Z</time></trkpt><trkpt lat="44.9002249" lon="9.4418463"><ele>509.0</ele><time>2026-03-29T15:15:50.167Z</time></trkpt><trkpt lat="44.9003074" lon="9.4420398"><ele>511.3333333333333</ele><time>2026-03-29T15:15:51.167Z</time></trkpt><trkpt lat="44.900367" lon="9.4422579"><ele>513.6666666666666</ele><time>2026-03-29T15:15:52.167Z</time></trkpt><trkpt lat="44.900422" lon="9.4424867"><ele>516.0</ele><time>2026-03-29T15:15:53.167Z</time></trkpt><trkpt lat="44.9004879" lon="9.442696"><ele>516.0</ele><time>2026-03-29T15:15:54.167Z</time></trkpt><trkpt lat="44.9005613" lon="9.4428678"><ele>516.0</ele><time>2026-03-29T15:15:55.167Z</time></trkpt><trkpt lat="44.9006194" lon="9.4430098"><ele>516.0</ele><time>2026-03-29T15:15:56.166Z</time></trkpt><trkpt lat="44.9006688" lon="9.4431368"><ele>516.0</ele><time>2026-03-29T15:15:57.167Z</time></trkpt><trkpt lat="44.9007098" lon="9.443249"><ele>516.5</ele><time>2026-03-29T15:15:58.167Z</time></trkpt><trkpt lat="44.900751" lon="9.4433494"><ele>517.0</ele><time>2026-03-29T15:15:59.167Z</time></trkpt><trkpt lat="44.9007885" lon="9.4434476"><ele>517.5</ele><time>2026-03-29T15:16:00.166Z</time></trkpt><trkpt lat="44.9008225" lon="9.4435634"><ele>518.0</ele><time>2026-03-29T15:16:01.167Z</time></trkpt><trkpt lat="44.9008445" lon="9.4436958"><ele>518.5</ele><time>2026-03-29T15:16:02.167Z</time></trkpt><trkpt lat="44.9008574" lon="9.4438332"><ele>519.0</ele><time>2026-03-29T15:16:03.166Z</time></trkpt><trkpt lat="44.9008641" lon="9.4439646"><ele>517.2</ele><time>2026-03-29T15:16:04.166Z</time></trkpt><trkpt lat="44.9008889" lon="9.4440878"><ele>515.4</ele><time>2026-03-29T15:16:05.167Z</time></trkpt><trkpt lat="44.9009428" lon="9.4441994"><ele>513.6</ele><time>2026-03-29T15:16:06.167Z</time></trkpt><trkpt lat="44.9010215" lon="9.4443157"><ele>511.8</ele><time>2026-03-29T15:16:07.166Z</time></trkpt><trkpt lat="44.9011002" lon="9.444455"><ele>510.0</ele><time>2026-03-29T15:16:08.165Z</time></trkpt><trkpt lat="44.9011717" lon="9.4446197"><ele>507.75</ele><time>2026-03-29T15:16:09.167Z</time></trkpt><trkpt lat="44.9012445" lon="9.4447988"><ele>505.5</ele><time>2026-03-29T15:16:10.166Z</time></trkpt><trkpt lat="44.9013228" lon="9.444971"><ele>503.25</ele><time>2026-03-29T15:16:11.167Z</time></trkpt><trkpt lat="44.9014101" lon="9.4451046"><ele>501.0</ele><time>2026-03-29T15:16:12.167Z</time></trkpt><trkpt lat="44.9015145" lon="9.4452048"><ele>501.0</ele><time>2026-03-29T15:16:13.167Z</time></trkpt><trkpt lat="44.9016373" lon="9.4452788"><ele>501.0</ele><time>2026-03-29T15:16:14.167Z</time></trkpt><trkpt lat="44.9017781" lon="9.4453395"><ele>501.0</ele><time>2026-03-29T15:16:15.167Z</time></trkpt><trkpt lat="44.9019146" lon="9.4453988"><ele>501.0</ele><time>2026-03-29T15:16:16.167Z</time></trkpt><trkpt lat="44.902039" lon="9.4454585"><ele>502.25</ele><time>2026-03-29T15:16:17.167Z</time></trkpt><trkpt lat="44.9021658" lon="9.4455166"><ele>503.5</ele><time>2026-03-29T15:16:18.166Z</time></trkpt><trkpt lat="44.9023051" lon="9.4455701"><ele>504.75</ele><time>2026-03-29T15:16:19.167Z</time></trkpt><trkpt lat="44.9024414" lon="9.4456159"><ele>506.0</ele><time>2026-03-29T15:16:20.167Z</time></trkpt><trkpt lat="44.9025687" lon="9.445668"><ele>502.5</ele><time>2026-03-29T15:16:21.167Z</time></trkpt><trkpt lat="44.902686" lon="9.4457358"><ele>499.0</ele><time>2026-03-29T15:16:22.167Z</time></trkpt><trkpt lat="44.9027941" lon="9.4458284"><ele>495.5</ele><time>2026-03-29T15:16:23.166Z</time></trkpt><trkpt lat="44.9029029" lon="9.4459436"><ele>492.0</ele><time>2026-03-29T15:16:24.167Z</time></trkpt><trkpt lat="44.9030162" lon="9.4460666"><ele>492.0</ele><time>2026-03-29T15:16:25.167Z</time></trkpt><trkpt lat="44.9031384" lon="9.446189"><ele>492.0</ele><time>2026-03-29T15:16:26.167Z</time></trkpt><trkpt lat="44.9032765" lon="9.4462989"><ele>492.0</ele><time>2026-03-29T15:16:27.167Z</time></trkpt><trkpt lat="44.9034308" lon="9.4463871"><ele>494.33333333333337</ele><time>2026-03-29T15:16:28.167Z</time></trkpt><trkpt lat="44.9035855" lon="9.4464617"><ele>496.6666666666667</ele><time>2026-03-29T15:16:29.167Z</time></trkpt><trkpt lat="44.9037425" lon="9.4465121"><ele>499.0</ele><time>2026-03-29T15:16:30.166Z</time></trkpt><trkpt lat="44.9039069" lon="9.4465442"><ele>499.0</ele><time>2026-03-29T15:16:31.166Z</time></trkpt><trkpt lat="44.904075" lon="9.446571"><ele>499.0</ele><time>2026-03-29T15:16:32.167Z</time></trkpt><trkpt lat="44.9042463" lon="9.4466022"><ele>499.0</ele><time>2026-03-29T15:16:33.167Z</time></trkpt><trkpt lat="44.9044169" lon="9.4466297"><ele>500.0</ele><time>2026-03-29T15:16:34.167Z</time></trkpt><trkpt lat="44.9045767" lon="9.4466543"><ele>501.0</ele><time>2026-03-29T15:16:35.166Z</time></trkpt><trkpt lat="44.9047293" lon="9.4466787"><ele>502.0</ele><time>2026-03-29T15:16:36.167Z</time></trkpt><trkpt lat="44.9048857" lon="9.4467052"><ele>502.0</ele><time>2026-03-29T15:16:37.167Z</time></trkpt><trkpt lat="44.9050425" lon="9.4467336"><ele>502.0</ele><time>2026-03-29T15:16:38.167Z</time></trkpt><trkpt lat="44.9051969" lon="9.4467581"><ele>502.0</ele><time>2026-03-29T15:16:39.167Z</time></trkpt><trkpt lat="44.9053427" lon="9.4467759"><ele>500.33333333333337</ele><time>2026-03-29T15:16:40.166Z</time></trkpt><trkpt lat="44.9054903" lon="9.4468019"><ele>498.66666666666663</ele><time>2026-03-29T15:16:41.167Z</time></trkpt><trkpt lat="44.9056335" lon="9.4468616"><ele>497.0</ele><time>2026-03-29T15:16:42.167Z</time></trkpt><trkpt lat="44.9057747" lon="9.4469465"><ele>497.0</ele><time>2026-03-29T15:16:43.167Z</time></trkpt><trkpt lat="44.9059096" lon="9.447059"><ele>497.0</ele><time>2026-03-29T15:16:44.167Z</time></trkpt><trkpt lat="44.9060314" lon="9.4471826"><ele>497.0</ele><time>2026-03-29T15:16:45.167Z</time></trkpt><trkpt lat="44.9061571" lon="9.4473151"><ele>497.0</ele><time>2026-03-29T15:16:46.167Z</time></trkpt><trkpt lat="44.9062926" lon="9.4474368"><ele>497.0</ele><time>2026-03-29T15:16:47.167Z</time></trkpt><trkpt lat="44.906444" lon="9.4475308"><ele>497.0</ele><time>2026-03-29T15:16:48.167Z</time></trkpt><trkpt lat="44.9066104" lon="9.4475924"><ele>498.3333333333333</ele><time>2026-03-29T15:16:49.165Z</time></trkpt><trkpt lat="44.9067869" lon="9.4476319"><ele>499.66666666666663</ele><time>2026-03-29T15:16:50.167Z</time></trkpt><trkpt lat="44.906971" lon="9.4476616"><ele>501.0</ele><time>2026-03-29T15:16:51.166Z</time></trkpt><trkpt lat="44.9071562" lon="9.4476872"><ele>501.0</ele><time>2026-03-29T15:16:52.166Z</time></trkpt><trkpt lat="44.9073418" lon="9.4477128"><ele>501.0</ele><time>2026-03-29T15:16:53.167Z</time></trkpt><trkpt lat="44.9075222" lon="9.4477384"><ele>501.0</ele><time>2026-03-29T15:16:54.166Z</time></trkpt><trkpt lat="44.9076887" lon="9.4477672"><ele>502.33333333333337</ele><time>2026-03-29T15:16:55.167Z</time></trkpt><trkpt lat="44.907855" lon="9.4477986"><ele>503.6666666666667</ele><time>2026-03-29T15:16:56.167Z</time></trkpt><trkpt lat="44.9080314" lon="9.4478292"><ele>505.0</ele><time>2026-03-29T15:16:57.167Z</time></trkpt><trkpt lat="44.908196" lon="9.4478597"><ele>505.0</ele><time>2026-03-29T15:16:58.167Z</time></trkpt><trkpt lat="44.9083419" lon="9.4478912"><ele>505.0</ele><time>2026-03-29T15:16:59.167Z</time></trkpt><trkpt lat="44.9084699" lon="9.44793"><ele>505.0</ele><time>2026-03-29T15:17:00.167Z</time></trkpt><trkpt lat="44.908596" lon="9.4479921"><ele>505.0</ele><time>2026-03-29T15:17:01.166Z</time></trkpt><trkpt lat="44.9087183" lon="9.4480786"><ele>506.75</ele><time>2026-03-29T15:17:02.167Z</time></trkpt><trkpt lat="44.9088311" lon="9.4481635"><ele>508.5</ele><time>2026-03-29T15:17:03.167Z</time></trkpt><trkpt lat="44.9089447" lon="9.4482438"><ele>510.25</ele><time>2026-03-29T15:17:04.167Z</time></trkpt><trkpt lat="44.9090607" lon="9.4483173"><ele>512.0</ele><time>2026-03-29T15:17:05.166Z</time></trkpt><trkpt lat="44.909185" lon="9.4483677"><ele>513.0</ele><time>2026-03-29T15:17:06.166Z</time></trkpt><trkpt lat="44.9093212" lon="9.4483782"><ele>514.0</ele><time>2026-03-29T15:17:07.166Z</time></trkpt><trkpt lat="44.9094628" lon="9.4483493"><ele>515.0</ele><time>2026-03-29T15:17:08.166Z</time></trkpt><trkpt lat="44.9096038" lon="9.4482878"><ele>516.0</ele><time>2026-03-29T15:17:09.166Z</time></trkpt><trkpt lat="44.9097422" lon="9.4482149"><ele>516.0</ele><time>2026-03-29T15:17:10.166Z</time></trkpt><trkpt lat="44.9098837" lon="9.4481351"><ele>516.0</ele><time>2026-03-29T15:17:11.166Z</time></trkpt><trkpt lat="44.9100324" lon="9.4480616"><ele>516.0</ele><time>2026-03-29T15:17:12.167Z</time></trkpt><trkpt lat="44.9101895" lon="9.4479913"><ele>513.6666666666666</ele><time>2026-03-29T15:17:13.167Z</time></trkpt><trkpt lat="44.9103524" lon="9.4479205"><ele>511.3333333333333</ele><time>2026-03-29T15:17:14.167Z</time></trkpt><trkpt lat="44.9105209" lon="9.4478503"><ele>509.0</ele><time>2026-03-29T15:17:15.166Z</time></trkpt><trkpt lat="44.9106803" lon="9.4477878"><ele>509.0</ele><time>2026-03-29T15:17:16.167Z</time></trkpt><trkpt lat="44.910833" lon="9.4477274"><ele>509.0</ele><time>2026-03-29T15:17:17.167Z</time></trkpt><trkpt lat="44.9109859" lon="9.4476709"><ele>509.0</ele><time>2026-03-29T15:17:18.167Z</time></trkpt><trkpt lat="44.9111457" lon="9.4476302"><ele>509.0</ele><time>2026-03-29T15:17:19.167Z</time></trkpt><trkpt lat="44.9113057" lon="9.447593"><ele>509.0</ele><time>2026-03-29T15:17:20.167Z</time></trkpt><trkpt lat="44.9114626" lon="9.4475806"><ele>509.0</ele><time>2026-03-29T15:17:21.167Z</time></trkpt><trkpt lat="44.9116161" lon="9.4476181"><ele>507.66666666666663</ele><time>2026-03-29T15:17:22.167Z</time></trkpt><trkpt lat="44.9117689" lon="9.4476744"><ele>506.33333333333337</ele><time>2026-03-29T15:17:23.167Z</time></trkpt><trkpt lat="44.9119179" lon="9.4477184"><ele>505.0</ele><time>2026-03-29T15:17:24.166Z</time></trkpt><trkpt lat="44.9120643" lon="9.4477342"><ele>505.0</ele><time>2026-03-29T15:17:25.167Z</time></trkpt><trkpt lat="44.9122082" lon="9.4477258"><ele>505.0</ele><time>2026-03-29T15:17:26.166Z</time></trkpt><trkpt lat="44.9123451" lon="9.4476771"><ele>505.0</ele><time>2026-03-29T15:17:27.166Z</time></trkpt><trkpt lat="44.9124662" lon="9.4475601"><ele>505.0</ele><time>2026-03-29T15:17:28.165Z</time></trkpt><trkpt lat="44.91259" lon="9.4474285"><ele>504.6666666666667</ele><time>2026-03-29T15:17:29.167Z</time></trkpt><trkpt lat="44.912729" lon="9.4473039"><ele>504.33333333333337</ele><time>2026-03-29T15:17:30.167Z</time></trkpt><trkpt lat="44.9128884" lon="9.4471847"><ele>504.0</ele><time>2026-03-29T15:17:31.166Z</time></trkpt><trkpt lat="44.913045" lon="9.447042"><ele>504.0</ele><time>2026-03-29T15:17:32.167Z</time></trkpt><trkpt lat="44.9131942" lon="9.4468747"><ele>504.0</ele><time>2026-03-29T15:17:33.166Z</time></trkpt><trkpt lat="44.9133485" lon="9.4467075"><ele>504.0</ele><time>2026-03-29T15:17:34.167Z</time></trkpt><trkpt lat="44.913509" lon="9.4465448"><ele>505.0</ele><time>2026-03-29T15:17:35.166Z</time></trkpt><trkpt lat="44.9136665" lon="9.4463706"><ele>506.0</ele><time>2026-03-29T15:17:36.167Z</time></trkpt><trkpt lat="44.9138078" lon="9.4461858"><ele>507.0</ele><time>2026-03-29T15:17:37.166Z</time></trkpt><trkpt lat="44.9139243" lon="9.4459998"><ele>507.0</ele><time>2026-03-29T15:17:38.167Z</time></trkpt><trkpt lat="44.9140227" lon="9.4458353"><ele>507.0</ele><time>2026-03-29T15:17:39.166Z</time></trkpt><trkpt lat="44.914122" lon="9.4457078"><ele>507.0</ele><time>2026-03-29T15:17:40.165Z</time></trkpt><trkpt lat="44.9142386" lon="9.445616"><ele>507.0</ele><time>2026-03-29T15:17:41.167Z</time></trkpt><trkpt lat="44.9143712" lon="9.4455586"><ele>510.0</ele><time>2026-03-29T15:17:42.167Z</time></trkpt><trkpt lat="44.9145216" lon="9.4455344"><ele>513.0</ele><time>2026-03-29T15:17:43.167Z</time></trkpt><trkpt lat="44.9146883" lon="9.4455276"><ele>516.0</ele><time>2026-03-29T15:17:44.167Z</time></trkpt><trkpt lat="44.9148597" lon="9.445532"><ele>516.0</ele><time>2026-03-29T15:17:45.166Z</time></trkpt><trkpt lat="44.9150302" lon="9.445538"><ele>516.0</ele><time>2026-03-29T15:17:46.166Z</time></trkpt><trkpt lat="44.9151972" lon="9.4455199"><ele>516.0</ele><time>2026-03-29T15:17:47.167Z</time></trkpt><trkpt lat="44.9153702" lon="9.4454663"><ele>512.6666666666666</ele><time>2026-03-29T15:17:48.166Z</time></trkpt><trkpt lat="44.9155365" lon="9.4453919"><ele>509.3333333333333</ele><time>2026-03-29T15:17:49.167Z</time></trkpt><trkpt lat="44.9156935" lon="9.4453286"><ele>506.0</ele><time>2026-03-29T15:17:50.166Z</time></trkpt><trkpt lat="44.9158504" lon="9.445308"><ele>507.0</ele><time>2026-03-29T15:17:51.167Z</time></trkpt><trkpt lat="44.9159873" lon="9.4453348"><ele>508.0</ele><time>2026-03-29T15:17:52.167Z</time></trkpt><trkpt lat="44.9161035" lon="9.4454028"><ele>509.0</ele><time>2026-03-29T15:17:53.167Z</time></trkpt><trkpt lat="44.9162204" lon="9.4455182"><ele>510.0</ele><time>2026-03-29T15:17:54.166Z</time></trkpt><trkpt lat="44.9163617" lon="9.4456625"><ele>510.0</ele><time>2026-03-29T15:17:55.166Z</time></trkpt><trkpt lat="44.9165052" lon="9.4457844"><ele>510.0</ele><time>2026-03-29T15:17:56.166Z</time></trkpt><trkpt lat="44.916632" lon="9.445874"><ele>510.0</ele><time>2026-03-29T15:17:57.166Z</time></trkpt><trkpt lat="44.9167492" lon="9.4459542"><ele>510.0</ele><time>2026-03-29T15:17:58.167Z</time></trkpt><trkpt lat="44.9168425" lon="9.4460584"><ele>509.6</ele><time>2026-03-29T15:17:59.167Z</time></trkpt><trkpt lat="44.9169118" lon="9.4461862"><ele>509.2</ele><time>2026-03-29T15:18:00.166Z</time></trkpt><trkpt lat="44.9169512" lon="9.4463274"><ele>508.79999999999995</ele><time>2026-03-29T15:18:01.167Z</time></trkpt><trkpt lat="44.9169696" lon="9.4464905"><ele>508.4</ele><time>2026-03-29T15:18:02.167Z</time></trkpt><trkpt lat="44.9169736" lon="9.4466375"><ele>508.0</ele><time>2026-03-29T15:18:03.166Z</time></trkpt><trkpt lat="44.9169721" lon="9.4467696"><ele>507.1666666666667</ele><time>2026-03-29T15:18:04.167Z</time></trkpt><trkpt lat="44.9169661" lon="9.4468909"><ele>506.33333333333337</ele><time>2026-03-29T15:18:05.165Z</time></trkpt><trkpt lat="44.9169538" lon="9.4470096"><ele>505.5</ele><time>2026-03-29T15:18:06.167Z</time></trkpt><trkpt lat="44.9169374" lon="9.44712"><ele>504.66666666666663</ele><time>2026-03-29T15:18:07.167Z</time></trkpt><trkpt lat="44.9169184" lon="9.4472137"><ele>503.8333333333333</ele><time>2026-03-29T15:18:08.166Z</time></trkpt><trkpt lat="44.9168989" lon="9.447363"><ele>503.0</ele><time>2026-03-29T15:18:10.166Z</time></trkpt><trkpt lat="44.9169215" lon="9.4474698"><ele>502.3333333333333</ele><time>2026-03-29T15:18:13.166Z</time></trkpt><trkpt lat="44.9169486" lon="9.4475509"><ele>501.66666666666663</ele><time>2026-03-29T15:18:55.167Z</time></trkpt><trkpt lat="44.9169742" lon="9.4476525"><ele>501.0</ele><time>2026-03-29T15:18:56.167Z</time></trkpt><trkpt lat="44.9170019" lon="9.4477784"><ele>500.33333333333337</ele><time>2026-03-29T15:18:57.167Z</time></trkpt><trkpt lat="44.9170254" lon="9.4479129"><ele>499.6666666666667</ele><time>2026-03-29T15:18:58.167Z</time></trkpt><trkpt lat="44.917049" lon="9.4480675"><ele>499.0</ele><time>2026-03-29T15:18:59.165Z</time></trkpt><trkpt lat="44.9170751" lon="9.4482397"><ele>498.0</ele><time>2026-03-29T15:19:00.167Z</time></trkpt><trkpt lat="44.9171122" lon="9.4484208"><ele>497.0</ele><time>2026-03-29T15:19:01.166Z</time></trkpt><trkpt lat="44.9171581" lon="9.4486114"><ele>496.0</ele><time>2026-03-29T15:19:02.167Z</time></trkpt><trkpt lat="44.9172132" lon="9.4488073"><ele>495.0</ele><time>2026-03-29T15:19:03.166Z</time></trkpt><trkpt lat="44.9172759" lon="9.4490091"><ele>494.75</ele><time>2026-03-29T15:19:04.167Z</time></trkpt><trkpt lat="44.9173371" lon="9.4492047"><ele>494.5</ele><time>2026-03-29T15:19:05.166Z</time></trkpt><trkpt lat="44.9173962" lon="9.4493955"><ele>494.25</ele><time>2026-03-29T15:19:06.166Z</time></trkpt><trkpt lat="44.9174482" lon="9.4495789"><ele>494.0</ele><time>2026-03-29T15:19:07.167Z</time></trkpt><trkpt lat="44.9174959" lon="9.4497648"><ele>495.0</ele><time>2026-03-29T15:19:08.167Z</time></trkpt><trkpt lat="44.9175352" lon="9.4499439"><ele>496.0</ele><time>2026-03-29T15:19:09.167Z</time></trkpt><trkpt lat="44.9175716" lon="9.4501177"><ele>497.0</ele><time>2026-03-29T15:19:10.165Z</time></trkpt><trkpt lat="44.9176115" lon="9.4502842"><ele>498.0</ele><time>2026-03-29T15:19:11.167Z</time></trkpt><trkpt lat="44.9176705" lon="9.4504291"><ele>496.75</ele><time>2026-03-29T15:19:12.167Z</time></trkpt><trkpt lat="44.9177477" lon="9.4505449"><ele>495.5</ele><time>2026-03-29T15:19:13.167Z</time></trkpt><trkpt lat="44.917849" lon="9.4506194"><ele>494.25</ele><time>2026-03-29T15:19:14.167Z</time></trkpt><trkpt lat="44.9179638" lon="9.4506603"><ele>493.0</ele><time>2026-03-29T15:19:15.167Z</time></trkpt><trkpt lat="44.9180793" lon="9.4506962"><ele>493.0</ele><time>2026-03-29T15:19:16.167Z</time></trkpt><trkpt lat="44.9181794" lon="9.450763"><ele>493.0</ele><time>2026-03-29T15:19:17.166Z</time></trkpt><trkpt lat="44.9182575" lon="9.4508707"><ele>493.0</ele><time>2026-03-29T15:19:18.167Z</time></trkpt><trkpt lat="44.9183127" lon="9.4510153"><ele>493.0</ele><time>2026-03-29T15:19:19.167Z</time></trkpt><trkpt lat="44.9183484" lon="9.4511742"><ele>493.75</ele><time>2026-03-29T15:19:20.166Z</time></trkpt><trkpt lat="44.9183813" lon="9.4513254"><ele>494.5</ele><time>2026-03-29T15:19:21.167Z</time></trkpt><trkpt lat="44.918417" lon="9.4514774"><ele>495.25</ele><time>2026-03-29T15:19:22.166Z</time></trkpt><trkpt lat="44.9184533" lon="9.4516385"><ele>496.0</ele><time>2026-03-29T15:19:23.166Z</time></trkpt><trkpt lat="44.9185037" lon="9.4518038"><ele>493.5</ele><time>2026-03-29T15:19:24.165Z</time></trkpt><trkpt lat="44.9185771" lon="9.4519612"><ele>491.0</ele><time>2026-03-29T15:19:25.167Z</time></trkpt><trkpt lat="44.9186724" lon="9.4521046"><ele>488.5</ele><time>2026-03-29T15:19:26.166Z</time></trkpt><trkpt lat="44.9187728" lon="9.4522334"><ele>486.0</ele><time>2026-03-29T15:19:27.167Z</time></trkpt><trkpt lat="44.9188775" lon="9.4523509"><ele>486.0</ele><time>2026-03-29T15:19:28.166Z</time></trkpt><trkpt lat="44.9189866" lon="9.4524658"><ele>486.0</ele><time>2026-03-29T15:19:29.166Z</time></trkpt><trkpt lat="44.9190907" lon="9.4525766"><ele>486.0</ele><time>2026-03-29T15:19:30.167Z</time></trkpt><trkpt lat="44.9191855" lon="9.452687"><ele>486.0</ele><time>2026-03-29T15:19:31.167Z</time></trkpt><trkpt lat="44.9192711" lon="9.4527964"><ele>485.6</ele><time>2026-03-29T15:19:32.167Z</time></trkpt><trkpt lat="44.9193426" lon="9.4528933"><ele>485.20000000000005</ele><time>2026-03-29T15:19:33.167Z</time></trkpt><trkpt lat="44.9193945" lon="9.4529706"><ele>484.79999999999995</ele><time>2026-03-29T15:19:34.165Z</time></trkpt><trkpt lat="44.9194583" lon="9.4530603"><ele>484.4</ele><time>2026-03-29T15:19:36.167Z</time></trkpt><trkpt lat="44.9195281" lon="9.4531692"><ele>484.0</ele><time>2026-03-29T15:19:39.167Z</time></trkpt><trkpt lat="44.9195886" lon="9.4532858"><ele>484.0</ele><time>2026-03-29T15:19:41.166Z</time></trkpt><trkpt lat="44.9196671" lon="9.4533864"><ele>484.0</ele><time>2026-03-29T15:19:43.166Z</time></trkpt><trkpt lat="44.9197312" lon="9.4534275"><ele>484.0</ele><time>2026-03-29T15:19:44.166Z</time></trkpt><trkpt lat="44.9198132" lon="9.4534642"><ele>484.0</ele><time>2026-03-29T15:19:45.167Z</time></trkpt><trkpt lat="44.9199025" lon="9.4534878"><ele>484.0</ele><time>2026-03-29T15:19:46.165Z</time></trkpt><trkpt lat="44.9200012" lon="9.4535186"><ele>482.79999999999995</ele><time>2026-03-29T15:19:47.167Z</time></trkpt><trkpt lat="44.9200964" lon="9.4535524"><ele>481.59999999999997</ele><time>2026-03-29T15:19:48.166Z</time></trkpt><trkpt lat="44.9201892" lon="9.4535885"><ele>480.4</ele><time>2026-03-29T15:19:49.166Z</time></trkpt><trkpt lat="44.9202844" lon="9.4536367"><ele>479.2</ele><time>2026-03-29T15:19:50.166Z</time></trkpt><trkpt lat="44.9203642" lon="9.4536919"><ele>478.0</ele><time>2026-03-29T15:19:51.167Z</time></trkpt><trkpt lat="44.9204446" lon="9.4537725"><ele>478.2</ele><time>2026-03-29T15:19:52.167Z</time></trkpt><trkpt lat="44.9205029" lon="9.4538575"><ele>478.4</ele><time>2026-03-29T15:19:53.167Z</time></trkpt><trkpt lat="44.9205564" lon="9.4539607"><ele>478.59999999999997</ele><time>2026-03-29T15:19:54.166Z</time></trkpt><trkpt lat="44.9206022" lon="9.4540788"><ele>478.79999999999995</ele><time>2026-03-29T15:19:55.165Z</time></trkpt><trkpt lat="44.9206381" lon="9.4542083"><ele>479.0</ele><time>2026-03-29T15:19:56.167Z</time></trkpt><trkpt lat="44.9206701" lon="9.4543479"><ele>479.0</ele><time>2026-03-29T15:19:57.167Z</time></trkpt><trkpt lat="44.9206978" lon="9.4544989"><ele>479.0</ele><time>2026-03-29T15:19:58.166Z</time></trkpt><trkpt lat="44.9207306" lon="9.4546594"><ele>479.0</ele><time>2026-03-29T15:19:59.166Z</time></trkpt><trkpt lat="44.9207749" lon="9.4548318"><ele>479.0</ele><time>2026-03-29T15:20:00.167Z</time></trkpt><trkpt lat="44.9208413" lon="9.4550107"><ele>479.0</ele><time>2026-03-29T15:20:01.166Z</time></trkpt><trkpt lat="44.9209198" lon="9.4551911"><ele>479.0</ele><time>2026-03-29T15:20:02.166Z</time></trkpt><trkpt lat="44.9210059" lon="9.4553466"><ele>479.0</ele><time>2026-03-29T15:20:03.166Z</time></trkpt><trkpt lat="44.9211107" lon="9.4554786"><ele>479.0</ele><time>2026-03-29T15:20:04.166Z</time></trkpt><trkpt lat="44.9212218" lon="9.4555681"><ele>481.5</ele><time>2026-03-29T15:20:05.167Z</time></trkpt><trkpt lat="44.9213479" lon="9.4556158"><ele>484.0</ele><time>2026-03-29T15:20:06.166Z</time></trkpt><trkpt lat="44.9214804" lon="9.4556444"><ele>486.5</ele><time>2026-03-29T15:20:07.167Z</time></trkpt><trkpt lat="44.9216034" lon="9.4556755"><ele>489.0</ele><time>2026-03-29T15:20:08.167Z</time></trkpt><trkpt lat="44.921711" lon="9.455711"><ele>490.3333333333333</ele><time>2026-03-29T15:20:09.167Z</time></trkpt><trkpt lat="44.9218108" lon="9.4557461"><ele>491.66666666666663</ele><time>2026-03-29T15:20:10.167Z</time></trkpt><trkpt lat="44.9219028" lon="9.4557753"><ele>493.0</ele><time>2026-03-29T15:20:11.166Z</time></trkpt><trkpt lat="44.9219865" lon="9.4557992"><ele>494.3333333333333</ele><time>2026-03-29T15:20:12.167Z</time></trkpt><trkpt lat="44.922063" lon="9.4558171"><ele>495.66666666666663</ele><time>2026-03-29T15:20:13.166Z</time></trkpt><trkpt lat="44.9221405" lon="9.4558281"><ele>497.0</ele><time>2026-03-29T15:20:14.166Z</time></trkpt><trkpt lat="44.922212" lon="9.4558507"><ele>496.99999999999994</ele><time>2026-03-29T15:20:15.167Z</time></trkpt><trkpt lat="44.9222844" lon="9.4559685"><ele>497.0</ele><time>2026-03-29T15:20:17.166Z</time></trkpt><trkpt lat="44.922278" lon="9.4561352"><ele>497.0</ele><time>2026-03-29T15:20:19.166Z</time></trkpt><trkpt lat="44.922264" lon="9.456223"><ele>497.0</ele><time>2026-03-29T15:20:20.167Z</time></trkpt><trkpt lat="44.9222484" lon="9.4563145"><ele>496.99999999999994</ele><time>2026-03-29T15:20:21.167Z</time></trkpt><trkpt lat="44.9222433" lon="9.4564216"><ele>497.0</ele><time>2026-03-29T15:20:22.167Z</time></trkpt><trkpt lat="44.922247" lon="9.4565361"><ele>496.8333333333333</ele><time>2026-03-29T15:20:23.166Z</time></trkpt><trkpt lat="44.9222557" lon="9.4566481"><ele>496.66666666666663</ele><time>2026-03-29T15:20:24.167Z</time></trkpt><trkpt lat="44.9222765" lon="9.4567626"><ele>496.5</ele><time>2026-03-29T15:20:25.167Z</time></trkpt><trkpt lat="44.9223038" lon="9.4568838"><ele>496.33333333333337</ele><time>2026-03-29T15:20:26.167Z</time></trkpt><trkpt lat="44.9223366" lon="9.4570081"><ele>496.1666666666667</ele><time>2026-03-29T15:20:27.167Z</time></trkpt><trkpt lat="44.9223865" lon="9.4571331"><ele>496.0</ele><time>2026-03-29T15:20:28.166Z</time></trkpt><trkpt lat="44.9224454" lon="9.4572811"><ele>497.5</ele><time>2026-03-29T15:20:29.167Z</time></trkpt><trkpt lat="44.9225108" lon="9.4574535"><ele>499.0</ele><time>2026-03-29T15:20:30.167Z</time></trkpt><trkpt lat="44.9225656" lon="9.4576212"><ele>500.5</ele><time>2026-03-29T15:20:31.167Z</time></trkpt><trkpt lat="44.9226159" lon="9.4577966"><ele>502.0</ele><time>2026-03-29T15:20:32.166Z</time></trkpt><trkpt lat="44.9226586" lon="9.4579573"><ele>502.0</ele><time>2026-03-29T15:20:33.166Z</time></trkpt><trkpt lat="44.9226983" lon="9.458109"><ele>502.0</ele><time>2026-03-29T15:20:34.166Z</time></trkpt><trkpt lat="44.9227395" lon="9.4582737"><ele>502.0</ele><time>2026-03-29T15:20:35.167Z</time></trkpt><trkpt lat="44.9227837" lon="9.4584375"><ele>502.0</ele><time>2026-03-29T15:20:36.167Z</time></trkpt><trkpt lat="44.9228414" lon="9.4585973"><ele>502.0</ele><time>2026-03-29T15:20:37.167Z</time></trkpt><trkpt lat="44.9228995" lon="9.4587325"><ele>502.0</ele><time>2026-03-29T15:20:38.166Z</time></trkpt><trkpt lat="44.9229584" lon="9.4588611"><ele>502.0</ele><time>2026-03-29T15:20:39.167Z</time></trkpt><trkpt lat="44.9230212" lon="9.459011"><ele>502.0</ele><time>2026-03-29T15:20:40.167Z</time></trkpt><trkpt lat="44.9230809" lon="9.4591812"><ele>501.0</ele><time>2026-03-29T15:20:41.167Z</time></trkpt><trkpt lat="44.9231366" lon="9.4593623"><ele>500.0</ele><time>2026-03-29T15:20:42.167Z</time></trkpt><trkpt lat="44.923185" lon="9.4595504"><ele>499.0</ele><time>2026-03-29T15:20:43.166Z</time></trkpt><trkpt lat="44.9232243" lon="9.4597398"><ele>498.0</ele><time>2026-03-29T15:20:44.167Z</time></trkpt><trkpt lat="44.9232606" lon="9.4599354"><ele>497.25</ele><time>2026-03-29T15:20:45.167Z</time></trkpt><trkpt lat="44.9233068" lon="9.4601268"><ele>496.5</ele><time>2026-03-29T15:20:46.167Z</time></trkpt><trkpt lat="44.9233654" lon="9.4603202"><ele>495.75</ele><time>2026-03-29T15:20:47.166Z</time></trkpt><trkpt lat="44.9234406" lon="9.4605042"><ele>495.0</ele><time>2026-03-29T15:20:48.167Z</time></trkpt><trkpt lat="44.9235273" lon="9.460685"><ele>498.0</ele><time>2026-03-29T15:20:49.167Z</time></trkpt><trkpt lat="44.9236204" lon="9.4608779"><ele>501.0</ele><time>2026-03-29T15:20:50.166Z</time></trkpt><trkpt lat="44.9237202" lon="9.4610846"><ele>504.0</ele><time>2026-03-29T15:20:51.166Z</time></trkpt><trkpt lat="44.9238121" lon="9.4612675"><ele>501.33333333333337</ele><time>2026-03-29T15:20:52.167Z</time></trkpt><trkpt lat="44.9239014" lon="9.4614465"><ele>498.6666666666667</ele><time>2026-03-29T15:20:53.166Z</time></trkpt><trkpt lat="44.9239834" lon="9.4616306"><ele>496.0</ele><time>2026-03-29T15:20:54.167Z</time></trkpt><trkpt lat="44.924059" lon="9.461834"><ele>496.0</ele><time>2026-03-29T15:20:55.166Z</time></trkpt><trkpt lat="44.9241245" lon="9.4620587"><ele>496.0</ele><time>2026-03-29T15:20:56.166Z</time></trkpt><trkpt lat="44.9241786" lon="9.462304"><ele>496.0</ele><time>2026-03-29T15:20:57.167Z</time></trkpt><trkpt lat="44.9242197" lon="9.4625724"><ele>485.0</ele><time>2026-03-29T15:20:58.166Z</time></trkpt><trkpt lat="44.9242511" lon="9.4628539"><ele>474.0</ele><time>2026-03-29T15:20:59.167Z</time></trkpt><trkpt lat="44.9242876" lon="9.4631481"><ele>463.0</ele><time>2026-03-29T15:21:00.166Z</time></trkpt><trkpt lat="44.9243276" lon="9.4634441"><ele>463.0</ele><time>2026-03-29T15:21:01.166Z</time></trkpt><trkpt lat="44.9243645" lon="9.4637362"><ele>463.0</ele><time>2026-03-29T15:21:02.167Z</time></trkpt><trkpt lat="44.9243998" lon="9.4640298"><ele>463.0</ele><time>2026-03-29T15:21:03.167Z</time></trkpt><trkpt lat="44.9244382" lon="9.4643163"><ele>463.33333333333337</ele><time>2026-03-29T15:21:04.167Z</time></trkpt><trkpt lat="44.9244767" lon="9.4645879"><ele>463.66666666666663</ele><time>2026-03-29T15:21:05.166Z</time></trkpt><trkpt lat="44.9245025" lon="9.4648592"><ele>464.0</ele><time>2026-03-29T15:21:06.167Z</time></trkpt><trkpt lat="44.9245098" lon="9.4651367"><ele>467.3333333333333</ele><time>2026-03-29T15:21:07.166Z</time></trkpt><trkpt lat="44.924501" lon="9.4654086"><ele>470.66666666666663</ele><time>2026-03-29T15:21:08.167Z</time></trkpt><trkpt lat="44.9244796" lon="9.4656761"><ele>474.0</ele><time>2026-03-29T15:21:09.166Z</time></trkpt><trkpt lat="44.9244522" lon="9.4659269"><ele>477.0</ele><time>2026-03-29T15:21:10.166Z</time></trkpt><trkpt lat="44.9244176" lon="9.4661642"><ele>480.0</ele><time>2026-03-29T15:21:11.166Z</time></trkpt><trkpt lat="44.9243642" lon="9.4663859"><ele>483.0</ele><time>2026-03-29T15:21:12.167Z</time></trkpt><trkpt lat="44.9242928" lon="9.4665926"><ele>482.25</ele><time>2026-03-29T15:21:13.167Z</time></trkpt><trkpt lat="44.9242104" lon="9.4667802"><ele>481.5</ele><time>2026-03-29T15:21:14.165Z</time></trkpt><trkpt lat="44.924126" lon="9.4669507"><ele>480.75</ele><time>2026-03-29T15:21:15.167Z</time></trkpt><trkpt lat="44.9240474" lon="9.467102"><ele>480.0</ele><time>2026-03-29T15:21:16.167Z</time></trkpt><trkpt lat="44.9239844" lon="9.4672423"><ele>479.8333333333333</ele><time>2026-03-29T15:21:17.167Z</time></trkpt><trkpt lat="44.9239508" lon="9.4673632"><ele>479.66666666666663</ele><time>2026-03-29T15:21:18.167Z</time></trkpt><trkpt lat="44.9239567" lon="9.4674671"><ele>479.5</ele><time>2026-03-29T15:21:19.167Z</time></trkpt><trkpt lat="44.9239999" lon="9.467545"><ele>479.3333333333333</ele><time>2026-03-29T15:21:20.167Z</time></trkpt><trkpt lat="44.9240741" lon="9.4675858"><ele>479.16666666666663</ele><time>2026-03-29T15:21:21.167Z</time></trkpt><trkpt lat="44.9241787" lon="9.4675947"><ele>479.0</ele><time>2026-03-29T15:21:22.166Z</time></trkpt><trkpt lat="44.9242983" lon="9.4675811"><ele>477.2</ele><time>2026-03-29T15:21:23.167Z</time></trkpt><trkpt lat="44.9244062" lon="9.4675688"><ele>475.4</ele><time>2026-03-29T15:21:24.167Z</time></trkpt><trkpt lat="44.9245154" lon="9.4675548"><ele>473.6</ele><time>2026-03-29T15:21:25.166Z</time></trkpt><trkpt lat="44.9246225" lon="9.4675359"><ele>471.8</ele><time>2026-03-29T15:21:26.166Z</time></trkpt><trkpt lat="44.9247268" lon="9.4675178"><ele>470.0</ele><time>2026-03-29T15:21:27.167Z</time></trkpt><trkpt lat="44.9248301" lon="9.4675049"><ele>470.0</ele><time>2026-03-29T15:21:28.167Z</time></trkpt><trkpt lat="44.924932" lon="9.4675007"><ele>470.0</ele><time>2026-03-29T15:21:29.167Z</time></trkpt><trkpt lat="44.9250314" lon="9.4675108"><ele>470.0</ele><time>2026-03-29T15:21:30.167Z</time></trkpt><trkpt lat="44.9251281" lon="9.4675353"><ele>470.0</ele><time>2026-03-29T15:21:31.166Z</time></trkpt><trkpt lat="44.9252225" lon="9.4675657"><ele>470.0</ele><time>2026-03-29T15:21:32.167Z</time></trkpt><trkpt lat="44.9253155" lon="9.4675955"><ele>467.6</ele><time>2026-03-29T15:21:33.166Z</time></trkpt><trkpt lat="44.9254045" lon="9.4676193"><ele>465.2</ele><time>2026-03-29T15:21:34.167Z</time></trkpt><trkpt lat="44.9254848" lon="9.4676288"><ele>462.79999999999995</ele><time>2026-03-29T15:21:35.166Z</time></trkpt><trkpt lat="44.9255622" lon="9.4676133"><ele>460.4</ele><time>2026-03-29T15:21:36.167Z</time></trkpt><trkpt lat="44.9256512" lon="9.4675683"><ele>458.0</ele><time>2026-03-29T15:21:37.167Z</time></trkpt><trkpt lat="44.925764" lon="9.4674917"><ele>458.0</ele><time>2026-03-29T15:21:38.166Z</time></trkpt><trkpt lat="44.9258751" lon="9.4674051"><ele>458.0</ele><time>2026-03-29T15:21:39.166Z</time></trkpt><trkpt lat="44.9259831" lon="9.4673179"><ele>458.0</ele><time>2026-03-29T15:21:40.167Z</time></trkpt><trkpt lat="44.9260805" lon="9.4672065"><ele>458.0</ele><time>2026-03-29T15:21:41.166Z</time></trkpt><trkpt lat="44.9261553" lon="9.4670689"><ele>452.5</ele><time>2026-03-29T15:21:42.167Z</time></trkpt><trkpt lat="44.926208" lon="9.4669061"><ele>447.0</ele><time>2026-03-29T15:21:43.167Z</time></trkpt><trkpt lat="44.9262485" lon="9.4667101"><ele>441.5</ele><time>2026-03-29T15:21:44.167Z</time></trkpt><trkpt lat="44.9262782" lon="9.4665143"><ele>436.0</ele><time>2026-03-29T15:21:45.167Z</time></trkpt><trkpt lat="44.9263156" lon="9.4663107"><ele>436.0</ele><time>2026-03-29T15:21:46.167Z</time></trkpt><trkpt lat="44.9263647" lon="9.4661227"><ele>436.0</ele><time>2026-03-29T15:21:47.166Z</time></trkpt><trkpt lat="44.9264277" lon="9.4659468"><ele>436.0</ele><time>2026-03-29T15:21:48.167Z</time></trkpt><trkpt lat="44.9265167" lon="9.4657866"><ele>436.0</ele><time>2026-03-29T15:21:49.167Z</time></trkpt><trkpt lat="44.9266265" lon="9.4656362"><ele>432.0</ele><time>2026-03-29T15:21:50.166Z</time></trkpt><trkpt lat="44.9267549" lon="9.4654911"><ele>428.0</ele><time>2026-03-29T15:21:51.167Z</time></trkpt><trkpt lat="44.9268863" lon="9.4653537"><ele>424.0</ele><time>2026-03-29T15:21:52.166Z</time></trkpt><trkpt lat="44.9270101" lon="9.4652198"><ele>424.0</ele><time>2026-03-29T15:21:53.166Z</time></trkpt><trkpt lat="44.9271261" lon="9.4650888"><ele>424.0</ele><time>2026-03-29T15:21:54.167Z</time></trkpt><trkpt lat="44.9272339" lon="9.4649654"><ele>424.0</ele><time>2026-03-29T15:21:55.167Z</time></trkpt><trkpt lat="44.9273396" lon="9.4648667"><ele>424.0</ele><time>2026-03-29T15:21:56.167Z</time></trkpt><trkpt lat="44.927452" lon="9.4648224"><ele>422.75</ele><time>2026-03-29T15:21:57.167Z</time></trkpt><trkpt lat="44.9275756" lon="9.464819"><ele>421.5</ele><time>2026-03-29T15:21:58.166Z</time></trkpt><trkpt lat="44.9277125" lon="9.4648502"><ele>420.25</ele><time>2026-03-29T15:21:59.167Z</time></trkpt><trkpt lat="44.9278677" lon="9.4648975"><ele>419.0</ele><time>2026-03-29T15:22:00.167Z</time></trkpt><trkpt lat="44.9280457" lon="9.4649626"><ele>419.0</ele><time>2026-03-29T15:22:01.167Z</time></trkpt><trkpt lat="44.9282158" lon="9.4650379"><ele>419.0</ele><time>2026-03-29T15:22:02.167Z</time></trkpt><trkpt lat="44.9283784" lon="9.4651308"><ele>419.0</ele><time>2026-03-29T15:22:03.167Z</time></trkpt><trkpt lat="44.9285308" lon="9.4652347"><ele>418.3333333333333</ele><time>2026-03-29T15:22:04.167Z</time></trkpt><trkpt lat="44.9286762" lon="9.4653407"><ele>417.66666666666663</ele><time>2026-03-29T15:22:05.167Z</time></trkpt><trkpt lat="44.9288154" lon="9.4654451"><ele>417.0</ele><time>2026-03-29T15:22:06.167Z</time></trkpt><trkpt lat="44.9289557" lon="9.4655588"><ele>417.0</ele><time>2026-03-29T15:22:07.166Z</time></trkpt><trkpt lat="44.9290964" lon="9.4656557"><ele>417.0</ele><time>2026-03-29T15:22:08.167Z</time></trkpt><trkpt lat="44.9292637" lon="9.4657322"><ele>417.0</ele><time>2026-03-29T15:22:09.167Z</time></trkpt><trkpt lat="44.9294397" lon="9.4658016"><ele>414.66666666666663</ele><time>2026-03-29T15:22:10.166Z</time></trkpt><trkpt lat="44.9296226" lon="9.4658719"><ele>412.3333333333333</ele><time>2026-03-29T15:22:11.167Z</time></trkpt><trkpt lat="44.9297992" lon="9.4659619"><ele>410.0</ele><time>2026-03-29T15:22:12.166Z</time></trkpt><trkpt lat="44.9299666" lon="9.4660894"><ele>410.66666666666663</ele><time>2026-03-29T15:22:13.165Z</time></trkpt><trkpt lat="44.9301348" lon="9.4662257"><ele>411.33333333333337</ele><time>2026-03-29T15:22:14.166Z</time></trkpt><trkpt lat="44.9303176" lon="9.4663535"><ele>412.0</ele><time>2026-03-29T15:22:15.166Z</time></trkpt><trkpt lat="44.9304943" lon="9.4664745"><ele>414.6666666666667</ele><time>2026-03-29T15:22:16.167Z</time></trkpt><trkpt lat="44.9306448" lon="9.4665815"><ele>417.33333333333337</ele><time>2026-03-29T15:22:17.167Z</time></trkpt><trkpt lat="44.9307862" lon="9.466686"><ele>420.0</ele><time>2026-03-29T15:22:18.167Z</time></trkpt><trkpt lat="44.9309116" lon="9.4668191"><ele>420.33333333333337</ele><time>2026-03-29T15:22:19.166Z</time></trkpt><trkpt lat="44.931022" lon="9.4669872"><ele>420.6666666666667</ele><time>2026-03-29T15:22:20.167Z</time></trkpt><trkpt lat="44.9311222" lon="9.4671752"><ele>421.0</ele><time>2026-03-29T15:22:21.167Z</time></trkpt><trkpt lat="44.9312149" lon="9.4673608"><ele>421.0</ele><time>2026-03-29T15:22:22.166Z</time></trkpt><trkpt lat="44.9313017" lon="9.4675098"><ele>421.0</ele><time>2026-03-29T15:22:23.166Z</time></trkpt><trkpt lat="44.9313866" lon="9.4676299"><ele>421.0</ele><time>2026-03-29T15:22:24.166Z</time></trkpt><trkpt lat="44.9314746" lon="9.4677292"><ele>421.0</ele><time>2026-03-29T15:22:25.167Z</time></trkpt><trkpt lat="44.9315792" lon="9.467821"><ele>421.0</ele><time>2026-03-29T15:22:26.167Z</time></trkpt><trkpt lat="44.9317049" lon="9.467909"><ele>421.0</ele><time>2026-03-29T15:22:27.166Z</time></trkpt><trkpt lat="44.931846" lon="9.4679851"><ele>421.0</ele><time>2026-03-29T15:22:28.166Z</time></trkpt><trkpt lat="44.9319992" lon="9.4680234"><ele>421.0</ele><time>2026-03-29T15:22:29.166Z</time></trkpt><trkpt lat="44.9321517" lon="9.4680258"><ele>419.0</ele><time>2026-03-29T15:22:30.167Z</time></trkpt><trkpt lat="44.9323045" lon="9.4680093"><ele>417.0</ele><time>2026-03-29T15:22:31.167Z</time></trkpt><trkpt lat="44.9324502" lon="9.4679921"><ele>415.0</ele><time>2026-03-29T15:22:32.166Z</time></trkpt><trkpt lat="44.93259" lon="9.4679963"><ele>413.0</ele><time>2026-03-29T15:22:33.167Z</time></trkpt><trkpt lat="44.9327299" lon="9.4680351"><ele>413.0</ele><time>2026-03-29T15:22:34.166Z</time></trkpt><trkpt lat="44.9328732" lon="9.4681047"><ele>413.0</ele><time>2026-03-29T15:22:35.166Z</time></trkpt><trkpt lat="44.9330171" lon="9.468192"><ele>413.0</ele><time>2026-03-29T15:22:36.167Z</time></trkpt><trkpt lat="44.933149" lon="9.4682773"><ele>413.0</ele><time>2026-03-29T15:22:37.167Z</time></trkpt><trkpt lat="44.9332747" lon="9.46836"><ele>413.0</ele><time>2026-03-29T15:22:38.167Z</time></trkpt><trkpt lat="44.9333865" lon="9.4684365"><ele>413.0</ele><time>2026-03-29T15:22:39.167Z</time></trkpt><trkpt lat="44.9334911" lon="9.4685132"><ele>413.0</ele><time>2026-03-29T15:22:40.166Z</time></trkpt><trkpt lat="44.9335874" lon="9.4685908"><ele>412.59999999999997</ele><time>2026-03-29T15:22:41.167Z</time></trkpt><trkpt lat="44.933674" lon="9.4686737"><ele>412.2</ele><time>2026-03-29T15:22:42.166Z</time></trkpt><trkpt lat="44.9337386" lon="9.4687763"><ele>411.8</ele><time>2026-03-29T15:22:43.166Z</time></trkpt><trkpt lat="44.9337979" lon="9.4689014"><ele>411.4</ele><time>2026-03-29T15:22:44.167Z</time></trkpt><trkpt lat="44.9338687" lon="9.4690199"><ele>411.0</ele><time>2026-03-29T15:22:45.166Z</time></trkpt><trkpt lat="44.9339542" lon="9.4690989"><ele>409.75</ele><time>2026-03-29T15:22:46.167Z</time></trkpt><trkpt lat="44.9340523" lon="9.4691452"><ele>408.5</ele><time>2026-03-29T15:22:47.166Z</time></trkpt><trkpt lat="44.9341695" lon="9.4691611"><ele>407.25</ele><time>2026-03-29T15:22:48.167Z</time></trkpt><trkpt lat="44.9343108" lon="9.4691669"><ele>406.0</ele><time>2026-03-29T15:22:49.167Z</time></trkpt><trkpt lat="44.9344793" lon="9.4691798"><ele>402.6666666666667</ele><time>2026-03-29T15:22:50.167Z</time></trkpt><trkpt lat="44.9346752" lon="9.4692027"><ele>399.33333333333337</ele><time>2026-03-29T15:22:51.167Z</time></trkpt><trkpt lat="44.9348661" lon="9.4692258"><ele>396.0</ele><time>2026-03-29T15:22:52.166Z</time></trkpt><trkpt lat="44.9350525" lon="9.4692404"><ele>397.33333333333337</ele><time>2026-03-29T15:22:53.167Z</time></trkpt><trkpt lat="44.9352341" lon="9.4692484"><ele>398.6666666666667</ele><time>2026-03-29T15:22:54.166Z</time></trkpt><trkpt lat="44.9354054" lon="9.4692634"><ele>400.0</ele><time>2026-03-29T15:22:55.167Z</time></trkpt><trkpt lat="44.9355697" lon="9.4692906"><ele>400.0</ele><time>2026-03-29T15:22:56.166Z</time></trkpt><trkpt lat="44.9357445" lon="9.4693341"><ele>400.0</ele><time>2026-03-29T15:22:57.166Z</time></trkpt><trkpt lat="44.9359339" lon="9.469394"><ele>400.0</ele><time>2026-03-29T15:22:58.167Z</time></trkpt><trkpt lat="44.9362958" lon="9.469508"><ele>403.0</ele><time>2026-03-29T15:23:00.167Z</time></trkpt><trkpt lat="44.9366079" lon="9.4696153"><ele>406.0</ele><time>2026-03-29T15:23:02.352Z</time></trkpt><trkpt lat="44.9367402" lon="9.4696949"><ele>408.0</ele><time>2026-03-29T15:23:03.377Z</time></trkpt><trkpt lat="44.9369681" lon="9.4699579"><ele>410.0</ele><time>2026-03-29T15:23:05.354Z</time></trkpt><trkpt lat="44.9371749" lon="9.4703066"><ele>413.0</ele><time>2026-03-29T15:23:07.354Z</time></trkpt><trkpt lat="44.9372774" lon="9.4704888"><ele>416.0</ele><time>2026-03-29T15:23:08.397Z</time></trkpt><trkpt lat="44.9374669" lon="9.4708028"><ele>417.3333333333333</ele><time>2026-03-29T15:23:10.35Z</time></trkpt><trkpt lat="44.9375761" lon="9.4709336"><ele>418.66666666666663</ele><time>2026-03-29T15:23:11.357Z</time></trkpt><trkpt lat="44.9377082" lon="9.4710616"><ele>420.0</ele><time>2026-03-29T15:23:12.388Z</time></trkpt><trkpt lat="44.9380074" lon="9.4713121"><ele>420.0</ele><time>2026-03-29T15:23:14.37Z</time></trkpt><trkpt lat="44.9381559" lon="9.4714261"><ele>420.0</ele><time>2026-03-29T15:23:15.379Z</time></trkpt><trkpt lat="44.9384225" lon="9.4716486"><ele>426.5</ele><time>2026-03-29T15:23:17.361Z</time></trkpt><trkpt lat="44.9385422" lon="9.4717861"><ele>433.0</ele><time>2026-03-29T15:23:18.383Z</time></trkpt><trkpt lat="44.9387539" lon="9.4721266"><ele>433.0</ele><time>2026-03-29T15:23:20.376Z</time></trkpt><trkpt lat="44.9389141" lon="9.4724496"><ele>433.0</ele><time>2026-03-29T15:23:22.353Z</time></trkpt><trkpt lat="44.9389902" lon="9.4726023"><ele>433.0</ele><time>2026-03-29T15:23:23.354Z</time></trkpt><trkpt lat="44.9390692" lon="9.4727463"><ele>430.33333333333337</ele><time>2026-03-29T15:23:24.366Z</time></trkpt><trkpt lat="44.9392091" lon="9.4729805"><ele>427.66666666666663</ele><time>2026-03-29T15:23:26.349Z</time></trkpt><trkpt lat="44.9393521" lon="9.4732263"><ele>425.0</ele><time>2026-03-29T15:23:28.359Z</time></trkpt><trkpt lat="44.9394192" lon="9.4733856"><ele>429.0</ele><time>2026-03-29T15:23:29.38Z</time></trkpt><trkpt lat="44.9395437" lon="9.4737491"><ele>433.0</ele><time>2026-03-29T15:23:31.356Z</time></trkpt><trkpt lat="44.93962" lon="9.4739418"><ele>437.0</ele><time>2026-03-29T15:23:32.364Z</time></trkpt><trkpt lat="44.9398021" lon="9.4743661"><ele>434.5</ele><time>2026-03-29T15:23:34.361Z</time></trkpt><trkpt lat="44.9399707" lon="9.4747845"><ele>432.0</ele><time>2026-03-29T15:23:36.363Z</time></trkpt><trkpt lat="44.9405827" lon="9.4756748"><ele>432.0</ele><time>2026-03-29T15:23:42.384Z</time></trkpt><trkpt lat="44.9408334" lon="9.4759528"><ele>432.0</ele><time>2026-03-29T15:23:44.353Z</time></trkpt><trkpt lat="44.9409417" lon="9.4761033"><ele>428.0</ele><time>2026-03-29T15:23:45.367Z</time></trkpt><trkpt lat="44.9411132" lon="9.4764621"><ele>424.0</ele><time>2026-03-29T15:23:47.371Z</time></trkpt><trkpt lat="44.9412549" lon="9.4767939"><ele>424.0</ele><time>2026-03-29T15:23:49.357Z</time></trkpt><trkpt lat="44.9413159" lon="9.4769176"><ele>424.0</ele><time>2026-03-29T15:23:50.361Z</time></trkpt><trkpt lat="44.9413796" lon="9.4770173"><ele>424.0</ele><time>2026-03-29T15:23:51.369Z</time></trkpt><trkpt lat="44.9415547" lon="9.4771363"><ele>424.0</ele><time>2026-03-29T15:23:53.397Z</time></trkpt><trkpt lat="44.9418109" lon="9.4771231"><ele>419.0</ele><time>2026-03-29T15:23:55.36Z</time></trkpt><trkpt lat="44.9419701" lon="9.4770888"><ele>414.0</ele><time>2026-03-29T15:23:56.361Z</time></trkpt><trkpt lat="44.9421274" lon="9.4770568"><ele>409.0</ele><time>2026-03-29T15:23:57.406Z</time></trkpt><trkpt lat="44.9424184" lon="9.4770301"><ele>409.0</ele><time>2026-03-29T15:23:59.351Z</time></trkpt><trkpt lat="44.9425474" lon="9.4770813"><ele>409.0</ele><time>2026-03-29T15:24:00.385Z</time></trkpt><trkpt lat="44.9427829" lon="9.4773266"><ele>409.0</ele><time>2026-03-29T15:24:02.387Z</time></trkpt><trkpt lat="44.942914" lon="9.4774873"><ele>396.0</ele><time>2026-03-29T15:24:08.224Z</time></trkpt><trkpt lat="44.9435524" lon="9.4786738"><ele>400.0</ele><time>2026-03-29T15:24:09.518Z</time></trkpt><trkpt lat="44.9436242" lon="9.479072"><ele>404.0</ele><time>2026-03-29T15:24:11.377Z</time></trkpt><trkpt lat="44.9437197" lon="9.4793618"><ele>404.0</ele><time>2026-03-29T15:24:13.377Z</time></trkpt><trkpt lat="44.9437816" lon="9.4794679"><ele>404.0</ele><time>2026-03-29T15:24:14.392Z</time></trkpt><trkpt lat="44.9439414" lon="9.4796438"><ele>404.0</ele><time>2026-03-29T15:24:16.364Z</time></trkpt><trkpt lat="44.9442262" lon="9.4798121"><ele>397.0</ele><time>2026-03-29T15:24:18.373Z</time></trkpt><trkpt lat="44.9445449" lon="9.4800126"><ele>390.0</ele><time>2026-03-29T15:24:20.402Z</time></trkpt><trkpt lat="44.9448227" lon="9.4802343"><ele>386.5</ele><time>2026-03-29T15:24:22.348Z</time></trkpt><trkpt lat="44.9450652" lon="9.4805298"><ele>383.0</ele><time>2026-03-29T15:24:24.337Z</time></trkpt><trkpt lat="44.9451665" lon="9.4807188"><ele>383.0</ele><time>2026-03-29T15:24:25.349Z</time></trkpt><trkpt lat="44.9452562" lon="9.4809321"><ele>383.0</ele><time>2026-03-29T15:24:26.359Z</time></trkpt><trkpt lat="44.9453435" lon="9.4811616"><ele>383.0</ele><time>2026-03-29T15:24:27.392Z</time></trkpt><trkpt lat="44.945509" lon="9.4816104"><ele>383.0</ele><time>2026-03-29T15:24:29.344Z</time></trkpt><trkpt lat="44.9455892" lon="9.4818254"><ele>383.0</ele><time>2026-03-29T15:24:30.374Z</time></trkpt><trkpt lat="44.9457449" lon="9.4822461"><ele>378.0</ele><time>2026-03-29T15:24:32.347Z</time></trkpt><trkpt lat="44.9458237" lon="9.4824556"><ele>373.0</ele><time>2026-03-29T15:24:33.348Z</time></trkpt><trkpt lat="44.9459829" lon="9.4828726"><ele>369.66666666666663</ele><time>2026-03-29T15:24:35.351Z</time></trkpt><trkpt lat="44.9460584" lon="9.4830821"><ele>366.3333333333333</ele><time>2026-03-29T15:24:36.355Z</time></trkpt><trkpt lat="44.9461292" lon="9.4832933"><ele>363.0</ele><time>2026-03-29T15:24:37.39Z</time></trkpt><trkpt lat="44.9462214" lon="9.483725"><ele>361.5</ele><time>2026-03-29T15:24:39.349Z</time></trkpt><trkpt lat="44.9462089" lon="9.4841711"><ele>360.0</ele><time>2026-03-29T15:24:41.343Z</time></trkpt><trkpt lat="44.9461746" lon="9.4846409"><ele>358.0</ele><time>2026-03-29T15:24:43.352Z</time></trkpt><trkpt lat="44.9461424" lon="9.4851219"><ele>356.0</ele><time>2026-03-29T15:24:45.347Z</time></trkpt><trkpt lat="44.9461204" lon="9.4853553"><ele>354.0</ele><time>2026-03-29T15:24:46.352Z</time></trkpt><trkpt lat="44.9460547" lon="9.4858113"><ele>352.0</ele><time>2026-03-29T15:24:48.368Z</time></trkpt><trkpt lat="44.9459762" lon="9.4862404"><ele>350.5</ele><time>2026-03-29T15:24:50.373Z</time></trkpt><trkpt lat="44.9459472" lon="9.4864153"><ele>349.0</ele><time>2026-03-29T15:24:51.375Z</time></trkpt><trkpt lat="44.9459232" lon="9.4865605"><ele>347.5</ele><time>2026-03-29T15:24:52.386Z</time></trkpt><trkpt lat="44.9459121" lon="9.4868161"><ele>346.0</ele><time>2026-03-29T15:24:54.392Z</time></trkpt><trkpt lat="44.9459337" lon="9.4869658"><ele>343.0</ele><time>2026-03-29T15:24:55.436Z</time></trkpt><trkpt lat="44.9459952" lon="9.4873296"><ele>340.0</ele><time>2026-03-29T15:24:57.377Z</time></trkpt><trkpt lat="44.9460162" lon="9.4877294"><ele>339.0</ele><time>2026-03-29T15:24:59.368Z</time></trkpt><trkpt lat="44.9459567" lon="9.4881694"><ele>338.0</ele><time>2026-03-29T15:25:01.367Z</time></trkpt><trkpt lat="44.9458269" lon="9.4886208"><ele>331.0</ele><time>2026-03-29T15:25:03.362Z</time></trkpt><trkpt lat="44.9456759" lon="9.4891125"><ele>324.0</ele><time>2026-03-29T15:25:05.37Z</time></trkpt><trkpt lat="44.9455239" lon="9.4896749"><ele>315.0</ele><time>2026-03-29T15:25:07.36Z</time></trkpt><trkpt lat="44.9453439" lon="9.4902598"><ele>313.0</ele><time>2026-03-29T15:25:09.357Z</time></trkpt><trkpt lat="44.9452427" lon="9.4905348"><ele>311.0</ele><time>2026-03-29T15:25:10.362Z</time></trkpt><trkpt lat="44.9451354" lon="9.4907894"><ele>309.0</ele><time>2026-03-29T15:25:11.368Z</time></trkpt><trkpt lat="44.9449211" lon="9.4912529"><ele>310.5</ele><time>2026-03-29T15:25:13.356Z</time></trkpt><trkpt lat="44.9447214" lon="9.4916476"><ele>312.0</ele><time>2026-03-29T15:25:15.357Z</time></trkpt><trkpt lat="44.9446125" lon="9.4918218"><ele>312.0</ele><time>2026-03-29T15:25:16.368Z</time></trkpt><trkpt lat="44.9444995" lon="9.491976"><ele>312.0</ele><time>2026-03-29T15:25:17.392Z</time></trkpt><trkpt lat="44.9442919" lon="9.4922106"><ele>312.0</ele><time>2026-03-29T15:25:19.378Z</time></trkpt><trkpt lat="44.9441204" lon="9.4923776"><ele>312.3333333333333</ele><time>2026-03-29T15:25:21.355Z</time></trkpt><trkpt lat="44.9439931" lon="9.4925008"><ele>312.66666666666663</ele><time>2026-03-29T15:25:23.357Z</time></trkpt><trkpt lat="44.9439342" lon="9.4926348"><ele>313.0</ele><time>2026-03-29T15:25:25.37Z</time></trkpt><trkpt lat="44.9440081" lon="9.4931936"><ele>312.2</ele><time>2026-03-29T15:25:33.404Z</time></trkpt><trkpt lat="44.9440291" lon="9.4933063"><ele>311.4</ele><time>2026-03-29T15:25:35.359Z</time></trkpt><trkpt lat="44.9440747" lon="9.4934853"><ele>310.59999999999997</ele><time>2026-03-29T15:25:38.39Z</time></trkpt><trkpt lat="44.9441249" lon="9.4936305"><ele>309.8</ele><time>2026-03-29T15:25:40.381Z</time></trkpt><trkpt lat="44.9441651" lon="9.493719"><ele>309.0</ele><time>2026-03-29T15:25:41.388Z</time></trkpt><trkpt lat="44.9442716" lon="9.4938891"><ele>307.0</ele><time>2026-03-29T15:25:43.365Z</time></trkpt><trkpt lat="44.9443387" lon="9.4939563"><ele>305.0</ele><time>2026-03-29T15:25:44.379Z</time></trkpt><trkpt lat="44.9444019" lon="9.4940191"><ele>303.0</ele><time>2026-03-29T15:25:45.444Z</time></trkpt><trkpt lat="44.9445184" lon="9.4941436"><ele>301.0</ele><time>2026-03-29T15:25:47.377Z</time></trkpt><trkpt lat="44.944573" lon="9.4942099"><ele>299.0</ele><time>2026-03-29T15:25:48.384Z</time></trkpt><trkpt lat="44.9446334" lon="9.4942766"><ele>299.0</ele><time>2026-03-29T15:25:49.387Z</time></trkpt><trkpt lat="44.9447569" lon="9.4944013"><ele>299.0</ele><time>2026-03-29T15:25:51.391Z</time></trkpt><trkpt lat="44.9448825" lon="9.4945634"><ele>299.0</ele><time>2026-03-29T15:25:53.391Z</time></trkpt><trkpt lat="44.9449434" lon="9.4946718"><ele>299.0</ele><time>2026-03-29T15:25:54.394Z</time></trkpt><trkpt lat="44.945044" lon="9.4949491"><ele>297.5</ele><time>2026-03-29T15:25:56.358Z</time></trkpt><trkpt lat="44.945085" lon="9.4951046"><ele>296.0</ele><time>2026-03-29T15:25:57.361Z</time></trkpt><trkpt lat="44.945125" lon="9.4952583"><ele>294.5</ele><time>2026-03-29T15:25:58.375Z</time></trkpt><trkpt lat="44.9451734" lon="9.4954093"><ele>293.0</ele><time>2026-03-29T15:25:59.394Z</time></trkpt><trkpt lat="44.9456672" lon="9.496195"><ele>293.0</ele><time>2026-03-29T15:26:05.349Z</time></trkpt><trkpt lat="44.9458426" lon="9.4964345"><ele>293.0</ele><time>2026-03-29T15:26:07.363Z</time></trkpt><trkpt lat="44.9460054" lon="9.4966578"><ele>290.33333333333337</ele><time>2026-03-29T15:26:09.368Z</time></trkpt><trkpt lat="44.9461545" lon="9.4968968"><ele>287.6666666666667</ele><time>2026-03-29T15:26:11.36Z</time></trkpt><trkpt lat="44.9462256" lon="9.4970291"><ele>285.0</ele><time>2026-03-29T15:26:12.394Z</time></trkpt><trkpt lat="44.9462977" lon="9.4971768"><ele>282.0</ele><time>2026-03-29T15:26:18.504Z</time></trkpt><trkpt lat="44.9466134" lon="9.4983644"><ele>282.0</ele><time>2026-03-29T15:26:20.357Z</time></trkpt><trkpt lat="44.9466402" lon="9.498528"><ele>282.0</ele><time>2026-03-29T15:26:21.391Z</time></trkpt><trkpt lat="44.946702" lon="9.4988411"><ele>282.0</ele><time>2026-03-29T15:26:23.384Z</time></trkpt><trkpt lat="44.9467405" lon="9.4989931"><ele>276.5</ele><time>2026-03-29T15:26:24.433Z</time></trkpt><trkpt lat="44.9468852" lon="9.4992666"><ele>271.0</ele><time>2026-03-29T15:26:26.403Z</time></trkpt><trkpt lat="44.9471075" lon="9.4994801"><ele>270.3333333333333</ele><time>2026-03-29T15:26:28.386Z</time></trkpt><trkpt lat="44.9472955" lon="9.4997044"><ele>269.6666666666667</ele><time>2026-03-29T15:26:30.371Z</time></trkpt><trkpt lat="44.9473617" lon="9.4998553"><ele>269.0</ele><time>2026-03-29T15:26:31.389Z</time></trkpt><trkpt lat="44.9474652" lon="9.5002126"><ele>269.0</ele><time>2026-03-29T15:26:33.354Z</time></trkpt><trkpt lat="44.9475175" lon="9.5004008"><ele>269.0</ele><time>2026-03-29T15:26:34.364Z</time></trkpt><trkpt lat="44.9476267" lon="9.5007656"><ele>269.0</ele><time>2026-03-29T15:26:36.362Z</time></trkpt><trkpt lat="44.9476914" lon="9.5009424"><ele>265.5</ele><time>2026-03-29T15:26:37.367Z</time></trkpt><trkpt lat="44.9477624" lon="9.5011098"><ele>262.0</ele><time>2026-03-29T15:26:38.386Z</time></trkpt><trkpt lat="44.9478494" lon="9.5012693"><ele>258.5</ele><time>2026-03-29T15:26:39.39Z</time></trkpt><trkpt lat="44.9479627" lon="9.5014135"><ele>255.0</ele><time>2026-03-29T15:26:40.394Z</time></trkpt><trkpt lat="44.9487659" lon="9.502088"><ele>252.2</ele><time>2026-03-29T15:26:47.373Z</time></trkpt><trkpt lat="44.9488409" lon="9.5021199"><ele>249.4</ele><time>2026-03-29T15:26:48.501Z</time></trkpt><trkpt lat="44.9489592" lon="9.5021599"><ele>246.60000000000002</ele><time>2026-03-29T15:26:50.353Z</time></trkpt><trkpt lat="44.9490334" lon="9.5021931"><ele>243.8</ele><time>2026-03-29T15:26:52.361Z</time></trkpt><trkpt lat="44.9490944" lon="9.5022551"><ele>241.0</ele><time>2026-03-29T15:26:59.384Z</time></trkpt><trkpt lat="44.949117" lon="9.502416"><ele>241.0</ele><time>2026-03-29T15:27:01.371Z</time></trkpt><trkpt lat="44.9490996" lon="9.5025378"><ele>241.0</ele><time>2026-03-29T15:27:02.379Z</time></trkpt><trkpt lat="44.9490234" lon="9.5028533"><ele>241.0</ele><time>2026-03-29T15:27:04.407Z</time></trkpt><trkpt lat="44.9481762" lon="9.5039746"><ele>239.0</ele><time>2026-03-29T15:27:11.382Z</time></trkpt><trkpt lat="44.9479991" lon="9.5041466"><ele>237.0</ele><time>2026-03-29T15:27:12.409Z</time></trkpt><trkpt lat="44.947647" lon="9.5044803"><ele>235.0</ele><time>2026-03-29T15:27:14.386Z</time></trkpt><trkpt lat="44.9472861" lon="9.504763"><ele>233.0</ele><time>2026-03-29T15:27:16.362Z</time></trkpt><trkpt lat="44.9461579" lon="9.5057034"><ele>233.5</ele><time>2026-03-29T15:27:24.399Z</time></trkpt><trkpt lat="44.9459362" lon="9.5059649"><ele>234.0</ele><time>2026-03-29T15:27:26.355Z</time></trkpt><trkpt lat="44.9457497" lon="9.5062926"><ele>234.0</ele><time>2026-03-29T15:27:28.368Z</time></trkpt><trkpt lat="44.9456809" lon="9.506486"><ele>234.0</ele><time>2026-03-29T15:27:29.377Z</time></trkpt><trkpt lat="44.9456391" lon="9.5069173"><ele>229.0</ele><time>2026-03-29T15:27:31.364Z</time></trkpt><trkpt lat="44.9458524" lon="9.5085049"><ele>228.66666666666666</ele><time>2026-03-29T15:27:38.378Z</time></trkpt><trkpt lat="44.9458642" lon="9.5089158"><ele>228.33333333333331</ele><time>2026-03-29T15:27:40.377Z</time></trkpt><trkpt lat="44.9458372" lon="9.5091223"><ele>228.0</ele><time>2026-03-29T15:27:41.404Z</time></trkpt><trkpt lat="44.9457024" lon="9.5094958"><ele>224.5</ele><time>2026-03-29T15:27:43.377Z</time></trkpt><trkpt lat="44.9454671" lon="9.5098309"><ele>221.0</ele><time>2026-03-29T15:27:45.367Z</time></trkpt><trkpt lat="44.9451709" lon="9.5102041"><ele>224.5</ele><time>2026-03-29T15:27:47.361Z</time></trkpt><trkpt lat="44.9450305" lon="9.5103908"><ele>228.0</ele><time>2026-03-29T15:27:48.379Z</time></trkpt><trkpt lat="44.9442542" lon="9.5113505"><ele>223.0</ele><time>2026-03-29T15:27:54.755Z</time></trkpt><trkpt lat="44.9440162" lon="9.5116486"><ele>218.0</ele><time>2026-03-29T15:27:56.377Z</time></trkpt><trkpt lat="44.9438219" lon="9.5119576"><ele>214.0</ele><time>2026-03-29T15:27:58.417Z</time></trkpt><trkpt lat="44.9437571" lon="9.5123736"><ele>210.0</ele><time>2026-03-29T15:28:00.358Z</time></trkpt><trkpt lat="44.9437685" lon="9.5125913"><ele>208.5</ele><time>2026-03-29T15:28:01.405Z</time></trkpt><trkpt lat="44.9438192" lon="9.5129896"><ele>207.0</ele><time>2026-03-29T15:28:03.364Z</time></trkpt><trkpt lat="44.9438751" lon="9.513368"><ele>207.0</ele><time>2026-03-29T15:28:05.344Z</time></trkpt><trkpt lat="44.9439012" lon="9.5135561"><ele>207.0</ele><time>2026-03-29T15:28:06.347Z</time></trkpt><trkpt lat="44.9439262" lon="9.5137448"><ele>207.0</ele><time>2026-03-29T15:28:07.352Z</time></trkpt><trkpt lat="44.9439487" lon="9.5139378"><ele>207.0</ele><time>2026-03-29T15:28:08.375Z</time></trkpt><trkpt lat="44.9439741" lon="9.5141488"><ele>207.5</ele><time>2026-03-29T15:28:09.376Z</time></trkpt><trkpt lat="44.9440415" lon="9.5146144"><ele>208.0</ele><time>2026-03-29T15:28:11.36Z</time></trkpt><trkpt lat="44.9440846" lon="9.5148351"><ele>202.0</ele><time>2026-03-29T15:28:17.811Z</time></trkpt><trkpt lat="44.9447329" lon="9.5157985"><ele>202.0</ele><time>2026-03-29T15:28:19.357Z</time></trkpt><trkpt lat="44.9448389" lon="9.5158685"><ele>202.0</ele><time>2026-03-29T15:28:20.365Z</time></trkpt><trkpt lat="44.9449391" lon="9.5159331"><ele>202.0</ele><time>2026-03-29T15:28:21.379Z</time></trkpt><trkpt lat="44.9451271" lon="9.5160594"><ele>202.0</ele><time>2026-03-29T15:28:23.37Z</time></trkpt><trkpt lat="44.9453117" lon="9.5161846"><ele>199.5</ele><time>2026-03-29T15:28:25.358Z</time></trkpt><trkpt lat="44.9454192" lon="9.5162493"><ele>197.0</ele><time>2026-03-29T15:28:26.366Z</time></trkpt><trkpt lat="44.9464696" lon="9.5164313"><ele>195.0</ele><time>2026-03-29T15:28:33.383Z</time></trkpt><trkpt lat="44.9466319" lon="9.5164239"><ele>193.0</ele><time>2026-03-29T15:28:34.4Z</time></trkpt><trkpt lat="44.9469429" lon="9.5163998"><ele>191.5</ele><time>2026-03-29T15:28:36.362Z</time></trkpt><trkpt lat="44.9472581" lon="9.5164086"><ele>190.0</ele><time>2026-03-29T15:28:38.359Z</time></trkpt><trkpt lat="44.9475877" lon="9.5165158"><ele>186.5</ele><time>2026-03-29T15:28:40.359Z</time></trkpt><trkpt lat="44.9477412" lon="9.5166088"><ele>183.0</ele><time>2026-03-29T15:28:41.387Z</time></trkpt><trkpt lat="44.9480119" lon="9.5168681"><ele>183.0</ele><time>2026-03-29T15:28:43.367Z</time></trkpt><trkpt lat="44.9481285" lon="9.5170316"><ele>183.0</ele><time>2026-03-29T15:28:44.387Z</time></trkpt><trkpt lat="44.9483357" lon="9.5174109"><ele>179.5</ele><time>2026-03-29T15:28:46.359Z</time></trkpt><trkpt lat="44.9485272" lon="9.5177989"><ele>176.0</ele><time>2026-03-29T15:28:48.374Z</time></trkpt><trkpt lat="44.9486144" lon="9.5179748"><ele>176.0</ele><time>2026-03-29T15:28:49.393Z</time></trkpt><trkpt lat="44.9487772" lon="9.5183034"><ele>176.0</ele><time>2026-03-29T15:28:51.376Z</time></trkpt><trkpt lat="44.9489344" lon="9.5186441"><ele>176.0</ele><time>2026-03-29T15:28:53.36Z</time></trkpt><trkpt lat="44.9490025" lon="9.5188358"><ele>176.0</ele><time>2026-03-29T15:28:54.362Z</time></trkpt><trkpt lat="44.9490594" lon="9.5190458"><ele>176.0</ele><time>2026-03-29T15:28:55.398Z</time></trkpt><trkpt lat="44.9491315" lon="9.5195205"><ele>183.0</ele><time>2026-03-29T15:28:57.357Z</time></trkpt><trkpt lat="44.9491477" lon="9.5208266"><ele>179.0</ele><time>2026-03-29T15:29:05.718Z</time></trkpt><trkpt lat="44.9495906" lon="9.5223461"><ele>179.0</ele><time>2026-03-29T15:29:18.167Z</time></trkpt><trkpt lat="44.9496633" lon="9.5224808"><ele>179.0</ele><time>2026-03-29T15:29:19.167Z</time></trkpt><trkpt lat="44.949742" lon="9.5226232"><ele>179.0</ele><time>2026-03-29T15:29:20.167Z</time></trkpt><trkpt lat="44.9498221" lon="9.5227673"><ele>179.0</ele><time>2026-03-29T15:29:21.167Z</time></trkpt><trkpt lat="44.9499031" lon="9.5229108"><ele>177.75</ele><time>2026-03-29T15:29:22.166Z</time></trkpt><trkpt lat="44.9499805" lon="9.5230518"><ele>176.5</ele><time>2026-03-29T15:29:23.167Z</time></trkpt><trkpt lat="44.9500588" lon="9.5232004"><ele>175.25</ele><time>2026-03-29T15:29:24.167Z</time></trkpt><trkpt lat="44.9501279" lon="9.5233627"><ele>174.0</ele><time>2026-03-29T15:29:25.166Z</time></trkpt><trkpt lat="44.95018" lon="9.5235463"><ele>173.0</ele><time>2026-03-29T15:29:26.167Z</time></trkpt><trkpt lat="44.9502108" lon="9.5237479"><ele>172.0</ele><time>2026-03-29T15:29:27.166Z</time></trkpt><trkpt lat="44.9502157" lon="9.5239684"><ele>171.0</ele><time>2026-03-29T15:29:28.166Z</time></trkpt><trkpt lat="44.950189" lon="9.524191"><ele>171.0</ele><time>2026-03-29T15:29:29.167Z</time></trkpt><trkpt lat="44.950128" lon="9.5244098"><ele>171.0</ele><time>2026-03-29T15:29:30.167Z</time></trkpt><trkpt lat="44.9500565" lon="9.5246345"><ele>171.0</ele><time>2026-03-29T15:29:31.167Z</time></trkpt><trkpt lat="44.9499807" lon="9.524873"><ele>169.0</ele><time>2026-03-29T15:29:32.166Z</time></trkpt><trkpt lat="44.9499009" lon="9.5251283"><ele>167.0</ele><time>2026-03-29T15:29:33.167Z</time></trkpt><trkpt lat="44.9498159" lon="9.5253979"><ele>165.0</ele><time>2026-03-29T15:29:34.166Z</time></trkpt><trkpt lat="44.9497267" lon="9.5256792"><ele>163.33333333333334</ele><time>2026-03-29T15:29:35.166Z</time></trkpt><trkpt lat="44.9496351" lon="9.5259688"><ele>161.66666666666669</ele><time>2026-03-29T15:29:36.167Z</time></trkpt><trkpt lat="44.949547" lon="9.5262501"><ele>160.0</ele><time>2026-03-29T15:29:37.167Z</time></trkpt><trkpt lat="44.9494589" lon="9.5265219"><ele>158.33333333333334</ele><time>2026-03-29T15:29:38.167Z</time></trkpt><trkpt lat="44.9493706" lon="9.5267955"><ele>156.66666666666666</ele><time>2026-03-29T15:29:39.166Z</time></trkpt><trkpt lat="44.9492822" lon="9.5270703"><ele>155.0</ele><time>2026-03-29T15:29:40.167Z</time></trkpt><trkpt lat="44.9491918" lon="9.527344"><ele>153.33333333333331</ele><time>2026-03-29T15:29:41.166Z</time></trkpt><trkpt lat="44.9491022" lon="9.5276196"><ele>151.66666666666666</ele><time>2026-03-29T15:29:42.167Z</time></trkpt><trkpt lat="44.9490139" lon="9.5278914"><ele>150.0</ele><time>2026-03-29T15:29:43.167Z</time></trkpt><trkpt lat="44.9489266" lon="9.5281586"><ele>149.33333333333334</ele><time>2026-03-29T15:29:44.167Z</time></trkpt><trkpt lat="44.9488406" lon="9.5284227"><ele>148.66666666666669</ele><time>2026-03-29T15:29:45.166Z</time></trkpt><trkpt lat="44.9487573" lon="9.5286816"><ele>148.0</ele><time>2026-03-29T15:29:46.166Z</time></trkpt><trkpt lat="44.9486766" lon="9.5289391"><ele>148.0</ele><time>2026-03-29T15:29:47.165Z</time></trkpt><trkpt lat="44.9485985" lon="9.5291917"><ele>148.0</ele><time>2026-03-29T15:29:48.167Z</time></trkpt><trkpt lat="44.9485241" lon="9.5294333"><ele>148.0</ele><time>2026-03-29T15:29:49.167Z</time></trkpt><trkpt lat="44.9484569" lon="9.5296471"><ele>148.0</ele><time>2026-03-29T15:29:50.167Z</time></trkpt><trkpt lat="44.9484" lon="9.5298275"><ele>148.0</ele><time>2026-03-29T15:29:51.166Z</time></trkpt><trkpt lat="44.9483491" lon="9.5299877"><ele>148.0</ele><time>2026-03-29T15:29:52.166Z</time></trkpt><trkpt lat="44.9482983" lon="9.5301444"><ele>148.0</ele><time>2026-03-29T15:29:53.167Z</time></trkpt><trkpt lat="44.9482474" lon="9.5303019"><ele>148.5</ele><time>2026-03-29T15:29:54.167Z</time></trkpt><trkpt lat="44.9481968" lon="9.5304567"><ele>149.0</ele><time>2026-03-29T15:29:55.167Z</time></trkpt><trkpt lat="44.9481459" lon="9.5306161"><ele>149.5</ele><time>2026-03-29T15:29:56.167Z</time></trkpt><trkpt lat="44.9480932" lon="9.5307799"><ele>150.0</ele><time>2026-03-29T15:29:57.167Z</time></trkpt><trkpt lat="44.9480413" lon="9.5309466"><ele>150.0</ele><time>2026-03-29T15:29:58.166Z</time></trkpt><trkpt lat="44.9479878" lon="9.5311114"><ele>150.0</ele><time>2026-03-29T15:29:59.167Z</time></trkpt><trkpt lat="44.9479361" lon="9.5312801"><ele>150.0</ele><time>2026-03-29T15:30:00.167Z</time></trkpt><trkpt lat="44.9478847" lon="9.5314517"><ele>150.0</ele><time>2026-03-29T15:30:01.167Z</time></trkpt><trkpt lat="44.9478236" lon="9.5316485"><ele>150.0</ele><time>2026-03-29T15:30:02.166Z</time></trkpt><trkpt lat="44.9477497" lon="9.5318858"><ele>150.0</ele><time>2026-03-29T15:30:03.166Z</time></trkpt><trkpt lat="44.9476588" lon="9.5321684"><ele>150.0</ele><time>2026-03-29T15:30:04.166Z</time></trkpt><trkpt lat="44.9475533" lon="9.5324839"><ele>151.5</ele><time>2026-03-29T15:30:05.167Z</time></trkpt><trkpt lat="44.9474545" lon="9.5327796"><ele>153.0</ele><time>2026-03-29T15:30:06.166Z</time></trkpt><trkpt lat="44.9473664" lon="9.533077"><ele>153.33333333333334</ele><time>2026-03-29T15:30:07.167Z</time></trkpt><trkpt lat="44.9473061" lon="9.5333884"><ele>153.66666666666669</ele><time>2026-03-29T15:30:08.167Z</time></trkpt><trkpt lat="44.9472684" lon="9.5336793"><ele>154.0</ele><time>2026-03-29T15:30:09.166Z</time></trkpt><trkpt lat="44.9472459" lon="9.5339405"><ele>154.5</ele><time>2026-03-29T15:30:10.166Z</time></trkpt><trkpt lat="44.9472271" lon="9.53416"><ele>155.0</ele><time>2026-03-29T15:30:11.167Z</time></trkpt><trkpt lat="44.9471976" lon="9.5343477"><ele>155.5</ele><time>2026-03-29T15:30:12.167Z</time></trkpt><trkpt lat="44.9471514" lon="9.534495"><ele>156.0</ele><time>2026-03-29T15:30:13.167Z</time></trkpt><trkpt lat="44.9471006" lon="9.5346181"><ele>156.5</ele><time>2026-03-29T15:30:14.166Z</time></trkpt><trkpt lat="44.9470832" lon="9.5347424"><ele>157.0</ele><time>2026-03-29T15:30:15.166Z</time></trkpt><trkpt lat="44.9470872" lon="9.534855"><ele>157.5</ele><time>2026-03-29T15:30:16.166Z</time></trkpt><trkpt lat="44.9471004" lon="9.5349655"><ele>158.0</ele><time>2026-03-29T15:30:17.166Z</time></trkpt><trkpt lat="44.9471023" lon="9.5350911"><ele>158.5</ele><time>2026-03-29T15:30:18.166Z</time></trkpt><trkpt lat="44.9470703" lon="9.5351976"><ele>159.0</ele><time>2026-03-29T15:30:19.167Z</time></trkpt><trkpt lat="44.9470127" lon="9.5352773"><ele>159.0</ele><time>2026-03-29T15:30:20.167Z</time></trkpt><trkpt lat="44.9469374" lon="9.5353274"><ele>159.0</ele><time>2026-03-29T15:30:21.166Z</time></trkpt><trkpt lat="44.9468465" lon="9.5353554"><ele>159.0</ele><time>2026-03-29T15:30:22.167Z</time></trkpt><trkpt lat="44.9467501" lon="9.5353814"><ele>159.0</ele><time>2026-03-29T15:30:23.167Z</time></trkpt><trkpt lat="44.9466507" lon="9.5354162"><ele>159.0</ele><time>2026-03-29T15:30:24.167Z</time></trkpt><trkpt lat="44.946559" lon="9.535449"><ele>159.33333333333334</ele><time>2026-03-29T15:30:25.167Z</time></trkpt><trkpt lat="44.9464786" lon="9.5354801"><ele>159.66666666666666</ele><time>2026-03-29T15:30:26.166Z</time></trkpt><trkpt lat="44.9464043" lon="9.5355108"><ele>160.0</ele><time>2026-03-29T15:30:27.165Z</time></trkpt><trkpt lat="44.9463286" lon="9.5355433"><ele>160.33333333333331</ele><time>2026-03-29T15:30:28.167Z</time></trkpt><trkpt lat="44.9462514" lon="9.535578"><ele>160.66666666666666</ele><time>2026-03-29T15:30:29.167Z</time></trkpt><trkpt lat="44.9461773" lon="9.5356078"><ele>161.0</ele><time>2026-03-29T15:30:30.166Z</time></trkpt><trkpt lat="44.9461123" lon="9.5356343"><ele>161.0</ele><time>2026-03-29T15:30:31.167Z</time></trkpt><trkpt lat="44.9460021" lon="9.5356793"><ele>161.0</ele><time>2026-03-29T15:30:33.167Z</time></trkpt><trkpt lat="44.9459373" lon="9.5357076"><ele>161.0</ele><time>2026-03-29T15:30:34.167Z</time></trkpt><trkpt lat="44.9458636" lon="9.5357385"><ele>161.0</ele><time>2026-03-29T15:30:35.167Z</time></trkpt><trkpt lat="44.945784" lon="9.53577"><ele>161.0</ele><time>2026-03-29T15:30:36.167Z</time></trkpt><trkpt lat="44.9456999" lon="9.5358026"><ele>161.0</ele><time>2026-03-29T15:30:37.166Z</time></trkpt><trkpt lat="44.9456217" lon="9.535832"><ele>161.5</ele><time>2026-03-29T15:30:38.166Z</time></trkpt><trkpt lat="44.9455515" lon="9.5358583"><ele>162.0</ele><time>2026-03-29T15:30:39.167Z</time></trkpt><trkpt lat="44.945488" lon="9.535884"><ele>162.5</ele><time>2026-03-29T15:30:40.167Z</time></trkpt><trkpt lat="44.9454236" lon="9.5359083"><ele>163.0</ele><time>2026-03-29T15:30:41.166Z</time></trkpt><trkpt lat="44.9453526" lon="9.5359329"><ele>163.5</ele><time>2026-03-29T15:30:42.167Z</time></trkpt><trkpt lat="44.945269" lon="9.5359606"><ele>164.0</ele><time>2026-03-29T15:30:43.166Z</time></trkpt><trkpt lat="44.9451595" lon="9.5359986"><ele>164.0</ele><time>2026-03-29T15:30:44.167Z</time></trkpt><trkpt lat="44.9450334" lon="9.536042"><ele>164.0</ele><time>2026-03-29T15:30:45.167Z</time></trkpt><trkpt lat="44.9448849" lon="9.5360913"><ele>164.0</ele><time>2026-03-29T15:30:46.167Z</time></trkpt><trkpt lat="44.9447154" lon="9.5361441"><ele>164.0</ele><time>2026-03-29T15:30:47.166Z</time></trkpt><trkpt lat="44.9445293" lon="9.5362009"><ele>164.0</ele><time>2026-03-29T15:30:48.167Z</time></trkpt><trkpt lat="44.9443268" lon="9.536259"><ele>164.0</ele><time>2026-03-29T15:30:49.167Z</time></trkpt><trkpt lat="44.9441148" lon="9.5363218"><ele>166.33333333333331</ele><time>2026-03-29T15:30:50.166Z</time></trkpt><trkpt lat="44.9438969" lon="9.5363891"><ele>168.66666666666666</ele><time>2026-03-29T15:30:51.167Z</time></trkpt><trkpt lat="44.9436975" lon="9.5364465"><ele>171.0</ele><time>2026-03-29T15:30:52.167Z</time></trkpt><trkpt lat="44.9435235" lon="9.5364956"><ele>171.66666666666666</ele><time>2026-03-29T15:30:53.166Z</time></trkpt><trkpt lat="44.9433723" lon="9.5365513"><ele>172.33333333333331</ele><time>2026-03-29T15:30:54.167Z</time></trkpt><trkpt lat="44.9432407" lon="9.5366498"><ele>173.0</ele><time>2026-03-29T15:30:55.167Z</time></trkpt><trkpt lat="44.9431161" lon="9.5367671"><ele>173.0</ele><time>2026-03-29T15:30:56.166Z</time></trkpt><trkpt lat="44.9429906" lon="9.5368845"><ele>173.0</ele><time>2026-03-29T15:30:57.167Z</time></trkpt><trkpt lat="44.9428607" lon="9.5370051"><ele>173.0</ele><time>2026-03-29T15:30:58.167Z</time></trkpt><trkpt lat="44.9425824" lon="9.5372536"><ele>176.0</ele><time>2026-03-29T15:31:00.351Z</time></trkpt><trkpt lat="44.9424334" lon="9.5373964"><ele>179.0</ele><time>2026-03-29T15:31:01.363Z</time></trkpt><trkpt lat="44.9422817" lon="9.5375369"><ele>182.0</ele><time>2026-03-29T15:31:02.391Z</time></trkpt><trkpt lat="44.9419546" lon="9.537772"><ele>192.0</ele><time>2026-03-29T15:31:04.373Z</time></trkpt><trkpt lat="44.9401147" lon="9.5386978"><ele>199.5</ele><time>2026-03-29T15:31:14.378Z</time></trkpt><trkpt lat="44.9397697" lon="9.5390316"><ele>207.0</ele><time>2026-03-29T15:31:16.368Z</time></trkpt><trkpt lat="44.9395949" lon="9.5392043"><ele>207.0</ele><time>2026-03-29T15:31:17.393Z</time></trkpt><trkpt lat="44.9392752" lon="9.5395084"><ele>207.0</ele><time>2026-03-29T15:31:19.358Z</time></trkpt><trkpt lat="44.9391246" lon="9.5396053"><ele>208.5</ele><time>2026-03-29T15:31:20.394Z</time></trkpt><trkpt lat="44.9388106" lon="9.5396388"><ele>210.0</ele><time>2026-03-29T15:31:22.362Z</time></trkpt><trkpt lat="44.9386532" lon="9.5395845"><ele>210.0</ele><time>2026-03-29T15:31:23.372Z</time></trkpt><trkpt lat="44.9384937" lon="9.5394963"><ele>210.0</ele><time>2026-03-29T15:31:29.116Z</time></trkpt><trkpt lat="44.9373787" lon="9.538884"><ele>215.0</ele><time>2026-03-29T15:31:30.405Z</time></trkpt><trkpt lat="44.9369595" lon="9.5387359"><ele>220.0</ele><time>2026-03-29T15:31:32.369Z</time></trkpt><trkpt lat="44.9365245" lon="9.5386558"><ele>222.0</ele><time>2026-03-29T15:31:34.368Z</time></trkpt><trkpt lat="44.9361032" lon="9.5385326"><ele>224.0</ele><time>2026-03-29T15:31:36.354Z</time></trkpt><trkpt lat="44.9356954" lon="9.5383301"><ele>226.5</ele><time>2026-03-29T15:31:38.353Z</time></trkpt><trkpt lat="44.9354904" lon="9.5382286"><ele>229.0</ele><time>2026-03-29T15:31:39.359Z</time></trkpt><trkpt lat="44.9350717" lon="9.5380616"><ele>231.0</ele><time>2026-03-29T15:31:41.398Z</time></trkpt><trkpt lat="44.9346427" lon="9.5379616"><ele>233.0</ele><time>2026-03-29T15:31:43.39Z</time></trkpt><trkpt lat="44.9342717" lon="9.5378884"><ele>235.66666666666669</ele><time>2026-03-29T15:31:45.37Z</time></trkpt><trkpt lat="44.9341277" lon="9.5378703"><ele>238.33333333333331</ele><time>2026-03-29T15:31:46.371Z</time></trkpt><trkpt lat="44.934" lon="9.5378856"><ele>241.0</ele><time>2026-03-29T15:31:47.372Z</time></trkpt><trkpt lat="44.9331824" lon="9.5382738"><ele>243.0</ele><time>2026-03-29T15:31:53.35Z</time></trkpt><trkpt lat="44.9330597" lon="9.5383383"><ele>245.0</ele><time>2026-03-29T15:31:54.355Z</time></trkpt><trkpt lat="44.9329604" lon="9.5384184"><ele>247.0</ele><time>2026-03-29T15:31:55.38Z</time></trkpt><trkpt lat="44.9328516" lon="9.5386901"><ele>252.0</ele><time>2026-03-29T15:31:57.369Z</time></trkpt><trkpt lat="44.932191" lon="9.5409986"><ele>256.0</ele><time>2026-03-29T15:32:12.483Z</time></trkpt><trkpt lat="44.9316752" lon="9.5415554"><ele>256.0</ele><time>2026-03-29T15:32:15.27Z</time></trkpt><trkpt lat="44.9314274" lon="9.5415872"><ele>256.0</ele><time>2026-03-29T15:32:17.166Z</time></trkpt><trkpt lat="44.9313046" lon="9.5415085"><ele>256.0</ele><time>2026-03-29T15:32:18.166Z</time></trkpt><trkpt lat="44.931163" lon="9.5414252"><ele>256.0</ele><time>2026-03-29T15:32:19.166Z</time></trkpt><trkpt lat="44.9310163" lon="9.5413341"><ele>256.0</ele><time>2026-03-29T15:32:20.166Z</time></trkpt><trkpt lat="44.9308664" lon="9.5412463"><ele>256.0</ele><time>2026-03-29T15:32:21.166Z</time></trkpt><trkpt lat="44.9307211" lon="9.5411596"><ele>259.5</ele><time>2026-03-29T15:32:22.167Z</time></trkpt><trkpt lat="44.9305909" lon="9.541081"><ele>263.0</ele><time>2026-03-29T15:32:23.167Z</time></trkpt><trkpt lat="44.9304706" lon="9.5409863"><ele>266.5</ele><time>2026-03-29T15:32:24.166Z</time></trkpt><trkpt lat="44.9303484" lon="9.5408837"><ele>270.0</ele><time>2026-03-29T15:32:25.166Z</time></trkpt><trkpt lat="44.9302194" lon="9.5407825"><ele>270.0</ele><time>2026-03-29T15:32:26.167Z</time></trkpt><trkpt lat="44.9300831" lon="9.5406827"><ele>270.0</ele><time>2026-03-29T15:32:27.167Z</time></trkpt><trkpt lat="44.9299399" lon="9.5405863"><ele>270.0</ele><time>2026-03-29T15:32:28.167Z</time></trkpt><trkpt lat="44.9297865" lon="9.5405019"><ele>272.0</ele><time>2026-03-29T15:32:29.167Z</time></trkpt><trkpt lat="44.9296252" lon="9.5404288"><ele>274.0</ele><time>2026-03-29T15:32:30.166Z</time></trkpt><trkpt lat="44.9294619" lon="9.540359"><ele>276.0</ele><time>2026-03-29T15:32:31.166Z</time></trkpt><trkpt lat="44.9292999" lon="9.5402928"><ele>280.6666666666667</ele><time>2026-03-29T15:32:32.167Z</time></trkpt><trkpt lat="44.9291388" lon="9.5402269"><ele>285.33333333333337</ele><time>2026-03-29T15:32:33.166Z</time></trkpt><trkpt lat="44.9289798" lon="9.5401644"><ele>290.0</ele><time>2026-03-29T15:32:34.165Z</time></trkpt><trkpt lat="44.9288202" lon="9.5401104"><ele>290.0</ele><time>2026-03-29T15:32:35.167Z</time></trkpt><trkpt lat="44.9286586" lon="9.540064"><ele>290.0</ele><time>2026-03-29T15:32:36.167Z</time></trkpt><trkpt lat="44.9284974" lon="9.5400267"><ele>290.0</ele><time>2026-03-29T15:32:37.166Z</time></trkpt><trkpt lat="44.9283341" lon="9.5399927"><ele>290.33333333333337</ele><time>2026-03-29T15:32:38.166Z</time></trkpt><trkpt lat="44.9281696" lon="9.5399586"><ele>290.6666666666667</ele><time>2026-03-29T15:32:39.166Z</time></trkpt><trkpt lat="44.9280046" lon="9.5399267"><ele>291.0</ele><time>2026-03-29T15:32:40.167Z</time></trkpt><trkpt lat="44.9278387" lon="9.5399019"><ele>291.0</ele><time>2026-03-29T15:32:41.167Z</time></trkpt><trkpt lat="44.9276701" lon="9.5398928"><ele>291.0</ele><time>2026-03-29T15:32:42.166Z</time></trkpt><trkpt lat="44.9274967" lon="9.5399038"><ele>291.0</ele><time>2026-03-29T15:32:43.167Z</time></trkpt><trkpt lat="44.9273254" lon="9.5399342"><ele>292.6666666666667</ele><time>2026-03-29T15:32:44.167Z</time></trkpt><trkpt lat="44.9271542" lon="9.5399735"><ele>294.33333333333337</ele><time>2026-03-29T15:32:45.167Z</time></trkpt><trkpt lat="44.9269844" lon="9.5400182"><ele>296.0</ele><time>2026-03-29T15:32:46.166Z</time></trkpt><trkpt lat="44.9268107" lon="9.5400654"><ele>298.33333333333337</ele><time>2026-03-29T15:32:47.166Z</time></trkpt><trkpt lat="44.9266365" lon="9.5401111"><ele>300.6666666666667</ele><time>2026-03-29T15:32:48.167Z</time></trkpt><trkpt lat="44.9264705" lon="9.5401555"><ele>303.0</ele><time>2026-03-29T15:32:49.166Z</time></trkpt><trkpt lat="44.9263185" lon="9.5401922"><ele>303.0</ele><time>2026-03-29T15:32:50.167Z</time></trkpt><trkpt lat="44.9261739" lon="9.5402239"><ele>303.0</ele><time>2026-03-29T15:32:51.167Z</time></trkpt><trkpt lat="44.9260422" lon="9.5402537"><ele>303.0</ele><time>2026-03-29T15:32:52.167Z</time></trkpt><trkpt lat="44.9259214" lon="9.5402837"><ele>303.0</ele><time>2026-03-29T15:32:53.167Z</time></trkpt><trkpt lat="44.9258127" lon="9.5403186"><ele>303.6666666666667</ele><time>2026-03-29T15:32:54.166Z</time></trkpt><trkpt lat="44.9257173" lon="9.5403681"><ele>304.3333333333333</ele><time>2026-03-29T15:32:55.166Z</time></trkpt><trkpt lat="44.9256377" lon="9.5404264"><ele>305.0</ele><time>2026-03-29T15:32:56.166Z</time></trkpt><trkpt lat="44.9255711" lon="9.540489"><ele>305.66666666666663</ele><time>2026-03-29T15:32:57.166Z</time></trkpt><trkpt lat="44.9255051" lon="9.5405493"><ele>306.3333333333333</ele><time>2026-03-29T15:32:58.166Z</time></trkpt><trkpt lat="44.9254377" lon="9.5405943"><ele>307.0</ele><time>2026-03-29T15:32:59.167Z</time></trkpt><trkpt lat="44.9253727" lon="9.5406136"><ele>307.0</ele><time>2026-03-29T15:33:00.167Z</time></trkpt><trkpt lat="44.9252733" lon="9.5406378"><ele>307.0</ele><time>2026-03-29T15:33:02.167Z</time></trkpt><trkpt lat="44.9252012" lon="9.5406881"><ele>307.0</ele><time>2026-03-29T15:33:04.167Z</time></trkpt><trkpt lat="44.925139" lon="9.5407353"><ele>307.0</ele><time>2026-03-29T15:33:07.166Z</time></trkpt><trkpt lat="44.9250582" lon="9.5408023"><ele>307.0</ele><time>2026-03-29T15:33:11.165Z</time></trkpt><trkpt lat="44.9249964" lon="9.5408601"><ele>307.0</ele><time>2026-03-29T15:33:13.166Z</time></trkpt><trkpt lat="44.9249405" lon="9.5409069"><ele>309.0</ele><time>2026-03-29T15:33:15.167Z</time></trkpt><trkpt lat="44.9248771" lon="9.5409525"><ele>311.0</ele><time>2026-03-29T15:33:17.167Z</time></trkpt><trkpt lat="44.9248063" lon="9.5410059"><ele>313.0</ele><time>2026-03-29T15:33:19.166Z</time></trkpt><trkpt lat="44.9246961" lon="9.541094"><ele>315.0</ele><time>2026-03-29T15:33:21.166Z</time></trkpt><trkpt lat="44.9246357" lon="9.541141"><ele>317.0</ele><time>2026-03-29T15:33:22.166Z</time></trkpt><trkpt lat="44.9245405" lon="9.5412113"><ele>316.6</ele><time>2026-03-29T15:33:24.167Z</time></trkpt><trkpt lat="44.9244723" lon="9.5412729"><ele>316.2</ele><time>2026-03-29T15:34:27.166Z</time></trkpt><trkpt lat="44.924391" lon="9.5413429"><ele>315.8</ele><time>2026-03-29T15:34:29.167Z</time></trkpt><trkpt lat="44.9242937" lon="9.541428"><ele>315.4</ele><time>2026-03-29T15:34:31.166Z</time></trkpt><trkpt lat="44.9241927" lon="9.5415215"><ele>315.0</ele><time>2026-03-29T15:34:33.166Z</time></trkpt><trkpt lat="44.924131" lon="9.5415796"><ele>315.0</ele><time>2026-03-29T15:34:34.167Z</time></trkpt><trkpt lat="44.924061" lon="9.5416438"><ele>315.0</ele><time>2026-03-29T15:34:35.167Z</time></trkpt><trkpt lat="44.9239841" lon="9.5417127"><ele>315.0</ele><time>2026-03-29T15:34:36.166Z</time></trkpt><trkpt lat="44.9238994" lon="9.5417801"><ele>315.0</ele><time>2026-03-29T15:34:37.166Z</time></trkpt><trkpt lat="44.9238111" lon="9.5418487"><ele>315.0</ele><time>2026-03-29T15:34:38.167Z</time></trkpt><trkpt lat="44.9237201" lon="9.5419244"><ele>315.0</ele><time>2026-03-29T15:34:39.166Z</time></trkpt><trkpt lat="44.923633" lon="9.5419944"><ele>315.0</ele><time>2026-03-29T15:34:40.166Z</time></trkpt><trkpt lat="44.9235453" lon="9.5420684"><ele>315.0</ele><time>2026-03-29T15:34:41.143Z</time></trkpt><trkpt lat="44.9234541" lon="9.5421434"><ele>315.0</ele><time>2026-03-29T15:34:42.144Z</time></trkpt><trkpt lat="44.9233616" lon="9.5422194"><ele>315.0</ele><time>2026-03-29T15:34:43.145Z</time></trkpt><trkpt lat="44.9232649" lon="9.5422996"><ele>316.25</ele><time>2026-03-29T15:34:44.146Z</time></trkpt><trkpt lat="44.9231654" lon="9.5423837"><ele>317.5</ele><time>2026-03-29T15:34:45.144Z</time></trkpt><trkpt lat="44.9230614" lon="9.5424746"><ele>318.75</ele><time>2026-03-29T15:34:46.145Z</time></trkpt><trkpt lat="44.9229512" lon="9.5425757"><ele>320.0</ele><time>2026-03-29T15:34:47.145Z</time></trkpt><trkpt lat="44.9228345" lon="9.5426826"><ele>320.0</ele><time>2026-03-29T15:34:48.166Z</time></trkpt><trkpt lat="44.9227157" lon="9.5428004"><ele>320.0</ele><time>2026-03-29T15:34:49.165Z</time></trkpt><trkpt lat="44.9226019" lon="9.5429132"><ele>320.0</ele><time>2026-03-29T15:34:50.167Z</time></trkpt><trkpt lat="44.9224947" lon="9.5430169"><ele>320.0</ele><time>2026-03-29T15:34:51.166Z</time></trkpt><trkpt lat="44.9223948" lon="9.5431139"><ele>319.25</ele><time>2026-03-29T15:34:52.166Z</time></trkpt><trkpt lat="44.9223005" lon="9.5432136"><ele>318.5</ele><time>2026-03-29T15:34:53.166Z</time></trkpt><trkpt lat="44.9222121" lon="9.5433368"><ele>317.75</ele><time>2026-03-29T15:34:54.166Z</time></trkpt><trkpt lat="44.9221295" lon="9.5434854"><ele>317.0</ele><time>2026-03-29T15:34:55.167Z</time></trkpt><trkpt lat="44.9220471" lon="9.543642"><ele>316.75</ele><time>2026-03-29T15:34:56.166Z</time></trkpt><trkpt lat="44.9219538" lon="9.5437941"><ele>316.5</ele><time>2026-03-29T15:34:57.166Z</time></trkpt><trkpt lat="44.9218465" lon="9.5439342"><ele>316.25</ele><time>2026-03-29T15:34:58.167Z</time></trkpt><trkpt lat="44.9217302" lon="9.5440521"><ele>316.0</ele><time>2026-03-29T15:34:59.167Z</time></trkpt><trkpt lat="44.9216032" lon="9.5441501"><ele>316.0</ele><time>2026-03-29T15:35:00.166Z</time></trkpt><trkpt lat="44.921469" lon="9.5442411"><ele>316.0</ele><time>2026-03-29T15:35:01.166Z</time></trkpt><trkpt lat="44.9213392" lon="9.5443294"><ele>316.0</ele><time>2026-03-29T15:35:02.167Z</time></trkpt><trkpt lat="44.9212215" lon="9.5444354"><ele>316.0</ele><time>2026-03-29T15:35:03.167Z</time></trkpt><trkpt lat="44.9211177" lon="9.5445663"><ele>314.25</ele><time>2026-03-29T15:35:04.166Z</time></trkpt><trkpt lat="44.9210499" lon="9.5447307"><ele>312.5</ele><time>2026-03-29T15:35:05.166Z</time></trkpt><trkpt lat="44.9210094" lon="9.544907"><ele>310.75</ele><time>2026-03-29T15:35:06.166Z</time></trkpt><trkpt lat="44.9209836" lon="9.5450999"><ele>309.0</ele><time>2026-03-29T15:35:07.167Z</time></trkpt><trkpt lat="44.9209471" lon="9.5452953"><ele>308.0</ele><time>2026-03-29T15:35:08.167Z</time></trkpt><trkpt lat="44.920904" lon="9.5454918"><ele>307.0</ele><time>2026-03-29T15:35:09.167Z</time></trkpt><trkpt lat="44.9208531" lon="9.5456853"><ele>306.0</ele><time>2026-03-29T15:35:10.167Z</time></trkpt><trkpt lat="44.9208021" lon="9.5458834"><ele>305.0</ele><time>2026-03-29T15:35:11.165Z</time></trkpt><trkpt lat="44.9207541" lon="9.5460834"><ele>308.33333333333337</ele><time>2026-03-29T15:35:12.167Z</time></trkpt><trkpt lat="44.9207086" lon="9.5462832"><ele>311.6666666666667</ele><time>2026-03-29T15:35:13.167Z</time></trkpt><trkpt lat="44.9206742" lon="9.5464924"><ele>315.0</ele><time>2026-03-29T15:35:14.167Z</time></trkpt><trkpt lat="44.9206529" lon="9.546712"><ele>315.0</ele><time>2026-03-29T15:35:15.167Z</time></trkpt><trkpt lat="44.9206373" lon="9.5469397"><ele>315.0</ele><time>2026-03-29T15:35:16.167Z</time></trkpt><trkpt lat="44.920621" lon="9.547174"><ele>315.0</ele><time>2026-03-29T15:35:17.166Z</time></trkpt><trkpt lat="44.9206005" lon="9.5474078"><ele>315.3333333333333</ele><time>2026-03-29T15:35:18.166Z</time></trkpt><trkpt lat="44.9205784" lon="9.547646"><ele>315.66666666666663</ele><time>2026-03-29T15:35:19.166Z</time></trkpt><trkpt lat="44.9205583" lon="9.5478846"><ele>316.0</ele><time>2026-03-29T15:35:20.167Z</time></trkpt><trkpt lat="44.920542" lon="9.5481055"><ele>316.0</ele><time>2026-03-29T15:35:21.165Z</time></trkpt><trkpt lat="44.9205289" lon="9.5483319"><ele>316.0</ele><time>2026-03-29T15:35:22.166Z</time></trkpt><trkpt lat="44.920525" lon="9.5485585"><ele>316.0</ele><time>2026-03-29T15:35:23.167Z</time></trkpt><trkpt lat="44.9205279" lon="9.5487866"><ele>316.66666666666663</ele><time>2026-03-29T15:35:24.167Z</time></trkpt><trkpt lat="44.9205306" lon="9.5490164"><ele>317.3333333333333</ele><time>2026-03-29T15:35:25.167Z</time></trkpt><trkpt lat="44.9205331" lon="9.5492482"><ele>318.0</ele><time>2026-03-29T15:35:26.167Z</time></trkpt><trkpt lat="44.920536" lon="9.5494745"><ele>320.3333333333333</ele><time>2026-03-29T15:35:27.166Z</time></trkpt><trkpt lat="44.9205448" lon="9.5496957"><ele>322.66666666666663</ele><time>2026-03-29T15:35:28.167Z</time></trkpt><trkpt lat="44.9205592" lon="9.5499122"><ele>325.0</ele><time>2026-03-29T15:35:29.166Z</time></trkpt><trkpt lat="44.9205752" lon="9.55013"><ele>325.0</ele><time>2026-03-29T15:35:30.167Z</time></trkpt><trkpt lat="44.9205913" lon="9.5503321"><ele>325.0</ele><time>2026-03-29T15:35:31.167Z</time></trkpt><trkpt lat="44.9206054" lon="9.5505005"><ele>325.0</ele><time>2026-03-29T15:35:32.167Z</time></trkpt><trkpt lat="44.9206165" lon="9.5506444"><ele>325.0</ele><time>2026-03-29T15:35:33.166Z</time></trkpt><trkpt lat="44.9206265" lon="9.550768"><ele>325.2</ele><time>2026-03-29T15:35:34.167Z</time></trkpt><trkpt lat="44.9206248" lon="9.5508841"><ele>325.4</ele><time>2026-03-29T15:35:35.167Z</time></trkpt><trkpt lat="44.9206061" lon="9.5510065"><ele>325.6</ele><time>2026-03-29T15:35:36.165Z</time></trkpt><trkpt lat="44.9205698" lon="9.5511361"><ele>325.8</ele><time>2026-03-29T15:35:37.167Z</time></trkpt><trkpt lat="44.9205221" lon="9.5512829"><ele>326.0</ele><time>2026-03-29T15:35:38.167Z</time></trkpt><trkpt lat="44.9204672" lon="9.5514473"><ele>323.0</ele><time>2026-03-29T15:35:39.166Z</time></trkpt><trkpt lat="44.9204073" lon="9.5516323"><ele>320.0</ele><time>2026-03-29T15:35:40.166Z</time></trkpt><trkpt lat="44.9203366" lon="9.5518356"><ele>317.0</ele><time>2026-03-29T15:35:41.167Z</time></trkpt><trkpt lat="44.9202567" lon="9.5520373"><ele>316.0</ele><time>2026-03-29T15:35:42.166Z</time></trkpt><trkpt lat="44.9201774" lon="9.552237"><ele>315.0</ele><time>2026-03-29T15:35:43.167Z</time></trkpt><trkpt lat="44.920105" lon="9.5524225"><ele>314.0</ele><time>2026-03-29T15:35:44.167Z</time></trkpt><trkpt lat="44.9200333" lon="9.5525795"><ele>313.0</ele><time>2026-03-29T15:35:45.166Z</time></trkpt><trkpt lat="44.919955" lon="9.5527059"><ele>313.75</ele><time>2026-03-29T15:35:46.167Z</time></trkpt><trkpt lat="44.9198644" lon="9.5527854"><ele>314.5</ele><time>2026-03-29T15:35:47.167Z</time></trkpt><trkpt lat="44.9197545" lon="9.5528342"><ele>315.25</ele><time>2026-03-29T15:35:48.167Z</time></trkpt><trkpt lat="44.919627" lon="9.5528795"><ele>316.0</ele><time>2026-03-29T15:35:49.167Z</time></trkpt><trkpt lat="44.9194857" lon="9.552932"><ele>316.0</ele><time>2026-03-29T15:35:50.167Z</time></trkpt><trkpt lat="44.9193112" lon="9.5529927"><ele>316.0</ele><time>2026-03-29T15:35:51.167Z</time></trkpt><trkpt lat="44.9191406" lon="9.5530569"><ele>316.0</ele><time>2026-03-29T15:35:52.166Z</time></trkpt><trkpt lat="44.9189798" lon="9.5530986"><ele>316.25</ele><time>2026-03-29T15:35:53.167Z</time></trkpt><trkpt lat="44.9188293" lon="9.5530995"><ele>316.5</ele><time>2026-03-29T15:35:54.166Z</time></trkpt><trkpt lat="44.9186865" lon="9.5530785"><ele>316.75</ele><time>2026-03-29T15:35:55.167Z</time></trkpt><trkpt lat="44.9185347" lon="9.5530701"><ele>317.0</ele><time>2026-03-29T15:35:56.166Z</time></trkpt><trkpt lat="44.9183779" lon="9.5530787"><ele>317.25</ele><time>2026-03-29T15:35:57.167Z</time></trkpt><trkpt lat="44.9182323" lon="9.553092"><ele>317.5</ele><time>2026-03-29T15:35:58.167Z</time></trkpt><trkpt lat="44.9180971" lon="9.5531098"><ele>317.75</ele><time>2026-03-29T15:35:59.167Z</time></trkpt><trkpt lat="44.917963" lon="9.553131"><ele>318.0</ele><time>2026-03-29T15:36:00.166Z</time></trkpt><trkpt lat="44.9178222" lon="9.5531567"><ele>318.0</ele><time>2026-03-29T15:36:01.166Z</time></trkpt><trkpt lat="44.9176803" lon="9.5531877"><ele>318.0</ele><time>2026-03-29T15:36:02.166Z</time></trkpt><trkpt lat="44.9175361" lon="9.5532417"><ele>318.0</ele><time>2026-03-29T15:36:03.167Z</time></trkpt><trkpt lat="44.9173898" lon="9.5533138"><ele>318.0</ele><time>2026-03-29T15:36:04.167Z</time></trkpt><trkpt lat="44.9172488" lon="9.553399"><ele>318.5</ele><time>2026-03-29T15:36:05.166Z</time></trkpt><trkpt lat="44.917122" lon="9.5534856"><ele>319.0</ele><time>2026-03-29T15:36:06.167Z</time></trkpt><trkpt lat="44.9170232" lon="9.5535737"><ele>319.5</ele><time>2026-03-29T15:36:07.166Z</time></trkpt><trkpt lat="44.9169612" lon="9.5536849"><ele>320.0</ele><time>2026-03-29T15:36:08.166Z</time></trkpt><trkpt lat="44.9169375" lon="9.5538214"><ele>318.5</ele><time>2026-03-29T15:36:09.166Z</time></trkpt><trkpt lat="44.9169584" lon="9.5539724"><ele>317.0</ele><time>2026-03-29T15:36:10.166Z</time></trkpt><trkpt lat="44.9170231" lon="9.5541239"><ele>315.5</ele><time>2026-03-29T15:36:11.165Z</time></trkpt><trkpt lat="44.917112" lon="9.5542699"><ele>314.0</ele><time>2026-03-29T15:36:12.166Z</time></trkpt><trkpt lat="44.9172946" lon="9.5545159"><ele>314.5</ele><time>2026-03-29T15:36:14.166Z</time></trkpt><trkpt lat="44.9174022" lon="9.5548279"><ele>315.0</ele><time>2026-03-29T15:36:16.372Z</time></trkpt><trkpt lat="44.9164241" lon="9.5584129"><ele>319.0</ele><time>2026-03-29T15:36:32.368Z</time></trkpt><trkpt lat="44.9156677" lon="9.5601093"><ele>319.0</ele><time>2026-03-29T15:36:45.166Z</time></trkpt><trkpt lat="44.9155435" lon="9.5602364"><ele>319.0</ele><time>2026-03-29T15:36:46.165Z</time></trkpt><trkpt lat="44.9154099" lon="9.5603679"><ele>319.0</ele><time>2026-03-29T15:36:47.165Z</time></trkpt><trkpt lat="44.9152724" lon="9.5605124"><ele>319.0</ele><time>2026-03-29T15:36:48.166Z</time></trkpt><trkpt lat="44.9151318" lon="9.5606634"><ele>319.0</ele><time>2026-03-29T15:36:49.165Z</time></trkpt><trkpt lat="44.9149863" lon="9.5608221"><ele>319.0</ele><time>2026-03-29T15:36:50.166Z</time></trkpt><trkpt lat="44.9148409" lon="9.5609864"><ele>319.0</ele><time>2026-03-29T15:36:51.165Z</time></trkpt><trkpt lat="44.9147045" lon="9.5611382"><ele>319.0</ele><time>2026-03-29T15:36:52.166Z</time></trkpt><trkpt lat="44.914573" lon="9.5612793"><ele>319.0</ele><time>2026-03-29T15:36:53.166Z</time></trkpt><trkpt lat="44.9144472" lon="9.5614127"><ele>320.0</ele><time>2026-03-29T15:36:54.166Z</time></trkpt><trkpt lat="44.9143238" lon="9.5615442"><ele>321.0</ele><time>2026-03-29T15:36:55.166Z</time></trkpt><trkpt lat="44.9142012" lon="9.5616717"><ele>322.0</ele><time>2026-03-29T15:36:56.164Z</time></trkpt><trkpt lat="44.9140824" lon="9.5617932"><ele>322.0</ele><time>2026-03-29T15:36:57.166Z</time></trkpt><trkpt lat="44.9139125" lon="9.5620235"><ele>322.0</ele><time>2026-03-29T15:36:59.382Z</time></trkpt><trkpt lat="44.9135129" lon="9.5646814"><ele>311.0</ele><time>2026-03-29T15:37:13.355Z</time></trkpt><trkpt lat="44.9132305" lon="9.5661868"><ele>307.0</ele><time>2026-03-29T15:37:26.373Z</time></trkpt><trkpt lat="44.9113983" lon="9.5653346"><ele>311.0</ele><time>2026-03-29T15:37:39.167Z</time></trkpt><trkpt lat="44.9132305" lon="9.5661868"><ele>307.0</ele><time>2026-03-29T15:37:41.12Z</time></trkpt><trkpt lat="44.9109652" lon="9.5653164"><ele>304.0</ele><time>2026-03-29T15:37:42.373Z</time></trkpt><trkpt lat="44.9097202" lon="9.566261"><ele>304.0</ele><time>2026-03-29T15:37:55.165Z</time></trkpt><trkpt lat="44.9096035" lon="9.5662802"><ele>304.0</ele><time>2026-03-29T15:37:56.165Z</time></trkpt><trkpt lat="44.9094791" lon="9.5663083"><ele>304.0</ele><time>2026-03-29T15:37:57.165Z</time></trkpt><trkpt lat="44.9093509" lon="9.5663438"><ele>304.0</ele><time>2026-03-29T15:37:58.165Z</time></trkpt><trkpt lat="44.9092147" lon="9.5663882"><ele>305.5</ele><time>2026-03-29T15:37:59.165Z</time></trkpt><trkpt lat="44.9090728" lon="9.566431"><ele>307.0</ele><time>2026-03-29T15:38:00.165Z</time></trkpt><trkpt lat="44.9089397" lon="9.5664534"><ele>308.5</ele><time>2026-03-29T15:38:01.164Z</time></trkpt><trkpt lat="44.9088148" lon="9.566455"><ele>310.0</ele><time>2026-03-29T15:38:02.166Z</time></trkpt><trkpt lat="44.9086966" lon="9.5664434"><ele>310.0</ele><time>2026-03-29T15:38:03.166Z</time></trkpt><trkpt lat="44.9085708" lon="9.5664335"><ele>310.0</ele><time>2026-03-29T15:38:04.166Z</time></trkpt><trkpt lat="44.9084421" lon="9.5664398"><ele>310.0</ele><time>2026-03-29T15:38:05.165Z</time></trkpt><trkpt lat="44.9083164" lon="9.5664511"><ele>310.0</ele><time>2026-03-29T15:38:06.165Z</time></trkpt><trkpt lat="44.9081988" lon="9.5664683"><ele>309.4</ele><time>2026-03-29T15:38:07.165Z</time></trkpt><trkpt lat="44.9080857" lon="9.5664872"><ele>308.8</ele><time>2026-03-29T15:38:08.165Z</time></trkpt><trkpt lat="44.9079764" lon="9.5665024"><ele>308.2</ele><time>2026-03-29T15:38:09.166Z</time></trkpt><trkpt lat="44.9078877" lon="9.5665091"><ele>307.6</ele><time>2026-03-29T15:38:10.166Z</time></trkpt><trkpt lat="44.9078199" lon="9.5665113"><ele>307.0</ele><time>2026-03-29T15:38:11.165Z</time></trkpt><trkpt lat="44.9077376" lon="9.566498"><ele>307.0</ele><time>2026-03-29T15:38:13.166Z</time></trkpt><trkpt lat="44.9076119" lon="9.5664973"><ele>307.0</ele><time>2026-03-29T15:40:01.36Z</time></trkpt><trkpt lat="44.9070112" lon="9.5667708"><ele>305.66666666666663</ele><time>2026-03-29T15:40:09.175Z</time></trkpt><trkpt lat="44.9068211" lon="9.5669578"><ele>304.3333333333333</ele><time>2026-03-29T15:40:10.356Z</time></trkpt><trkpt lat="44.9067309" lon="9.5670748"><ele>303.0</ele><time>2026-03-29T15:40:11.383Z</time></trkpt><trkpt lat="44.9065527" lon="9.5672966"><ele>300.3333333333333</ele><time>2026-03-29T15:40:13.367Z</time></trkpt><trkpt lat="44.9064722" lon="9.5673984"><ele>297.66666666666663</ele><time>2026-03-29T15:40:14.367Z</time></trkpt><trkpt lat="44.9063706" lon="9.5676451"><ele>295.0</ele><time>2026-03-29T15:40:16.362Z</time></trkpt><trkpt lat="44.9063729" lon="9.5679568"><ele>293.3333333333333</ele><time>2026-03-29T15:40:18.354Z</time></trkpt><trkpt lat="44.9064172" lon="9.5682634"><ele>291.6666666666667</ele><time>2026-03-29T15:40:20.353Z</time></trkpt><trkpt lat="44.9065362" lon="9.5684983"><ele>290.0</ele><time>2026-03-29T15:40:22.37Z</time></trkpt><trkpt lat="44.9066319" lon="9.5685594"><ele>288.0</ele><time>2026-03-29T15:40:23.375Z</time></trkpt><trkpt lat="44.9068629" lon="9.5686275"><ele>286.0</ele><time>2026-03-29T15:40:25.356Z</time></trkpt><trkpt lat="44.9071104" lon="9.5686916"><ele>282.5</ele><time>2026-03-29T15:40:27.377Z</time></trkpt><trkpt lat="44.9073635" lon="9.5688424"><ele>279.0</ele><time>2026-03-29T15:40:29.368Z</time></trkpt><trkpt lat="44.9076501" lon="9.569088"><ele>278.5</ele><time>2026-03-29T15:40:31.352Z</time></trkpt><trkpt lat="44.9078117" lon="9.5692286"><ele>278.0</ele><time>2026-03-29T15:40:32.372Z</time></trkpt><trkpt lat="44.9081514" lon="9.5695013"><ele>256.0</ele><time>2026-03-29T15:40:34.361Z</time></trkpt><trkpt lat="44.9094565" lon="9.5712741"><ele>256.0</ele><time>2026-03-29T15:40:52.162Z</time></trkpt><trkpt lat="44.9093288" lon="9.5713598"><ele>256.0</ele><time>2026-03-29T15:40:53.163Z</time></trkpt><trkpt lat="44.9092078" lon="9.571437"><ele>256.0</ele><time>2026-03-29T15:40:54.163Z</time></trkpt><trkpt lat="44.9091052" lon="9.5715036"><ele>256.0</ele><time>2026-03-29T15:40:55.163Z</time></trkpt><trkpt lat="44.9090251" lon="9.5715565"><ele>255.33333333333331</ele><time>2026-03-29T15:40:56.163Z</time></trkpt><trkpt lat="44.9089617" lon="9.5716115"><ele>254.66666666666666</ele><time>2026-03-29T15:40:57.163Z</time></trkpt><trkpt lat="44.9088841" lon="9.5717112"><ele>254.0</ele><time>2026-03-29T15:40:59.162Z</time></trkpt><trkpt lat="44.9088418" lon="9.5717971"><ele>253.33333333333331</ele><time>2026-03-29T15:41:01.163Z</time></trkpt><trkpt lat="44.9088203" lon="9.5718862"><ele>252.66666666666666</ele><time>2026-03-29T15:41:26.162Z</time></trkpt><trkpt lat="44.9087993" lon="9.5719975"><ele>252.0</ele><time>2026-03-29T15:43:07.169Z</time></trkpt><trkpt lat="44.9087887" lon="9.5720978"><ele>250.8</ele><time>2026-03-29T15:44:04.172Z</time></trkpt><trkpt lat="44.9087804" lon="9.5722576"><ele>249.6</ele><time>2026-03-29T15:44:06.173Z</time></trkpt><trkpt lat="44.9087713" lon="9.572419"><ele>248.40000000000003</ele><time>2026-03-29T15:44:08.173Z</time></trkpt><trkpt lat="44.9087559" lon="9.5725738"><ele>247.20000000000002</ele><time>2026-03-29T15:44:10.172Z</time></trkpt><trkpt lat="44.9087092" lon="9.5727149"><ele>246.0</ele><time>2026-03-29T15:44:12.173Z</time></trkpt><trkpt lat="44.9086202" lon="9.5728137"><ele>246.0</ele><time>2026-03-29T15:44:14.172Z</time></trkpt><trkpt lat="44.9085054" lon="9.5728443"><ele>246.00000000000003</ele><time>2026-03-29T15:44:16.173Z</time></trkpt><trkpt lat="44.9083682" lon="9.5728319"><ele>246.00000000000003</ele><time>2026-03-29T15:44:18.173Z</time></trkpt><trkpt lat="44.9082835" lon="9.5728135"><ele>246.0</ele><time>2026-03-29T15:44:19.173Z</time></trkpt><trkpt lat="44.9081963" lon="9.5727948"><ele>246.0</ele><time>2026-03-29T15:44:20.173Z</time></trkpt><trkpt lat="44.9087916" lon="9.5720379"><ele>243.0</ele><time>2026-03-29T15:44:20.762Z</time></trkpt><trkpt lat="44.9081114" lon="9.5727768"><ele>234.0</ele><time>2026-03-29T15:44:29.626Z</time></trkpt><trkpt lat="44.9080371" lon="9.5735135"><ele>217.0</ele><time>2026-03-29T15:44:34.31Z</time></trkpt><trkpt lat="44.9085038" lon="9.5761953"><ele>225.0</ele><time>2026-03-29T15:44:47.162Z</time></trkpt><trkpt lat="44.9082126" lon="9.5740313"><ele>222.0</ele><time>2026-03-29T15:44:47.19Z</time></trkpt><trkpt lat="44.9084922" lon="9.5761799"><ele>191.0</ele><time>2026-03-29T15:45:00.03Z</time></trkpt><trkpt lat="44.9086059" lon="9.5809903"><ele>190.0</ele><time>2026-03-29T15:45:12.165Z</time></trkpt><trkpt lat="44.9086106" lon="9.5811927"><ele>189.0</ele><time>2026-03-29T15:45:13.165Z</time></trkpt><trkpt lat="44.9084922" lon="9.5761799"><ele>189.0</ele><time>2026-03-29T15:45:13.978Z</time></trkpt><trkpt lat="44.9085502" lon="9.5818926"><ele>222.0</ele><time>2026-03-29T15:45:27.165Z</time></trkpt><trkpt lat="44.9084922" lon="9.5761799"><ele>189.0</ele><time>2026-03-29T15:45:29.068Z</time></trkpt><trkpt lat="44.9085317" lon="9.5819258"><ele>178.0</ele><time>2026-03-29T15:45:37.125Z</time></trkpt><trkpt lat="44.9088454" lon="9.5830133"><ele>162.0</ele><time>2026-03-29T15:45:48.452Z</time></trkpt><trkpt lat="44.9120846" lon="9.5842018"><ele>162.0</ele><time>2026-03-29T15:46:02.172Z</time></trkpt><trkpt lat="44.9122276" lon="9.5842008"><ele>162.0</ele><time>2026-03-29T15:46:03.173Z</time></trkpt><trkpt lat="44.912364" lon="9.5841794"><ele>162.0</ele><time>2026-03-29T15:46:04.173Z</time></trkpt><trkpt lat="44.9124853" lon="9.5841563"><ele>162.0</ele><time>2026-03-29T15:46:05.173Z</time></trkpt><trkpt lat="44.9126035" lon="9.5841229"><ele>157.0</ele><time>2026-03-29T15:46:06.173Z</time></trkpt><trkpt lat="44.912719" lon="9.5840589"><ele>152.0</ele><time>2026-03-29T15:46:07.173Z</time></trkpt><trkpt lat="44.9088454" lon="9.5830133"><ele>146.0</ele><time>2026-03-29T15:46:07.458Z</time></trkpt><trkpt lat="44.9158424" lon="9.583207"><ele>144.66666666666666</ele><time>2026-03-29T15:46:32.16Z</time></trkpt><trkpt lat="44.9160401" lon="9.5831196"><ele>143.33333333333334</ele><time>2026-03-29T15:46:33.16Z</time></trkpt><trkpt lat="44.9162151" lon="9.5830304"><ele>142.0</ele><time>2026-03-29T15:46:34.16Z</time></trkpt><trkpt lat="44.9163727" lon="9.582924"><ele>146.5</ele><time>2026-03-29T15:46:35.16Z</time></trkpt><trkpt lat="44.9166409" lon="9.5826771"><ele>151.0</ele><time>2026-03-29T15:46:37.159Z</time></trkpt><trkpt lat="44.9167671" lon="9.582578"><ele>151.0</ele><time>2026-03-29T15:46:38.16Z</time></trkpt><trkpt lat="44.9169046" lon="9.5825055"><ele>151.0</ele><time>2026-03-29T15:46:39.159Z</time></trkpt><trkpt lat="44.917054" lon="9.5824819"><ele>151.0</ele><time>2026-03-29T15:46:40.16Z</time></trkpt><trkpt lat="44.9172037" lon="9.5825084"><ele>151.0</ele><time>2026-03-29T15:46:41.16Z</time></trkpt><trkpt lat="44.9173689" lon="9.5825619"><ele>151.0</ele><time>2026-03-29T15:46:42.16Z</time></trkpt><trkpt lat="44.917557" lon="9.5826235"><ele>151.0</ele><time>2026-03-29T15:46:43.16Z</time></trkpt><trkpt lat="44.9179438" lon="9.5827597"><ele>151.66666666666669</ele><time>2026-03-29T15:46:45.159Z</time></trkpt><trkpt lat="44.9181405" lon="9.5828539"><ele>152.33333333333334</ele><time>2026-03-29T15:46:46.159Z</time></trkpt><trkpt lat="44.9183391" lon="9.5829542"><ele>153.0</ele><time>2026-03-29T15:46:47.159Z</time></trkpt><trkpt lat="44.9185304" lon="9.583031"><ele>153.0</ele><time>2026-03-29T15:46:48.159Z</time></trkpt><trkpt lat="44.9187094" lon="9.583091"><ele>153.0</ele><time>2026-03-29T15:46:49.16Z</time></trkpt><trkpt lat="44.9188658" lon="9.5831442"><ele>153.0</ele><time>2026-03-29T15:46:50.159Z</time></trkpt><trkpt lat="44.9191302" lon="9.5832317"><ele>152.5</ele><time>2026-03-29T15:46:52.159Z</time></trkpt><trkpt lat="44.9192511" lon="9.5832715"><ele>152.0</ele><time>2026-03-29T15:46:53.16Z</time></trkpt><trkpt lat="44.9193783" lon="9.5833043"><ele>151.5</ele><time>2026-03-29T15:46:54.159Z</time></trkpt><trkpt lat="44.9195164" lon="9.5833218"><ele>151.0</ele><time>2026-03-29T15:46:55.16Z</time></trkpt><trkpt lat="44.9196684" lon="9.5833219"><ele>151.0</ele><time>2026-03-29T15:46:56.16Z</time></trkpt><trkpt lat="44.9198351" lon="9.5832973"><ele>151.0</ele><time>2026-03-29T15:46:57.159Z</time></trkpt><trkpt lat="44.9200192" lon="9.5832472"><ele>151.0</ele><time>2026-03-29T15:46:58.16Z</time></trkpt><trkpt lat="44.9204352" lon="9.5831281"><ele>178.0</ele><time>2026-03-29T15:47:00.159Z</time></trkpt><trkpt lat="44.9088454" lon="9.5830133"><ele>148.0</ele><time>2026-03-29T15:47:00.387Z</time></trkpt><trkpt lat="44.9204422" lon="9.5831366"><ele>146.0</ele><time>2026-03-29T15:47:12.113Z</time></trkpt><trkpt lat="44.9229326" lon="9.5828722"><ele>134.0</ele><time>2026-03-29T15:47:23.594Z</time></trkpt><trkpt lat="44.9264062" lon="9.5846664"><ele>135.0</ele><time>2026-03-29T15:47:42.504Z</time></trkpt><trkpt lat="44.9300142" lon="9.5868831"><ele>136.0</ele><time>2026-03-29T15:47:55.165Z</time></trkpt><trkpt lat="44.9301833" lon="9.5869815"><ele>137.0</ele><time>2026-03-29T15:47:56.165Z</time></trkpt><trkpt lat="44.9303537" lon="9.587083"><ele>138.0</ele><time>2026-03-29T15:47:57.165Z</time></trkpt><trkpt lat="44.9305292" lon="9.5871879"><ele>138.0</ele><time>2026-03-29T15:47:58.164Z</time></trkpt><trkpt lat="44.9307113" lon="9.5873027"><ele>138.0</ele><time>2026-03-29T15:47:59.165Z</time></trkpt><trkpt lat="44.9308992" lon="9.5874242"><ele>138.0</ele><time>2026-03-29T15:48:00.165Z</time></trkpt><trkpt lat="44.9310941" lon="9.5875418"><ele>141.33333333333334</ele><time>2026-03-29T15:48:01.164Z</time></trkpt><trkpt lat="44.9312966" lon="9.5876634"><ele>144.66666666666669</ele><time>2026-03-29T15:48:02.165Z</time></trkpt><trkpt lat="44.931505" lon="9.5877839"><ele>148.0</ele><time>2026-03-29T15:48:03.165Z</time></trkpt><trkpt lat="44.9317173" lon="9.5879068"><ele>146.0</ele><time>2026-03-29T15:48:04.165Z</time></trkpt><trkpt lat="44.9319311" lon="9.5880345"><ele>144.0</ele><time>2026-03-29T15:48:05.165Z</time></trkpt><trkpt lat="44.9321401" lon="9.588164"><ele>144.0</ele><time>2026-03-29T15:48:06.164Z</time></trkpt><trkpt lat="44.9323379" lon="9.5882927"><ele>144.0</ele><time>2026-03-29T15:48:07.164Z</time></trkpt><trkpt lat="44.9325382" lon="9.5884263"><ele>144.0</ele><time>2026-03-29T15:48:08.165Z</time></trkpt><trkpt lat="44.932738" lon="9.588556"><ele>142.0</ele><time>2026-03-29T15:48:09.165Z</time></trkpt><trkpt lat="44.9329386" lon="9.5886819"><ele>140.0</ele><time>2026-03-29T15:48:10.164Z</time></trkpt><trkpt lat="44.9331414" lon="9.5888076"><ele>138.0</ele><time>2026-03-29T15:48:11.164Z</time></trkpt><trkpt lat="44.9333466" lon="9.5889381"><ele>143.5</ele><time>2026-03-29T15:48:12.165Z</time></trkpt><trkpt lat="44.9335504" lon="9.5890678"><ele>149.0</ele><time>2026-03-29T15:48:13.164Z</time></trkpt><trkpt lat="44.9337588" lon="9.5891981"><ele>149.0</ele><time>2026-03-29T15:48:14.165Z</time></trkpt><trkpt lat="44.9339623" lon="9.5893251"><ele>149.0</ele><time>2026-03-29T15:48:15.165Z</time></trkpt><trkpt lat="44.9341622" lon="9.5894497"><ele>149.0</ele><time>2026-03-29T15:48:16.165Z</time></trkpt><trkpt lat="44.934354" lon="9.5895694"><ele>145.0</ele><time>2026-03-29T15:48:17.165Z</time></trkpt><trkpt lat="44.9345412" lon="9.5896871"><ele>141.0</ele><time>2026-03-29T15:48:18.165Z</time></trkpt><trkpt lat="44.9347261" lon="9.5898026"><ele>137.0</ele><time>2026-03-29T15:48:19.164Z</time></trkpt><trkpt lat="44.9349039" lon="9.5899146"><ele>140.0</ele><time>2026-03-29T15:48:20.165Z</time></trkpt><trkpt lat="44.9350831" lon="9.5900267"><ele>143.0</ele><time>2026-03-29T15:48:21.165Z</time></trkpt><trkpt lat="44.9352621" lon="9.5901381"><ele>146.0</ele><time>2026-03-29T15:48:22.165Z</time></trkpt><trkpt lat="44.9354431" lon="9.5902513"><ele>144.66666666666666</ele><time>2026-03-29T15:48:23.164Z</time></trkpt><trkpt lat="44.9356272" lon="9.5903644"><ele>143.33333333333334</ele><time>2026-03-29T15:48:24.165Z</time></trkpt><trkpt lat="44.9358119" lon="9.59048"><ele>142.0</ele><time>2026-03-29T15:48:25.165Z</time></trkpt><trkpt lat="44.9359943" lon="9.5905992"><ele>142.0</ele><time>2026-03-29T15:48:26.165Z</time></trkpt><trkpt lat="44.9361705" lon="9.5907107"><ele>142.0</ele><time>2026-03-29T15:48:27.164Z</time></trkpt><trkpt lat="44.9363395" lon="9.5908178"><ele>142.0</ele><time>2026-03-29T15:48:28.165Z</time></trkpt><trkpt lat="44.9365078" lon="9.5909189"><ele>142.0</ele><time>2026-03-29T15:48:29.164Z</time></trkpt><trkpt lat="44.9366834" lon="9.5909926"><ele>142.0</ele><time>2026-03-29T15:48:30.164Z</time></trkpt><trkpt lat="44.9368681" lon="9.5910302"><ele>142.0</ele><time>2026-03-29T15:48:31.165Z</time></trkpt><trkpt lat="44.9370618" lon="9.5910347"><ele>141.66666666666669</ele><time>2026-03-29T15:48:32.165Z</time></trkpt><trkpt lat="44.9372637" lon="9.5910196"><ele>141.33333333333334</ele><time>2026-03-29T15:48:33.165Z</time></trkpt><trkpt lat="44.9374749" lon="9.5909963"><ele>141.0</ele><time>2026-03-29T15:48:34.164Z</time></trkpt><trkpt lat="44.9376976" lon="9.5909702"><ele>137.0</ele><time>2026-03-29T15:48:35.164Z</time></trkpt><trkpt lat="44.9379181" lon="9.5909415"><ele>133.0</ele><time>2026-03-29T15:48:36.164Z</time></trkpt><trkpt lat="44.9381309" lon="9.5909141"><ele>129.0</ele><time>2026-03-29T15:48:37.164Z</time></trkpt><trkpt lat="44.938332" lon="9.5908873"><ele>127.66666666666666</ele><time>2026-03-29T15:48:38.165Z</time></trkpt><trkpt lat="44.9385335" lon="9.590863"><ele>126.33333333333333</ele><time>2026-03-29T15:48:39.164Z</time></trkpt><trkpt lat="44.9387348" lon="9.5908374"><ele>125.0</ele><time>2026-03-29T15:48:40.165Z</time></trkpt><trkpt lat="44.9389394" lon="9.5908112"><ele>125.0</ele><time>2026-03-29T15:48:41.165Z</time></trkpt><trkpt lat="44.9391371" lon="9.5907857"><ele>125.0</ele><time>2026-03-29T15:48:42.164Z</time></trkpt><trkpt lat="44.9393314" lon="9.5907601"><ele>125.0</ele><time>2026-03-29T15:48:43.164Z</time></trkpt><trkpt lat="44.9395247" lon="9.590735"><ele>125.0</ele><time>2026-03-29T15:48:44.165Z</time></trkpt><trkpt lat="44.9397158" lon="9.590712"><ele>125.0</ele><time>2026-03-29T15:48:45.164Z</time></trkpt><trkpt lat="44.9399006" lon="9.5906881"><ele>125.0</ele><time>2026-03-29T15:48:46.165Z</time></trkpt><trkpt lat="44.9400817" lon="9.5906673"><ele>125.0</ele><time>2026-03-29T15:48:47.165Z</time></trkpt><trkpt lat="44.9402627" lon="9.5906463"><ele>125.0</ele><time>2026-03-29T15:48:48.165Z</time></trkpt><trkpt lat="44.940439" lon="9.5906257"><ele>125.0</ele><time>2026-03-29T15:48:49.164Z</time></trkpt><trkpt lat="44.9406211" lon="9.5906001"><ele>125.0</ele><time>2026-03-29T15:48:50.165Z</time></trkpt><trkpt lat="44.9407995" lon="9.5905762"><ele>125.0</ele><time>2026-03-29T15:48:51.165Z</time></trkpt><trkpt lat="44.9409787" lon="9.5905448"><ele>125.0</ele><time>2026-03-29T15:48:52.165Z</time></trkpt><trkpt lat="44.9411668" lon="9.5904795"><ele>123.66666666666666</ele><time>2026-03-29T15:48:53.165Z</time></trkpt><trkpt lat="44.941363" lon="9.5903935"><ele>122.33333333333334</ele><time>2026-03-29T15:48:54.164Z</time></trkpt><trkpt lat="44.9415632" lon="9.590299"><ele>121.0</ele><time>2026-03-29T15:48:55.165Z</time></trkpt><trkpt lat="44.9417654" lon="9.5902034"><ele>124.0</ele><time>2026-03-29T15:48:56.164Z</time></trkpt><trkpt lat="44.9419604" lon="9.5900981"><ele>127.0</ele><time>2026-03-29T15:48:57.165Z</time></trkpt><trkpt lat="44.9421594" lon="9.5900031"><ele>130.0</ele><time>2026-03-29T15:48:58.165Z</time></trkpt><trkpt lat="44.9423441" lon="9.5899091"><ele>130.0</ele><time>2026-03-29T15:48:59.165Z</time></trkpt><trkpt lat="44.9425255" lon="9.5898198"><ele>130.0</ele><time>2026-03-29T15:49:00.165Z</time></trkpt><trkpt lat="44.9427035" lon="9.5897359"><ele>130.0</ele><time>2026-03-29T15:49:01.164Z</time></trkpt><trkpt lat="44.9428776" lon="9.5896533"><ele>128.33333333333334</ele><time>2026-03-29T15:49:02.164Z</time></trkpt><trkpt lat="44.9430465" lon="9.5895707"><ele>126.66666666666666</ele><time>2026-03-29T15:49:03.164Z</time></trkpt><trkpt lat="44.9432163" lon="9.5894925"><ele>125.0</ele><time>2026-03-29T15:49:04.164Z</time></trkpt><trkpt lat="44.9433872" lon="9.5894137"><ele>129.0</ele><time>2026-03-29T15:49:05.164Z</time></trkpt><trkpt lat="44.9435583" lon="9.5893509"><ele>133.0</ele><time>2026-03-29T15:49:06.165Z</time></trkpt><trkpt lat="44.9437417" lon="9.5892996"><ele>137.0</ele><time>2026-03-29T15:49:07.164Z</time></trkpt><trkpt lat="44.9439263" lon="9.5892665"><ele>137.0</ele><time>2026-03-29T15:49:08.165Z</time></trkpt><trkpt lat="44.9441262" lon="9.5892485"><ele>137.0</ele><time>2026-03-29T15:49:09.165Z</time></trkpt><trkpt lat="44.944335" lon="9.5892371"><ele>137.0</ele><time>2026-03-29T15:49:10.165Z</time></trkpt><trkpt lat="44.944543" lon="9.5892248"><ele>136.33333333333331</ele><time>2026-03-29T15:49:11.164Z</time></trkpt><trkpt lat="44.9447532" lon="9.5892075"><ele>135.66666666666666</ele><time>2026-03-29T15:49:12.165Z</time></trkpt><trkpt lat="44.9449671" lon="9.5891883"><ele>135.0</ele><time>2026-03-29T15:49:13.165Z</time></trkpt><trkpt lat="44.9451751" lon="9.589176"><ele>135.0</ele><time>2026-03-29T15:49:14.165Z</time></trkpt><trkpt lat="44.9453803" lon="9.5891637"><ele>135.0</ele><time>2026-03-29T15:49:15.165Z</time></trkpt><trkpt lat="44.9455734" lon="9.5891535"><ele>135.0</ele><time>2026-03-29T15:49:16.165Z</time></trkpt><trkpt lat="44.9457681" lon="9.5891448"><ele>134.66666666666666</ele><time>2026-03-29T15:49:17.165Z</time></trkpt><trkpt lat="44.9459625" lon="9.5891305"><ele>134.33333333333331</ele><time>2026-03-29T15:49:18.164Z</time></trkpt><trkpt lat="44.946161" lon="9.589117"><ele>134.0</ele><time>2026-03-29T15:49:19.164Z</time></trkpt><trkpt lat="44.946363" lon="9.5891347"><ele>134.0</ele><time>2026-03-29T15:49:20.164Z</time></trkpt><trkpt lat="44.9465677" lon="9.5891795"><ele>134.0</ele><time>2026-03-29T15:49:21.165Z</time></trkpt><trkpt lat="44.9467659" lon="9.5892517"><ele>134.0</ele><time>2026-03-29T15:49:22.165Z</time></trkpt><trkpt lat="44.9469736" lon="9.5893304"><ele>133.33333333333331</ele><time>2026-03-29T15:49:23.164Z</time></trkpt><trkpt lat="44.9471792" lon="9.5894226"><ele>132.66666666666666</ele><time>2026-03-29T15:49:24.165Z</time></trkpt><trkpt lat="44.9473826" lon="9.5895242"><ele>132.0</ele><time>2026-03-29T15:49:25.165Z</time></trkpt><trkpt lat="44.9475818" lon="9.5896175"><ele>131.0</ele><time>2026-03-29T15:49:26.165Z</time></trkpt><trkpt lat="44.9477739" lon="9.5897035"><ele>130.0</ele><time>2026-03-29T15:49:27.165Z</time></trkpt><trkpt lat="44.947953" lon="9.5897837"><ele>129.0</ele><time>2026-03-29T15:49:28.165Z</time></trkpt><trkpt lat="44.9481246" lon="9.5898614"><ele>129.0</ele><time>2026-03-29T15:49:29.164Z</time></trkpt><trkpt lat="44.9482939" lon="9.5899454"><ele>129.0</ele><time>2026-03-29T15:49:30.164Z</time></trkpt><trkpt lat="44.948455" lon="9.5900214"><ele>129.0</ele><time>2026-03-29T15:49:31.165Z</time></trkpt><trkpt lat="44.9486174" lon="9.5900895"><ele>130.33333333333334</ele><time>2026-03-29T15:49:32.165Z</time></trkpt><trkpt lat="44.9487815" lon="9.5901285"><ele>131.66666666666669</ele><time>2026-03-29T15:49:33.165Z</time></trkpt><trkpt lat="44.9489557" lon="9.5901111"><ele>133.0</ele><time>2026-03-29T15:49:34.165Z</time></trkpt><trkpt lat="44.9491289" lon="9.5900717"><ele>133.33333333333334</ele><time>2026-03-29T15:49:35.164Z</time></trkpt><trkpt lat="44.9493041" lon="9.5899918"><ele>133.66666666666666</ele><time>2026-03-29T15:49:36.165Z</time></trkpt><trkpt lat="44.9494737" lon="9.5898784"><ele>134.0</ele><time>2026-03-29T15:49:37.165Z</time></trkpt><trkpt lat="44.9496491" lon="9.589756"><ele>134.0</ele><time>2026-03-29T15:49:38.164Z</time></trkpt><trkpt lat="44.9498286" lon="9.5896152"><ele>134.0</ele><time>2026-03-29T15:49:39.164Z</time></trkpt><trkpt lat="44.9500151" lon="9.5894807"><ele>134.0</ele><time>2026-03-29T15:49:40.164Z</time></trkpt><trkpt lat="44.950201" lon="9.5893428"><ele>133.0</ele><time>2026-03-29T15:49:41.165Z</time></trkpt><trkpt lat="44.9503855" lon="9.5891955"><ele>132.0</ele><time>2026-03-29T15:49:42.165Z</time></trkpt><trkpt lat="44.9505703" lon="9.58906"><ele>131.0</ele><time>2026-03-29T15:49:43.165Z</time></trkpt><trkpt lat="44.9507517" lon="9.5889178"><ele>131.33333333333331</ele><time>2026-03-29T15:49:44.165Z</time></trkpt><trkpt lat="44.9509302" lon="9.588748"><ele>131.66666666666666</ele><time>2026-03-29T15:49:45.165Z</time></trkpt><trkpt lat="44.9511027" lon="9.5885574"><ele>132.0</ele><time>2026-03-29T15:49:46.164Z</time></trkpt><trkpt lat="44.9512613" lon="9.5883799"><ele>132.0</ele><time>2026-03-29T15:49:47.165Z</time></trkpt><trkpt lat="44.9514233" lon="9.5881982"><ele>132.0</ele><time>2026-03-29T15:49:48.164Z</time></trkpt><trkpt lat="44.9515755" lon="9.5880202"><ele>132.0</ele><time>2026-03-29T15:49:49.164Z</time></trkpt><trkpt lat="44.9517315" lon="9.5878552"><ele>132.66666666666666</ele><time>2026-03-29T15:49:50.165Z</time></trkpt><trkpt lat="44.9518977" lon="9.5877201"><ele>133.33333333333331</ele><time>2026-03-29T15:49:51.165Z</time></trkpt><trkpt lat="44.9520712" lon="9.5876037"><ele>134.0</ele><time>2026-03-29T15:49:52.165Z</time></trkpt><trkpt lat="44.952245" lon="9.587503"><ele>134.0</ele><time>2026-03-29T15:49:53.165Z</time></trkpt><trkpt lat="44.9524157" lon="9.5874076"><ele>134.0</ele><time>2026-03-29T15:49:54.165Z</time></trkpt><trkpt lat="44.952572" lon="9.5873095"><ele>134.0</ele><time>2026-03-29T15:49:55.165Z</time></trkpt><trkpt lat="44.9527235" lon="9.5872169"><ele>132.66666666666666</ele><time>2026-03-29T15:49:56.164Z</time></trkpt><trkpt lat="44.9528719" lon="9.5871487"><ele>131.33333333333334</ele><time>2026-03-29T15:49:57.164Z</time></trkpt><trkpt lat="44.9530263" lon="9.5870803"><ele>130.0</ele><time>2026-03-29T15:49:58.165Z</time></trkpt><trkpt lat="44.9531948" lon="9.587052"><ele>130.0</ele><time>2026-03-29T15:49:59.164Z</time></trkpt><trkpt lat="44.9533689" lon="9.5870563"><ele>130.0</ele><time>2026-03-29T15:50:00.165Z</time></trkpt><trkpt lat="44.9535478" lon="9.5870954"><ele>130.0</ele><time>2026-03-29T15:50:01.164Z</time></trkpt><trkpt lat="44.9537413" lon="9.5871584"><ele>130.0</ele><time>2026-03-29T15:50:02.165Z</time></trkpt><trkpt lat="44.9539376" lon="9.5872413"><ele>130.0</ele><time>2026-03-29T15:50:03.164Z</time></trkpt><trkpt lat="44.9541416" lon="9.5873303"><ele>130.0</ele><time>2026-03-29T15:50:04.165Z</time></trkpt><trkpt lat="44.9543507" lon="9.5874222"><ele>130.0</ele><time>2026-03-29T15:50:05.165Z</time></trkpt><trkpt lat="44.9545615" lon="9.5875111"><ele>130.0</ele><time>2026-03-29T15:50:06.164Z</time></trkpt><trkpt lat="44.9547685" lon="9.5875986"><ele>130.0</ele><time>2026-03-29T15:50:07.164Z</time></trkpt><trkpt lat="44.9549743" lon="9.5876828"><ele>129.33333333333334</ele><time>2026-03-29T15:50:08.164Z</time></trkpt><trkpt lat="44.9551755" lon="9.5877286"><ele>128.66666666666666</ele><time>2026-03-29T15:50:09.165Z</time></trkpt><trkpt lat="44.9553736" lon="9.5877384"><ele>128.0</ele><time>2026-03-29T15:50:10.164Z</time></trkpt><trkpt lat="44.955578" lon="9.5877238"><ele>128.0</ele><time>2026-03-29T15:50:11.165Z</time></trkpt><trkpt lat="44.9557844" lon="9.5876812"><ele>128.0</ele><time>2026-03-29T15:50:12.165Z</time></trkpt><trkpt lat="44.9559862" lon="9.5876314"><ele>128.0</ele><time>2026-03-29T15:50:13.164Z</time></trkpt><trkpt lat="44.9561838" lon="9.587583"><ele>128.0</ele><time>2026-03-29T15:50:14.165Z</time></trkpt><trkpt lat="44.9563766" lon="9.5875328"><ele>128.0</ele><time>2026-03-29T15:50:15.165Z</time></trkpt><trkpt lat="44.9565685" lon="9.5874949"><ele>128.0</ele><time>2026-03-29T15:50:16.164Z</time></trkpt><trkpt lat="44.9567607" lon="9.5874839"><ele>127.33333333333333</ele><time>2026-03-29T15:50:17.164Z</time></trkpt><trkpt lat="44.9569548" lon="9.5875012"><ele>126.66666666666666</ele><time>2026-03-29T15:50:18.165Z</time></trkpt><trkpt lat="44.9571483" lon="9.5875399"><ele>126.0</ele><time>2026-03-29T15:50:19.164Z</time></trkpt><trkpt lat="44.9573421" lon="9.5875873"><ele>126.0</ele><time>2026-03-29T15:50:20.164Z</time></trkpt><trkpt lat="44.9575309" lon="9.5876311"><ele>126.0</ele><time>2026-03-29T15:50:21.164Z</time></trkpt><trkpt lat="44.9577126" lon="9.5876719"><ele>126.0</ele><time>2026-03-29T15:50:22.164Z</time></trkpt><trkpt lat="44.957892" lon="9.5877123"><ele>126.0</ele><time>2026-03-29T15:50:23.164Z</time></trkpt><trkpt lat="44.9580715" lon="9.5877264"><ele>126.0</ele><time>2026-03-29T15:50:24.165Z</time></trkpt><trkpt lat="44.9582533" lon="9.5877118"><ele>126.0</ele><time>2026-03-29T15:50:25.165Z</time></trkpt><trkpt lat="44.9584368" lon="9.5876671"><ele>125.33333333333334</ele><time>2026-03-29T15:50:26.165Z</time></trkpt><trkpt lat="44.958623" lon="9.5876087"><ele>124.66666666666667</ele><time>2026-03-29T15:50:27.165Z</time></trkpt><trkpt lat="44.9588087" lon="9.5875316"><ele>124.0</ele><time>2026-03-29T15:50:28.164Z</time></trkpt><trkpt lat="44.9589942" lon="9.5874603"><ele>124.0</ele><time>2026-03-29T15:50:29.164Z</time></trkpt><trkpt lat="44.9591762" lon="9.5873966"><ele>124.0</ele><time>2026-03-29T15:50:30.165Z</time></trkpt><trkpt lat="44.9593524" lon="9.5873235"><ele>124.0</ele><time>2026-03-29T15:50:31.164Z</time></trkpt><trkpt lat="44.9595284" lon="9.5872498"><ele>123.66666666666667</ele><time>2026-03-29T15:50:32.164Z</time></trkpt><trkpt lat="44.9596952" lon="9.5871837"><ele>123.33333333333334</ele><time>2026-03-29T15:50:33.165Z</time></trkpt><trkpt lat="44.9598588" lon="9.5871251"><ele>123.0</ele><time>2026-03-29T15:50:34.165Z</time></trkpt><trkpt lat="44.9600255" lon="9.5870685"><ele>122.33333333333334</ele><time>2026-03-29T15:50:35.164Z</time></trkpt><trkpt lat="44.9601975" lon="9.587019"><ele>121.66666666666667</ele><time>2026-03-29T15:50:36.165Z</time></trkpt><trkpt lat="44.9603865" lon="9.5869581"><ele>121.0</ele><time>2026-03-29T15:50:37.165Z</time></trkpt><trkpt lat="44.9605917" lon="9.586895"><ele>121.0</ele><time>2026-03-29T15:50:38.165Z</time></trkpt><trkpt lat="44.9608031" lon="9.5868233"><ele>121.0</ele><time>2026-03-29T15:50:39.165Z</time></trkpt><trkpt lat="44.9610448" lon="9.5867517"><ele>121.5</ele><time>2026-03-29T15:50:40.165Z</time></trkpt><trkpt lat="44.9612965" lon="9.5866724"><ele>122.0</ele><time>2026-03-29T15:50:41.164Z</time></trkpt><trkpt lat="44.9615633" lon="9.5865916"><ele>121.0</ele><time>2026-03-29T15:50:42.165Z</time></trkpt><trkpt lat="44.9618523" lon="9.5865001"><ele>120.0</ele><time>2026-03-29T15:50:43.165Z</time></trkpt><trkpt lat="44.9621615" lon="9.5864032"><ele>120.0</ele><time>2026-03-29T15:50:44.165Z</time></trkpt><trkpt lat="44.962474" lon="9.5863218"><ele>120.0</ele><time>2026-03-29T15:50:45.165Z</time></trkpt><trkpt lat="44.9627777" lon="9.586244"><ele>119.0</ele><time>2026-03-29T15:50:46.165Z</time></trkpt><trkpt lat="44.9630872" lon="9.5861614"><ele>118.0</ele><time>2026-03-29T15:50:47.164Z</time></trkpt><trkpt lat="44.9633832" lon="9.5860816"><ele>116.5</ele><time>2026-03-29T15:50:48.165Z</time></trkpt><trkpt lat="44.9636604" lon="9.5860025"><ele>115.0</ele><time>2026-03-29T15:50:49.165Z</time></trkpt><trkpt lat="44.9639357" lon="9.5859206"><ele>113.5</ele><time>2026-03-29T15:50:50.165Z</time></trkpt><trkpt lat="44.9642099" lon="9.5858433"><ele>112.0</ele><time>2026-03-29T15:50:51.165Z</time></trkpt><trkpt lat="44.9644858" lon="9.5857685"><ele>112.0</ele><time>2026-03-29T15:50:52.165Z</time></trkpt><trkpt lat="44.9647574" lon="9.5856899"><ele>112.0</ele><time>2026-03-29T15:50:53.165Z</time></trkpt><trkpt lat="44.9650204" lon="9.5856105"><ele>111.0</ele><time>2026-03-29T15:50:54.164Z</time></trkpt><trkpt lat="44.9652742" lon="9.5855342"><ele>110.0</ele><time>2026-03-29T15:50:55.165Z</time></trkpt><trkpt lat="44.9655089" lon="9.5854653"><ele>110.0</ele><time>2026-03-29T15:50:56.164Z</time></trkpt><trkpt lat="44.9657229" lon="9.5854024"><ele>110.0</ele><time>2026-03-29T15:50:57.164Z</time></trkpt><trkpt lat="44.9659331" lon="9.5853375"><ele>110.0</ele><time>2026-03-29T15:50:58.165Z</time></trkpt><trkpt lat="44.9661346" lon="9.5852808"><ele>109.33333333333333</ele><time>2026-03-29T15:50:59.165Z</time></trkpt><trkpt lat="44.966336" lon="9.585225"><ele>108.66666666666666</ele><time>2026-03-29T15:51:00.164Z</time></trkpt><trkpt lat="44.9665346" lon="9.5851658"><ele>108.0</ele><time>2026-03-29T15:51:01.165Z</time></trkpt><trkpt lat="44.9667355" lon="9.5850989"><ele>108.0</ele><time>2026-03-29T15:51:02.165Z</time></trkpt><trkpt lat="44.9669513" lon="9.5850305"><ele>108.0</ele><time>2026-03-29T15:51:03.165Z</time></trkpt><trkpt lat="44.9671744" lon="9.5849649"><ele>108.0</ele><time>2026-03-29T15:51:04.165Z</time></trkpt><trkpt lat="44.9673991" lon="9.5849001"><ele>107.0</ele><time>2026-03-29T15:51:05.165Z</time></trkpt><trkpt lat="44.9676252" lon="9.5848368"><ele>106.0</ele><time>2026-03-29T15:51:06.165Z</time></trkpt><trkpt lat="44.9678493" lon="9.5847713"><ele>106.0</ele><time>2026-03-29T15:51:07.165Z</time></trkpt><trkpt lat="44.9680828" lon="9.584698"><ele>106.0</ele><time>2026-03-29T15:51:08.165Z</time></trkpt><trkpt lat="44.9683189" lon="9.5846293"><ele>105.0</ele><time>2026-03-29T15:51:09.165Z</time></trkpt><trkpt lat="44.9685538" lon="9.5845641"><ele>104.0</ele><time>2026-03-29T15:51:10.165Z</time></trkpt><trkpt lat="44.96879" lon="9.584495"><ele>104.0</ele><time>2026-03-29T15:51:11.165Z</time></trkpt><trkpt lat="44.9690245" lon="9.5844132"><ele>104.0</ele><time>2026-03-29T15:51:12.164Z</time></trkpt><trkpt lat="44.9692548" lon="9.5842974"><ele>102.5</ele><time>2026-03-29T15:51:13.165Z</time></trkpt><trkpt lat="44.9694942" lon="9.5841437"><ele>101.0</ele><time>2026-03-29T15:51:14.165Z</time></trkpt><trkpt lat="44.9697394" lon="9.5839762"><ele>101.0</ele><time>2026-03-29T15:51:15.165Z</time></trkpt><trkpt lat="44.9699875" lon="9.583802"><ele>101.0</ele><time>2026-03-29T15:51:16.165Z</time></trkpt><trkpt lat="44.9702573" lon="9.5836291"><ele>101.5</ele><time>2026-03-29T15:51:17.165Z</time></trkpt><trkpt lat="44.9705114" lon="9.5834791"><ele>102.0</ele><time>2026-03-29T15:51:18.164Z</time></trkpt><trkpt lat="44.9707397" lon="9.5833443"><ele>101.0</ele><time>2026-03-29T15:51:19.165Z</time></trkpt><trkpt lat="44.9709539" lon="9.5832199"><ele>100.0</ele><time>2026-03-29T15:51:20.165Z</time></trkpt><trkpt lat="44.9711565" lon="9.5831007"><ele>100.0</ele><time>2026-03-29T15:51:21.165Z</time></trkpt><trkpt lat="44.9713437" lon="9.5829856"><ele>100.0</ele><time>2026-03-29T15:51:22.165Z</time></trkpt><trkpt lat="44.971517" lon="9.582872"><ele>100.0</ele><time>2026-03-29T15:51:23.165Z</time></trkpt><trkpt lat="44.9716841" lon="9.5827678"><ele>100.0</ele><time>2026-03-29T15:51:24.165Z</time></trkpt><trkpt lat="44.9718515" lon="9.5826741"><ele>100.0</ele><time>2026-03-29T15:51:25.165Z</time></trkpt><trkpt lat="44.9720177" lon="9.5825859"><ele>100.0</ele><time>2026-03-29T15:51:26.164Z</time></trkpt><trkpt lat="44.9721907" lon="9.5825043"><ele>100.0</ele><time>2026-03-29T15:51:27.165Z</time></trkpt><trkpt lat="44.9723586" lon="9.5824421"><ele>100.0</ele><time>2026-03-29T15:51:28.165Z</time></trkpt><trkpt lat="44.9725231" lon="9.5823862"><ele>100.0</ele><time>2026-03-29T15:51:29.165Z</time></trkpt><trkpt lat="44.9726792" lon="9.5823204"><ele>100.25</ele><time>2026-03-29T15:51:30.164Z</time></trkpt><trkpt lat="44.9728172" lon="9.5822672"><ele>100.5</ele><time>2026-03-29T15:51:31.164Z</time></trkpt><trkpt lat="44.9729434" lon="9.5822187"><ele>100.75</ele><time>2026-03-29T15:51:32.164Z</time></trkpt><trkpt lat="44.9730655" lon="9.5821733"><ele>101.0</ele><time>2026-03-29T15:51:33.165Z</time></trkpt><trkpt lat="44.9731851" lon="9.5821245"><ele>101.0</ele><time>2026-03-29T15:51:34.164Z</time></trkpt><trkpt lat="44.9733135" lon="9.5820749"><ele>101.0</ele><time>2026-03-29T15:51:35.165Z</time></trkpt><trkpt lat="44.9734449" lon="9.5820224"><ele>101.0</ele><time>2026-03-29T15:51:36.164Z</time></trkpt><trkpt lat="44.9735794" lon="9.581971"><ele>101.0</ele><time>2026-03-29T15:51:37.165Z</time></trkpt><trkpt lat="44.9737241" lon="9.5819117"><ele>101.0</ele><time>2026-03-29T15:51:38.164Z</time></trkpt><trkpt lat="44.9738693" lon="9.5818459"><ele>101.0</ele><time>2026-03-29T15:51:39.165Z</time></trkpt><trkpt lat="44.9740114" lon="9.5817973"><ele>101.0</ele><time>2026-03-29T15:51:40.165Z</time></trkpt><trkpt lat="44.9741634" lon="9.5817398"><ele>101.0</ele><time>2026-03-29T15:51:41.165Z</time></trkpt><trkpt lat="44.9743103" lon="9.5816886"><ele>101.0</ele><time>2026-03-29T15:51:42.165Z</time></trkpt><trkpt lat="44.9744581" lon="9.5816496"><ele>101.0</ele><time>2026-03-29T15:51:43.165Z</time></trkpt><trkpt lat="44.9746064" lon="9.58162"><ele>101.0</ele><time>2026-03-29T15:51:44.164Z</time></trkpt><trkpt lat="44.974751" lon="9.5816013"><ele>101.0</ele><time>2026-03-29T15:51:45.164Z</time></trkpt><trkpt lat="44.9748898" lon="9.5815851"><ele>101.0</ele><time>2026-03-29T15:51:46.165Z</time></trkpt><trkpt lat="44.9750247" lon="9.5815692"><ele>101.0</ele><time>2026-03-29T15:51:47.165Z</time></trkpt><trkpt lat="44.9751519" lon="9.5815593"><ele>100.5</ele><time>2026-03-29T15:51:48.164Z</time></trkpt><trkpt lat="44.9752792" lon="9.5815391"><ele>100.0</ele><time>2026-03-29T15:51:49.165Z</time></trkpt><trkpt lat="44.975404" lon="9.5815195"><ele>99.5</ele><time>2026-03-29T15:51:50.165Z</time></trkpt><trkpt lat="44.9755286" lon="9.5815035"><ele>99.0</ele><time>2026-03-29T15:51:51.164Z</time></trkpt><trkpt lat="44.9756486" lon="9.5814756"><ele>99.0</ele><time>2026-03-29T15:51:52.164Z</time></trkpt><trkpt lat="44.9757562" lon="9.5814312"><ele>99.0</ele><time>2026-03-29T15:51:53.165Z</time></trkpt><trkpt lat="44.9758725" lon="9.5813563"><ele>99.0</ele><time>2026-03-29T15:51:54.165Z</time></trkpt><trkpt lat="44.9759844" lon="9.581271"><ele>99.0</ele><time>2026-03-29T15:51:55.165Z</time></trkpt><trkpt lat="44.9761034" lon="9.5811664"><ele>98.66666666666666</ele><time>2026-03-29T15:51:56.164Z</time></trkpt><trkpt lat="44.9762269" lon="9.5810416"><ele>98.33333333333333</ele><time>2026-03-29T15:51:57.165Z</time></trkpt><trkpt lat="44.9763493" lon="9.5809119"><ele>98.0</ele><time>2026-03-29T15:51:58.164Z</time></trkpt><trkpt lat="44.9764724" lon="9.5807876"><ele>98.0</ele><time>2026-03-29T15:51:59.165Z</time></trkpt><trkpt lat="44.9765898" lon="9.5806701"><ele>98.0</ele><time>2026-03-29T15:52:00.164Z</time></trkpt><trkpt lat="44.9767011" lon="9.5805665"><ele>98.0</ele><time>2026-03-29T15:52:01.165Z</time></trkpt><trkpt lat="44.9768164" lon="9.5804714"><ele>98.0</ele><time>2026-03-29T15:52:02.165Z</time></trkpt><trkpt lat="44.9769322" lon="9.5803809"><ele>98.25</ele><time>2026-03-29T15:52:03.165Z</time></trkpt><trkpt lat="44.9770427" lon="9.5802984"><ele>98.5</ele><time>2026-03-29T15:52:04.164Z</time></trkpt><trkpt lat="44.9771706" lon="9.5802304"><ele>98.75</ele><time>2026-03-29T15:52:05.165Z</time></trkpt><trkpt lat="44.9772948" lon="9.5801539"><ele>99.0</ele><time>2026-03-29T15:52:06.165Z</time></trkpt><trkpt lat="44.977419" lon="9.5800864"><ele>98.75</ele><time>2026-03-29T15:52:07.164Z</time></trkpt><trkpt lat="44.9775476" lon="9.5800214"><ele>98.5</ele><time>2026-03-29T15:52:08.165Z</time></trkpt><trkpt lat="44.9776809" lon="9.579966"><ele>98.25</ele><time>2026-03-29T15:52:09.165Z</time></trkpt><trkpt lat="44.977808" lon="9.5799117"><ele>98.0</ele><time>2026-03-29T15:52:10.165Z</time></trkpt><trkpt lat="44.9779315" lon="9.5798607"><ele>98.0</ele><time>2026-03-29T15:52:11.165Z</time></trkpt><trkpt lat="44.9780585" lon="9.5797981"><ele>98.0</ele><time>2026-03-29T15:52:12.165Z</time></trkpt><trkpt lat="44.9781916" lon="9.5797357"><ele>98.0</ele><time>2026-03-29T15:52:13.165Z</time></trkpt><trkpt lat="44.9783245" lon="9.5796662"><ele>98.0</ele><time>2026-03-29T15:52:14.165Z</time></trkpt><trkpt lat="44.9784489" lon="9.5795808"><ele>97.75</ele><time>2026-03-29T15:52:15.165Z</time></trkpt><trkpt lat="44.9785698" lon="9.5794777"><ele>97.5</ele><time>2026-03-29T15:52:16.165Z</time></trkpt><trkpt lat="44.9786822" lon="9.579366"><ele>97.25</ele><time>2026-03-29T15:52:17.164Z</time></trkpt><trkpt lat="44.9787948" lon="9.5792475"><ele>97.0</ele><time>2026-03-29T15:52:18.164Z</time></trkpt><trkpt lat="44.978902" lon="9.5791279"><ele>97.0</ele><time>2026-03-29T15:52:19.165Z</time></trkpt><trkpt lat="44.9790118" lon="9.5790058"><ele>97.0</ele><time>2026-03-29T15:52:20.164Z</time></trkpt><trkpt lat="44.9791163" lon="9.578884"><ele>97.0</ele><time>2026-03-29T15:52:21.165Z</time></trkpt><trkpt lat="44.9792266" lon="9.5787506"><ele>97.0</ele><time>2026-03-29T15:52:22.165Z</time></trkpt><trkpt lat="44.9793376" lon="9.5786116"><ele>97.0</ele><time>2026-03-29T15:52:23.165Z</time></trkpt><trkpt lat="44.9794423" lon="9.5784845"><ele>97.0</ele><time>2026-03-29T15:52:24.164Z</time></trkpt><trkpt lat="44.9795472" lon="9.5783611"><ele>97.0</ele><time>2026-03-29T15:52:25.164Z</time></trkpt><trkpt lat="44.979643" lon="9.5782454"><ele>97.0</ele><time>2026-03-29T15:52:26.164Z</time></trkpt><trkpt lat="44.9797373" lon="9.5781248"><ele>97.0</ele><time>2026-03-29T15:52:27.165Z</time></trkpt><trkpt lat="44.9798289" lon="9.5780098"><ele>97.0</ele><time>2026-03-29T15:52:28.165Z</time></trkpt><trkpt lat="44.9799264" lon="9.5778885"><ele>97.0</ele><time>2026-03-29T15:52:29.165Z</time></trkpt><trkpt lat="44.9800299" lon="9.5777569"><ele>97.0</ele><time>2026-03-29T15:52:30.164Z</time></trkpt><trkpt lat="44.9801478" lon="9.57762"><ele>96.33333333333334</ele><time>2026-03-29T15:52:31.164Z</time></trkpt><trkpt lat="44.9802881" lon="9.5774471"><ele>95.66666666666667</ele><time>2026-03-29T15:52:32.165Z</time></trkpt><trkpt lat="44.9804504" lon="9.5772499"><ele>95.0</ele><time>2026-03-29T15:52:33.165Z</time></trkpt><trkpt lat="44.9806208" lon="9.5770345"><ele>95.0</ele><time>2026-03-29T15:52:34.165Z</time></trkpt><trkpt lat="44.9808072" lon="9.576813"><ele>95.0</ele><time>2026-03-29T15:52:35.164Z</time></trkpt><trkpt lat="44.9810047" lon="9.5765732"><ele>95.0</ele><time>2026-03-29T15:52:36.164Z</time></trkpt><trkpt lat="44.9811979" lon="9.5763481"><ele>95.0</ele><time>2026-03-29T15:52:37.164Z</time></trkpt><trkpt lat="44.9813824" lon="9.5761455"><ele>95.0</ele><time>2026-03-29T15:52:38.164Z</time></trkpt><trkpt lat="44.9815675" lon="9.5759392"><ele>95.0</ele><time>2026-03-29T15:52:39.165Z</time></trkpt><trkpt lat="44.9817522" lon="9.5757405"><ele>95.0</ele><time>2026-03-29T15:52:40.165Z</time></trkpt><trkpt lat="44.981937" lon="9.5755455"><ele>95.0</ele><time>2026-03-29T15:52:41.165Z</time></trkpt><trkpt lat="44.9821093" lon="9.5753697"><ele>95.0</ele><time>2026-03-29T15:52:42.164Z</time></trkpt><trkpt lat="44.9822608" lon="9.5752181"><ele>95.33333333333334</ele><time>2026-03-29T15:52:43.165Z</time></trkpt><trkpt lat="44.9824016" lon="9.5750699"><ele>95.66666666666667</ele><time>2026-03-29T15:52:44.164Z</time></trkpt><trkpt lat="44.9825366" lon="9.574927"><ele>96.0</ele><time>2026-03-29T15:52:45.165Z</time></trkpt><trkpt lat="44.9826842" lon="9.5747839"><ele>95.33333333333333</ele><time>2026-03-29T15:52:46.165Z</time></trkpt><trkpt lat="44.9828355" lon="9.5746364"><ele>94.66666666666666</ele><time>2026-03-29T15:52:47.164Z</time></trkpt><trkpt lat="44.982991" lon="9.5744914"><ele>94.0</ele><time>2026-03-29T15:52:48.165Z</time></trkpt><trkpt lat="44.9831329" lon="9.5743449"><ele>94.0</ele><time>2026-03-29T15:52:49.164Z</time></trkpt><trkpt lat="44.9832583" lon="9.5742177"><ele>94.0</ele><time>2026-03-29T15:52:50.165Z</time></trkpt><trkpt lat="44.9833745" lon="9.574097"><ele>94.0</ele><time>2026-03-29T15:52:51.165Z</time></trkpt><trkpt lat="44.9834818" lon="9.5739883"><ele>94.0</ele><time>2026-03-29T15:52:52.164Z</time></trkpt><trkpt lat="44.9835765" lon="9.5738833"><ele>93.6</ele><time>2026-03-29T15:52:53.165Z</time></trkpt><trkpt lat="44.983678" lon="9.573786"><ele>93.2</ele><time>2026-03-29T15:52:54.164Z</time></trkpt><trkpt lat="44.9837782" lon="9.5736791"><ele>92.8</ele><time>2026-03-29T15:52:55.164Z</time></trkpt><trkpt lat="44.9838613" lon="9.5735934"><ele>92.39999999999999</ele><time>2026-03-29T15:52:56.165Z</time></trkpt><trkpt lat="44.983932" lon="9.5735443"><ele>92.0</ele><time>2026-03-29T15:52:57.165Z</time></trkpt><trkpt lat="44.9839922" lon="9.5735029"><ele>92.0</ele><time>2026-03-29T15:52:58.164Z</time></trkpt><trkpt lat="44.9840738" lon="9.5734667"><ele>92.0</ele><time>2026-03-29T15:52:59.164Z</time></trkpt><trkpt lat="44.9841747" lon="9.5734415"><ele>92.0</ele><time>2026-03-29T15:53:00.165Z</time></trkpt><trkpt lat="44.9843146" lon="9.5734296"><ele>92.0</ele><time>2026-03-29T15:53:01.165Z</time></trkpt><trkpt lat="44.9844663" lon="9.5734015"><ele>91.66666666666667</ele><time>2026-03-29T15:53:02.164Z</time></trkpt><trkpt lat="44.9846348" lon="9.5733494"><ele>91.33333333333333</ele><time>2026-03-29T15:53:03.165Z</time></trkpt><trkpt lat="44.9848108" lon="9.5732653"><ele>91.0</ele><time>2026-03-29T15:53:04.164Z</time></trkpt><trkpt lat="44.9849961" lon="9.5731521"><ele>90.5</ele><time>2026-03-29T15:53:05.165Z</time></trkpt><trkpt lat="44.985197" lon="9.5729958"><ele>90.0</ele><time>2026-03-29T15:53:06.165Z</time></trkpt><trkpt lat="44.985401" lon="9.5728271"><ele>90.0</ele><time>2026-03-29T15:53:07.165Z</time></trkpt><trkpt lat="44.9855984" lon="9.5726708"><ele>90.0</ele><time>2026-03-29T15:53:08.164Z</time></trkpt><trkpt lat="44.9857888" lon="9.5725056"><ele>89.5</ele><time>2026-03-29T15:53:09.165Z</time></trkpt><trkpt lat="44.9859861" lon="9.5723476"><ele>89.0</ele><time>2026-03-29T15:53:10.165Z</time></trkpt><trkpt lat="44.9861851" lon="9.5721962"><ele>89.0</ele><time>2026-03-29T15:53:11.164Z</time></trkpt><trkpt lat="44.9863929" lon="9.572056"><ele>89.0</ele><time>2026-03-29T15:53:12.165Z</time></trkpt><trkpt lat="44.986605" lon="9.5719318"><ele>89.5</ele><time>2026-03-29T15:53:13.165Z</time></trkpt><trkpt lat="44.9868242" lon="9.5718337"><ele>90.0</ele><time>2026-03-29T15:53:14.165Z</time></trkpt><trkpt lat="44.987052" lon="9.5717626"><ele>90.0</ele><time>2026-03-29T15:53:15.165Z</time></trkpt><trkpt lat="44.9872758" lon="9.571718"><ele>90.0</ele><time>2026-03-29T15:53:16.164Z</time></trkpt><trkpt lat="44.9874983" lon="9.5716784"><ele>90.33333333333333</ele><time>2026-03-29T15:53:17.165Z</time></trkpt><trkpt lat="44.987713" lon="9.5716519"><ele>90.66666666666666</ele><time>2026-03-29T15:53:18.164Z</time></trkpt><trkpt lat="44.9879274" lon="9.5716354"><ele>91.0</ele><time>2026-03-29T15:53:19.164Z</time></trkpt><trkpt lat="44.9881415" lon="9.571633"><ele>90.66666666666666</ele><time>2026-03-29T15:53:20.165Z</time></trkpt><trkpt lat="44.9883535" lon="9.5716248"><ele>90.33333333333333</ele><time>2026-03-29T15:53:21.165Z</time></trkpt><trkpt lat="44.9885592" lon="9.571598"><ele>90.0</ele><time>2026-03-29T15:53:22.165Z</time></trkpt><trkpt lat="44.9887674" lon="9.5715521"><ele>90.0</ele><time>2026-03-29T15:53:23.165Z</time></trkpt><trkpt lat="44.9889661" lon="9.5715049"><ele>90.0</ele><time>2026-03-29T15:53:24.165Z</time></trkpt><trkpt lat="44.9891699" lon="9.5714638"><ele>90.0</ele><time>2026-03-29T15:53:25.165Z</time></trkpt><trkpt lat="44.9893779" lon="9.5714467"><ele>88.66666666666667</ele><time>2026-03-29T15:53:26.164Z</time></trkpt><trkpt lat="44.9895746" lon="9.5714617"><ele>87.33333333333334</ele><time>2026-03-29T15:53:27.165Z</time></trkpt><trkpt lat="44.9897765" lon="9.5715025"><ele>86.0</ele><time>2026-03-29T15:53:28.164Z</time></trkpt><trkpt lat="44.9899652" lon="9.5715583"><ele>86.66666666666667</ele><time>2026-03-29T15:53:29.165Z</time></trkpt><trkpt lat="44.9901487" lon="9.571645"><ele>87.33333333333333</ele><time>2026-03-29T15:53:30.165Z</time></trkpt><trkpt lat="44.9903365" lon="9.5717414"><ele>88.0</ele><time>2026-03-29T15:53:31.165Z</time></trkpt><trkpt lat="44.9905161" lon="9.5718322"><ele>88.0</ele><time>2026-03-29T15:53:32.164Z</time></trkpt><trkpt lat="44.9906871" lon="9.5719205"><ele>88.0</ele><time>2026-03-29T15:53:33.165Z</time></trkpt><trkpt lat="44.9908386" lon="9.5720028"><ele>88.0</ele><time>2026-03-29T15:53:34.165Z</time></trkpt><trkpt lat="44.9909829" lon="9.5720901"><ele>88.25</ele><time>2026-03-29T15:53:35.165Z</time></trkpt><trkpt lat="44.9911203" lon="9.5721766"><ele>88.5</ele><time>2026-03-29T15:53:36.165Z</time></trkpt><trkpt lat="44.9912516" lon="9.5722498"><ele>88.75</ele><time>2026-03-29T15:53:37.164Z</time></trkpt><trkpt lat="44.99138" lon="9.5723311"><ele>89.0</ele><time>2026-03-29T15:53:38.165Z</time></trkpt><trkpt lat="44.9915117" lon="9.5724127"><ele>89.0</ele><time>2026-03-29T15:53:39.164Z</time></trkpt><trkpt lat="44.991634" lon="9.5724904"><ele>89.0</ele><time>2026-03-29T15:53:40.164Z</time></trkpt><trkpt lat="44.9917441" lon="9.5725593"><ele>89.0</ele><time>2026-03-29T15:53:41.164Z</time></trkpt><trkpt lat="44.9918571" lon="9.572625"><ele>89.0</ele><time>2026-03-29T15:53:42.165Z</time></trkpt><trkpt lat="44.9919716" lon="9.5727004"><ele>88.75</ele><time>2026-03-29T15:53:43.165Z</time></trkpt><trkpt lat="44.9920817" lon="9.5727633"><ele>88.5</ele><time>2026-03-29T15:53:44.165Z</time></trkpt><trkpt lat="44.9921943" lon="9.5728146"><ele>88.25</ele><time>2026-03-29T15:53:45.165Z</time></trkpt><trkpt lat="44.9923091" lon="9.5728605"><ele>88.0</ele><time>2026-03-29T15:53:46.165Z</time></trkpt><trkpt lat="44.9924287" lon="9.572889"><ele>87.75</ele><time>2026-03-29T15:53:47.165Z</time></trkpt><trkpt lat="44.992547" lon="9.5729048"><ele>87.5</ele><time>2026-03-29T15:53:48.164Z</time></trkpt><trkpt lat="44.992663" lon="9.5729053"><ele>87.25</ele><time>2026-03-29T15:53:49.165Z</time></trkpt><trkpt lat="44.9927722" lon="9.5728949"><ele>87.0</ele><time>2026-03-29T15:53:50.164Z</time></trkpt><trkpt lat="44.9928836" lon="9.5728791"><ele>87.0</ele><time>2026-03-29T15:53:51.164Z</time></trkpt><trkpt lat="44.9929926" lon="9.5728678"><ele>87.0</ele><time>2026-03-29T15:53:52.164Z</time></trkpt><trkpt lat="44.9930987" lon="9.5728518"><ele>87.0</ele><time>2026-03-29T15:53:53.164Z</time></trkpt><trkpt lat="44.9932144" lon="9.5728415"><ele>87.0</ele><time>2026-03-29T15:53:54.165Z</time></trkpt><trkpt lat="44.9933184" lon="9.5728322"><ele>87.0</ele><time>2026-03-29T15:53:55.165Z</time></trkpt><trkpt lat="44.9934235" lon="9.5728168"><ele>87.0</ele><time>2026-03-29T15:53:56.165Z</time></trkpt><trkpt lat="44.9935368" lon="9.5728037"><ele>87.0</ele><time>2026-03-29T15:53:57.165Z</time></trkpt><trkpt lat="44.9936497" lon="9.5727928"><ele>87.0</ele><time>2026-03-29T15:53:58.165Z</time></trkpt><trkpt lat="44.9937576" lon="9.5727791"><ele>87.0</ele><time>2026-03-29T15:53:59.165Z</time></trkpt><trkpt lat="44.9938591" lon="9.5727681"><ele>87.0</ele><time>2026-03-29T15:54:00.165Z</time></trkpt><trkpt lat="44.993961" lon="9.572758"><ele>87.0</ele><time>2026-03-29T15:54:01.165Z</time></trkpt><trkpt lat="44.9940627" lon="9.5727473"><ele>87.0</ele><time>2026-03-29T15:54:02.164Z</time></trkpt><trkpt lat="44.9941663" lon="9.5727315"><ele>87.0</ele><time>2026-03-29T15:54:03.164Z</time></trkpt><trkpt lat="44.9942767" lon="9.5727176"><ele>87.0</ele><time>2026-03-29T15:54:04.165Z</time></trkpt><trkpt lat="44.9943933" lon="9.5727071"><ele>87.0</ele><time>2026-03-29T15:54:05.165Z</time></trkpt><trkpt lat="44.9945112" lon="9.5726895"><ele>86.75</ele><time>2026-03-29T15:54:06.164Z</time></trkpt><trkpt lat="44.9946319" lon="9.5726728"><ele>86.5</ele><time>2026-03-29T15:54:07.164Z</time></trkpt><trkpt lat="44.9947549" lon="9.5726674"><ele>86.25</ele><time>2026-03-29T15:54:08.165Z</time></trkpt><trkpt lat="44.9948737" lon="9.5726516"><ele>86.0</ele><time>2026-03-29T15:54:09.164Z</time></trkpt><trkpt lat="44.994994" lon="9.5726415"><ele>86.0</ele><time>2026-03-29T15:54:10.164Z</time></trkpt><trkpt lat="44.9951105" lon="9.5726271"><ele>86.0</ele><time>2026-03-29T15:54:11.165Z</time></trkpt><trkpt lat="44.9952218" lon="9.5726053"><ele>86.0</ele><time>2026-03-29T15:54:12.165Z</time></trkpt><trkpt lat="44.9953287" lon="9.5725862"><ele>86.0</ele><time>2026-03-29T15:54:13.164Z</time></trkpt><trkpt lat="44.9954443" lon="9.5725654"><ele>86.0</ele><time>2026-03-29T15:54:14.165Z</time></trkpt><trkpt lat="44.995558" lon="9.5725561"><ele>86.0</ele><time>2026-03-29T15:54:15.165Z</time></trkpt><trkpt lat="44.9956719" lon="9.5725437"><ele>86.0</ele><time>2026-03-29T15:54:16.165Z</time></trkpt><trkpt lat="44.9957922" lon="9.5725338"><ele>86.0</ele><time>2026-03-29T15:54:17.164Z</time></trkpt><trkpt lat="44.9959206" lon="9.5725333"><ele>86.0</ele><time>2026-03-29T15:54:18.165Z</time></trkpt><trkpt lat="44.996051" lon="9.5725306"><ele>86.0</ele><time>2026-03-29T15:54:19.165Z</time></trkpt><trkpt lat="44.9961794" lon="9.5725255"><ele>86.0</ele><time>2026-03-29T15:54:20.164Z</time></trkpt><trkpt lat="44.9963099" lon="9.5725283"><ele>86.0</ele><time>2026-03-29T15:54:21.165Z</time></trkpt><trkpt lat="44.9964419" lon="9.5725374"><ele>86.0</ele><time>2026-03-29T15:54:22.164Z</time></trkpt><trkpt lat="44.9965801" lon="9.5725466"><ele>86.0</ele><time>2026-03-29T15:54:23.165Z</time></trkpt><trkpt lat="44.9967147" lon="9.5725654"><ele>86.0</ele><time>2026-03-29T15:54:24.165Z</time></trkpt><trkpt lat="44.9968412" lon="9.5725854"><ele>86.0</ele><time>2026-03-29T15:54:25.165Z</time></trkpt><trkpt lat="44.9969803" lon="9.5726051"><ele>85.25</ele><time>2026-03-29T15:54:26.165Z</time></trkpt><trkpt lat="44.9971095" lon="9.5726262"><ele>84.5</ele><time>2026-03-29T15:54:27.165Z</time></trkpt><trkpt lat="44.9972328" lon="9.5726448"><ele>83.75</ele><time>2026-03-29T15:54:28.165Z</time></trkpt><trkpt lat="44.9973618" lon="9.5726594"><ele>83.0</ele><time>2026-03-29T15:54:29.164Z</time></trkpt><trkpt lat="44.9974927" lon="9.5726701"><ele>83.25</ele><time>2026-03-29T15:54:30.165Z</time></trkpt><trkpt lat="44.9976177" lon="9.5726741"><ele>83.5</ele><time>2026-03-29T15:54:31.165Z</time></trkpt><trkpt lat="44.9977419" lon="9.572662"><ele>83.75</ele><time>2026-03-29T15:54:32.165Z</time></trkpt><trkpt lat="44.9978719" lon="9.5726493"><ele>84.0</ele><time>2026-03-29T15:54:33.164Z</time></trkpt><trkpt lat="44.9980053" lon="9.5726202"><ele>84.0</ele><time>2026-03-29T15:54:34.165Z</time></trkpt><trkpt lat="44.9981403" lon="9.5725748"><ele>84.0</ele><time>2026-03-29T15:54:35.165Z</time></trkpt><trkpt lat="44.9982733" lon="9.5725211"><ele>84.0</ele><time>2026-03-29T15:54:36.165Z</time></trkpt><trkpt lat="44.9984095" lon="9.57247"><ele>84.0</ele><time>2026-03-29T15:54:37.165Z</time></trkpt><trkpt lat="44.9985492" lon="9.5724236"><ele>83.75</ele><time>2026-03-29T15:54:38.164Z</time></trkpt><trkpt lat="44.9986893" lon="9.5723666"><ele>83.5</ele><time>2026-03-29T15:54:39.165Z</time></trkpt><trkpt lat="44.9988302" lon="9.5723091"><ele>83.25</ele><time>2026-03-29T15:54:40.164Z</time></trkpt><trkpt lat="44.9989765" lon="9.5722513"><ele>83.0</ele><time>2026-03-29T15:54:41.164Z</time></trkpt><trkpt lat="44.9991224" lon="9.5721917"><ele>82.66666666666667</ele><time>2026-03-29T15:54:42.165Z</time></trkpt><trkpt lat="44.9992706" lon="9.5721313"><ele>82.33333333333333</ele><time>2026-03-29T15:54:43.165Z</time></trkpt><trkpt lat="44.9994197" lon="9.5720729"><ele>82.0</ele><time>2026-03-29T15:54:44.165Z</time></trkpt><trkpt lat="44.9995733" lon="9.5720108"><ele>82.0</ele><time>2026-03-29T15:54:45.165Z</time></trkpt><trkpt lat="44.9997274" lon="9.5719546"><ele>82.0</ele><time>2026-03-29T15:54:46.165Z</time></trkpt><trkpt lat="44.999888" lon="9.5718931"><ele>82.0</ele><time>2026-03-29T15:54:47.164Z</time></trkpt><trkpt lat="45.0000494" lon="9.5718302"><ele>82.0</ele><time>2026-03-29T15:54:48.165Z</time></trkpt><trkpt lat="45.000217" lon="9.5717662"><ele>82.0</ele><time>2026-03-29T15:54:49.165Z</time></trkpt><trkpt lat="45.0003837" lon="9.5717008"><ele>82.0</ele><time>2026-03-29T15:54:50.164Z</time></trkpt><trkpt lat="45.0005523" lon="9.5716337"><ele>82.0</ele><time>2026-03-29T15:54:51.165Z</time></trkpt><trkpt lat="45.0007325" lon="9.5715681"><ele>82.0</ele><time>2026-03-29T15:54:52.164Z</time></trkpt><trkpt lat="45.0009181" lon="9.5714988"><ele>82.0</ele><time>2026-03-29T15:54:53.165Z</time></trkpt><trkpt lat="45.0011011" lon="9.571424"><ele>82.0</ele><time>2026-03-29T15:54:54.165Z</time></trkpt><trkpt lat="45.0012915" lon="9.5713533"><ele>82.0</ele><time>2026-03-29T15:54:55.165Z</time></trkpt><trkpt lat="45.0014826" lon="9.5712767"><ele>82.0</ele><time>2026-03-29T15:54:56.165Z</time></trkpt><trkpt lat="45.0016844" lon="9.5711965"><ele>81.66666666666666</ele><time>2026-03-29T15:54:57.164Z</time></trkpt><trkpt lat="45.001882" lon="9.5711165"><ele>81.33333333333333</ele><time>2026-03-29T15:54:58.165Z</time></trkpt><trkpt lat="45.0020823" lon="9.5710429"><ele>81.0</ele><time>2026-03-29T15:54:59.165Z</time></trkpt><trkpt lat="45.002287" lon="9.5709589"><ele>81.0</ele><time>2026-03-29T15:55:00.164Z</time></trkpt><trkpt lat="45.0024986" lon="9.5708745"><ele>81.0</ele><time>2026-03-29T15:55:01.165Z</time></trkpt><trkpt lat="45.0027095" lon="9.5707922"><ele>81.0</ele><time>2026-03-29T15:55:02.164Z</time></trkpt><trkpt lat="45.0029214" lon="9.57071"><ele>81.0</ele><time>2026-03-29T15:55:03.165Z</time></trkpt><trkpt lat="45.0031293" lon="9.5706236"><ele>81.0</ele><time>2026-03-29T15:55:04.164Z</time></trkpt><trkpt lat="45.0033416" lon="9.570542"><ele>81.0</ele><time>2026-03-29T15:55:05.165Z</time></trkpt><trkpt lat="45.0035493" lon="9.5704671"><ele>80.66666666666667</ele><time>2026-03-29T15:55:06.165Z</time></trkpt><trkpt lat="45.0037606" lon="9.5703858"><ele>80.33333333333334</ele><time>2026-03-29T15:55:07.165Z</time></trkpt><trkpt lat="45.003973" lon="9.5702985"><ele>80.0</ele><time>2026-03-29T15:55:08.164Z</time></trkpt><trkpt lat="45.0041833" lon="9.570216"><ele>79.0</ele><time>2026-03-29T15:55:09.165Z</time></trkpt><trkpt lat="45.0043961" lon="9.5701385"><ele>78.0</ele><time>2026-03-29T15:55:10.165Z</time></trkpt><trkpt lat="45.0046142" lon="9.5700649"><ele>77.0</ele><time>2026-03-29T15:55:11.165Z</time></trkpt><trkpt lat="45.0048303" lon="9.57001"><ele>78.0</ele><time>2026-03-29T15:55:12.165Z</time></trkpt><trkpt lat="45.0050504" lon="9.5699756"><ele>79.0</ele><time>2026-03-29T15:55:13.165Z</time></trkpt><trkpt lat="45.0052703" lon="9.5699477"><ele>80.0</ele><time>2026-03-29T15:55:14.164Z</time></trkpt><trkpt lat="45.0054922" lon="9.5699316"><ele>80.0</ele><time>2026-03-29T15:55:15.164Z</time></trkpt><trkpt lat="45.0057121" lon="9.5699114"><ele>80.0</ele><time>2026-03-29T15:55:16.165Z</time></trkpt><trkpt lat="45.0059373" lon="9.5698958"><ele>80.0</ele><time>2026-03-29T15:55:17.165Z</time></trkpt><trkpt lat="45.0061589" lon="9.5698795"><ele>79.66666666666667</ele><time>2026-03-29T15:55:18.164Z</time></trkpt><trkpt lat="45.0063822" lon="9.5698674"><ele>79.33333333333333</ele><time>2026-03-29T15:55:19.164Z</time></trkpt><trkpt lat="45.0066068" lon="9.5698512"><ele>79.0</ele><time>2026-03-29T15:55:20.164Z</time></trkpt><trkpt lat="45.0068256" lon="9.5698352"><ele>79.0</ele><time>2026-03-29T15:55:21.164Z</time></trkpt><trkpt lat="45.0070354" lon="9.5698177"><ele>79.0</ele><time>2026-03-29T15:55:22.164Z</time></trkpt><trkpt lat="45.0072373" lon="9.5698014"><ele>79.0</ele><time>2026-03-29T15:55:23.165Z</time></trkpt><trkpt lat="45.0074346" lon="9.569787"><ele>79.33333333333333</ele><time>2026-03-29T15:55:24.165Z</time></trkpt><trkpt lat="45.0076312" lon="9.5697696"><ele>79.66666666666667</ele><time>2026-03-29T15:55:25.164Z</time></trkpt><trkpt lat="45.0078294" lon="9.5697506"><ele>80.0</ele><time>2026-03-29T15:55:26.165Z</time></trkpt><trkpt lat="45.0080204" lon="9.5697244"><ele>80.0</ele><time>2026-03-29T15:55:27.165Z</time></trkpt><trkpt lat="45.0082042" lon="9.5696973"><ele>80.0</ele><time>2026-03-29T15:55:28.165Z</time></trkpt><trkpt lat="45.0083757" lon="9.5696651"><ele>80.0</ele><time>2026-03-29T15:55:29.165Z</time></trkpt><trkpt lat="45.0085476" lon="9.5696343"><ele>80.0</ele><time>2026-03-29T15:55:30.165Z</time></trkpt><trkpt lat="45.0087117" lon="9.5696057"><ele>80.0</ele><time>2026-03-29T15:55:31.165Z</time></trkpt><trkpt lat="45.0088693" lon="9.5695755"><ele>80.0</ele><time>2026-03-29T15:55:32.165Z</time></trkpt><trkpt lat="45.0090195" lon="9.569544"><ele>79.75</ele><time>2026-03-29T15:55:33.165Z</time></trkpt><trkpt lat="45.0091596" lon="9.5695163"><ele>79.5</ele><time>2026-03-29T15:55:34.164Z</time></trkpt><trkpt lat="45.0093032" lon="9.5694977"><ele>79.25</ele><time>2026-03-29T15:55:35.165Z</time></trkpt><trkpt lat="45.00945" lon="9.5694631"><ele>79.0</ele><time>2026-03-29T15:55:36.164Z</time></trkpt><trkpt lat="45.0095971" lon="9.5694265"><ele>79.0</ele><time>2026-03-29T15:55:37.165Z</time></trkpt><trkpt lat="45.0097486" lon="9.5693887"><ele>79.0</ele><time>2026-03-29T15:55:38.164Z</time></trkpt><trkpt lat="45.0099109" lon="9.5693507"><ele>79.0</ele><time>2026-03-29T15:55:39.165Z</time></trkpt><trkpt lat="45.0100739" lon="9.56932"><ele>79.0</ele><time>2026-03-29T15:55:40.164Z</time></trkpt><trkpt lat="45.0102316" lon="9.5692945"><ele>79.0</ele><time>2026-03-29T15:55:41.165Z</time></trkpt><trkpt lat="45.0104001" lon="9.5692683"><ele>79.0</ele><time>2026-03-29T15:55:42.165Z</time></trkpt><trkpt lat="45.0105597" lon="9.5692338"><ele>79.0</ele><time>2026-03-29T15:55:43.165Z</time></trkpt><trkpt lat="45.0107171" lon="9.5692041"><ele>79.0</ele><time>2026-03-29T15:55:44.165Z</time></trkpt><trkpt lat="45.0108719" lon="9.5691671"><ele>79.0</ele><time>2026-03-29T15:55:45.165Z</time></trkpt><trkpt lat="45.0110035" lon="9.5691407"><ele>79.0</ele><time>2026-03-29T15:55:46.165Z</time></trkpt><trkpt lat="45.0110996" lon="9.569117"><ele>79.16666666666666</ele><time>2026-03-29T15:55:47.164Z</time></trkpt><trkpt lat="45.0111781" lon="9.5691016"><ele>79.33333333333333</ele><time>2026-03-29T15:55:48.164Z</time></trkpt><trkpt lat="45.0112758" lon="9.5690501"><ele>79.5</ele><time>2026-03-29T15:55:50.165Z</time></trkpt><trkpt lat="45.011292" lon="9.5689374"><ele>79.66666666666667</ele><time>2026-03-29T15:55:53.165Z</time></trkpt><trkpt lat="45.0112163" lon="9.5688691"><ele>79.83333333333334</ele><time>2026-03-29T15:55:55.165Z</time></trkpt><trkpt lat="45.0111577" lon="9.5688318"><ele>80.0</ele><time>2026-03-29T15:55:56.164Z</time></trkpt><trkpt lat="45.0110734" lon="9.5687867"><ele>80.0</ele><time>2026-03-29T15:55:57.165Z</time></trkpt><trkpt lat="45.0109697" lon="9.5687455"><ele>80.0</ele><time>2026-03-29T15:55:58.165Z</time></trkpt><trkpt lat="45.0108744" lon="9.5687026"><ele>80.0</ele><time>2026-03-29T15:55:59.164Z</time></trkpt><trkpt lat="45.0108036" lon="9.5686486"><ele>80.0</ele><time>2026-03-29T15:56:00.165Z</time></trkpt><trkpt lat="45.0107243" lon="9.5686204"><ele>80.0</ele><time>2026-03-29T15:56:01.165Z</time></trkpt><trkpt lat="45.0106503" lon="9.568597"><ele>80.0</ele><time>2026-03-29T15:56:02.165Z</time></trkpt><trkpt lat="45.0105797" lon="9.5685727"><ele>79.83333333333334</ele><time>2026-03-29T15:56:03.165Z</time></trkpt><trkpt lat="45.0105058" lon="9.5685238"><ele>79.66666666666667</ele><time>2026-03-29T15:56:04.165Z</time></trkpt><trkpt lat="45.0104425" lon="9.5684484"><ele>79.5</ele><time>2026-03-29T15:56:05.164Z</time></trkpt><trkpt lat="45.010384" lon="9.5683637"><ele>79.33333333333333</ele><time>2026-03-29T15:56:06.164Z</time></trkpt><trkpt lat="45.0103504" lon="9.5682335"><ele>79.16666666666666</ele><time>2026-03-29T15:56:07.165Z</time></trkpt><trkpt lat="45.0103187" lon="9.5680963"><ele>79.0</ele><time>2026-03-29T15:56:08.164Z</time></trkpt><trkpt lat="45.010285" lon="9.567928"><ele>78.5</ele><time>2026-03-29T15:56:09.165Z</time></trkpt><trkpt lat="45.0102508" lon="9.5677415"><ele>78.0</ele><time>2026-03-29T15:56:10.164Z</time></trkpt><trkpt lat="45.010213" lon="9.567543"><ele>77.5</ele><time>2026-03-29T15:56:11.165Z</time></trkpt><trkpt lat="45.0101652" lon="9.5673189"><ele>77.0</ele><time>2026-03-29T15:56:12.164Z</time></trkpt><trkpt lat="45.01012" lon="9.5670762"><ele>77.0</ele><time>2026-03-29T15:56:13.164Z</time></trkpt><trkpt lat="45.0100707" lon="9.5668135"><ele>77.0</ele><time>2026-03-29T15:56:14.165Z</time></trkpt><trkpt lat="45.0100159" lon="9.5665258"><ele>77.0</ele><time>2026-03-29T15:56:15.164Z</time></trkpt><trkpt lat="45.0099552" lon="9.5662199"><ele>77.0</ele><time>2026-03-29T15:56:16.164Z</time></trkpt><trkpt lat="45.0098937" lon="9.5659239"><ele>77.0</ele><time>2026-03-29T15:56:17.164Z</time></trkpt><trkpt lat="45.009837" lon="9.5656246"><ele>77.0</ele><time>2026-03-29T15:56:18.164Z</time></trkpt><trkpt lat="45.009782" lon="9.5653176"><ele>77.0</ele><time>2026-03-29T15:56:19.165Z</time></trkpt><trkpt lat="45.0097277" lon="9.5650173"><ele>77.0</ele><time>2026-03-29T15:56:20.165Z</time></trkpt><trkpt lat="45.0096723" lon="9.5647314"><ele>77.0</ele><time>2026-03-29T15:56:21.165Z</time></trkpt><trkpt lat="45.0096204" lon="9.564464"><ele>77.33333333333334</ele><time>2026-03-29T15:56:22.164Z</time></trkpt><trkpt lat="45.0095736" lon="9.5641942"><ele>77.66666666666667</ele><time>2026-03-29T15:56:23.164Z</time></trkpt><trkpt lat="45.0095249" lon="9.5639243"><ele>78.0</ele><time>2026-03-29T15:56:24.165Z</time></trkpt><trkpt lat="45.0094762" lon="9.5636575"><ele>78.33333333333333</ele><time>2026-03-29T15:56:25.165Z</time></trkpt><trkpt lat="45.009427" lon="9.5633863"><ele>78.66666666666666</ele><time>2026-03-29T15:56:26.165Z</time></trkpt><trkpt lat="45.0093749" lon="9.5631109"><ele>79.0</ele><time>2026-03-29T15:56:27.165Z</time></trkpt><trkpt lat="45.0093145" lon="9.5628345"><ele>79.33333333333333</ele><time>2026-03-29T15:56:28.164Z</time></trkpt><trkpt lat="45.0092364" lon="9.5625651"><ele>79.66666666666667</ele><time>2026-03-29T15:56:29.165Z</time></trkpt><trkpt lat="45.0091362" lon="9.5623025"><ele>80.0</ele><time>2026-03-29T15:56:30.165Z</time></trkpt><trkpt lat="45.0090258" lon="9.5620439"><ele>80.66666666666667</ele><time>2026-03-29T15:56:31.164Z</time></trkpt><trkpt lat="45.0089096" lon="9.5617825"><ele>81.33333333333333</ele><time>2026-03-29T15:56:32.164Z</time></trkpt><trkpt lat="45.0087919" lon="9.5615219"><ele>82.0</ele><time>2026-03-29T15:56:33.165Z</time></trkpt><trkpt lat="45.0086734" lon="9.5612555"><ele>81.66666666666666</ele><time>2026-03-29T15:56:34.165Z</time></trkpt><trkpt lat="45.0085545" lon="9.5609858"><ele>81.33333333333333</ele><time>2026-03-29T15:56:35.165Z</time></trkpt><trkpt lat="45.0084382" lon="9.560718"><ele>81.0</ele><time>2026-03-29T15:56:36.165Z</time></trkpt><trkpt lat="45.0083202" lon="9.5604523"><ele>80.66666666666667</ele><time>2026-03-29T15:56:37.165Z</time></trkpt><trkpt lat="45.0082015" lon="9.5601909"><ele>80.33333333333334</ele><time>2026-03-29T15:56:38.164Z</time></trkpt><trkpt lat="45.0080898" lon="9.559938"><ele>80.0</ele><time>2026-03-29T15:56:39.165Z</time></trkpt><trkpt lat="45.0079761" lon="9.559683"><ele>80.66666666666667</ele><time>2026-03-29T15:56:40.164Z</time></trkpt><trkpt lat="45.0078701" lon="9.5594389"><ele>81.33333333333333</ele><time>2026-03-29T15:56:41.164Z</time></trkpt><trkpt lat="45.0077671" lon="9.5591926"><ele>82.0</ele><time>2026-03-29T15:56:42.164Z</time></trkpt><trkpt lat="45.0076713" lon="9.5589358"><ele>82.0</ele><time>2026-03-29T15:56:43.165Z</time></trkpt><trkpt lat="45.0075738" lon="9.5586608"><ele>82.0</ele><time>2026-03-29T15:56:44.164Z</time></trkpt><trkpt lat="45.0074714" lon="9.5583783"><ele>82.0</ele><time>2026-03-29T15:56:45.165Z</time></trkpt><trkpt lat="45.0073722" lon="9.5580957"><ele>82.0</ele><time>2026-03-29T15:56:46.164Z</time></trkpt><trkpt lat="45.007268" lon="9.557811"><ele>82.0</ele><time>2026-03-29T15:56:47.165Z</time></trkpt><trkpt lat="45.0071655" lon="9.557522"><ele>82.0</ele><time>2026-03-29T15:56:48.165Z</time></trkpt><trkpt lat="45.0070626" lon="9.5572302"><ele>82.0</ele><time>2026-03-29T15:56:49.165Z</time></trkpt><trkpt lat="45.0069598" lon="9.5569377"><ele>82.5</ele><time>2026-03-29T15:56:50.165Z</time></trkpt><trkpt lat="45.0068549" lon="9.556647"><ele>83.0</ele><time>2026-03-29T15:56:51.165Z</time></trkpt><trkpt lat="45.0067523" lon="9.5563554"><ele>81.5</ele><time>2026-03-29T15:56:52.165Z</time></trkpt><trkpt lat="45.006647" lon="9.5560611"><ele>80.0</ele><time>2026-03-29T15:56:53.165Z</time></trkpt><trkpt lat="45.0065433" lon="9.5557702"><ele>80.0</ele><time>2026-03-29T15:56:54.164Z</time></trkpt><trkpt lat="45.0064365" lon="9.5554779"><ele>80.0</ele><time>2026-03-29T15:56:55.165Z</time></trkpt><trkpt lat="45.0063359" lon="9.5551907"><ele>81.0</ele><time>2026-03-29T15:56:56.165Z</time></trkpt><trkpt lat="45.0062347" lon="9.5548983"><ele>82.0</ele><time>2026-03-29T15:56:57.165Z</time></trkpt><trkpt lat="45.0061339" lon="9.5546126"><ele>82.66666666666666</ele><time>2026-03-29T15:56:58.164Z</time></trkpt><trkpt lat="45.0060373" lon="9.5543334"><ele>83.33333333333333</ele><time>2026-03-29T15:56:59.164Z</time></trkpt><trkpt lat="45.0059422" lon="9.5540634"><ele>84.0</ele><time>2026-03-29T15:57:00.165Z</time></trkpt><trkpt lat="45.0058497" lon="9.5537914"><ele>83.33333333333333</ele><time>2026-03-29T15:57:01.164Z</time></trkpt><trkpt lat="45.0057531" lon="9.5535176"><ele>82.66666666666666</ele><time>2026-03-29T15:57:02.164Z</time></trkpt><trkpt lat="45.0056554" lon="9.5532432"><ele>82.0</ele><time>2026-03-29T15:57:03.164Z</time></trkpt><trkpt lat="45.0055581" lon="9.5529709"><ele>82.66666666666666</ele><time>2026-03-29T15:57:04.165Z</time></trkpt><trkpt lat="45.0054616" lon="9.5527021"><ele>83.33333333333333</ele><time>2026-03-29T15:57:05.164Z</time></trkpt><trkpt lat="45.0053591" lon="9.5524288"><ele>84.0</ele><time>2026-03-29T15:57:06.165Z</time></trkpt><trkpt lat="45.0052539" lon="9.5521481"><ele>84.5</ele><time>2026-03-29T15:57:07.165Z</time></trkpt><trkpt lat="45.0051501" lon="9.5518618"><ele>85.0</ele><time>2026-03-29T15:57:08.165Z</time></trkpt><trkpt lat="45.005047" lon="9.5515668"><ele>85.5</ele><time>2026-03-29T15:57:09.165Z</time></trkpt><trkpt lat="45.0049464" lon="9.5512739"><ele>86.0</ele><time>2026-03-29T15:57:10.164Z</time></trkpt><trkpt lat="45.0048423" lon="9.5509825"><ele>85.0</ele><time>2026-03-29T15:57:11.165Z</time></trkpt><trkpt lat="45.0047397" lon="9.5506911"><ele>84.0</ele><time>2026-03-29T15:57:12.165Z</time></trkpt><trkpt lat="45.0046354" lon="9.5504022"><ele>84.0</ele><time>2026-03-29T15:57:13.165Z</time></trkpt><trkpt lat="45.0045337" lon="9.550123"><ele>84.0</ele><time>2026-03-29T15:57:14.165Z</time></trkpt><trkpt lat="45.0044375" lon="9.5498522"><ele>84.0</ele><time>2026-03-29T15:57:15.164Z</time></trkpt><trkpt lat="45.0043457" lon="9.5495968"><ele>84.0</ele><time>2026-03-29T15:57:16.165Z</time></trkpt><trkpt lat="45.0042554" lon="9.5493533"><ele>84.0</ele><time>2026-03-29T15:57:17.165Z</time></trkpt><trkpt lat="45.0041706" lon="9.5491206"><ele>84.0</ele><time>2026-03-29T15:57:18.165Z</time></trkpt><trkpt lat="45.0040881" lon="9.548892"><ele>84.66666666666667</ele><time>2026-03-29T15:57:19.165Z</time></trkpt><trkpt lat="45.0040082" lon="9.54867"><ele>85.33333333333334</ele><time>2026-03-29T15:57:20.165Z</time></trkpt><trkpt lat="45.0039262" lon="9.5484472"><ele>86.0</ele><time>2026-03-29T15:57:21.164Z</time></trkpt><trkpt lat="45.0038458" lon="9.5482229"><ele>86.0</ele><time>2026-03-29T15:57:22.165Z</time></trkpt><trkpt lat="45.0037638" lon="9.5479898"><ele>86.0</ele><time>2026-03-29T15:57:23.165Z</time></trkpt><trkpt lat="45.0036797" lon="9.5477524"><ele>86.0</ele><time>2026-03-29T15:57:24.165Z</time></trkpt><trkpt lat="45.0035919" lon="9.5475078"><ele>86.0</ele><time>2026-03-29T15:57:25.164Z</time></trkpt><trkpt lat="45.0035077" lon="9.5472755"><ele>86.0</ele><time>2026-03-29T15:57:26.165Z</time></trkpt><trkpt lat="45.0034404" lon="9.5470765"><ele>86.0</ele><time>2026-03-29T15:57:27.165Z</time></trkpt><trkpt lat="45.0033768" lon="9.546904"><ele>86.0</ele><time>2026-03-29T15:57:28.164Z</time></trkpt><trkpt lat="45.003321" lon="9.5467599"><ele>86.0</ele><time>2026-03-29T15:57:29.165Z</time></trkpt><trkpt lat="45.0032732" lon="9.5466269"><ele>86.0</ele><time>2026-03-29T15:57:30.165Z</time></trkpt><trkpt lat="45.0032326" lon="9.5465165"><ele>86.0</ele><time>2026-03-29T15:57:31.165Z</time></trkpt><trkpt lat="45.003203" lon="9.54643"><ele>86.0</ele><time>2026-03-29T15:57:32.165Z</time></trkpt><trkpt lat="45.0031739" lon="9.5463425"><ele>86.0</ele><time>2026-03-29T15:57:33.165Z</time></trkpt><trkpt lat="45.0031866" lon="9.5462004"><ele>86.0</ele><time>2026-03-29T15:57:35.165Z</time></trkpt><trkpt lat="45.003279" lon="9.5461568"><ele>86.0</ele><time>2026-03-29T15:57:37.165Z</time></trkpt><trkpt lat="45.0033538" lon="9.5461621"><ele>86.0</ele><time>2026-03-29T15:57:38.165Z</time></trkpt><trkpt lat="45.0034622" lon="9.5461642"><ele>86.0</ele><time>2026-03-29T15:57:39.165Z</time></trkpt><trkpt lat="45.0036083" lon="9.5461679"><ele>86.0</ele><time>2026-03-29T15:57:40.164Z</time></trkpt><trkpt lat="45.0037854" lon="9.5461634"><ele>85.66666666666667</ele><time>2026-03-29T15:57:41.165Z</time></trkpt><trkpt lat="45.0039469" lon="9.5461679"><ele>85.33333333333333</ele><time>2026-03-29T15:57:42.164Z</time></trkpt><trkpt lat="45.0041145" lon="9.5461748"><ele>85.0</ele><time>2026-03-29T15:57:43.165Z</time></trkpt><trkpt lat="45.0042823" lon="9.5461733"><ele>84.33333333333333</ele><time>2026-03-29T15:57:44.165Z</time></trkpt><trkpt lat="45.004451" lon="9.5461677"><ele>83.66666666666667</ele><time>2026-03-29T15:57:45.164Z</time></trkpt><trkpt lat="45.0046264" lon="9.546164"><ele>83.0</ele><time>2026-03-29T15:57:46.165Z</time></trkpt><trkpt lat="45.0047975" lon="9.5461633"><ele>83.0</ele><time>2026-03-29T15:57:47.165Z</time></trkpt><trkpt lat="45.0049792" lon="9.5461627"><ele>83.0</ele><time>2026-03-29T15:57:48.164Z</time></trkpt><trkpt lat="45.0051594" lon="9.546159"><ele>83.0</ele><time>2026-03-29T15:57:49.165Z</time></trkpt><trkpt lat="45.0053473" lon="9.5461538"><ele>82.66666666666667</ele><time>2026-03-29T15:57:50.165Z</time></trkpt><trkpt lat="45.0055332" lon="9.546153"><ele>82.33333333333333</ele><time>2026-03-29T15:57:51.165Z</time></trkpt><trkpt lat="45.0057193" lon="9.5461522"><ele>82.0</ele><time>2026-03-29T15:57:52.165Z</time></trkpt><trkpt lat="45.0059106" lon="9.5461526"><ele>82.66666666666666</ele><time>2026-03-29T15:57:53.164Z</time></trkpt><trkpt lat="45.0061058" lon="9.5461498"><ele>83.33333333333333</ele><time>2026-03-29T15:57:54.164Z</time></trkpt><trkpt lat="45.0063059" lon="9.5461456"><ele>84.0</ele><time>2026-03-29T15:57:55.164Z</time></trkpt><trkpt lat="45.0065097" lon="9.546143"><ele>83.0</ele><time>2026-03-29T15:57:56.165Z</time></trkpt><trkpt lat="45.0067147" lon="9.5461442"><ele>82.0</ele><time>2026-03-29T15:57:57.165Z</time></trkpt><trkpt lat="45.0069254" lon="9.546154"><ele>81.0</ele><time>2026-03-29T15:57:58.165Z</time></trkpt><trkpt lat="45.0071417" lon="9.546162"><ele>81.0</ele><time>2026-03-29T15:57:59.165Z</time></trkpt><trkpt lat="45.0073613" lon="9.5461602"><ele>81.0</ele><time>2026-03-29T15:58:00.164Z</time></trkpt><trkpt lat="45.0075765" lon="9.5461608"><ele>81.0</ele><time>2026-03-29T15:58:01.165Z</time></trkpt><trkpt lat="45.0077902" lon="9.5461661"><ele>81.0</ele><time>2026-03-29T15:58:02.165Z</time></trkpt><trkpt lat="45.0079986" lon="9.5461723"><ele>81.0</ele><time>2026-03-29T15:58:03.165Z</time></trkpt><trkpt lat="45.0082004" lon="9.546189"><ele>81.0</ele><time>2026-03-29T15:58:04.165Z</time></trkpt><trkpt lat="45.0083948" lon="9.5461934"><ele>81.0</ele><time>2026-03-29T15:58:05.164Z</time></trkpt><trkpt lat="45.0085783" lon="9.5462052"><ele>81.0</ele><time>2026-03-29T15:58:06.165Z</time></trkpt><trkpt lat="45.0087636" lon="9.5462129"><ele>81.0</ele><time>2026-03-29T15:58:07.165Z</time></trkpt><trkpt lat="45.0089508" lon="9.546228"><ele>80.66666666666667</ele><time>2026-03-29T15:58:08.165Z</time></trkpt><trkpt lat="45.0091396" lon="9.546235"><ele>80.33333333333334</ele><time>2026-03-29T15:58:09.164Z</time></trkpt><trkpt lat="45.0093315" lon="9.5462483"><ele>80.0</ele><time>2026-03-29T15:58:10.165Z</time></trkpt><trkpt lat="45.0095251" lon="9.5462611"><ele>80.0</ele><time>2026-03-29T15:58:11.165Z</time></trkpt><trkpt lat="45.0097246" lon="9.5462738"><ele>80.0</ele><time>2026-03-29T15:58:12.164Z</time></trkpt><trkpt lat="45.0099242" lon="9.5462891"><ele>80.0</ele><time>2026-03-29T15:58:13.165Z</time></trkpt><trkpt lat="45.0101294" lon="9.5463027"><ele>79.33333333333334</ele><time>2026-03-29T15:58:14.165Z</time></trkpt><trkpt lat="45.0103487" lon="9.5463132"><ele>78.66666666666667</ele><time>2026-03-29T15:58:15.165Z</time></trkpt><trkpt lat="45.0105688" lon="9.5463268"><ele>78.0</ele><time>2026-03-29T15:58:16.164Z</time></trkpt><trkpt lat="45.0107918" lon="9.5463356"><ele>78.33333333333333</ele><time>2026-03-29T15:58:17.164Z</time></trkpt><trkpt lat="45.011014" lon="9.546349"><ele>78.66666666666666</ele><time>2026-03-29T15:58:18.164Z</time></trkpt><trkpt lat="45.0112387" lon="9.546362"><ele>79.0</ele><time>2026-03-29T15:58:19.165Z</time></trkpt><trkpt lat="45.0114633" lon="9.5463775"><ele>78.33333333333333</ele><time>2026-03-29T15:58:20.165Z</time></trkpt><trkpt lat="45.0116838" lon="9.5463903"><ele>77.66666666666667</ele><time>2026-03-29T15:58:21.164Z</time></trkpt><trkpt lat="45.0118938" lon="9.5464018"><ele>77.0</ele><time>2026-03-29T15:58:22.165Z</time></trkpt><trkpt lat="45.0121031" lon="9.5464189"><ele>77.0</ele><time>2026-03-29T15:58:23.165Z</time></trkpt><trkpt lat="45.0123068" lon="9.5464233"><ele>77.0</ele><time>2026-03-29T15:58:24.164Z</time></trkpt><trkpt lat="45.0125107" lon="9.5464267"><ele>77.0</ele><time>2026-03-29T15:58:25.165Z</time></trkpt><trkpt lat="45.0127208" lon="9.5464218"><ele>77.5</ele><time>2026-03-29T15:58:26.165Z</time></trkpt><trkpt lat="45.0129432" lon="9.5464177"><ele>78.0</ele><time>2026-03-29T15:58:27.165Z</time></trkpt><trkpt lat="45.0131753" lon="9.5464119"><ele>78.5</ele><time>2026-03-29T15:58:28.165Z</time></trkpt><trkpt lat="45.0134058" lon="9.5464141"><ele>79.0</ele><time>2026-03-29T15:58:29.165Z</time></trkpt><trkpt lat="45.0136353" lon="9.5464068"><ele>79.0</ele><time>2026-03-29T15:58:30.165Z</time></trkpt><trkpt lat="45.0138616" lon="9.5464005"><ele>79.0</ele><time>2026-03-29T15:58:31.165Z</time></trkpt><trkpt lat="45.0140878" lon="9.546393"><ele>78.0</ele><time>2026-03-29T15:58:32.165Z</time></trkpt><trkpt lat="45.0143164" lon="9.5463861"><ele>77.0</ele><time>2026-03-29T15:58:33.164Z</time></trkpt><trkpt lat="45.0145419" lon="9.5463771"><ele>77.0</ele><time>2026-03-29T15:58:34.165Z</time></trkpt><trkpt lat="45.0147661" lon="9.5463679"><ele>77.0</ele><time>2026-03-29T15:58:35.165Z</time></trkpt><trkpt lat="45.0149906" lon="9.5463608"><ele>77.0</ele><time>2026-03-29T15:58:36.165Z</time></trkpt><trkpt lat="45.0152082" lon="9.5463542"><ele>76.66666666666667</ele><time>2026-03-29T15:58:37.165Z</time></trkpt><trkpt lat="45.0153927" lon="9.5463503"><ele>76.33333333333333</ele><time>2026-03-29T15:58:38.164Z</time></trkpt><trkpt lat="45.0155534" lon="9.5463474"><ele>76.0</ele><time>2026-03-29T15:58:39.164Z</time></trkpt><trkpt lat="45.0157006" lon="9.5463355"><ele>76.25</ele><time>2026-03-29T15:58:40.165Z</time></trkpt><trkpt lat="45.0158359" lon="9.5463335"><ele>76.5</ele><time>2026-03-29T15:58:41.165Z</time></trkpt><trkpt lat="45.0159611" lon="9.5463336"><ele>76.75</ele><time>2026-03-29T15:58:42.164Z</time></trkpt><trkpt lat="45.016089" lon="9.5463346"><ele>77.0</ele><time>2026-03-29T15:58:43.165Z</time></trkpt><trkpt lat="45.0162304" lon="9.5463293"><ele>77.0</ele><time>2026-03-29T15:58:44.165Z</time></trkpt><trkpt lat="45.0163798" lon="9.5463249"><ele>77.0</ele><time>2026-03-29T15:58:45.165Z</time></trkpt><trkpt lat="45.0165372" lon="9.5463207"><ele>77.0</ele><time>2026-03-29T15:58:46.164Z</time></trkpt><trkpt lat="45.0166982" lon="9.546319"><ele>77.0</ele><time>2026-03-29T15:58:47.165Z</time></trkpt><trkpt lat="45.016847" lon="9.5463162"><ele>77.0</ele><time>2026-03-29T15:58:48.165Z</time></trkpt><trkpt lat="45.0169884" lon="9.5463126"><ele>77.0</ele><time>2026-03-29T15:58:49.164Z</time></trkpt><trkpt lat="45.017109" lon="9.5463082"><ele>77.0</ele><time>2026-03-29T15:58:50.165Z</time></trkpt><trkpt lat="45.0172145" lon="9.5463062"><ele>77.0</ele><time>2026-03-29T15:58:51.165Z</time></trkpt><trkpt lat="45.0173021" lon="9.546303"><ele>77.0</ele><time>2026-03-29T15:58:52.164Z</time></trkpt><trkpt lat="45.0173803" lon="9.5462999"><ele>77.0</ele><time>2026-03-29T15:58:53.165Z</time></trkpt><trkpt lat="45.0174627" lon="9.5463123"><ele>77.0</ele><time>2026-03-29T15:58:54.165Z</time></trkpt><trkpt lat="45.0175468" lon="9.5463627"><ele>77.0</ele><time>2026-03-29T15:58:55.164Z</time></trkpt><trkpt lat="45.0176364" lon="9.5464268"><ele>77.0</ele><time>2026-03-29T15:58:56.165Z</time></trkpt><trkpt lat="45.0177254" lon="9.5464581"><ele>77.0</ele><time>2026-03-29T15:58:57.165Z</time></trkpt><trkpt lat="45.017815" lon="9.5464412"><ele>77.0</ele><time>2026-03-29T15:58:58.165Z</time></trkpt><trkpt lat="45.0178878" lon="9.5463941"><ele>77.0</ele><time>2026-03-29T15:58:59.165Z</time></trkpt><trkpt lat="45.0179401" lon="9.546302"><ele>77.0</ele><time>2026-03-29T15:59:00.164Z</time></trkpt><trkpt lat="45.0179565" lon="9.5461836"><ele>77.0</ele><time>2026-03-29T15:59:01.165Z</time></trkpt><trkpt lat="45.0179414" lon="9.5460698"><ele>77.0</ele><time>2026-03-29T15:59:02.165Z</time></trkpt><trkpt lat="45.0178814" lon="9.545971"><ele>76.8</ele><time>2026-03-29T15:59:03.165Z</time></trkpt><trkpt lat="45.0178102" lon="9.5458898"><ele>76.6</ele><time>2026-03-29T15:59:04.164Z</time></trkpt><trkpt lat="45.0177455" lon="9.5457983"><ele>76.39999999999999</ele><time>2026-03-29T15:59:05.165Z</time></trkpt><trkpt lat="45.0176819" lon="9.5456757"><ele>76.2</ele><time>2026-03-29T15:59:06.164Z</time></trkpt><trkpt lat="45.0176314" lon="9.5455257"><ele>76.0</ele><time>2026-03-29T15:59:07.165Z</time></trkpt><trkpt lat="45.0175921" lon="9.5453521"><ele>76.0</ele><time>2026-03-29T15:59:08.165Z</time></trkpt><trkpt lat="45.0175659" lon="9.5451488"><ele>76.0</ele><time>2026-03-29T15:59:09.165Z</time></trkpt><trkpt lat="45.0175447" lon="9.544912"><ele>76.0</ele><time>2026-03-29T15:59:10.165Z</time></trkpt><trkpt lat="45.0175225" lon="9.5446661"><ele>76.0</ele><time>2026-03-29T15:59:11.164Z</time></trkpt><trkpt lat="45.017504" lon="9.5444032"><ele>76.0</ele><time>2026-03-29T15:59:12.165Z</time></trkpt><trkpt lat="45.0174848" lon="9.5441407"><ele>76.0</ele><time>2026-03-29T15:59:13.165Z</time></trkpt><trkpt lat="45.0174667" lon="9.5438841"><ele>76.33333333333333</ele><time>2026-03-29T15:59:14.165Z</time></trkpt><trkpt lat="45.0174485" lon="9.5436299"><ele>76.66666666666667</ele><time>2026-03-29T15:59:15.164Z</time></trkpt><trkpt lat="45.0174264" lon="9.5433661"><ele>77.0</ele><time>2026-03-29T15:59:16.164Z</time></trkpt><trkpt lat="45.0174056" lon="9.5430971"><ele>77.0</ele><time>2026-03-29T15:59:17.164Z</time></trkpt><trkpt lat="45.0173812" lon="9.5428262"><ele>77.0</ele><time>2026-03-29T15:59:18.165Z</time></trkpt><trkpt lat="45.0173599" lon="9.5425643"><ele>77.0</ele><time>2026-03-29T15:59:19.165Z</time></trkpt><trkpt lat="45.0173354" lon="9.5423027"><ele>77.66666666666667</ele><time>2026-03-29T15:59:20.164Z</time></trkpt><trkpt lat="45.017315" lon="9.5420344"><ele>78.33333333333333</ele><time>2026-03-29T15:59:21.164Z</time></trkpt><trkpt lat="45.0172902" lon="9.5417654"><ele>79.0</ele><time>2026-03-29T15:59:22.164Z</time></trkpt><trkpt lat="45.0172631" lon="9.5414896"><ele>78.33333333333333</ele><time>2026-03-29T15:59:23.164Z</time></trkpt><trkpt lat="45.0172387" lon="9.5412046"><ele>77.66666666666667</ele><time>2026-03-29T15:59:24.165Z</time></trkpt><trkpt lat="45.0172132" lon="9.5409202"><ele>77.0</ele><time>2026-03-29T15:59:25.164Z</time></trkpt><trkpt lat="45.0171864" lon="9.5406363"><ele>77.0</ele><time>2026-03-29T15:59:26.165Z</time></trkpt><trkpt lat="45.0171571" lon="9.540352"><ele>77.0</ele><time>2026-03-29T15:59:27.164Z</time></trkpt><trkpt lat="45.0171281" lon="9.5400704"><ele>77.0</ele><time>2026-03-29T15:59:28.164Z</time></trkpt><trkpt lat="45.0170966" lon="9.5397832"><ele>77.33333333333334</ele><time>2026-03-29T15:59:29.165Z</time></trkpt><trkpt lat="45.0170694" lon="9.5394922"><ele>77.66666666666667</ele><time>2026-03-29T15:59:30.165Z</time></trkpt><trkpt lat="45.0170421" lon="9.5391971"><ele>78.0</ele><time>2026-03-29T15:59:31.165Z</time></trkpt><trkpt lat="45.0170164" lon="9.5388986"><ele>77.33333333333333</ele><time>2026-03-29T15:59:32.165Z</time></trkpt><trkpt lat="45.0169863" lon="9.5386027"><ele>76.66666666666666</ele><time>2026-03-29T15:59:33.164Z</time></trkpt><trkpt lat="45.0169577" lon="9.5383024"><ele>76.0</ele><time>2026-03-29T15:59:34.164Z</time></trkpt><trkpt lat="45.0169304" lon="9.5379973"><ele>76.0</ele><time>2026-03-29T15:59:35.165Z</time></trkpt><trkpt lat="45.0169026" lon="9.537699"><ele>76.0</ele><time>2026-03-29T15:59:36.165Z</time></trkpt><trkpt lat="45.0168744" lon="9.5374087"><ele>76.0</ele><time>2026-03-29T15:59:37.165Z</time></trkpt><trkpt lat="45.0168456" lon="9.5371363"><ele>76.33333333333333</ele><time>2026-03-29T15:59:38.165Z</time></trkpt><trkpt lat="45.0168189" lon="9.5368663"><ele>76.66666666666667</ele><time>2026-03-29T15:59:39.164Z</time></trkpt><trkpt lat="45.0167931" lon="9.5365969"><ele>77.0</ele><time>2026-03-29T15:59:40.164Z</time></trkpt><trkpt lat="45.0167667" lon="9.5363303"><ele>77.33333333333334</ele><time>2026-03-29T15:59:41.165Z</time></trkpt><trkpt lat="45.0167386" lon="9.5360562"><ele>77.66666666666667</ele><time>2026-03-29T15:59:42.165Z</time></trkpt><trkpt lat="45.0167111" lon="9.5357782"><ele>78.0</ele><time>2026-03-29T15:59:43.165Z</time></trkpt><trkpt lat="45.0166815" lon="9.5354919"><ele>78.0</ele><time>2026-03-29T15:59:44.165Z</time></trkpt><trkpt lat="45.0166556" lon="9.5352002"><ele>78.0</ele><time>2026-03-29T15:59:45.165Z</time></trkpt><trkpt lat="45.0166256" lon="9.5349063"><ele>78.0</ele><time>2026-03-29T15:59:46.165Z</time></trkpt><trkpt lat="45.0165982" lon="9.5346135"><ele>79.33333333333333</ele><time>2026-03-29T15:59:47.164Z</time></trkpt><trkpt lat="45.0165719" lon="9.5343182"><ele>80.66666666666666</ele><time>2026-03-29T15:59:48.164Z</time></trkpt><trkpt lat="45.0165528" lon="9.5340239"><ele>82.0</ele><time>2026-03-29T15:59:49.164Z</time></trkpt><trkpt lat="45.0165445" lon="9.5337311"><ele>81.66666666666666</ele><time>2026-03-29T15:59:50.165Z</time></trkpt><trkpt lat="45.0165632" lon="9.5334359"><ele>81.33333333333333</ele><time>2026-03-29T15:59:51.165Z</time></trkpt><trkpt lat="45.0165918" lon="9.5331478"><ele>81.0</ele><time>2026-03-29T15:59:52.165Z</time></trkpt><trkpt lat="45.0166347" lon="9.5328623"><ele>80.33333333333333</ele><time>2026-03-29T15:59:53.164Z</time></trkpt><trkpt lat="45.0166805" lon="9.5325767"><ele>79.66666666666666</ele><time>2026-03-29T15:59:54.164Z</time></trkpt><trkpt lat="45.016728" lon="9.5322944"><ele>79.0</ele><time>2026-03-29T15:59:55.165Z</time></trkpt><trkpt lat="45.0167619" lon="9.5320076"><ele>80.0</ele><time>2026-03-29T15:59:56.165Z</time></trkpt><trkpt lat="45.016787" lon="9.5317282"><ele>81.0</ele><time>2026-03-29T15:59:57.165Z</time></trkpt><trkpt lat="45.0168093" lon="9.531434"><ele>82.0</ele><time>2026-03-29T15:59:58.165Z</time></trkpt><trkpt lat="45.0168299" lon="9.5311384"><ele>82.0</ele><time>2026-03-29T15:59:59.165Z</time></trkpt><trkpt lat="45.0168457" lon="9.5308461"><ele>82.0</ele><time>2026-03-29T16:00:00.165Z</time></trkpt><trkpt lat="45.0168625" lon="9.5305561"><ele>82.0</ele><time>2026-03-29T16:00:01.165Z</time></trkpt><trkpt lat="45.0168791" lon="9.5302619"><ele>81.66666666666666</ele><time>2026-03-29T16:00:02.164Z</time></trkpt><trkpt lat="45.0168938" lon="9.5299626"><ele>81.33333333333333</ele><time>2026-03-29T16:00:03.164Z</time></trkpt><trkpt lat="45.016909" lon="9.5296702"><ele>81.0</ele><time>2026-03-29T16:00:04.165Z</time></trkpt><trkpt lat="45.0169285" lon="9.52937"><ele>81.0</ele><time>2026-03-29T16:00:05.165Z</time></trkpt><trkpt lat="45.0169431" lon="9.5290717"><ele>81.0</ele><time>2026-03-29T16:00:06.164Z</time></trkpt><trkpt lat="45.0169564" lon="9.528774"><ele>81.0</ele><time>2026-03-29T16:00:07.165Z</time></trkpt><trkpt lat="45.0169745" lon="9.5284752"><ele>81.0</ele><time>2026-03-29T16:00:08.165Z</time></trkpt><trkpt lat="45.0169935" lon="9.5281783"><ele>81.0</ele><time>2026-03-29T16:00:09.164Z</time></trkpt><trkpt lat="45.0170105" lon="9.5278836"><ele>81.0</ele><time>2026-03-29T16:00:10.165Z</time></trkpt><trkpt lat="45.0170145" lon="9.527591"><ele>81.0</ele><time>2026-03-29T16:00:11.165Z</time></trkpt><trkpt lat="45.0170041" lon="9.5272843"><ele>81.0</ele><time>2026-03-29T16:00:12.165Z</time></trkpt><trkpt lat="45.0169635" lon="9.52698"><ele>81.0</ele><time>2026-03-29T16:00:13.164Z</time></trkpt><trkpt lat="45.0168991" lon="9.5266882"><ele>81.0</ele><time>2026-03-29T16:00:14.165Z</time></trkpt><trkpt lat="45.0168126" lon="9.5264122"><ele>81.0</ele><time>2026-03-29T16:00:15.164Z</time></trkpt><trkpt lat="45.0167112" lon="9.5261425"><ele>81.0</ele><time>2026-03-29T16:00:16.165Z</time></trkpt><trkpt lat="45.0166038" lon="9.5258742"><ele>81.0</ele><time>2026-03-29T16:00:17.165Z</time></trkpt><trkpt lat="45.0165022" lon="9.5256065"><ele>81.0</ele><time>2026-03-29T16:00:18.165Z</time></trkpt><trkpt lat="45.0163967" lon="9.5253422"><ele>81.0</ele><time>2026-03-29T16:00:19.165Z</time></trkpt><trkpt lat="45.0162923" lon="9.5250758"><ele>81.0</ele><time>2026-03-29T16:00:20.165Z</time></trkpt><trkpt lat="45.0161884" lon="9.5248096"><ele>81.0</ele><time>2026-03-29T16:00:21.165Z</time></trkpt><trkpt lat="45.0160859" lon="9.524539"><ele>81.0</ele><time>2026-03-29T16:00:22.164Z</time></trkpt><trkpt lat="45.0159815" lon="9.5242769"><ele>81.0</ele><time>2026-03-29T16:00:23.165Z</time></trkpt><trkpt lat="45.015878" lon="9.5240061"><ele>81.0</ele><time>2026-03-29T16:00:24.165Z</time></trkpt><trkpt lat="45.0157745" lon="9.5237444"><ele>81.0</ele><time>2026-03-29T16:00:25.165Z</time></trkpt><trkpt lat="45.0156715" lon="9.5234833"><ele>81.0</ele><time>2026-03-29T16:00:26.165Z</time></trkpt><trkpt lat="45.0155711" lon="9.5232185"><ele>81.0</ele><time>2026-03-29T16:00:27.165Z</time></trkpt><trkpt lat="45.0154709" lon="9.5229581"><ele>81.0</ele><time>2026-03-29T16:00:28.164Z</time></trkpt><trkpt lat="45.0153695" lon="9.5226961"><ele>81.66666666666667</ele><time>2026-03-29T16:00:29.165Z</time></trkpt><trkpt lat="45.0152714" lon="9.5224348"><ele>82.33333333333334</ele><time>2026-03-29T16:00:30.164Z</time></trkpt><trkpt lat="45.0151765" lon="9.5221878"><ele>83.0</ele><time>2026-03-29T16:00:31.165Z</time></trkpt><trkpt lat="45.0150861" lon="9.5219532"><ele>83.0</ele><time>2026-03-29T16:00:32.165Z</time></trkpt><trkpt lat="45.015015" lon="9.5217238"><ele>83.0</ele><time>2026-03-29T16:00:33.164Z</time></trkpt><trkpt lat="45.0149537" lon="9.5214958"><ele>83.0</ele><time>2026-03-29T16:00:34.165Z</time></trkpt><trkpt lat="45.0149305" lon="9.5212656"><ele>83.0</ele><time>2026-03-29T16:00:35.165Z</time></trkpt><trkpt lat="45.0149346" lon="9.5210371"><ele>83.0</ele><time>2026-03-29T16:00:36.165Z</time></trkpt><trkpt lat="45.014962" lon="9.5208117"><ele>83.0</ele><time>2026-03-29T16:00:37.165Z</time></trkpt><trkpt lat="45.0150402" lon="9.5205966"><ele>83.33333333333334</ele><time>2026-03-29T16:00:38.164Z</time></trkpt><trkpt lat="45.0151336" lon="9.5203922"><ele>83.66666666666667</ele><time>2026-03-29T16:00:39.165Z</time></trkpt><trkpt lat="45.0152442" lon="9.5201987"><ele>84.0</ele><time>2026-03-29T16:00:40.165Z</time></trkpt><trkpt lat="45.0153573" lon="9.5199943"><ele>84.0</ele><time>2026-03-29T16:00:41.164Z</time></trkpt><trkpt lat="45.0154756" lon="9.5197756"><ele>84.0</ele><time>2026-03-29T16:00:42.165Z</time></trkpt><trkpt lat="45.0155998" lon="9.5195442"><ele>84.0</ele><time>2026-03-29T16:00:43.164Z</time></trkpt><trkpt lat="45.0157266" lon="9.5193223"><ele>83.33333333333333</ele><time>2026-03-29T16:00:44.165Z</time></trkpt><trkpt lat="45.015855" lon="9.5190785"><ele>82.66666666666666</ele><time>2026-03-29T16:00:45.165Z</time></trkpt><trkpt lat="45.0159876" lon="9.5188245"><ele>82.0</ele><time>2026-03-29T16:00:46.164Z</time></trkpt><trkpt lat="45.0161248" lon="9.5185715"><ele>82.0</ele><time>2026-03-29T16:00:47.164Z</time></trkpt><trkpt lat="45.0162607" lon="9.5183153"><ele>82.0</ele><time>2026-03-29T16:00:48.164Z</time></trkpt><trkpt lat="45.0163919" lon="9.5180677"><ele>82.0</ele><time>2026-03-29T16:00:49.165Z</time></trkpt><trkpt lat="45.0165256" lon="9.5178311"><ele>83.0</ele><time>2026-03-29T16:00:50.164Z</time></trkpt><trkpt lat="45.0166547" lon="9.5175925"><ele>84.0</ele><time>2026-03-29T16:00:51.164Z</time></trkpt><trkpt lat="45.0167909" lon="9.5173532"><ele>85.0</ele><time>2026-03-29T16:00:52.165Z</time></trkpt><trkpt lat="45.0169247" lon="9.5171154"><ele>85.33333333333333</ele><time>2026-03-29T16:00:53.165Z</time></trkpt><trkpt lat="45.0170548" lon="9.5168665"><ele>85.66666666666667</ele><time>2026-03-29T16:00:54.164Z</time></trkpt><trkpt lat="45.0171867" lon="9.5166171"><ele>86.0</ele><time>2026-03-29T16:00:55.165Z</time></trkpt><trkpt lat="45.0173266" lon="9.5163588"><ele>85.5</ele><time>2026-03-29T16:00:56.164Z</time></trkpt><trkpt lat="45.0174617" lon="9.5161014"><ele>85.0</ele><time>2026-03-29T16:00:57.165Z</time></trkpt><trkpt lat="45.0176026" lon="9.5158477"><ele>85.0</ele><time>2026-03-29T16:00:58.165Z</time></trkpt><trkpt lat="45.0177448" lon="9.5155889"><ele>85.0</ele><time>2026-03-29T16:00:59.164Z</time></trkpt><trkpt lat="45.0178852" lon="9.515328"><ele>85.0</ele><time>2026-03-29T16:01:00.165Z</time></trkpt><trkpt lat="45.0180206" lon="9.5150695"><ele>85.0</ele><time>2026-03-29T16:01:01.164Z</time></trkpt><trkpt lat="45.0181538" lon="9.5148047"><ele>85.0</ele><time>2026-03-29T16:01:02.165Z</time></trkpt><trkpt lat="45.0182688" lon="9.5145357"><ele>85.0</ele><time>2026-03-29T16:01:03.165Z</time></trkpt><trkpt lat="45.0183688" lon="9.514266"><ele>85.0</ele><time>2026-03-29T16:01:04.165Z</time></trkpt><trkpt lat="45.0184576" lon="9.5139831"><ele>84.33333333333333</ele><time>2026-03-29T16:01:05.164Z</time></trkpt><trkpt lat="45.0185322" lon="9.5137032"><ele>83.66666666666667</ele><time>2026-03-29T16:01:06.165Z</time></trkpt><trkpt lat="45.0185963" lon="9.5134169"><ele>83.0</ele><time>2026-03-29T16:01:07.164Z</time></trkpt><trkpt lat="45.0186496" lon="9.5131243"><ele>83.33333333333334</ele><time>2026-03-29T16:01:08.165Z</time></trkpt><trkpt lat="45.0186894" lon="9.5128295"><ele>83.66666666666667</ele><time>2026-03-29T16:01:09.165Z</time></trkpt><trkpt lat="45.0187222" lon="9.5125293"><ele>84.0</ele><time>2026-03-29T16:01:10.164Z</time></trkpt><trkpt lat="45.0187462" lon="9.5122172"><ele>83.66666666666667</ele><time>2026-03-29T16:01:11.165Z</time></trkpt><trkpt lat="45.0187495" lon="9.5119133"><ele>83.33333333333334</ele><time>2026-03-29T16:01:12.164Z</time></trkpt><trkpt lat="45.018751" lon="9.5116058"><ele>83.0</ele><time>2026-03-29T16:01:13.165Z</time></trkpt><trkpt lat="45.0187474" lon="9.5112942"><ele>83.33333333333334</ele><time>2026-03-29T16:01:14.164Z</time></trkpt><trkpt lat="45.0187395" lon="9.5109893"><ele>83.66666666666667</ele><time>2026-03-29T16:01:15.164Z</time></trkpt><trkpt lat="45.0187329" lon="9.5106992"><ele>84.0</ele><time>2026-03-29T16:01:16.164Z</time></trkpt><trkpt lat="45.0187255" lon="9.5104192"><ele>84.33333333333333</ele><time>2026-03-29T16:01:17.165Z</time></trkpt><trkpt lat="45.0187155" lon="9.5101479"><ele>84.66666666666666</ele><time>2026-03-29T16:01:18.165Z</time></trkpt><trkpt lat="45.0187049" lon="9.5098735"><ele>85.0</ele><time>2026-03-29T16:01:19.165Z</time></trkpt><trkpt lat="45.0186982" lon="9.5096049"><ele>85.33333333333333</ele><time>2026-03-29T16:01:20.165Z</time></trkpt><trkpt lat="45.0186924" lon="9.5093274"><ele>85.66666666666667</ele><time>2026-03-29T16:01:21.164Z</time></trkpt><trkpt lat="45.0186804" lon="9.5090488"><ele>86.0</ele><time>2026-03-29T16:01:22.165Z</time></trkpt><trkpt lat="45.018673" lon="9.5087684"><ele>86.0</ele><time>2026-03-29T16:01:23.165Z</time></trkpt><trkpt lat="45.0186622" lon="9.5084835"><ele>86.0</ele><time>2026-03-29T16:01:24.165Z</time></trkpt><trkpt lat="45.0186523" lon="9.5082062"><ele>86.0</ele><time>2026-03-29T16:01:25.165Z</time></trkpt><trkpt lat="45.0186486" lon="9.5079239"><ele>86.0</ele><time>2026-03-29T16:01:26.164Z</time></trkpt><trkpt lat="45.0186445" lon="9.5076445"><ele>86.0</ele><time>2026-03-29T16:01:27.164Z</time></trkpt><trkpt lat="45.0186363" lon="9.507369"><ele>86.0</ele><time>2026-03-29T16:01:28.165Z</time></trkpt><trkpt lat="45.0186253" lon="9.5070933"><ele>85.66666666666667</ele><time>2026-03-29T16:01:29.164Z</time></trkpt><trkpt lat="45.0186162" lon="9.5068269"><ele>85.33333333333333</ele><time>2026-03-29T16:01:30.165Z</time></trkpt><trkpt lat="45.018608" lon="9.5065784"><ele>85.0</ele><time>2026-03-29T16:01:31.165Z</time></trkpt><trkpt lat="45.018604" lon="9.5063109"><ele>85.66666666666666</ele><time>2026-03-29T16:01:32.165Z</time></trkpt><trkpt lat="45.0185931" lon="9.5060419"><ele>86.33333333333333</ele><time>2026-03-29T16:01:33.165Z</time></trkpt><trkpt lat="45.0185822" lon="9.5057689"><ele>87.0</ele><time>2026-03-29T16:01:34.165Z</time></trkpt><trkpt lat="45.0185755" lon="9.5054837"><ele>87.0</ele><time>2026-03-29T16:01:35.165Z</time></trkpt><trkpt lat="45.0185575" lon="9.5052037"><ele>87.0</ele><time>2026-03-29T16:01:36.164Z</time></trkpt><trkpt lat="45.018537" lon="9.5049135"><ele>87.0</ele><time>2026-03-29T16:01:37.165Z</time></trkpt><trkpt lat="45.0185061" lon="9.5046238"><ele>87.0</ele><time>2026-03-29T16:01:38.165Z</time></trkpt><trkpt lat="45.0184707" lon="9.5043322"><ele>87.0</ele><time>2026-03-29T16:01:39.165Z</time></trkpt><trkpt lat="45.0184299" lon="9.5040597"><ele>87.0</ele><time>2026-03-29T16:01:40.164Z</time></trkpt><trkpt lat="45.0183842" lon="9.5037882"><ele>87.33333333333333</ele><time>2026-03-29T16:01:41.165Z</time></trkpt><trkpt lat="45.0183385" lon="9.5035204"><ele>87.66666666666666</ele><time>2026-03-29T16:01:42.165Z</time></trkpt><trkpt lat="45.0182922" lon="9.5032638"><ele>88.0</ele><time>2026-03-29T16:01:43.165Z</time></trkpt><trkpt lat="45.018244" lon="9.5030037"><ele>88.33333333333333</ele><time>2026-03-29T16:01:44.165Z</time></trkpt><trkpt lat="45.0181931" lon="9.5027478"><ele>88.66666666666667</ele><time>2026-03-29T16:01:45.165Z</time></trkpt><trkpt lat="45.018147" lon="9.5024888"><ele>89.0</ele><time>2026-03-29T16:01:46.164Z</time></trkpt><trkpt lat="45.0181039" lon="9.5022274"><ele>89.33333333333334</ele><time>2026-03-29T16:01:47.165Z</time></trkpt><trkpt lat="45.018061" lon="9.5019646"><ele>89.66666666666667</ele><time>2026-03-29T16:01:48.164Z</time></trkpt><trkpt lat="45.0180159" lon="9.5017042"><ele>90.0</ele><time>2026-03-29T16:01:49.165Z</time></trkpt><trkpt lat="45.0179677" lon="9.5014399"><ele>90.66666666666667</ele><time>2026-03-29T16:01:50.165Z</time></trkpt><trkpt lat="45.01792" lon="9.5011821"><ele>91.33333333333334</ele><time>2026-03-29T16:01:51.164Z</time></trkpt><trkpt lat="45.0178746" lon="9.5009127"><ele>92.0</ele><time>2026-03-29T16:01:52.165Z</time></trkpt><trkpt lat="45.0178273" lon="9.5006497"><ele>92.0</ele><time>2026-03-29T16:01:53.165Z</time></trkpt><trkpt lat="45.0177806" lon="9.5003903"><ele>92.0</ele><time>2026-03-29T16:01:54.165Z</time></trkpt><trkpt lat="45.0177311" lon="9.5001204"><ele>92.0</ele><time>2026-03-29T16:01:55.164Z</time></trkpt><trkpt lat="45.0176844" lon="9.4998625"><ele>92.0</ele><time>2026-03-29T16:01:56.165Z</time></trkpt><trkpt lat="45.0176368" lon="9.4996"><ele>92.0</ele><time>2026-03-29T16:01:57.165Z</time></trkpt><trkpt lat="45.0175486" lon="9.4990858"><ele>91.5</ele><time>2026-03-29T16:01:59.74Z</time></trkpt><trkpt lat="45.0174546" lon="9.498552"><ele>91.0</ele><time>2026-03-29T16:02:01.38Z</time></trkpt><trkpt lat="45.0174059" lon="9.4982756"><ele>91.0</ele><time>2026-03-29T16:02:02.381Z</time></trkpt><trkpt lat="45.0173046" lon="9.4977131"><ele>91.0</ele><time>2026-03-29T16:02:04.346Z</time></trkpt><trkpt lat="45.0172541" lon="9.4974303"><ele>90.0</ele><time>2026-03-29T16:02:05.381Z</time></trkpt><trkpt lat="45.0171554" lon="9.4968708"><ele>89.0</ele><time>2026-03-29T16:02:07.385Z</time></trkpt><trkpt lat="45.0170571" lon="9.4963198"><ele>90.0</ele><time>2026-03-29T16:02:09.374Z</time></trkpt><trkpt lat="45.0169586" lon="9.4957656"><ele>91.0</ele><time>2026-03-29T16:02:11.363Z</time></trkpt><trkpt lat="45.0168572" lon="9.4952099"><ele>91.0</ele><time>2026-03-29T16:02:13.377Z</time></trkpt><trkpt lat="45.0167557" lon="9.4946548"><ele>91.0</ele><time>2026-03-29T16:02:15.357Z</time></trkpt><trkpt lat="45.0166549" lon="9.4941006"><ele>92.0</ele><time>2026-03-29T16:02:17.358Z</time></trkpt><trkpt lat="45.0165582" lon="9.493542"><ele>93.0</ele><time>2026-03-29T16:02:19.353Z</time></trkpt><trkpt lat="45.0164614" lon="9.4929835"><ele>92.66666666666667</ele><time>2026-03-29T16:02:21.354Z</time></trkpt><trkpt lat="45.0164114" lon="9.4927056"><ele>92.33333333333334</ele><time>2026-03-29T16:02:22.354Z</time></trkpt><trkpt lat="45.0163642" lon="9.4924279"><ele>92.0</ele><time>2026-03-29T16:02:23.354Z</time></trkpt><trkpt lat="45.0163234" lon="9.4921464"><ele>91.5</ele><time>2026-03-29T16:02:24.358Z</time></trkpt><trkpt lat="45.0162902" lon="9.4918623"><ele>91.0</ele><time>2026-03-29T16:02:25.397Z</time></trkpt><trkpt lat="45.0162459" lon="9.4912896"><ele>92.0</ele><time>2026-03-29T16:02:27.385Z</time></trkpt><trkpt lat="45.0162282" lon="9.4907161"><ele>93.0</ele><time>2026-03-29T16:02:29.362Z</time></trkpt><trkpt lat="45.0162272" lon="9.4901446"><ele>93.0</ele><time>2026-03-29T16:02:31.403Z</time></trkpt><trkpt lat="45.0162292" lon="9.4896065"><ele>93.0</ele><time>2026-03-29T16:02:33.398Z</time></trkpt><trkpt lat="45.0162286" lon="9.4890999"><ele>93.0</ele><time>2026-03-29T16:02:35.367Z</time></trkpt><trkpt lat="45.0162286" lon="9.4888481"><ele>93.0</ele><time>2026-03-29T16:02:36.378Z</time></trkpt><trkpt lat="45.0162284" lon="9.4885976"><ele>93.0</ele><time>2026-03-29T16:02:37.39Z</time></trkpt><trkpt lat="45.0162267" lon="9.4883489"><ele>93.0</ele><time>2026-03-29T16:02:38.39Z</time></trkpt><trkpt lat="45.0162237" lon="9.4878521"><ele>93.0</ele><time>2026-03-29T16:02:40.367Z</time></trkpt><trkpt lat="45.0162201" lon="9.4873493"><ele>93.0</ele><time>2026-03-29T16:02:42.362Z</time></trkpt><trkpt lat="45.0162189" lon="9.487095"><ele>93.0</ele><time>2026-03-29T16:02:43.365Z</time></trkpt><trkpt lat="45.0162162" lon="9.4865806"><ele>94.0</ele><time>2026-03-29T16:02:45.361Z</time></trkpt><trkpt lat="45.0162139" lon="9.4860569"><ele>95.0</ele><time>2026-03-29T16:02:47.365Z</time></trkpt><trkpt lat="45.0162142" lon="9.4855176"><ele>96.0</ele><time>2026-03-29T16:02:49.366Z</time></trkpt><trkpt lat="45.0162124" lon="9.4852453"><ele>97.0</ele><time>2026-03-29T16:02:50.411Z</time></trkpt><trkpt lat="45.0162096" lon="9.4847449"><ele>96.0</ele><time>2026-03-29T16:02:52.371Z</time></trkpt><trkpt lat="45.0162112" lon="9.4842909"><ele>95.0</ele><time>2026-03-29T16:02:54.375Z</time></trkpt><trkpt lat="45.0162127" lon="9.4838223"><ele>95.0</ele><time>2026-03-29T16:02:56.362Z</time></trkpt><trkpt lat="45.0162141" lon="9.4833428"><ele>95.0</ele><time>2026-03-29T16:02:58.37Z</time></trkpt><trkpt lat="45.0162112" lon="9.4828471"><ele>94.5</ele><time>2026-03-29T16:03:00.367Z</time></trkpt><trkpt lat="45.0162094" lon="9.4825909"><ele>94.0</ele><time>2026-03-29T16:03:01.376Z</time></trkpt><trkpt lat="45.0162064" lon="9.4820645"><ele>94.0</ele><time>2026-03-29T16:03:03.364Z</time></trkpt><trkpt lat="45.0162074" lon="9.4815199"><ele>94.0</ele><time>2026-03-29T16:03:05.355Z</time></trkpt><trkpt lat="45.0162102" lon="9.4812509"><ele>95.0</ele><time>2026-03-29T16:03:06.361Z</time></trkpt><trkpt lat="45.0162144" lon="9.4809943"><ele>96.0</ele><time>2026-03-29T16:03:07.372Z</time></trkpt><trkpt lat="45.0162276" lon="9.4805033"><ele>95.5</ele><time>2026-03-29T16:03:09.377Z</time></trkpt><trkpt lat="45.0162379" lon="9.4800003"><ele>95.0</ele><time>2026-03-29T16:03:11.366Z</time></trkpt><trkpt lat="45.0162469" lon="9.4797379"><ele>95.0</ele><time>2026-03-29T16:03:12.386Z</time></trkpt><trkpt lat="45.0162741" lon="9.4791865"><ele>95.0</ele><time>2026-03-29T16:03:14.37Z</time></trkpt><trkpt lat="45.0163034" lon="9.478606"><ele>96.0</ele><time>2026-03-29T16:03:16.365Z</time></trkpt><trkpt lat="45.0163179" lon="9.4783101"><ele>97.0</ele><time>2026-03-29T16:03:17.381Z</time></trkpt><trkpt lat="45.0163464" lon="9.4777244"><ele>96.5</ele><time>2026-03-29T16:03:19.371Z</time></trkpt><trkpt lat="45.0163696" lon="9.4771431"><ele>96.0</ele><time>2026-03-29T16:03:21.37Z</time></trkpt><trkpt lat="45.0163759" lon="9.476557"><ele>96.0</ele><time>2026-03-29T16:03:23.366Z</time></trkpt><trkpt lat="45.0163729" lon="9.4762631"><ele>96.0</ele><time>2026-03-29T16:03:24.367Z</time></trkpt><trkpt lat="45.0163674" lon="9.4759668"><ele>96.0</ele><time>2026-03-29T16:03:25.371Z</time></trkpt><trkpt lat="45.0163564" lon="9.4753726"><ele>96.0</ele><time>2026-03-29T16:03:27.388Z</time></trkpt><trkpt lat="45.0163444" lon="9.4748021"><ele>96.0</ele><time>2026-03-29T16:03:29.369Z</time></trkpt><trkpt lat="45.0163327" lon="9.4742304"><ele>96.0</ele><time>2026-03-29T16:03:31.365Z</time></trkpt><trkpt lat="45.0163284" lon="9.4739408"><ele>96.0</ele><time>2026-03-29T16:03:32.369Z</time></trkpt><trkpt lat="45.0163164" lon="9.4733568"><ele>96.0</ele><time>2026-03-29T16:03:34.383Z</time></trkpt><trkpt lat="45.0162992" lon="9.4727728"><ele>96.0</ele><time>2026-03-29T16:03:36.365Z</time></trkpt><trkpt lat="45.0162862" lon="9.4721798"><ele>96.5</ele><time>2026-03-29T16:03:38.357Z</time></trkpt><trkpt lat="45.0162847" lon="9.4718743"><ele>97.0</ele><time>2026-03-29T16:03:39.414Z</time></trkpt><trkpt lat="45.0162882" lon="9.4712821"><ele>97.0</ele><time>2026-03-29T16:03:41.359Z</time></trkpt><trkpt lat="45.0162896" lon="9.4709939"><ele>97.0</ele><time>2026-03-29T16:03:42.36Z</time></trkpt><trkpt lat="45.0162911" lon="9.4707081"><ele>97.0</ele><time>2026-03-29T16:03:43.361Z</time></trkpt><trkpt lat="45.0162927" lon="9.4704253"><ele>98.0</ele><time>2026-03-29T16:03:44.361Z</time></trkpt><trkpt lat="45.0162949" lon="9.470145"><ele>99.0</ele><time>2026-03-29T16:03:45.362Z</time></trkpt><trkpt lat="45.0162984" lon="9.4695906"><ele>99.5</ele><time>2026-03-29T16:03:47.362Z</time></trkpt><trkpt lat="45.0163014" lon="9.4690276"><ele>100.0</ele><time>2026-03-29T16:03:49.36Z</time></trkpt><trkpt lat="45.0163034" lon="9.4687414"><ele>101.0</ele><time>2026-03-29T16:03:50.377Z</time></trkpt><trkpt lat="45.0163092" lon="9.4681658"><ele>102.0</ele><time>2026-03-29T16:03:52.36Z</time></trkpt><trkpt lat="45.0163111" lon="9.4678771"><ele>102.0</ele><time>2026-03-29T16:03:53.361Z</time></trkpt><trkpt lat="45.0163116" lon="9.4675878"><ele>102.0</ele><time>2026-03-29T16:03:54.365Z</time></trkpt><trkpt lat="45.0163082" lon="9.4670078"><ele>102.5</ele><time>2026-03-29T16:03:56.366Z</time></trkpt><trkpt lat="45.0163062" lon="9.4664239"><ele>103.0</ele><time>2026-03-29T16:03:58.357Z</time></trkpt><trkpt lat="45.0163039" lon="9.4661286"><ele>103.0</ele><time>2026-03-29T16:03:59.371Z</time></trkpt><trkpt lat="45.0162997" lon="9.465535"><ele>103.0</ele><time>2026-03-29T16:04:01.362Z</time></trkpt><trkpt lat="45.0162961" lon="9.4649409"><ele>104.0</ele><time>2026-03-29T16:04:03.365Z</time></trkpt><trkpt lat="45.0162909" lon="9.4643726"><ele>105.0</ele><time>2026-03-29T16:04:05.404Z</time></trkpt><trkpt lat="45.0162879" lon="9.4638248"><ele>105.0</ele><time>2026-03-29T16:04:07.359Z</time></trkpt><trkpt lat="45.0162832" lon="9.4632784"><ele>105.0</ele><time>2026-03-29T16:04:09.36Z</time></trkpt><trkpt lat="45.0162796" lon="9.4629993"><ele>105.0</ele><time>2026-03-29T16:04:10.366Z</time></trkpt><trkpt lat="45.0162719" lon="9.4624228"><ele>105.0</ele><time>2026-03-29T16:04:12.369Z</time></trkpt><trkpt lat="45.0162669" lon="9.4618301"><ele>105.0</ele><time>2026-03-29T16:04:14.362Z</time></trkpt><trkpt lat="45.0162662" lon="9.4615314"><ele>105.0</ele><time>2026-03-29T16:04:15.366Z</time></trkpt><trkpt lat="45.0162661" lon="9.4612408"><ele>105.0</ele><time>2026-03-29T16:04:16.377Z</time></trkpt><trkpt lat="45.0162651" lon="9.4606795"><ele>105.0</ele><time>2026-03-29T16:04:18.372Z</time></trkpt><trkpt lat="45.0162627" lon="9.4601259"><ele>105.0</ele><time>2026-03-29T16:04:20.37Z</time></trkpt><trkpt lat="45.0162611" lon="9.4598533"><ele>105.5</ele><time>2026-03-29T16:04:21.375Z</time></trkpt><trkpt lat="45.0162561" lon="9.4593128"><ele>106.0</ele><time>2026-03-29T16:04:23.374Z</time></trkpt><trkpt lat="45.0162517" lon="9.4587751"><ele>105.0</ele><time>2026-03-29T16:04:25.372Z</time></trkpt><trkpt lat="45.0162501" lon="9.4585008"><ele>104.0</ele><time>2026-03-29T16:04:26.379Z</time></trkpt><trkpt lat="45.0162477" lon="9.4579439"><ele>104.0</ele><time>2026-03-29T16:04:28.37Z</time></trkpt><trkpt lat="45.0162472" lon="9.4576593"><ele>104.0</ele><time>2026-03-29T16:04:29.375Z</time></trkpt><trkpt lat="45.0162462" lon="9.4570744"><ele>103.5</ele><time>2026-03-29T16:04:31.374Z</time></trkpt><trkpt lat="45.0162432" lon="9.4564618"><ele>103.0</ele><time>2026-03-29T16:04:33.37Z</time></trkpt><trkpt lat="45.0162401" lon="9.4558294"><ele>103.5</ele><time>2026-03-29T16:04:35.376Z</time></trkpt><trkpt lat="45.0162411" lon="9.4552296"><ele>104.0</ele><time>2026-03-29T16:04:37.372Z</time></trkpt><trkpt lat="45.0162439" lon="9.4549508"><ele>105.0</ele><time>2026-03-29T16:04:38.375Z</time></trkpt><trkpt lat="45.0162501" lon="9.4544253"><ele>106.0</ele><time>2026-03-29T16:04:40.364Z</time></trkpt><trkpt lat="45.0162594" lon="9.4539274"><ele>106.0</ele><time>2026-03-29T16:04:42.359Z</time></trkpt><trkpt lat="45.0162641" lon="9.4536804"><ele>106.0</ele><time>2026-03-29T16:04:43.371Z</time></trkpt><trkpt lat="45.0162746" lon="9.4532061"><ele>106.0</ele><time>2026-03-29T16:04:45.359Z</time></trkpt><trkpt lat="45.0162797" lon="9.4529901"><ele>106.0</ele><time>2026-03-29T16:04:46.376Z</time></trkpt><trkpt lat="45.0162872" lon="9.4525896"><ele>106.0</ele><time>2026-03-29T16:04:48.359Z</time></trkpt><trkpt lat="45.0162896" lon="9.4523848"><ele>106.0</ele><time>2026-03-29T16:04:49.361Z</time></trkpt><trkpt lat="45.0162949" lon="9.4519758"><ele>106.0</ele><time>2026-03-29T16:04:51.356Z</time></trkpt><trkpt lat="45.0163007" lon="9.451769"><ele>106.0</ele><time>2026-03-29T16:04:52.358Z</time></trkpt><trkpt lat="45.0163067" lon="9.4515559"><ele>106.0</ele><time>2026-03-29T16:04:53.36Z</time></trkpt><trkpt lat="45.0163114" lon="9.4513378"><ele>106.0</ele><time>2026-03-29T16:04:54.384Z</time></trkpt><trkpt lat="45.0163186" lon="9.4509221"><ele>106.0</ele><time>2026-03-29T16:04:56.365Z</time></trkpt><trkpt lat="45.0163259" lon="9.4505336"><ele>106.66666666666667</ele><time>2026-03-29T16:04:58.365Z</time></trkpt><trkpt lat="45.0163342" lon="9.4501271"><ele>107.33333333333334</ele><time>2026-03-29T16:05:00.356Z</time></trkpt><trkpt lat="45.0163369" lon="9.4499261"><ele>108.0</ele><time>2026-03-29T16:05:01.387Z</time></trkpt><trkpt lat="45.0163387" lon="9.4495644"><ele>108.0</ele><time>2026-03-29T16:05:03.373Z</time></trkpt><trkpt lat="45.0163422" lon="9.4492555"><ele>108.0</ele><time>2026-03-29T16:05:05.362Z</time></trkpt><trkpt lat="45.0163437" lon="9.4491228"><ele>108.0</ele><time>2026-03-29T16:05:06.369Z</time></trkpt><trkpt lat="45.0163457" lon="9.4490039"><ele>108.0</ele><time>2026-03-29T16:05:07.385Z</time></trkpt><trkpt lat="45.0163459" lon="9.4488971"><ele>108.0</ele><time>2026-03-29T16:05:08.39Z</time></trkpt><trkpt lat="45.0163481" lon="9.4488023"><ele>108.0</ele><time>2026-03-29T16:05:09.392Z</time></trkpt><trkpt lat="45.0163681" lon="9.4486551"><ele>108.0</ele><time>2026-03-29T16:05:11.377Z</time></trkpt><trkpt lat="45.0163987" lon="9.4485555"><ele>108.0</ele><time>2026-03-29T16:05:13.388Z</time></trkpt><trkpt lat="45.0164746" lon="9.4484778"><ele>108.0</ele><time>2026-03-29T16:05:15.387Z</time></trkpt><trkpt lat="45.0165414" lon="9.4484569"><ele>108.0</ele><time>2026-03-29T16:05:16.394Z</time></trkpt><trkpt lat="45.0166281" lon="9.4484444"><ele>108.33333333333334</ele><time>2026-03-29T16:05:17.399Z</time></trkpt><trkpt lat="45.0168297" lon="9.4484263"><ele>108.66666666666667</ele><time>2026-03-29T16:05:19.378Z</time></trkpt><trkpt lat="45.0169251" lon="9.4484193"><ele>109.0</ele><time>2026-03-29T16:05:20.379Z</time></trkpt><trkpt lat="45.0171159" lon="9.4483959"><ele>109.0</ele><time>2026-03-29T16:05:22.378Z</time></trkpt><trkpt lat="45.0172129" lon="9.4483881"><ele>109.0</ele><time>2026-03-29T16:05:23.385Z</time></trkpt><trkpt lat="45.0173876" lon="9.4483741"><ele>109.0</ele><time>2026-03-29T16:05:25.384Z</time></trkpt><trkpt lat="45.0175069" lon="9.4483563"><ele>109.0</ele><time>2026-03-29T16:05:27.389Z</time></trkpt><trkpt lat="45.0176487" lon="9.4483435"><ele>108.33333333333334</ele><time>2026-03-29T16:05:29.382Z</time></trkpt><trkpt lat="45.0178236" lon="9.4483291"><ele>107.66666666666666</ele><time>2026-03-29T16:05:31.369Z</time></trkpt><trkpt lat="45.0179179" lon="9.4483209"><ele>107.0</ele><time>2026-03-29T16:05:32.377Z</time></trkpt><trkpt lat="45.0181106" lon="9.4482766"><ele>107.0</ele><time>2026-03-29T16:05:34.398Z</time></trkpt><trkpt lat="45.0182499" lon="9.4481548"><ele>106.99999999999999</ele><time>2026-03-29T16:05:36.38Z</time></trkpt><trkpt lat="45.0182929" lon="9.4480811"><ele>106.99999999999999</ele><time>2026-03-29T16:05:37.392Z</time></trkpt><trkpt lat="45.0183337" lon="9.4479426"><ele>107.0</ele><time>2026-03-29T16:05:39.401Z</time></trkpt><trkpt lat="45.0183464" lon="9.447791"><ele>107.0</ele><time>2026-03-29T16:05:42.38Z</time></trkpt><trkpt lat="45.0183464" lon="9.4476565"><ele>107.0</ele><time>2026-03-29T16:05:45.376Z</time></trkpt><trkpt lat="45.0183331" lon="9.4475181"><ele>106.99999999999999</ele><time>2026-03-29T16:05:47.384Z</time></trkpt><trkpt lat="45.0182679" lon="9.4474358"><ele>106.99999999999999</ele><time>2026-03-29T16:05:49.356Z</time></trkpt><trkpt lat="45.0181834" lon="9.4474358"><ele>107.0</ele><time>2026-03-29T16:05:51.361Z</time></trkpt><trkpt lat="45.0180122" lon="9.4474394"><ele>107.0</ele><time>2026-03-29T16:05:54.384Z</time></trkpt><trkpt lat="45.0178911" lon="9.4474251"><ele>107.6</ele><time>2026-03-29T16:05:56.352Z</time></trkpt><trkpt lat="45.0177661" lon="9.4474336"><ele>108.19999999999999</ele><time>2026-03-29T16:05:58.354Z</time></trkpt><trkpt lat="45.0176709" lon="9.4474836"><ele>108.8</ele><time>2026-03-29T16:06:00.333Z</time></trkpt><trkpt lat="45.0176084" lon="9.4476046"><ele>109.4</ele><time>2026-03-29T16:06:03.362Z</time></trkpt><trkpt lat="45.0175956" lon="9.4477308"><ele>110.0</ele><time>2026-03-29T16:06:06.379Z</time></trkpt><trkpt lat="45.0175864" lon="9.447835"><ele>109.99999999999999</ele><time>2026-03-29T16:06:09.37Z</time></trkpt><trkpt lat="45.0176282" lon="9.4479094"><ele>110.0</ele><time>2026-03-29T16:06:31.362Z</time></trkpt><trkpt lat="45.0176138" lon="9.448002"><ele>110.0</ele><time>2026-03-29T16:11:37.166Z</time></trkpt><trkpt lat="45.017572" lon="9.4480821"><ele>110.0</ele><time>2026-03-29T16:11:43.166Z</time></trkpt><trkpt lat="45.0175051" lon="9.4480868"><ele>110.0</ele><time>2026-03-29T16:11:48.165Z</time></trkpt><trkpt lat="45.0174394" lon="9.4480789"><ele>109.99999999999999</ele><time>2026-03-29T16:11:53.166Z</time></trkpt><trkpt lat="45.0173741" lon="9.4480686"><ele>110.0</ele><time>2026-03-29T16:11:58.164Z</time></trkpt><trkpt lat="45.0173057" lon="9.4480601"><ele>109.99999999999999</ele><time>2026-03-29T16:12:05.165Z</time></trkpt><trkpt lat="45.0173753" lon="9.4480581"><ele>110.0</ele><time>2026-03-29T16:13:38.184Z</time></trkpt><trkpt lat="45.0174426" lon="9.4480581"><ele>110.0</ele><time>2026-03-29T16:13:42.17Z</time></trkpt><trkpt lat="45.0175082" lon="9.4480386"><ele>110.0</ele><time>2026-03-29T16:13:48.167Z</time></trkpt><trkpt lat="45.017575" lon="9.448016"><ele>110.0</ele><time>2026-03-29T16:13:58.172Z</time></trkpt><trkpt lat="45.0176238" lon="9.4479551"><ele>109.99999999999999</ele><time>2026-03-29T16:14:11.167Z</time></trkpt><trkpt lat="45.0176141" lon="9.4480496"><ele>110.0</ele><time>2026-03-29T16:16:36.168Z</time></trkpt><trkpt lat="45.0176184" lon="9.4481487"><ele>109.99999999999999</ele><time>2026-03-29T16:16:41.172Z</time></trkpt><trkpt lat="45.0175942" lon="9.4480545"><ele>110.0</ele><time>2026-03-29T16:16:49.104Z</time></trkpt><trkpt lat="45.0175821" lon="9.447964"><ele>110.0</ele><time>2026-03-29T16:16:58.17Z</time></trkpt><trkpt lat="45.0176048" lon="9.4478742"><ele>110.0</ele><time>2026-03-29T16:19:46.166Z</time></trkpt><trkpt lat="45.0177102" lon="9.4478868"><ele>109.99999999999999</ele><time>2026-03-29T16:22:36.366Z</time></trkpt><trkpt lat="45.0177377" lon="9.4480016"><ele>110.0</ele><time>2026-03-29T16:22:39.375Z</time></trkpt><trkpt lat="45.0176492" lon="9.4480473"><ele>109.25</ele><time>2026-03-29T16:22:43.367Z</time></trkpt><trkpt lat="45.0175499" lon="9.4480783"><ele>108.5</ele><time>2026-03-29T16:23:13.377Z</time></trkpt><trkpt lat="45.0175114" lon="9.4481893"><ele>107.75</ele><time>2026-03-29T16:23:18.372Z</time></trkpt><trkpt lat="45.0176144" lon="9.4483133"><ele>107.0</ele><time>2026-03-29T16:23:22.379Z</time></trkpt><trkpt lat="45.0177942" lon="9.4483103"><ele>107.0</ele><time>2026-03-29T16:23:24.39Z</time></trkpt><trkpt lat="45.0179892" lon="9.4482838"><ele>107.0</ele><time>2026-03-29T16:23:26.378Z</time></trkpt><trkpt lat="45.0181527" lon="9.4482344"><ele>107.0</ele><time>2026-03-29T16:23:28.371Z</time></trkpt><trkpt lat="45.0182266" lon="9.4481725"><ele>107.0</ele><time>2026-03-29T16:23:29.378Z</time></trkpt><trkpt lat="45.0183231" lon="9.4479736"><ele>107.0</ele><time>2026-03-29T16:23:31.371Z</time></trkpt><trkpt lat="45.0183432" lon="9.4477458"><ele>107.0</ele><time>2026-03-29T16:23:33.368Z</time></trkpt><trkpt lat="45.0183432" lon="9.4476384"><ele>107.0</ele><time>2026-03-29T16:23:34.375Z</time></trkpt><trkpt lat="45.0183489" lon="9.4474451"><ele>107.0</ele><time>2026-03-29T16:23:36.385Z</time></trkpt><trkpt lat="45.0183546" lon="9.447266"><ele>107.33333333333333</ele><time>2026-03-29T16:23:38.356Z</time></trkpt><trkpt lat="45.0184209" lon="9.4470673"><ele>107.66666666666666</ele><time>2026-03-29T16:23:40.351Z</time></trkpt><trkpt lat="45.0184887" lon="9.4469781"><ele>108.0</ele><time>2026-03-29T16:23:41.375Z</time></trkpt><trkpt lat="45.0186741" lon="9.4468576"><ele>108.0</ele><time>2026-03-29T16:23:43.381Z</time></trkpt><trkpt lat="45.0188516" lon="9.4468051"><ele>108.0</ele><time>2026-03-29T16:23:45.365Z</time></trkpt><trkpt lat="45.0189156" lon="9.4467906"><ele>108.0</ele><time>2026-03-29T16:23:46.372Z</time></trkpt><trkpt lat="45.0190174" lon="9.4467621"><ele>108.0</ele><time>2026-03-29T16:23:48.36Z</time></trkpt><trkpt lat="45.0191379" lon="9.4467339"><ele>107.5</ele><time>2026-03-29T16:23:50.365Z</time></trkpt><trkpt lat="45.0193099" lon="9.446735"><ele>107.0</ele><time>2026-03-29T16:23:52.361Z</time></trkpt><trkpt lat="45.0194137" lon="9.4467456"><ele>106.5</ele><time>2026-03-29T16:23:53.361Z</time></trkpt><trkpt lat="45.0195271" lon="9.4467616"><ele>106.0</ele><time>2026-03-29T16:23:54.363Z</time></trkpt><trkpt lat="45.0196512" lon="9.4467788"><ele>106.0</ele><time>2026-03-29T16:23:55.363Z</time></trkpt><trkpt lat="45.0197874" lon="9.4467885"><ele>106.0</ele><time>2026-03-29T16:23:56.368Z</time></trkpt><trkpt lat="45.0200592" lon="9.4467976"><ele>106.0</ele><time>2026-03-29T16:23:58.368Z</time></trkpt><trkpt lat="45.0203189" lon="9.4468058"><ele>104.0</ele><time>2026-03-29T16:24:00.378Z</time></trkpt><trkpt lat="45.0205854" lon="9.4468139"><ele>102.0</ele><time>2026-03-29T16:24:02.376Z</time></trkpt><trkpt lat="45.0208656" lon="9.4468208"><ele>102.0</ele><time>2026-03-29T16:24:04.37Z</time></trkpt><trkpt lat="45.0210109" lon="9.4468248"><ele>102.0</ele><time>2026-03-29T16:24:05.431Z</time></trkpt><trkpt lat="45.0213174" lon="9.4468349"><ele>101.5</ele><time>2026-03-29T16:24:07.407Z</time></trkpt><trkpt lat="45.0216574" lon="9.4468446"><ele>101.0</ele><time>2026-03-29T16:24:09.372Z</time></trkpt><trkpt lat="45.0220136" lon="9.4468513"><ele>101.0</ele><time>2026-03-29T16:24:11.368Z</time></trkpt><trkpt lat="45.0223632" lon="9.4468585"><ele>101.0</ele><time>2026-03-29T16:24:13.363Z</time></trkpt><trkpt lat="45.0227161" lon="9.4468684"><ele>100.5</ele><time>2026-03-29T16:24:15.362Z</time></trkpt><trkpt lat="45.0228959" lon="9.4468739"><ele>100.0</ele><time>2026-03-29T16:24:16.372Z</time></trkpt><trkpt lat="45.0232701" lon="9.4468796"><ele>99.5</ele><time>2026-03-29T16:24:18.369Z</time></trkpt><trkpt lat="45.0236731" lon="9.4468884"><ele>99.0</ele><time>2026-03-29T16:24:20.368Z</time></trkpt><trkpt lat="45.0240686" lon="9.446892"><ele>98.66666666666666</ele><time>2026-03-29T16:24:22.363Z</time></trkpt><trkpt lat="45.0242561" lon="9.4468953"><ele>98.33333333333333</ele><time>2026-03-29T16:24:23.364Z</time></trkpt><trkpt lat="45.0244442" lon="9.4468984"><ele>98.0</ele><time>2026-03-29T16:24:24.366Z</time></trkpt><trkpt lat="45.0248269" lon="9.4469066"><ele>97.5</ele><time>2026-03-29T16:24:26.366Z</time></trkpt><trkpt lat="45.0250149" lon="9.4469088"><ele>97.0</ele><time>2026-03-29T16:24:27.369Z</time></trkpt><trkpt lat="45.0253766" lon="9.4469168"><ele>97.0</ele><time>2026-03-29T16:24:29.372Z</time></trkpt><trkpt lat="45.0257269" lon="9.4469226"><ele>97.0</ele><time>2026-03-29T16:24:31.364Z</time></trkpt><trkpt lat="45.0259024" lon="9.4469265"><ele>97.0</ele><time>2026-03-29T16:24:32.372Z</time></trkpt><trkpt lat="45.0262547" lon="9.4469344"><ele>97.0</ele><time>2026-03-29T16:24:34.365Z</time></trkpt><trkpt lat="45.0264351" lon="9.4469371"><ele>97.0</ele><time>2026-03-29T16:24:35.367Z</time></trkpt><trkpt lat="45.0266212" lon="9.4469404"><ele>97.0</ele><time>2026-03-29T16:24:36.371Z</time></trkpt><trkpt lat="45.0268066" lon="9.4469431"><ele>97.0</ele><time>2026-03-29T16:24:37.379Z</time></trkpt><trkpt lat="45.0271681" lon="9.446949"><ele>96.5</ele><time>2026-03-29T16:24:39.367Z</time></trkpt><trkpt lat="45.0273421" lon="9.4469541"><ele>96.0</ele><time>2026-03-29T16:24:40.372Z</time></trkpt><trkpt lat="45.0276944" lon="9.4469669"><ele>95.66666666666667</ele><time>2026-03-29T16:24:42.365Z</time></trkpt><trkpt lat="45.0278741" lon="9.4469724"><ele>95.33333333333334</ele><time>2026-03-29T16:24:43.37Z</time></trkpt><trkpt lat="45.0280489" lon="9.4469748"><ele>95.0</ele><time>2026-03-29T16:24:44.377Z</time></trkpt><trkpt lat="45.0284067" lon="9.4469793"><ele>95.0</ele><time>2026-03-29T16:24:46.365Z</time></trkpt><trkpt lat="45.0285927" lon="9.4469834"><ele>95.0</ele><time>2026-03-29T16:24:47.367Z</time></trkpt><trkpt lat="45.0289727" lon="9.4469899"><ele>95.0</ele><time>2026-03-29T16:24:49.368Z</time></trkpt><trkpt lat="45.0293621" lon="9.4469989"><ele>95.0</ele><time>2026-03-29T16:24:51.373Z</time></trkpt><trkpt lat="45.0297494" lon="9.4470086"><ele>95.0</ele><time>2026-03-29T16:24:53.368Z</time></trkpt><trkpt lat="45.0299394" lon="9.4470141"><ele>95.0</ele><time>2026-03-29T16:24:54.376Z</time></trkpt><trkpt lat="45.0302912" lon="9.4470269"><ele>95.0</ele><time>2026-03-29T16:24:56.388Z</time></trkpt><trkpt lat="45.0306086" lon="9.4470459"><ele>95.0</ele><time>2026-03-29T16:24:58.376Z</time></trkpt><trkpt lat="45.0309342" lon="9.4470668"><ele>94.5</ele><time>2026-03-29T16:25:00.372Z</time></trkpt><trkpt lat="45.0312731" lon="9.4470749"><ele>94.0</ele><time>2026-03-29T16:25:02.369Z</time></trkpt><trkpt lat="45.0316026" lon="9.4470796"><ele>93.5</ele><time>2026-03-29T16:25:04.365Z</time></trkpt><trkpt lat="45.0319372" lon="9.4470713"><ele>93.0</ele><time>2026-03-29T16:25:06.374Z</time></trkpt><trkpt lat="45.0321094" lon="9.4470651"><ele>93.0</ele><time>2026-03-29T16:25:07.377Z</time></trkpt><trkpt lat="45.0324432" lon="9.4470611"><ele>93.0</ele><time>2026-03-29T16:25:09.392Z</time></trkpt><trkpt lat="45.0327791" lon="9.4470651"><ele>92.5</ele><time>2026-03-29T16:25:11.389Z</time></trkpt><trkpt lat="45.0331089" lon="9.4470698"><ele>92.0</ele><time>2026-03-29T16:25:13.387Z</time></trkpt><trkpt lat="45.0334121" lon="9.447078"><ele>91.5</ele><time>2026-03-29T16:25:15.37Z</time></trkpt><trkpt lat="45.0337104" lon="9.4470836"><ele>91.0</ele><time>2026-03-29T16:25:17.37Z</time></trkpt><trkpt lat="45.0340266" lon="9.4470894"><ele>91.5</ele><time>2026-03-29T16:25:19.365Z</time></trkpt><trkpt lat="45.0343622" lon="9.4470951"><ele>92.0</ele><time>2026-03-29T16:25:21.369Z</time></trkpt><trkpt lat="45.0345386" lon="9.4471006"><ele>92.0</ele><time>2026-03-29T16:25:22.371Z</time></trkpt><trkpt lat="45.0349057" lon="9.4471091"><ele>92.0</ele><time>2026-03-29T16:25:24.37Z</time></trkpt><trkpt lat="45.0350954" lon="9.4471119"><ele>91.5</ele><time>2026-03-29T16:25:25.37Z</time></trkpt><trkpt lat="45.0352874" lon="9.4471161"><ele>91.0</ele><time>2026-03-29T16:25:26.373Z</time></trkpt><trkpt lat="45.0356819" lon="9.4471261"><ele>91.0</ele><time>2026-03-29T16:25:28.367Z</time></trkpt><trkpt lat="45.0361059" lon="9.4471336"><ele>91.0</ele><time>2026-03-29T16:25:30.376Z</time></trkpt><trkpt lat="45.0365704" lon="9.4471401"><ele>91.0</ele><time>2026-03-29T16:25:32.382Z</time></trkpt><trkpt lat="45.0370322" lon="9.4471434"><ele>91.0</ele><time>2026-03-29T16:25:34.375Z</time></trkpt><trkpt lat="45.0372364" lon="9.4471456"><ele>91.0</ele><time>2026-03-29T16:25:35.38Z</time></trkpt><trkpt lat="45.0374296" lon="9.4471506"><ele>91.0</ele><time>2026-03-29T16:25:36.384Z</time></trkpt><trkpt lat="45.0378544" lon="9.4471533"><ele>90.5</ele><time>2026-03-29T16:25:38.369Z</time></trkpt><trkpt lat="45.0381047" lon="9.447161"><ele>90.0</ele><time>2026-03-29T16:25:39.379Z</time></trkpt><trkpt lat="45.0386946" lon="9.4471728"><ele>87.0</ele><time>2026-03-29T16:25:41.372Z</time></trkpt><trkpt lat="45.0393079" lon="9.4471938"><ele>87.0</ele><time>2026-03-29T16:25:43.373Z</time></trkpt><trkpt lat="45.0399024" lon="9.4472133"><ele>87.0</ele><time>2026-03-29T16:25:45.366Z</time></trkpt><trkpt lat="45.0404947" lon="9.4472261"><ele>86.0</ele><time>2026-03-29T16:25:47.369Z</time></trkpt><trkpt lat="45.0411211" lon="9.4472404"><ele>86.0</ele><time>2026-03-29T16:25:49.369Z</time></trkpt><trkpt lat="45.0414357" lon="9.4472456"><ele>86.0</ele><time>2026-03-29T16:25:50.377Z</time></trkpt><trkpt lat="45.0420179" lon="9.4472538"><ele>86.0</ele><time>2026-03-29T16:25:52.366Z</time></trkpt><trkpt lat="45.0422999" lon="9.4472586"><ele>86.0</ele><time>2026-03-29T16:25:53.369Z</time></trkpt><trkpt lat="45.042576" lon="9.4472636"><ele>85.0</ele><time>2026-03-29T16:25:54.37Z</time></trkpt><trkpt lat="45.0428374" lon="9.4472706"><ele>84.0</ele><time>2026-03-29T16:25:55.379Z</time></trkpt><trkpt lat="45.0430804" lon="9.4472826"><ele>84.0</ele><time>2026-03-29T16:25:56.383Z</time></trkpt><trkpt lat="45.0433096" lon="9.4472984"><ele>84.0</ele><time>2026-03-29T16:25:57.398Z</time></trkpt><trkpt lat="45.0437466" lon="9.4473159"><ele>83.5</ele><time>2026-03-29T16:25:59.372Z</time></trkpt><trkpt lat="45.0441961" lon="9.4473196"><ele>83.0</ele><time>2026-03-29T16:26:01.381Z</time></trkpt><trkpt lat="45.0446367" lon="9.4473261"><ele>84.0</ele><time>2026-03-29T16:26:03.379Z</time></trkpt><trkpt lat="45.0450431" lon="9.4473305"><ele>85.0</ele><time>2026-03-29T16:26:05.413Z</time></trkpt><trkpt lat="45.0452332" lon="9.4473354"><ele>85.0</ele><time>2026-03-29T16:26:06.446Z</time></trkpt><trkpt lat="45.0455901" lon="9.4473406"><ele>85.0</ele><time>2026-03-29T16:26:08.366Z</time></trkpt><trkpt lat="45.0457576" lon="9.4473423"><ele>84.5</ele><time>2026-03-29T16:26:09.371Z</time></trkpt><trkpt lat="45.0460792" lon="9.447336"><ele>84.0</ele><time>2026-03-29T16:26:11.371Z</time></trkpt><trkpt lat="45.0463966" lon="9.4473308"><ele>83.0</ele><time>2026-03-29T16:26:13.362Z</time></trkpt><trkpt lat="45.0467279" lon="9.4473375"><ele>82.0</ele><time>2026-03-29T16:26:15.36Z</time></trkpt><trkpt lat="45.0470614" lon="9.4473371"><ele>82.0</ele><time>2026-03-29T16:26:17.363Z</time></trkpt><trkpt lat="45.0473767" lon="9.4473408"><ele>82.0</ele><time>2026-03-29T16:26:19.375Z</time></trkpt><trkpt lat="45.0475259" lon="9.4473434"><ele>82.5</ele><time>2026-03-29T16:26:20.376Z</time></trkpt><trkpt lat="45.0478219" lon="9.4473473"><ele>83.0</ele><time>2026-03-29T16:26:22.365Z</time></trkpt><trkpt lat="45.0479771" lon="9.4473496"><ele>82.0</ele><time>2026-03-29T16:26:23.366Z</time></trkpt><trkpt lat="45.0482986" lon="9.4473569"><ele>81.0</ele><time>2026-03-29T16:26:25.365Z</time></trkpt><trkpt lat="45.0486326" lon="9.4473514"><ele>81.0</ele><time>2026-03-29T16:26:27.373Z</time></trkpt><trkpt lat="45.0489569" lon="9.4473233"><ele>81.0</ele><time>2026-03-29T16:26:29.389Z</time></trkpt><trkpt lat="45.0492531" lon="9.447284"><ele>80.5</ele><time>2026-03-29T16:26:31.366Z</time></trkpt><trkpt lat="45.0495442" lon="9.4472351"><ele>80.0</ele><time>2026-03-29T16:26:33.367Z</time></trkpt><trkpt lat="45.0498396" lon="9.4471694"><ele>81.0</ele><time>2026-03-29T16:26:35.372Z</time></trkpt><trkpt lat="45.0501429" lon="9.4470824"><ele>82.0</ele><time>2026-03-29T16:26:37.37Z</time></trkpt><trkpt lat="45.0504489" lon="9.446984"><ele>82.0</ele><time>2026-03-29T16:26:39.376Z</time></trkpt><trkpt lat="45.0507309" lon="9.4468768"><ele>82.0</ele><time>2026-03-29T16:26:41.371Z</time></trkpt><trkpt lat="45.0509954" lon="9.446763"><ele>81.5</ele><time>2026-03-29T16:26:43.368Z</time></trkpt><trkpt lat="45.0512467" lon="9.4466434"><ele>81.0</ele><time>2026-03-29T16:26:45.371Z</time></trkpt><trkpt lat="45.0514959" lon="9.446516"><ele>81.0</ele><time>2026-03-29T16:26:47.368Z</time></trkpt><trkpt lat="45.0517499" lon="9.4463716"><ele>81.0</ele><time>2026-03-29T16:26:49.377Z</time></trkpt><trkpt lat="45.0520001" lon="9.4462113"><ele>80.5</ele><time>2026-03-29T16:26:51.375Z</time></trkpt><trkpt lat="45.0522382" lon="9.4460486"><ele>80.0</ele><time>2026-03-29T16:26:53.39Z</time></trkpt><trkpt lat="45.0524526" lon="9.4458928"><ele>80.0</ele><time>2026-03-29T16:26:55.367Z</time></trkpt><trkpt lat="45.0526444" lon="9.4457496"><ele>80.0</ele><time>2026-03-29T16:26:57.369Z</time></trkpt><trkpt lat="45.0528409" lon="9.4455943"><ele>80.0</ele><time>2026-03-29T16:26:59.382Z</time></trkpt><trkpt lat="45.0530539" lon="9.4454103"><ele>80.0</ele><time>2026-03-29T16:27:01.374Z</time></trkpt><trkpt lat="45.0532727" lon="9.4452016"><ele>80.0</ele><time>2026-03-29T16:27:03.377Z</time></trkpt><trkpt lat="45.0534887" lon="9.4449911"><ele>79.5</ele><time>2026-03-29T16:27:05.386Z</time></trkpt><trkpt lat="45.0536924" lon="9.4447789"><ele>79.0</ele><time>2026-03-29T16:27:07.387Z</time></trkpt><trkpt lat="45.0538799" lon="9.4445685"><ele>79.0</ele><time>2026-03-29T16:27:09.387Z</time></trkpt><trkpt lat="45.0540587" lon="9.4443568"><ele>79.0</ele><time>2026-03-29T16:27:11.366Z</time></trkpt><trkpt lat="45.0542446" lon="9.4441228"><ele>78.5</ele><time>2026-03-29T16:27:13.363Z</time></trkpt><trkpt lat="45.0544409" lon="9.443861"><ele>78.0</ele><time>2026-03-29T16:27:15.374Z</time></trkpt><trkpt lat="45.0546421" lon="9.4435821"><ele>78.0</ele><time>2026-03-29T16:27:17.406Z</time></trkpt><trkpt lat="45.0548461" lon="9.4432959"><ele>78.0</ele><time>2026-03-29T16:27:19.376Z</time></trkpt><trkpt lat="45.0550367" lon="9.4430156"><ele>77.0</ele><time>2026-03-29T16:27:21.37Z</time></trkpt><trkpt lat="45.0552071" lon="9.4427648"><ele>76.0</ele><time>2026-03-29T16:27:23.369Z</time></trkpt><trkpt lat="45.0553684" lon="9.4425299"><ele>76.0</ele><time>2026-03-29T16:27:25.365Z</time></trkpt><trkpt lat="45.0554496" lon="9.4424143"><ele>76.0</ele><time>2026-03-29T16:27:26.365Z</time></trkpt><trkpt lat="45.0556094" lon="9.4421789"><ele>76.0</ele><time>2026-03-29T16:27:28.361Z</time></trkpt><trkpt lat="45.0556924" lon="9.4420609"><ele>76.0</ele><time>2026-03-29T16:27:29.363Z</time></trkpt><trkpt lat="45.0557752" lon="9.4419386"><ele>76.0</ele><time>2026-03-29T16:27:30.364Z</time></trkpt><trkpt lat="45.0559454" lon="9.4416893"><ele>76.0</ele><time>2026-03-29T16:27:32.361Z</time></trkpt><trkpt lat="45.0560282" lon="9.4415643"><ele>76.0</ele><time>2026-03-29T16:27:33.364Z</time></trkpt><trkpt lat="45.0561089" lon="9.4414451"><ele>76.0</ele><time>2026-03-29T16:27:34.37Z</time></trkpt><trkpt lat="45.0561847" lon="9.4413333"><ele>76.0</ele><time>2026-03-29T16:27:35.371Z</time></trkpt><trkpt lat="45.0562554" lon="9.4412298"><ele>76.0</ele><time>2026-03-29T16:27:36.371Z</time></trkpt><trkpt lat="45.0563826" lon="9.4410436"><ele>76.5</ele><time>2026-03-29T16:27:38.368Z</time></trkpt><trkpt lat="45.0564462" lon="9.4409509"><ele>77.0</ele><time>2026-03-29T16:27:39.37Z</time></trkpt><trkpt lat="45.0565109" lon="9.4408531"><ele>77.5</ele><time>2026-03-29T16:27:40.376Z</time></trkpt><trkpt lat="45.0566389" lon="9.4406651"><ele>78.0</ele><time>2026-03-29T16:27:42.369Z</time></trkpt><trkpt lat="45.0567027" lon="9.4405738"><ele>76.33333333333333</ele><time>2026-03-29T16:27:43.383Z</time></trkpt><trkpt lat="45.0568297" lon="9.440391"><ele>74.66666666666666</ele><time>2026-03-29T16:27:45.365Z</time></trkpt><trkpt lat="45.0568934" lon="9.4402979"><ele>73.0</ele><time>2026-03-29T16:27:46.376Z</time></trkpt><trkpt lat="45.0570199" lon="9.4401055"><ele>73.0</ele><time>2026-03-29T16:27:48.396Z</time></trkpt><trkpt lat="45.0570799" lon="9.4400188"><ele>73.0</ele><time>2026-03-29T16:27:49.405Z</time></trkpt><trkpt lat="45.0571832" lon="9.4398738"><ele>73.0</ele><time>2026-03-29T16:27:51.37Z</time></trkpt><trkpt lat="45.0572281" lon="9.4398088"><ele>73.0</ele><time>2026-03-29T16:27:52.4Z</time></trkpt><trkpt lat="45.0573051" lon="9.4396893"><ele>73.0</ele><time>2026-03-29T16:27:54.375Z</time></trkpt><trkpt lat="45.0573612" lon="9.4396124"><ele>73.0</ele><time>2026-03-29T16:27:56.378Z</time></trkpt><trkpt lat="45.0574137" lon="9.4395306"><ele>73.0</ele><time>2026-03-29T16:28:01.387Z</time></trkpt><trkpt lat="45.0574687" lon="9.4394661"><ele>73.0</ele><time>2026-03-29T16:28:02.403Z</time></trkpt><trkpt lat="45.0576341" lon="9.4393443"><ele>73.0</ele><time>2026-03-29T16:28:04.37Z</time></trkpt><trkpt lat="45.0578689" lon="9.4392491"><ele>72.0</ele><time>2026-03-29T16:28:06.375Z</time></trkpt><trkpt lat="45.0580724" lon="9.4392293"><ele>71.0</ele><time>2026-03-29T16:28:08.367Z</time></trkpt><trkpt lat="45.0582244" lon="9.4392306"><ele>70.0</ele><time>2026-03-29T16:28:10.336Z</time></trkpt><trkpt lat="45.0583524" lon="9.4392389"><ele>70.0</ele><time>2026-03-29T16:28:13.333Z</time></trkpt><trkpt lat="45.0584939" lon="9.439269"><ele>70.0</ele><time>2026-03-29T16:28:19.35Z</time></trkpt><trkpt lat="45.0585797" lon="9.4393005"><ele>70.0</ele><time>2026-03-29T16:28:20.359Z</time></trkpt><trkpt lat="45.0586582" lon="9.4393253"><ele>70.0</ele><time>2026-03-29T16:28:21.37Z</time></trkpt><trkpt lat="45.0587279" lon="9.4393166"><ele>70.0</ele><time>2026-03-29T16:28:22.37Z</time></trkpt><trkpt lat="45.0588532" lon="9.4391888"><ele>70.0</ele><time>2026-03-29T16:28:24.363Z</time></trkpt><trkpt lat="45.0589416" lon="9.4391106"><ele>70.0</ele><time>2026-03-29T16:28:25.364Z</time></trkpt><trkpt lat="45.0591902" lon="9.4389709"><ele>70.0</ele><time>2026-03-29T16:28:27.359Z</time></trkpt><trkpt lat="45.0593339" lon="9.4389034"><ele>70.33333333333333</ele><time>2026-03-29T16:28:28.361Z</time></trkpt><trkpt lat="45.0594712" lon="9.4388415"><ele>70.66666666666667</ele><time>2026-03-29T16:28:29.365Z</time></trkpt><trkpt lat="45.0597224" lon="9.4387403"><ele>71.0</ele><time>2026-03-29T16:28:31.353Z</time></trkpt><trkpt lat="45.0598327" lon="9.4386983"><ele>70.66666666666667</ele><time>2026-03-29T16:28:32.353Z</time></trkpt><trkpt lat="45.0600174" lon="9.4386181"><ele>70.33333333333333</ele><time>2026-03-29T16:28:34.366Z</time></trkpt><trkpt lat="45.0601881" lon="9.4385668"><ele>70.0</ele><time>2026-03-29T16:28:36.355Z</time></trkpt><trkpt lat="45.0603619" lon="9.4385404"><ele>70.0</ele><time>2026-03-29T16:28:38.358Z</time></trkpt><trkpt lat="45.0604552" lon="9.4385153"><ele>70.0</ele><time>2026-03-29T16:28:39.372Z</time></trkpt><trkpt lat="45.0606582" lon="9.4385013"><ele>70.0</ele><time>2026-03-29T16:28:41.368Z</time></trkpt><trkpt lat="45.0607641" lon="9.4385246"><ele>70.0</ele><time>2026-03-29T16:28:42.387Z</time></trkpt><trkpt lat="45.0609596" lon="9.4385921"><ele>69.33333333333333</ele><time>2026-03-29T16:28:44.372Z</time></trkpt><trkpt lat="45.0611444" lon="9.4386539"><ele>68.66666666666667</ele><time>2026-03-29T16:28:46.358Z</time></trkpt><trkpt lat="45.0612446" lon="9.4386885"><ele>68.0</ele><time>2026-03-29T16:28:47.373Z</time></trkpt><trkpt lat="45.0614716" lon="9.4387704"><ele>69.66666666666667</ele><time>2026-03-29T16:28:49.362Z</time></trkpt><trkpt lat="45.0615837" lon="9.4388091"><ele>71.33333333333333</ele><time>2026-03-29T16:28:50.371Z</time></trkpt><trkpt lat="45.0618149" lon="9.4388909"><ele>73.0</ele><time>2026-03-29T16:28:52.361Z</time></trkpt><trkpt lat="45.0619366" lon="9.4389414"><ele>73.5</ele><time>2026-03-29T16:28:53.37Z</time></trkpt><trkpt lat="45.0621901" lon="9.4390879"><ele>74.0</ele><time>2026-03-29T16:28:55.369Z</time></trkpt><trkpt lat="45.0624431" lon="9.4393031"><ele>75.5</ele><time>2026-03-29T16:28:57.347Z</time></trkpt><trkpt lat="45.0626786" lon="9.4395779"><ele>77.0</ele><time>2026-03-29T16:28:59.349Z</time></trkpt><trkpt lat="45.0627869" lon="9.439726"><ele>77.0</ele><time>2026-03-29T16:29:00.355Z</time></trkpt><trkpt lat="45.0628862" lon="9.4398678"><ele>77.0</ele><time>2026-03-29T16:29:01.36Z</time></trkpt><trkpt lat="45.0629784" lon="9.4400036"><ele>77.0</ele><time>2026-03-29T16:29:02.36Z</time></trkpt><trkpt lat="45.0630657" lon="9.4401358"><ele>77.0</ele><time>2026-03-29T16:29:03.377Z</time></trkpt><trkpt lat="45.0632371" lon="9.4404066"><ele>76.33333333333334</ele><time>2026-03-29T16:29:05.372Z</time></trkpt><trkpt lat="45.0634016" lon="9.4407128"><ele>75.66666666666667</ele><time>2026-03-29T16:29:07.358Z</time></trkpt><trkpt lat="45.0634742" lon="9.4408738"><ele>75.0</ele><time>2026-03-29T16:29:08.362Z</time></trkpt><trkpt lat="45.0635991" lon="9.4412181"><ele>75.66666666666667</ele><time>2026-03-29T16:29:10.356Z</time></trkpt><trkpt lat="45.0637156" lon="9.441554"><ele>76.33333333333334</ele><time>2026-03-29T16:29:12.361Z</time></trkpt><trkpt lat="45.0637676" lon="9.4417091"><ele>77.0</ele><time>2026-03-29T16:29:13.368Z</time></trkpt><trkpt lat="45.0638542" lon="9.4419851"><ele>78.66666666666667</ele><time>2026-03-29T16:29:15.365Z</time></trkpt><trkpt lat="45.0639331" lon="9.4422456"><ele>80.33333333333333</ele><time>2026-03-29T16:29:17.356Z</time></trkpt><trkpt lat="45.0639752" lon="9.4423861"><ele>82.0</ele><time>2026-03-29T16:29:18.361Z</time></trkpt><trkpt lat="45.0640742" lon="9.4426928"><ele>80.0</ele><time>2026-03-29T16:29:20.352Z</time></trkpt><trkpt lat="45.0641276" lon="9.4428609"><ele>78.0</ele><time>2026-03-29T16:29:21.366Z</time></trkpt><trkpt lat="45.0642511" lon="9.4432121"><ele>76.0</ele><time>2026-03-29T16:29:23.368Z</time></trkpt><trkpt lat="45.0643301" lon="9.4433833"><ele>76.0</ele><time>2026-03-29T16:29:24.373Z</time></trkpt><trkpt lat="45.0645436" lon="9.4436919"><ele>76.0</ele><time>2026-03-29T16:29:26.361Z</time></trkpt><trkpt lat="45.0648347" lon="9.4438938"><ele>73.5</ele><time>2026-03-29T16:29:28.354Z</time></trkpt><trkpt lat="45.0651702" lon="9.4439764"><ele>71.0</ele><time>2026-03-29T16:29:30.344Z</time></trkpt><trkpt lat="45.0653471" lon="9.4439961"><ele>71.0</ele><time>2026-03-29T16:29:31.347Z</time></trkpt><trkpt lat="45.0655281" lon="9.4440155"><ele>71.0</ele><time>2026-03-29T16:29:32.348Z</time></trkpt><trkpt lat="45.0658952" lon="9.444065"><ele>69.33333333333334</ele><time>2026-03-29T16:29:34.343Z</time></trkpt><trkpt lat="45.0660751" lon="9.444091"><ele>67.66666666666667</ele><time>2026-03-29T16:29:35.349Z</time></trkpt><trkpt lat="45.0662484" lon="9.4441159"><ele>66.0</ele><time>2026-03-29T16:29:36.353Z</time></trkpt><trkpt lat="45.0664177" lon="9.4441383"><ele>65.0</ele><time>2026-03-29T16:29:37.361Z</time></trkpt><trkpt lat="45.0667552" lon="9.4441769"><ele>64.0</ele><time>2026-03-29T16:29:39.349Z</time></trkpt><trkpt lat="45.0669244" lon="9.4441953"><ele>64.0</ele><time>2026-03-29T16:29:40.354Z</time></trkpt><trkpt lat="45.0670912" lon="9.4442166"><ele>64.0</ele><time>2026-03-29T16:29:41.36Z</time></trkpt><trkpt lat="45.0674297" lon="9.4442663"><ele>64.0</ele><time>2026-03-29T16:29:43.355Z</time></trkpt><trkpt lat="45.0677597" lon="9.4443146"><ele>64.0</ele><time>2026-03-29T16:29:45.351Z</time></trkpt><trkpt lat="45.0679214" lon="9.4443395"><ele>64.0</ele><time>2026-03-29T16:29:46.353Z</time></trkpt><trkpt lat="45.0682512" lon="9.4443813"><ele>64.0</ele><time>2026-03-29T16:29:48.354Z</time></trkpt><trkpt lat="45.0684217" lon="9.4443974"><ele>64.0</ele><time>2026-03-29T16:29:49.363Z</time></trkpt><trkpt lat="45.0688044" lon="9.4444333"><ele>64.0</ele><time>2026-03-29T16:29:51.353Z</time></trkpt><trkpt lat="45.0692062" lon="9.4444974"><ele>63.5</ele><time>2026-03-29T16:29:53.357Z</time></trkpt><trkpt lat="45.0695397" lon="9.4445556"><ele>63.0</ele><time>2026-03-29T16:29:55.358Z</time></trkpt><trkpt lat="45.0696789" lon="9.4445798"><ele>63.0</ele><time>2026-03-29T16:29:56.357Z</time></trkpt><trkpt lat="45.0699252" lon="9.444631"><ele>63.0</ele><time>2026-03-29T16:29:58.375Z</time></trkpt><trkpt lat="45.0701422" lon="9.4446881"><ele>62.66666666666667</ele><time>2026-03-29T16:30:00.366Z</time></trkpt><trkpt lat="45.0702427" lon="9.4447223"><ele>62.333333333333336</ele><time>2026-03-29T16:30:01.371Z</time></trkpt><trkpt lat="45.0704394" lon="9.4448266"><ele>62.0</ele><time>2026-03-29T16:30:03.378Z</time></trkpt><trkpt lat="45.0706189" lon="9.4449995"><ele>62.0</ele><time>2026-03-29T16:30:05.359Z</time></trkpt><trkpt lat="45.0707007" lon="9.4451023"><ele>62.0</ele><time>2026-03-29T16:30:06.365Z</time></trkpt><trkpt lat="45.0708806" lon="9.4452733"><ele>62.0</ele><time>2026-03-29T16:30:08.364Z</time></trkpt><trkpt lat="45.0709849" lon="9.4453084"><ele>62.0</ele><time>2026-03-29T16:30:09.372Z</time></trkpt><trkpt lat="45.0710882" lon="9.4453036"><ele>61.66666666666667</ele><time>2026-03-29T16:30:10.376Z</time></trkpt><trkpt lat="45.0712967" lon="9.4452398"><ele>61.33333333333333</ele><time>2026-03-29T16:30:12.374Z</time></trkpt><trkpt lat="45.0715177" lon="9.4452171"><ele>61.0</ele><time>2026-03-29T16:30:14.366Z</time></trkpt><trkpt lat="45.0716301" lon="9.4452315"><ele>61.0</ele><time>2026-03-29T16:30:15.366Z</time></trkpt><trkpt lat="45.071868" lon="9.4453158"><ele>61.0</ele><time>2026-03-29T16:30:17.364Z</time></trkpt><trkpt lat="45.0721532" lon="9.4454526"><ele>60.0</ele><time>2026-03-29T16:30:19.366Z</time></trkpt><trkpt lat="45.0725259" lon="9.4456494"><ele>59.0</ele><time>2026-03-29T16:30:21.372Z</time></trkpt><trkpt lat="45.0727299" lon="9.4457613"><ele>59.0</ele><time>2026-03-29T16:30:22.372Z</time></trkpt><trkpt lat="45.07312" lon="9.4460128"><ele>59.0</ele><time>2026-03-29T16:30:24.363Z</time></trkpt><trkpt lat="45.0733094" lon="9.4461534"><ele>58.5</ele><time>2026-03-29T16:30:25.372Z</time></trkpt><trkpt lat="45.0734937" lon="9.4462985"><ele>58.0</ele><time>2026-03-29T16:30:26.374Z</time></trkpt><trkpt lat="45.0738311" lon="9.4465769"><ele>58.0</ele><time>2026-03-29T16:30:28.36Z</time></trkpt><trkpt lat="45.0739864" lon="9.4467154"><ele>58.0</ele><time>2026-03-29T16:30:29.363Z</time></trkpt><trkpt lat="45.0741404" lon="9.4468543"><ele>58.0</ele><time>2026-03-29T16:30:30.363Z</time></trkpt><trkpt lat="45.074296" lon="9.4469896"><ele>59.0</ele><time>2026-03-29T16:30:31.363Z</time></trkpt><trkpt lat="45.0746122" lon="9.4472526"><ele>60.0</ele><time>2026-03-29T16:30:33.357Z</time></trkpt><trkpt lat="45.0747697" lon="9.4473758"><ele>60.5</ele><time>2026-03-29T16:30:34.365Z</time></trkpt><trkpt lat="45.0750844" lon="9.4475969"><ele>61.0</ele><time>2026-03-29T16:30:36.376Z</time></trkpt><trkpt lat="45.0752396" lon="9.4476984"><ele>61.0</ele><time>2026-03-29T16:30:37.376Z</time></trkpt><trkpt lat="45.0753905" lon="9.4477963"><ele>61.0</ele><time>2026-03-29T16:30:38.389Z</time></trkpt><trkpt lat="45.0756872" lon="9.4479908"><ele>61.0</ele><time>2026-03-29T16:30:40.371Z</time></trkpt><trkpt lat="45.0758309" lon="9.4480831"><ele>61.0</ele><time>2026-03-29T16:30:41.395Z</time></trkpt><trkpt lat="45.0759709" lon="9.4481725"><ele>61.0</ele><time>2026-03-29T16:30:42.396Z</time></trkpt><trkpt lat="45.0762364" lon="9.4483459"><ele>61.0</ele><time>2026-03-29T16:30:44.361Z</time></trkpt><trkpt lat="45.0763689" lon="9.4484321"><ele>61.0</ele><time>2026-03-29T16:30:45.366Z</time></trkpt><trkpt lat="45.0766432" lon="9.4486123"><ele>61.0</ele><time>2026-03-29T16:30:47.363Z</time></trkpt><trkpt lat="45.0767885" lon="9.4487078"><ele>59.5</ele><time>2026-03-29T16:30:48.368Z</time></trkpt><trkpt lat="45.0770887" lon="9.4489009"><ele>58.0</ele><time>2026-03-29T16:30:50.361Z</time></trkpt><trkpt lat="45.0773829" lon="9.4490726"><ele>58.0</ele><time>2026-03-29T16:30:52.375Z</time></trkpt><trkpt lat="45.0776684" lon="9.4492084"><ele>58.0</ele><time>2026-03-29T16:30:54.371Z</time></trkpt><trkpt lat="45.0779586" lon="9.4493108"><ele>58.0</ele><time>2026-03-29T16:30:56.368Z</time></trkpt><trkpt lat="45.0781066" lon="9.4493495"><ele>58.0</ele><time>2026-03-29T16:30:57.367Z</time></trkpt><trkpt lat="45.0782554" lon="9.4493804"><ele>58.0</ele><time>2026-03-29T16:30:58.369Z</time></trkpt><trkpt lat="45.0785472" lon="9.4494173"><ele>57.0</ele><time>2026-03-29T16:31:00.362Z</time></trkpt><trkpt lat="45.0786914" lon="9.4494288"><ele>56.0</ele><time>2026-03-29T16:31:01.372Z</time></trkpt><trkpt lat="45.0788317" lon="9.4494426"><ele>55.0</ele><time>2026-03-29T16:31:02.372Z</time></trkpt><trkpt lat="45.0791142" lon="9.4494936"><ele>55.0</ele><time>2026-03-29T16:31:04.366Z</time></trkpt><trkpt lat="45.0794052" lon="9.4495676"><ele>55.0</ele><time>2026-03-29T16:31:06.366Z</time></trkpt><trkpt lat="45.0795517" lon="9.4496049"><ele>55.0</ele><time>2026-03-29T16:31:07.367Z</time></trkpt><trkpt lat="45.0798286" lon="9.4496751"><ele>54.666666666666664</ele><time>2026-03-29T16:31:09.366Z</time></trkpt><trkpt lat="45.0799534" lon="9.4497081"><ele>54.33333333333333</ele><time>2026-03-29T16:31:10.37Z</time></trkpt><trkpt lat="45.0801761" lon="9.4497683"><ele>54.0</ele><time>2026-03-29T16:31:12.372Z</time></trkpt><trkpt lat="45.0803749" lon="9.4498201"><ele>54.0</ele><time>2026-03-29T16:31:14.363Z</time></trkpt><trkpt lat="45.0804667" lon="9.4498566"><ele>54.00000000000001</ele><time>2026-03-29T16:31:15.373Z</time></trkpt><trkpt lat="45.0805465" lon="9.4499164"><ele>54.00000000000001</ele><time>2026-03-29T16:31:16.38Z</time></trkpt><trkpt lat="45.0806832" lon="9.4500561"><ele>54.0</ele><time>2026-03-29T16:31:18.364Z</time></trkpt><trkpt lat="45.0807559" lon="9.4500886"><ele>54.0</ele><time>2026-03-29T16:31:19.376Z</time></trkpt><trkpt lat="45.0809016" lon="9.4500441"><ele>54.0</ele><time>2026-03-29T16:31:21.364Z</time></trkpt><trkpt lat="45.080991" lon="9.4500221"><ele>54.0</ele><time>2026-03-29T16:31:22.371Z</time></trkpt><trkpt lat="45.0810824" lon="9.4500231"><ele>54.0</ele><time>2026-03-29T16:31:23.381Z</time></trkpt><trkpt lat="45.0812647" lon="9.4500646"><ele>54.0</ele><time>2026-03-29T16:31:25.361Z</time></trkpt><trkpt lat="45.0814901" lon="9.4501271"><ele>53.66666666666667</ele><time>2026-03-29T16:31:27.364Z</time></trkpt><trkpt lat="45.0816307" lon="9.4501621"><ele>53.333333333333336</ele><time>2026-03-29T16:31:28.364Z</time></trkpt><trkpt lat="45.0817886" lon="9.4501975"><ele>53.0</ele><time>2026-03-29T16:31:29.366Z</time></trkpt><trkpt lat="45.0821389" lon="9.4502699"><ele>52.5</ele><time>2026-03-29T16:31:31.366Z</time></trkpt><trkpt lat="45.0825209" lon="9.4503441"><ele>52.0</ele><time>2026-03-29T16:31:33.369Z</time></trkpt><trkpt lat="45.0827249" lon="9.4503818"><ele>52.5</ele><time>2026-03-29T16:31:34.369Z</time></trkpt><trkpt lat="45.0831694" lon="9.4504633"><ele>53.0</ele><time>2026-03-29T16:31:36.368Z</time></trkpt><trkpt lat="45.0836871" lon="9.4505656"><ele>53.0</ele><time>2026-03-29T16:31:38.366Z</time></trkpt><trkpt lat="45.0839817" lon="9.4506226"><ele>53.0</ele><time>2026-03-29T16:31:39.369Z</time></trkpt><trkpt lat="45.0842756" lon="9.4506789"><ele>52.0</ele><time>2026-03-29T16:31:40.37Z</time></trkpt><trkpt lat="45.0848434" lon="9.4507914"><ele>52.0</ele><time>2026-03-29T16:31:42.364Z</time></trkpt><trkpt lat="45.0851147" lon="9.4508408"><ele>52.0</ele><time>2026-03-29T16:31:43.392Z</time></trkpt><trkpt lat="45.0856317" lon="9.4509305"><ele>53.0</ele><time>2026-03-29T16:31:45.376Z</time></trkpt><trkpt lat="45.0858762" lon="9.4509756"><ele>54.0</ele><time>2026-03-29T16:31:46.382Z</time></trkpt><trkpt lat="45.0863369" lon="9.451065"><ele>53.5</ele><time>2026-03-29T16:31:48.385Z</time></trkpt><trkpt lat="45.0867682" lon="9.4511571"><ele>53.0</ele><time>2026-03-29T16:31:50.358Z</time></trkpt><trkpt lat="45.0872152" lon="9.4512318"><ele>52.0</ele><time>2026-03-29T16:31:52.364Z</time></trkpt><trkpt lat="45.0876751" lon="9.4512983"><ele>52.0</ele><time>2026-03-29T16:31:54.368Z</time></trkpt><trkpt lat="45.0881196" lon="9.4513561"><ele>52.0</ele><time>2026-03-29T16:31:56.367Z</time></trkpt><trkpt lat="45.0883154" lon="9.4513776"><ele>53.0</ele><time>2026-03-29T16:31:57.385Z</time></trkpt><trkpt lat="45.0886597" lon="9.4514188"><ele>54.0</ele><time>2026-03-29T16:31:59.384Z</time></trkpt><trkpt lat="45.0889785" lon="9.4514506"><ele>53.5</ele><time>2026-03-29T16:32:01.371Z</time></trkpt><trkpt lat="45.0892961" lon="9.4514726"><ele>53.0</ele><time>2026-03-29T16:32:03.367Z</time></trkpt><trkpt lat="45.0894552" lon="9.4514761"><ele>53.0</ele><time>2026-03-29T16:32:04.413Z</time></trkpt><trkpt lat="45.0897752" lon="9.451467"><ele>53.0</ele><time>2026-03-29T16:32:06.365Z</time></trkpt><trkpt lat="45.0899342" lon="9.4514571"><ele>53.0</ele><time>2026-03-29T16:32:07.368Z</time></trkpt><trkpt lat="45.0900926" lon="9.451445"><ele>53.0</ele><time>2026-03-29T16:32:08.375Z</time></trkpt><trkpt lat="45.090413" lon="9.4514229"><ele>53.0</ele><time>2026-03-29T16:32:10.37Z</time></trkpt><trkpt lat="45.090576" lon="9.4514108"><ele>53.0</ele><time>2026-03-29T16:32:11.37Z</time></trkpt><trkpt lat="45.0907386" lon="9.451397"><ele>53.0</ele><time>2026-03-29T16:32:12.373Z</time></trkpt><trkpt lat="45.0909001" lon="9.4513829"><ele>54.0</ele><time>2026-03-29T16:32:13.382Z</time></trkpt><trkpt lat="45.0912277" lon="9.4513591"><ele>55.0</ele><time>2026-03-29T16:32:15.368Z</time></trkpt><trkpt lat="45.0915577" lon="9.4513336"><ele>54.0</ele><time>2026-03-29T16:32:17.36Z</time></trkpt><trkpt lat="45.0917234" lon="9.4513191"><ele>53.0</ele><time>2026-03-29T16:32:18.364Z</time></trkpt><trkpt lat="45.0920444" lon="9.4512951"><ele>53.333333333333336</ele><time>2026-03-29T16:32:20.358Z</time></trkpt><trkpt lat="45.0922027" lon="9.4512843"><ele>53.66666666666667</ele><time>2026-03-29T16:32:21.36Z</time></trkpt><trkpt lat="45.0923642" lon="9.4512739"><ele>54.0</ele><time>2026-03-29T16:32:22.361Z</time></trkpt><trkpt lat="45.0925269" lon="9.4512643"><ele>52.0</ele><time>2026-03-29T16:32:23.362Z</time></trkpt><trkpt lat="45.0928552" lon="9.4512394"><ele>50.0</ele><time>2026-03-29T16:32:25.359Z</time></trkpt><trkpt lat="45.0930202" lon="9.4512298"><ele>47.5</ele><time>2026-03-29T16:32:26.367Z</time></trkpt><trkpt lat="45.0933447" lon="9.4512106"><ele>45.0</ele><time>2026-03-29T16:32:28.364Z</time></trkpt><trkpt lat="45.0935037" lon="9.4511996"><ele>45.0</ele><time>2026-03-29T16:32:29.367Z</time></trkpt><trkpt lat="45.0936621" lon="9.4511886"><ele>45.0</ele><time>2026-03-29T16:32:30.375Z</time></trkpt><trkpt lat="45.0939787" lon="9.4511656"><ele>45.0</ele><time>2026-03-29T16:32:32.37Z</time></trkpt><trkpt lat="45.0941405" lon="9.4511546"><ele>45.0</ele><time>2026-03-29T16:32:33.39Z</time></trkpt><trkpt lat="45.0944689" lon="9.4511271"><ele>45.0</ele><time>2026-03-29T16:32:35.359Z</time></trkpt><trkpt lat="45.0946332" lon="9.4511138"><ele>45.0</ele><time>2026-03-29T16:32:36.36Z</time></trkpt><trkpt lat="45.0947964" lon="9.4511004"><ele>45.0</ele><time>2026-03-29T16:32:37.362Z</time></trkpt><trkpt lat="45.0951192" lon="9.4510761"><ele>45.0</ele><time>2026-03-29T16:32:39.363Z</time></trkpt><trkpt lat="45.0954379" lon="9.4510571"><ele>45.0</ele><time>2026-03-29T16:32:41.358Z</time></trkpt><trkpt lat="45.0955979" lon="9.4510459"><ele>46.66666666666667</ele><time>2026-03-29T16:32:42.359Z</time></trkpt><trkpt lat="45.0957579" lon="9.4510348"><ele>48.333333333333336</ele><time>2026-03-29T16:32:43.36Z</time></trkpt><trkpt lat="45.0959181" lon="9.4510249"><ele>50.0</ele><time>2026-03-29T16:32:44.363Z</time></trkpt><trkpt lat="45.0960784" lon="9.4510136"><ele>50.0</ele><time>2026-03-29T16:32:45.364Z</time></trkpt><trkpt lat="45.0963989" lon="9.4509913"><ele>50.0</ele><time>2026-03-29T16:32:47.361Z</time></trkpt><trkpt lat="45.0965597" lon="9.4509808"><ele>53.0</ele><time>2026-03-29T16:32:48.362Z</time></trkpt><trkpt lat="45.0968806" lon="9.4509561"><ele>56.0</ele><time>2026-03-29T16:32:50.357Z</time></trkpt><trkpt lat="45.0970411" lon="9.4509415"><ele>56.0</ele><time>2026-03-29T16:32:51.365Z</time></trkpt><trkpt lat="45.0973602" lon="9.4509111"><ele>56.0</ele><time>2026-03-29T16:32:53.36Z</time></trkpt><trkpt lat="45.0976805" lon="9.4508874"><ele>55.5</ele><time>2026-03-29T16:32:55.357Z</time></trkpt><trkpt lat="45.0980016" lon="9.4508668"><ele>55.0</ele><time>2026-03-29T16:32:57.362Z</time></trkpt><trkpt lat="45.0983226" lon="9.4508458"><ele>54.666666666666664</ele><time>2026-03-29T16:32:59.357Z</time></trkpt><trkpt lat="45.0984822" lon="9.450835"><ele>54.33333333333333</ele><time>2026-03-29T16:33:00.358Z</time></trkpt><trkpt lat="45.0986427" lon="9.4508241"><ele>54.0</ele><time>2026-03-29T16:33:01.359Z</time></trkpt><trkpt lat="45.0988032" lon="9.4508126"><ele>54.0</ele><time>2026-03-29T16:33:02.36Z</time></trkpt><trkpt lat="45.0989639" lon="9.4508016"><ele>54.0</ele><time>2026-03-29T16:33:03.361Z</time></trkpt><trkpt lat="45.0991246" lon="9.4507899"><ele>54.0</ele><time>2026-03-29T16:33:04.362Z</time></trkpt><trkpt lat="45.0992851" lon="9.4507796"><ele>54.0</ele><time>2026-03-29T16:33:05.362Z</time></trkpt><trkpt lat="45.0996047" lon="9.4507583"><ele>54.0</ele><time>2026-03-29T16:33:07.361Z</time></trkpt><trkpt lat="45.0999234" lon="9.4507363"><ele>54.0</ele><time>2026-03-29T16:33:09.362Z</time></trkpt><trkpt lat="45.1002434" lon="9.4507139"><ele>54.0</ele><time>2026-03-29T16:33:11.36Z</time></trkpt><trkpt lat="45.1005639" lon="9.4506868"><ele>54.0</ele><time>2026-03-29T16:33:13.358Z</time></trkpt><trkpt lat="45.1007239" lon="9.4506739"><ele>54.0</ele><time>2026-03-29T16:33:14.357Z</time></trkpt><trkpt lat="45.1008839" lon="9.4506621"><ele>54.0</ele><time>2026-03-29T16:33:15.358Z</time></trkpt><trkpt lat="45.1010432" lon="9.4506485"><ele>53.5</ele><time>2026-03-29T16:33:16.365Z</time></trkpt><trkpt lat="45.1013629" lon="9.4506226"><ele>53.0</ele><time>2026-03-29T16:33:18.36Z</time></trkpt><trkpt lat="45.1016837" lon="9.4505991"><ele>53.0</ele><time>2026-03-29T16:33:20.371Z</time></trkpt><trkpt lat="45.102005" lon="9.4505783"><ele>53.0</ele><time>2026-03-29T16:33:22.362Z</time></trkpt><trkpt lat="45.1023274" lon="9.4505546"><ele>53.0</ele><time>2026-03-29T16:33:24.363Z</time></trkpt><trkpt lat="45.1024901" lon="9.4505459"><ele>53.0</ele><time>2026-03-29T16:33:25.376Z</time></trkpt><trkpt lat="45.1028132" lon="9.4505248"><ele>53.0</ele><time>2026-03-29T16:33:27.364Z</time></trkpt><trkpt lat="45.1031347" lon="9.4505008"><ele>53.0</ele><time>2026-03-29T16:33:29.362Z</time></trkpt><trkpt lat="45.1034536" lon="9.4504776"><ele>53.0</ele><time>2026-03-29T16:33:31.356Z</time></trkpt><trkpt lat="45.1036127" lon="9.4504665"><ele>53.0</ele><time>2026-03-29T16:33:32.357Z</time></trkpt><trkpt lat="45.1037719" lon="9.4504536"><ele>53.0</ele><time>2026-03-29T16:33:33.358Z</time></trkpt><trkpt lat="45.1039319" lon="9.4504433"><ele>54.0</ele><time>2026-03-29T16:33:34.361Z</time></trkpt><trkpt lat="45.1042524" lon="9.4504354"><ele>55.0</ele><time>2026-03-29T16:33:36.36Z</time></trkpt><trkpt lat="45.1044139" lon="9.4504353"><ele>55.0</ele><time>2026-03-29T16:33:37.363Z</time></trkpt><trkpt lat="45.1047602" lon="9.4504363"><ele>55.0</ele><time>2026-03-29T16:33:39.361Z</time></trkpt><trkpt lat="45.1051309" lon="9.4504373"><ele>53.5</ele><time>2026-03-29T16:33:41.361Z</time></trkpt><trkpt lat="45.1053177" lon="9.4504376"><ele>52.0</ele><time>2026-03-29T16:33:42.366Z</time></trkpt><trkpt lat="45.1056812" lon="9.4504388"><ele>51.0</ele><time>2026-03-29T16:33:44.365Z</time></trkpt><trkpt lat="45.1060145" lon="9.4504414"><ele>50.0</ele><time>2026-03-29T16:33:46.365Z</time></trkpt><trkpt lat="45.1063389" lon="9.4504451"><ele>50.0</ele><time>2026-03-29T16:33:48.361Z</time></trkpt><trkpt lat="45.1065044" lon="9.4504453"><ele>50.0</ele><time>2026-03-29T16:33:49.378Z</time></trkpt><trkpt lat="45.1068247" lon="9.4504413"><ele>49.5</ele><time>2026-03-29T16:33:51.369Z</time></trkpt><trkpt lat="45.1071417" lon="9.4504418"><ele>49.0</ele><time>2026-03-29T16:33:53.353Z</time></trkpt><trkpt lat="45.1073054" lon="9.4504423"><ele>50.0</ele><time>2026-03-29T16:33:54.36Z</time></trkpt><trkpt lat="45.107471" lon="9.4504433"><ele>51.0</ele><time>2026-03-29T16:33:55.363Z</time></trkpt><trkpt lat="45.1076389" lon="9.4504416"><ele>52.0</ele><time>2026-03-29T16:33:56.364Z</time></trkpt><trkpt lat="45.1079887" lon="9.4504463"><ele>51.0</ele><time>2026-03-29T16:33:58.37Z</time></trkpt><trkpt lat="45.1083559" lon="9.4504466"><ele>50.0</ele><time>2026-03-29T16:34:00.374Z</time></trkpt><trkpt lat="45.1087342" lon="9.4504561"><ele>50.0</ele><time>2026-03-29T16:34:02.373Z</time></trkpt><trkpt lat="45.1091167" lon="9.4504979"><ele>50.0</ele><time>2026-03-29T16:34:04.377Z</time></trkpt><trkpt lat="45.1092984" lon="9.4505339"><ele>50.0</ele><time>2026-03-29T16:34:05.408Z</time></trkpt><trkpt lat="45.1096372" lon="9.4506088"><ele>50.0</ele><time>2026-03-29T16:34:07.37Z</time></trkpt><trkpt lat="45.1099394" lon="9.4506568"><ele>50.333333333333336</ele><time>2026-03-29T16:34:09.368Z</time></trkpt><trkpt lat="45.1100622" lon="9.4506609"><ele>50.66666666666667</ele><time>2026-03-29T16:34:10.37Z</time></trkpt><trkpt lat="45.1102731" lon="9.4506456"><ele>51.0</ele><time>2026-03-29T16:34:12.37Z</time></trkpt><trkpt lat="45.1104804" lon="9.4507061"><ele>51.0</ele><time>2026-03-29T16:34:14.365Z</time></trkpt><trkpt lat="45.1106686" lon="9.4507309"><ele>51.0</ele><time>2026-03-29T16:34:16.372Z</time></trkpt><trkpt lat="45.1108469" lon="9.4505986"><ele>51.0</ele><time>2026-03-29T16:34:18.377Z</time></trkpt><trkpt lat="45.1109384" lon="9.4504848"><ele>51.33333333333333</ele><time>2026-03-29T16:34:19.4Z</time></trkpt><trkpt lat="45.1111782" lon="9.4503053"><ele>51.666666666666664</ele><time>2026-03-29T16:34:21.362Z</time></trkpt><trkpt lat="45.1113231" lon="9.4502358"><ele>52.0</ele><time>2026-03-29T16:34:22.385Z</time></trkpt><trkpt lat="45.1114682" lon="9.4501385"><ele>51.5</ele><time>2026-03-29T16:34:23.393Z</time></trkpt><trkpt lat="45.1117642" lon="9.4498343"><ele>51.0</ele><time>2026-03-29T16:34:25.355Z</time></trkpt><trkpt lat="45.1119229" lon="9.4496558"><ele>51.0</ele><time>2026-03-29T16:34:26.359Z</time></trkpt><trkpt lat="45.1120919" lon="9.4494699"><ele>51.0</ele><time>2026-03-29T16:34:27.361Z</time></trkpt><trkpt lat="45.1122704" lon="9.4492781"><ele>51.0</ele><time>2026-03-29T16:34:28.367Z</time></trkpt><trkpt lat="45.1126496" lon="9.4488849"><ele>48.0</ele><time>2026-03-29T16:34:30.355Z</time></trkpt><trkpt lat="45.1130454" lon="9.4484875"><ele>48.5</ele><time>2026-03-29T16:34:32.354Z</time></trkpt><trkpt lat="45.1132467" lon="9.4482869"><ele>49.0</ele><time>2026-03-29T16:34:33.355Z</time></trkpt><trkpt lat="45.1134504" lon="9.4480856"><ele>48.0</ele><time>2026-03-29T16:34:34.361Z</time></trkpt><trkpt lat="45.1138646" lon="9.447664"><ele>48.5</ele><time>2026-03-29T16:34:36.359Z</time></trkpt><trkpt lat="45.1140759" lon="9.4474469"><ele>49.0</ele><time>2026-03-29T16:34:37.364Z</time></trkpt><trkpt lat="45.1145014" lon="9.447019"><ele>49.0</ele><time>2026-03-29T16:34:39.354Z</time></trkpt><trkpt lat="45.1147056" lon="9.4468166"><ele>49.0</ele><time>2026-03-29T16:34:40.363Z</time></trkpt><trkpt lat="45.1150916" lon="9.4464339"><ele>47.0</ele><time>2026-03-29T16:34:42.354Z</time></trkpt><trkpt lat="45.1154912" lon="9.4460273"><ele>50.0</ele><time>2026-03-29T16:34:44.37Z</time></trkpt><trkpt lat="45.1159097" lon="9.4456036"><ele>49.0</ele><time>2026-03-29T16:34:46.35Z</time></trkpt><trkpt lat="45.1161232" lon="9.4453889"><ele>48.0</ele><time>2026-03-29T16:34:47.356Z</time></trkpt><trkpt lat="45.1163352" lon="9.4451773"><ele>48.0</ele><time>2026-03-29T16:34:48.368Z</time></trkpt><trkpt lat="45.1167461" lon="9.4447688"><ele>49.0</ele><time>2026-03-29T16:34:50.353Z</time></trkpt><trkpt lat="45.117156" lon="9.4443613"><ele>49.0</ele><time>2026-03-29T16:34:52.354Z</time></trkpt><trkpt lat="45.1173624" lon="9.4441561"><ele>49.0</ele><time>2026-03-29T16:34:53.358Z</time></trkpt><trkpt lat="45.1177782" lon="9.443743"><ele>49.0</ele><time>2026-03-29T16:34:55.351Z</time></trkpt><trkpt lat="45.1179881" lon="9.4435341"><ele>49.0</ele><time>2026-03-29T16:34:56.361Z</time></trkpt><trkpt lat="45.1184109" lon="9.4431101"><ele>48.0</ele><time>2026-03-29T16:34:58.347Z</time></trkpt><trkpt lat="45.1188397" lon="9.4426809"><ele>49.0</ele><time>2026-03-29T16:35:00.354Z</time></trkpt><trkpt lat="45.1192654" lon="9.4422546"><ele>49.0</ele><time>2026-03-29T16:35:02.365Z</time></trkpt><trkpt lat="45.1196637" lon="9.4418586"><ele>49.0</ele><time>2026-03-29T16:35:04.357Z</time></trkpt><trkpt lat="45.1200266" lon="9.4414916"><ele>49.0</ele><time>2026-03-29T16:35:06.353Z</time></trkpt><trkpt lat="45.1201957" lon="9.4413213"><ele>49.0</ele><time>2026-03-29T16:35:07.359Z</time></trkpt><trkpt lat="45.1205147" lon="9.441001"><ele>49.0</ele><time>2026-03-29T16:35:09.348Z</time></trkpt><trkpt lat="45.1206647" lon="9.4408516"><ele>49.5</ele><time>2026-03-29T16:35:10.36Z</time></trkpt><trkpt lat="45.1208082" lon="9.4407071"><ele>50.0</ele><time>2026-03-29T16:35:11.375Z</time></trkpt><trkpt lat="45.1210862" lon="9.4404269"><ele>50.0</ele><time>2026-03-29T16:35:13.348Z</time></trkpt><trkpt lat="45.1213754" lon="9.4401363"><ele>50.0</ele><time>2026-03-29T16:35:15.354Z</time></trkpt><trkpt lat="45.1215274" lon="9.4399863"><ele>49.66666666666667</ele><time>2026-03-29T16:35:16.355Z</time></trkpt><trkpt lat="45.1216806" lon="9.4398333"><ele>49.33333333333333</ele><time>2026-03-29T16:35:17.359Z</time></trkpt><trkpt lat="45.1218314" lon="9.4396823"><ele>49.0</ele><time>2026-03-29T16:35:18.382Z</time></trkpt><trkpt lat="45.1221279" lon="9.4393888"><ele>49.5</ele><time>2026-03-29T16:35:20.349Z</time></trkpt><trkpt lat="45.1224339" lon="9.4390854"><ele>50.0</ele><time>2026-03-29T16:35:22.361Z</time></trkpt><trkpt lat="45.1227486" lon="9.4387678"><ele>50.0</ele><time>2026-03-29T16:35:24.353Z</time></trkpt><trkpt lat="45.1229117" lon="9.4386023"><ele>50.0</ele><time>2026-03-29T16:35:25.372Z</time></trkpt><trkpt lat="45.1232401" lon="9.438272"><ele>50.0</ele><time>2026-03-29T16:35:27.36Z</time></trkpt><trkpt lat="45.1233957" lon="9.4381161"><ele>50.0</ele><time>2026-03-29T16:35:28.365Z</time></trkpt><trkpt lat="45.1236877" lon="9.4378248"><ele>50.0</ele><time>2026-03-29T16:35:30.367Z</time></trkpt><trkpt lat="45.123962" lon="9.4375515"><ele>50.0</ele><time>2026-03-29T16:35:32.364Z</time></trkpt><trkpt lat="45.1242226" lon="9.4372926"><ele>49.5</ele><time>2026-03-29T16:35:34.36Z</time></trkpt><trkpt lat="45.1244712" lon="9.4370444"><ele>49.0</ele><time>2026-03-29T16:35:36.361Z</time></trkpt><trkpt lat="45.1247369" lon="9.4367763"><ele>49.0</ele><time>2026-03-29T16:35:38.353Z</time></trkpt><trkpt lat="45.1248807" lon="9.4366325"><ele>49.0</ele><time>2026-03-29T16:35:39.361Z</time></trkpt><trkpt lat="45.1250332" lon="9.4364813"><ele>49.0</ele><time>2026-03-29T16:35:40.366Z</time></trkpt><trkpt lat="45.1251912" lon="9.4363231"><ele>49.5</ele><time>2026-03-29T16:35:41.374Z</time></trkpt><trkpt lat="45.1255254" lon="9.435989"><ele>50.0</ele><time>2026-03-29T16:35:43.362Z</time></trkpt><trkpt lat="45.1256979" lon="9.4358158"><ele>50.0</ele><time>2026-03-29T16:35:44.362Z</time></trkpt><trkpt lat="45.1258697" lon="9.435643"><ele>50.0</ele><time>2026-03-29T16:35:45.363Z</time></trkpt><trkpt lat="45.1262014" lon="9.4353098"><ele>50.0</ele><time>2026-03-29T16:35:47.357Z</time></trkpt><trkpt lat="45.1263602" lon="9.4351518"><ele>50.0</ele><time>2026-03-29T16:35:48.365Z</time></trkpt><trkpt lat="45.1265184" lon="9.4349925"><ele>50.0</ele><time>2026-03-29T16:35:49.379Z</time></trkpt><trkpt lat="45.1268411" lon="9.4346713"><ele>50.0</ele><time>2026-03-29T16:35:51.362Z</time></trkpt><trkpt lat="45.1271504" lon="9.4343618"><ele>50.0</ele><time>2026-03-29T16:35:53.354Z</time></trkpt><trkpt lat="45.1272969" lon="9.4342151"><ele>50.5</ele><time>2026-03-29T16:35:54.356Z</time></trkpt><trkpt lat="45.1275869" lon="9.4339223"><ele>51.0</ele><time>2026-03-29T16:35:56.35Z</time></trkpt><trkpt lat="45.1277252" lon="9.4337824"><ele>52.0</ele><time>2026-03-29T16:35:57.351Z</time></trkpt><trkpt lat="45.1278614" lon="9.4336464"><ele>53.0</ele><time>2026-03-29T16:35:58.351Z</time></trkpt><trkpt lat="45.1281341" lon="9.4333728"><ele>52.5</ele><time>2026-03-29T16:36:00.347Z</time></trkpt><trkpt lat="45.1282714" lon="9.4332346"><ele>52.0</ele><time>2026-03-29T16:36:01.365Z</time></trkpt><trkpt lat="45.1285431" lon="9.4329623"><ele>52.666666666666664</ele><time>2026-03-29T16:36:03.349Z</time></trkpt><trkpt lat="45.1286777" lon="9.4328284"><ele>53.33333333333333</ele><time>2026-03-29T16:36:04.354Z</time></trkpt><trkpt lat="45.1288074" lon="9.4326983"><ele>54.0</ele><time>2026-03-29T16:36:05.356Z</time></trkpt><trkpt lat="45.1289329" lon="9.4325741"><ele>54.0</ele><time>2026-03-29T16:36:06.39Z</time></trkpt><trkpt lat="45.1291819" lon="9.4323265"><ele>54.0</ele><time>2026-03-29T16:36:08.353Z</time></trkpt><trkpt lat="45.1294351" lon="9.4320729"><ele>54.66666666666667</ele><time>2026-03-29T16:36:10.352Z</time></trkpt><trkpt lat="45.1295614" lon="9.4319491"><ele>55.333333333333336</ele><time>2026-03-29T16:36:11.361Z</time></trkpt><trkpt lat="45.1296862" lon="9.4318244"><ele>56.0</ele><time>2026-03-29T16:36:12.392Z</time></trkpt><trkpt lat="45.1299384" lon="9.4315853"><ele>56.0</ele><time>2026-03-29T16:36:14.352Z</time></trkpt><trkpt lat="45.1301987" lon="9.4313539"><ele>56.0</ele><time>2026-03-29T16:36:16.347Z</time></trkpt><trkpt lat="45.1303364" lon="9.4312398"><ele>57.0</ele><time>2026-03-29T16:36:17.351Z</time></trkpt><trkpt lat="45.1304799" lon="9.4311265"><ele>58.0</ele><time>2026-03-29T16:36:18.352Z</time></trkpt><trkpt lat="45.1306307" lon="9.4310129"><ele>59.0</ele><time>2026-03-29T16:36:19.355Z</time></trkpt><trkpt lat="45.1307884" lon="9.4308983"><ele>59.0</ele><time>2026-03-29T16:36:20.358Z</time></trkpt><trkpt lat="45.1311184" lon="9.4306643"><ele>59.0</ele><time>2026-03-29T16:36:22.352Z</time></trkpt><trkpt lat="45.1312899" lon="9.4305443"><ele>59.5</ele><time>2026-03-29T16:36:23.354Z</time></trkpt><trkpt lat="45.1314681" lon="9.4304194"><ele>60.0</ele><time>2026-03-29T16:36:24.355Z</time></trkpt><trkpt lat="45.1318581" lon="9.4301466"><ele>60.5</ele><time>2026-03-29T16:36:26.361Z</time></trkpt><trkpt lat="45.1320674" lon="9.4299988"><ele>61.0</ele><time>2026-03-29T16:36:27.375Z</time></trkpt><trkpt lat="45.1324786" lon="9.4297174"><ele>60.5</ele><time>2026-03-29T16:36:29.357Z</time></trkpt><trkpt lat="45.1328865" lon="9.4294529"><ele>60.0</ele><time>2026-03-29T16:36:31.358Z</time></trkpt><trkpt lat="45.1330859" lon="9.4293233"><ele>60.5</ele><time>2026-03-29T16:36:32.361Z</time></trkpt><trkpt lat="45.1334589" lon="9.4290793"><ele>61.0</ele><time>2026-03-29T16:36:34.365Z</time></trkpt><trkpt lat="45.1338054" lon="9.4288469"><ele>63.0</ele><time>2026-03-29T16:36:36.366Z</time></trkpt><trkpt lat="45.1341529" lon="9.4286083"><ele>65.0</ele><time>2026-03-29T16:36:38.36Z</time></trkpt><trkpt lat="45.1345332" lon="9.4283463"><ele>65.0</ele><time>2026-03-29T16:36:40.362Z</time></trkpt><trkpt lat="45.1349544" lon="9.4280566"><ele>66.0</ele><time>2026-03-29T16:36:42.36Z</time></trkpt><trkpt lat="45.1354444" lon="9.4276921"><ele>66.0</ele><time>2026-03-29T16:36:44.366Z</time></trkpt><trkpt lat="45.1357091" lon="9.4274699"><ele>66.0</ele><time>2026-03-29T16:36:45.371Z</time></trkpt><trkpt lat="45.1361824" lon="9.4270149"><ele>66.5</ele><time>2026-03-29T16:36:47.366Z</time></trkpt><trkpt lat="45.1363747" lon="9.4268098"><ele>67.0</ele><time>2026-03-29T16:36:48.373Z</time></trkpt><trkpt lat="45.1366937" lon="9.4264698"><ele>66.0</ele><time>2026-03-29T16:36:50.366Z</time></trkpt><trkpt lat="45.1370115" lon="9.4261091"><ele>65.0</ele><time>2026-03-29T16:36:52.376Z</time></trkpt><trkpt lat="45.1374476" lon="9.4256478"><ele>65.0</ele><time>2026-03-29T16:36:54.361Z</time></trkpt><trkpt lat="45.1377034" lon="9.4253753"><ele>65.0</ele><time>2026-03-29T16:36:55.362Z</time></trkpt><trkpt lat="45.1382446" lon="9.4247823"><ele>65.0</ele><time>2026-03-29T16:36:57.358Z</time></trkpt><trkpt lat="45.1384979" lon="9.4245036"><ele>65.0</ele><time>2026-03-29T16:36:58.358Z</time></trkpt><trkpt lat="45.1389796" lon="9.4239761"><ele>64.5</ele><time>2026-03-29T16:37:00.354Z</time></trkpt><trkpt lat="45.1392182" lon="9.4237129"><ele>64.0</ele><time>2026-03-29T16:37:01.363Z</time></trkpt><trkpt lat="45.1394577" lon="9.4234485"><ele>67.0</ele><time>2026-03-29T16:37:02.37Z</time></trkpt><trkpt lat="45.1399402" lon="9.4229176"><ele>67.0</ele><time>2026-03-29T16:37:04.363Z</time></trkpt><trkpt lat="45.1404306" lon="9.4224211"><ele>67.0</ele><time>2026-03-29T16:37:06.402Z</time></trkpt><trkpt lat="45.1409367" lon="9.4219883"><ele>67.0</ele><time>2026-03-29T16:37:08.366Z</time></trkpt><trkpt lat="45.1411997" lon="9.4217941"><ele>67.0</ele><time>2026-03-29T16:37:09.376Z</time></trkpt><trkpt lat="45.1417489" lon="9.4214493"><ele>67.0</ele><time>2026-03-29T16:37:11.361Z</time></trkpt><trkpt lat="45.1420321" lon="9.4212934"><ele>67.0</ele><time>2026-03-29T16:37:12.368Z</time></trkpt><trkpt lat="45.1425851" lon="9.4209988"><ele>67.0</ele><time>2026-03-29T16:37:14.354Z</time></trkpt><trkpt lat="45.1431351" lon="9.4207046"><ele>67.0</ele><time>2026-03-29T16:37:16.359Z</time></trkpt><trkpt lat="45.1436939" lon="9.4204046"><ele>67.0</ele><time>2026-03-29T16:37:18.358Z</time></trkpt><trkpt lat="45.1442685" lon="9.4200913"><ele>67.0</ele><time>2026-03-29T16:37:20.353Z</time></trkpt><trkpt lat="45.1445602" lon="9.4199328"><ele>67.0</ele><time>2026-03-29T16:37:21.356Z</time></trkpt><trkpt lat="45.1448501" lon="9.4197728"><ele>67.0</ele><time>2026-03-29T16:37:22.369Z</time></trkpt><trkpt lat="45.1453889" lon="9.4194868"><ele>67.0</ele><time>2026-03-29T16:37:24.368Z</time></trkpt><trkpt lat="45.145864" lon="9.4192373"><ele>67.0</ele><time>2026-03-29T16:37:26.361Z</time></trkpt><trkpt lat="45.1461076" lon="9.4191046"><ele>67.0</ele><time>2026-03-29T16:37:27.362Z</time></trkpt><trkpt lat="45.1466231" lon="9.4188269"><ele>65.0</ele><time>2026-03-29T16:37:29.368Z</time></trkpt><trkpt lat="45.1471802" lon="9.4185513"><ele>65.5</ele><time>2026-03-29T16:37:31.356Z</time></trkpt><trkpt lat="45.1474702" lon="9.4184031"><ele>66.0</ele><time>2026-03-29T16:37:32.367Z</time></trkpt><trkpt lat="45.1480605" lon="9.4181056"><ele>68.0</ele><time>2026-03-29T16:37:34.364Z</time></trkpt><trkpt lat="45.148651" lon="9.4178118"><ele>68.0</ele><time>2026-03-29T16:37:36.372Z</time></trkpt><trkpt lat="45.1489475" lon="9.4176653"><ele>68.0</ele><time>2026-03-29T16:37:37.386Z</time></trkpt><trkpt lat="45.14954" lon="9.4173711"><ele>66.0</ele><time>2026-03-29T16:37:39.357Z</time></trkpt><trkpt lat="45.1501301" lon="9.4170798"><ele>66.0</ele><time>2026-03-29T16:37:41.357Z</time></trkpt><trkpt lat="45.1504245" lon="9.4169331"><ele>66.0</ele><time>2026-03-29T16:37:42.36Z</time></trkpt><trkpt lat="45.15099" lon="9.4166521"><ele>67.0</ele><time>2026-03-29T16:37:44.37Z</time></trkpt><trkpt lat="45.1514979" lon="9.4163941"><ele>67.0</ele><time>2026-03-29T16:37:46.366Z</time></trkpt><trkpt lat="45.1517271" lon="9.4162668"><ele>67.0</ele><time>2026-03-29T16:37:47.367Z</time></trkpt><trkpt lat="45.1519431" lon="9.4161238"><ele>67.0</ele><time>2026-03-29T16:37:48.369Z</time></trkpt><trkpt lat="45.1521506" lon="9.4159611"><ele>67.0</ele><time>2026-03-29T16:37:49.369Z</time></trkpt><trkpt lat="45.1525356" lon="9.4156148"><ele>67.0</ele><time>2026-03-29T16:37:51.366Z</time></trkpt><trkpt lat="45.1528637" lon="9.4152956"><ele>67.0</ele><time>2026-03-29T16:37:53.364Z</time></trkpt><trkpt lat="45.1530134" lon="9.4151498"><ele>69.5</ele><time>2026-03-29T16:37:54.368Z</time></trkpt><trkpt lat="45.1532999" lon="9.4148731"><ele>72.0</ele><time>2026-03-29T16:37:56.361Z</time></trkpt><trkpt lat="45.1534452" lon="9.4147335"><ele>71.0</ele><time>2026-03-29T16:37:57.361Z</time></trkpt><trkpt lat="45.1535954" lon="9.414588"><ele>70.0</ele><time>2026-03-29T16:37:58.362Z</time></trkpt><trkpt lat="45.1537504" lon="9.4144376"><ele>69.0</ele><time>2026-03-29T16:37:59.363Z</time></trkpt><trkpt lat="45.1540764" lon="9.4141204"><ele>69.0</ele><time>2026-03-29T16:38:01.358Z</time></trkpt><trkpt lat="45.1542436" lon="9.4139569"><ele>69.0</ele><time>2026-03-29T16:38:02.376Z</time></trkpt><trkpt lat="45.1545809" lon="9.4136248"><ele>69.5</ele><time>2026-03-29T16:38:04.361Z</time></trkpt><trkpt lat="45.1547489" lon="9.4134616"><ele>70.0</ele><time>2026-03-29T16:38:05.363Z</time></trkpt><trkpt lat="45.155076" lon="9.4131433"><ele>70.0</ele><time>2026-03-29T16:38:07.356Z</time></trkpt><trkpt lat="45.1552309" lon="9.4129905"><ele>70.0</ele><time>2026-03-29T16:38:08.357Z</time></trkpt><trkpt lat="45.1553832" lon="9.4128399"><ele>70.0</ele><time>2026-03-29T16:38:09.358Z</time></trkpt><trkpt lat="45.1556872" lon="9.4125426"><ele>69.0</ele><time>2026-03-29T16:38:11.367Z</time></trkpt><trkpt lat="45.1558359" lon="9.4123966"><ele>68.0</ele><time>2026-03-29T16:38:12.371Z</time></trkpt><trkpt lat="45.1561272" lon="9.4121138"><ele>68.0</ele><time>2026-03-29T16:38:14.363Z</time></trkpt><trkpt lat="45.1562676" lon="9.4119773"><ele>68.0</ele><time>2026-03-29T16:38:15.367Z</time></trkpt><trkpt lat="45.1565459" lon="9.4117074"><ele>68.0</ele><time>2026-03-29T16:38:17.367Z</time></trkpt><trkpt lat="45.1568099" lon="9.4114461"><ele>68.0</ele><time>2026-03-29T16:38:19.358Z</time></trkpt><trkpt lat="45.1569367" lon="9.4113226"><ele>68.0</ele><time>2026-03-29T16:38:20.36Z</time></trkpt><trkpt lat="45.1570616" lon="9.4111998"><ele>68.0</ele><time>2026-03-29T16:38:21.367Z</time></trkpt><trkpt lat="45.1571881" lon="9.4110773"><ele>68.0</ele><time>2026-03-29T16:38:22.368Z</time></trkpt><trkpt lat="45.1574404" lon="9.4108318"><ele>67.66666666666667</ele><time>2026-03-29T16:38:24.362Z</time></trkpt><trkpt lat="45.1575621" lon="9.4107096"><ele>67.33333333333333</ele><time>2026-03-29T16:38:25.367Z</time></trkpt><trkpt lat="45.1577947" lon="9.4104834"><ele>67.0</ele><time>2026-03-29T16:38:27.361Z</time></trkpt><trkpt lat="45.1580091" lon="9.4102723"><ele>67.0</ele><time>2026-03-29T16:38:29.361Z</time></trkpt><trkpt lat="45.1581096" lon="9.4101718"><ele>67.0</ele><time>2026-03-29T16:38:30.362Z</time></trkpt><trkpt lat="45.1582052" lon="9.4100768"><ele>67.0</ele><time>2026-03-29T16:38:31.376Z</time></trkpt><trkpt lat="45.1582969" lon="9.4099878"><ele>67.0</ele><time>2026-03-29T16:38:32.378Z</time></trkpt><trkpt lat="45.1584797" lon="9.4098053"><ele>67.5</ele><time>2026-03-29T16:38:34.369Z</time></trkpt><trkpt lat="45.1585746" lon="9.4097125"><ele>68.0</ele><time>2026-03-29T16:38:35.37Z</time></trkpt><trkpt lat="45.1586737" lon="9.4096315"><ele>68.5</ele><time>2026-03-29T16:38:36.371Z</time></trkpt><trkpt lat="45.1588786" lon="9.4095401"><ele>69.0</ele><time>2026-03-29T16:38:38.363Z</time></trkpt><trkpt lat="45.1590154" lon="9.4095771"><ele>69.0</ele><time>2026-03-29T16:38:40.362Z</time></trkpt><trkpt lat="45.1591091" lon="9.4096891"><ele>69.0</ele><time>2026-03-29T16:38:42.376Z</time></trkpt><trkpt lat="45.1591802" lon="9.4097506"><ele>69.0</ele><time>2026-03-29T16:38:43.377Z</time></trkpt><trkpt lat="45.1593327" lon="9.409762"><ele>69.0</ele><time>2026-03-29T16:38:45.383Z</time></trkpt><trkpt lat="45.1594347" lon="9.4095738"><ele>68.66666666666667</ele><time>2026-03-29T16:38:47.379Z</time></trkpt><trkpt lat="45.1594824" lon="9.4094525"><ele>68.33333333333334</ele><time>2026-03-29T16:38:48.392Z</time></trkpt><trkpt lat="45.1596317" lon="9.4092463"><ele>68.0</ele><time>2026-03-29T16:38:50.368Z</time></trkpt><trkpt lat="45.159864" lon="9.4091036"><ele>68.0</ele><time>2026-03-29T16:38:52.363Z</time></trkpt><trkpt lat="45.1600109" lon="9.4090378"><ele>68.0</ele><time>2026-03-29T16:38:53.369Z</time></trkpt><trkpt lat="45.1601636" lon="9.4089656"><ele>68.0</ele><time>2026-03-29T16:38:54.414Z</time></trkpt><trkpt lat="45.1604761" lon="9.4088223"><ele>68.0</ele><time>2026-03-29T16:38:56.37Z</time></trkpt><trkpt lat="45.1608017" lon="9.4086739"><ele>68.0</ele><time>2026-03-29T16:38:58.365Z</time></trkpt><trkpt lat="45.1609716" lon="9.4085968"><ele>68.0</ele><time>2026-03-29T16:38:59.366Z</time></trkpt><trkpt lat="45.1611477" lon="9.4085165"><ele>68.0</ele><time>2026-03-29T16:39:00.37Z</time></trkpt><trkpt lat="45.1613264" lon="9.4084308"><ele>68.0</ele><time>2026-03-29T16:39:01.37Z</time></trkpt><trkpt lat="45.1617006" lon="9.4082411"><ele>67.5</ele><time>2026-03-29T16:39:03.352Z</time></trkpt><trkpt lat="45.1618945" lon="9.4081338"><ele>67.0</ele><time>2026-03-29T16:39:04.356Z</time></trkpt><trkpt lat="45.1622924" lon="9.4078716"><ele>67.5</ele><time>2026-03-29T16:39:06.359Z</time></trkpt><trkpt lat="45.1624881" lon="9.4077241"><ele>68.0</ele><time>2026-03-29T16:39:07.362Z</time></trkpt><trkpt lat="45.1628541" lon="9.4073945"><ele>68.0</ele><time>2026-03-29T16:39:09.358Z</time></trkpt><trkpt lat="45.1630246" lon="9.4072049"><ele>68.0</ele><time>2026-03-29T16:39:10.362Z</time></trkpt><trkpt lat="45.1631869" lon="9.4069991"><ele>68.0</ele><time>2026-03-29T16:39:11.365Z</time></trkpt><trkpt lat="45.1634869" lon="9.4065308"><ele>67.5</ele><time>2026-03-29T16:39:13.367Z</time></trkpt><trkpt lat="45.1636247" lon="9.4062721"><ele>67.0</ele><time>2026-03-29T16:39:14.376Z</time></trkpt><trkpt lat="45.1637521" lon="9.4059986"><ele>68.0</ele><time>2026-03-29T16:39:15.382Z</time></trkpt><trkpt lat="45.1639724" lon="9.4054151"><ele>67.5</ele><time>2026-03-29T16:39:17.36Z</time></trkpt><trkpt lat="45.1640622" lon="9.4051049"><ele>67.0</ele><time>2026-03-29T16:39:18.36Z</time></trkpt><trkpt lat="45.1642022" lon="9.4044544"><ele>67.0</ele><time>2026-03-29T16:39:20.357Z</time></trkpt><trkpt lat="45.1642591" lon="9.4041068"><ele>67.0</ele><time>2026-03-29T16:39:21.369Z</time></trkpt><trkpt lat="45.1643622" lon="9.403372"><ele>68.0</ele><time>2026-03-29T16:39:23.358Z</time></trkpt><trkpt lat="45.1644156" lon="9.4029929"><ele>69.0</ele><time>2026-03-29T16:39:24.379Z</time></trkpt><trkpt lat="45.1644691" lon="9.402604"><ele>70.0</ele><time>2026-03-29T16:39:25.412Z</time></trkpt><trkpt lat="45.1645802" lon="9.4017971"><ele>70.0</ele><time>2026-03-29T16:39:27.359Z</time></trkpt><trkpt lat="45.1646359" lon="9.4013844"><ele>70.0</ele><time>2026-03-29T16:39:28.364Z</time></trkpt><trkpt lat="45.1646917" lon="9.4009669"><ele>67.0</ele><time>2026-03-29T16:39:29.376Z</time></trkpt><trkpt lat="45.1648077" lon="9.4001206"><ele>67.5</ele><time>2026-03-29T16:39:31.359Z</time></trkpt><trkpt lat="45.1648669" lon="9.3996914"><ele>68.0</ele><time>2026-03-29T16:39:32.358Z</time></trkpt><trkpt lat="45.1649244" lon="9.3992534"><ele>68.0</ele><time>2026-03-29T16:39:33.361Z</time></trkpt><trkpt lat="45.1650407" lon="9.3983666"><ele>67.0</ele><time>2026-03-29T16:39:35.355Z</time></trkpt><trkpt lat="45.1651572" lon="9.3974761"><ele>67.0</ele><time>2026-03-29T16:39:37.352Z</time></trkpt><trkpt lat="45.1652157" lon="9.3970298"><ele>67.0</ele><time>2026-03-29T16:39:38.359Z</time></trkpt><trkpt lat="45.1653347" lon="9.3961421"><ele>67.0</ele><time>2026-03-29T16:39:40.353Z</time></trkpt><trkpt lat="45.1653952" lon="9.3957018"><ele>67.0</ele><time>2026-03-29T16:39:41.355Z</time></trkpt><trkpt lat="45.1655126" lon="9.3948178"><ele>68.0</ele><time>2026-03-29T16:39:43.352Z</time></trkpt><trkpt lat="45.1655701" lon="9.3943831"><ele>69.0</ele><time>2026-03-29T16:39:44.354Z</time></trkpt><trkpt lat="45.1656227" lon="9.3939816"><ele>69.0</ele><time>2026-03-29T16:39:45.357Z</time></trkpt><trkpt lat="45.1656689" lon="9.3936248"><ele>69.0</ele><time>2026-03-29T16:39:46.358Z</time></trkpt><trkpt lat="45.1657079" lon="9.3933096"><ele>68.5</ele><time>2026-03-29T16:39:47.362Z</time></trkpt><trkpt lat="45.1657417" lon="9.3930341"><ele>68.0</ele><time>2026-03-29T16:39:48.381Z</time></trkpt><trkpt lat="45.1658127" lon="9.3926018"><ele>67.66666666666667</ele><time>2026-03-29T16:39:50.37Z</time></trkpt><trkpt lat="45.1658725" lon="9.3924516"><ele>67.33333333333333</ele><time>2026-03-29T16:39:51.375Z</time></trkpt><trkpt lat="45.1660857" lon="9.3922618"><ele>67.0</ele><time>2026-03-29T16:39:53.365Z</time></trkpt><trkpt lat="45.1662354" lon="9.3922386"><ele>67.0</ele><time>2026-03-29T16:39:54.384Z</time></trkpt><trkpt lat="45.1664197" lon="9.392263"><ele>67.0</ele><time>2026-03-29T16:39:55.388Z</time></trkpt><trkpt lat="45.1669106" lon="9.3923836"><ele>67.5</ele><time>2026-03-29T16:39:57.37Z</time></trkpt><trkpt lat="45.1672089" lon="9.3924339"><ele>68.0</ele><time>2026-03-29T16:39:58.391Z</time></trkpt><trkpt lat="45.1678744" lon="9.3924663"><ele>68.0</ele><time>2026-03-29T16:40:00.366Z</time></trkpt><trkpt lat="45.1681806" lon="9.3924574"><ele>68.0</ele><time>2026-03-29T16:40:01.375Z</time></trkpt><trkpt lat="45.1684499" lon="9.3924464"><ele>68.0</ele><time>2026-03-29T16:40:02.374Z</time></trkpt><trkpt lat="45.1686934" lon="9.3924444"><ele>68.0</ele><time>2026-03-29T16:40:03.409Z</time></trkpt><trkpt lat="45.1691554" lon="9.3925243"><ele>69.0</ele><time>2026-03-29T16:40:05.362Z</time></trkpt><trkpt lat="45.1696314" lon="9.3926816"><ele>68.0</ele><time>2026-03-29T16:40:07.371Z</time></trkpt><trkpt lat="45.1701095" lon="9.3928416"><ele>68.0</ele><time>2026-03-29T16:40:09.372Z</time></trkpt><trkpt lat="45.1705347" lon="9.3929841"><ele>68.0</ele><time>2026-03-29T16:40:11.402Z</time></trkpt><trkpt lat="45.1709016" lon="9.3931049"><ele>68.5</ele><time>2026-03-29T16:40:13.366Z</time></trkpt><trkpt lat="45.1712244" lon="9.3932089"><ele>69.0</ele><time>2026-03-29T16:40:15.361Z</time></trkpt><trkpt lat="45.1713706" lon="9.3932561"><ele>69.0</ele><time>2026-03-29T16:40:16.363Z</time></trkpt><trkpt lat="45.1715056" lon="9.3933014"><ele>69.0</ele><time>2026-03-29T16:40:17.366Z</time></trkpt><trkpt lat="45.1717582" lon="9.3933878"><ele>69.0</ele><time>2026-03-29T16:40:19.365Z</time></trkpt><trkpt lat="45.1720257" lon="9.3934648"><ele>69.5</ele><time>2026-03-29T16:40:21.373Z</time></trkpt><trkpt lat="45.1723306" lon="9.3935393"><ele>70.0</ele><time>2026-03-29T16:40:23.384Z</time></trkpt><trkpt lat="45.1726637" lon="9.3935814"><ele>70.0</ele><time>2026-03-29T16:40:25.366Z</time></trkpt><trkpt lat="45.1730396" lon="9.3936131"><ele>70.0</ele><time>2026-03-29T16:40:27.364Z</time></trkpt><trkpt lat="45.1732472" lon="9.3936294"><ele>69.5</ele><time>2026-03-29T16:40:28.377Z</time></trkpt><trkpt lat="45.1734649" lon="9.3936473"><ele>69.0</ele><time>2026-03-29T16:40:29.389Z</time></trkpt><trkpt lat="45.1739127" lon="9.3936716"><ele>68.5</ele><time>2026-03-29T16:40:31.366Z</time></trkpt><trkpt lat="45.1741494" lon="9.3936546"><ele>68.0</ele><time>2026-03-29T16:40:32.375Z</time></trkpt><trkpt lat="45.1744027" lon="9.3936069"><ele>68.0</ele><time>2026-03-29T16:40:33.382Z</time></trkpt><trkpt lat="45.1746682" lon="9.393527"><ele>68.0</ele><time>2026-03-29T16:40:34.383Z</time></trkpt><trkpt lat="45.1752334" lon="9.393297"><ele>68.0</ele><time>2026-03-29T16:40:36.364Z</time></trkpt><trkpt lat="45.1755264" lon="9.3931676"><ele>68.0</ele><time>2026-03-29T16:40:37.374Z</time></trkpt><trkpt lat="45.1758134" lon="9.3930408"><ele>68.0</ele><time>2026-03-29T16:40:38.396Z</time></trkpt><trkpt lat="45.1763456" lon="9.3928366"><ele>68.0</ele><time>2026-03-29T16:40:40.389Z</time></trkpt><trkpt lat="45.1768692" lon="9.3927463"><ele>68.0</ele><time>2026-03-29T16:40:42.361Z</time></trkpt><trkpt lat="45.1771486" lon="9.3927339"><ele>68.0</ele><time>2026-03-29T16:40:43.362Z</time></trkpt><trkpt lat="45.1777404" lon="9.3927214"><ele>68.0</ele><time>2026-03-29T16:40:45.359Z</time></trkpt><trkpt lat="45.1780379" lon="9.3927154"><ele>68.0</ele><time>2026-03-29T16:40:46.368Z</time></trkpt><trkpt lat="45.1783236" lon="9.3927103"><ele>67.0</ele><time>2026-03-29T16:40:47.394Z</time></trkpt><trkpt lat="45.1788507" lon="9.3927193"><ele>68.0</ele><time>2026-03-29T16:40:49.382Z</time></trkpt><trkpt lat="45.1793257" lon="9.3928103"><ele>68.0</ele><time>2026-03-29T16:40:51.372Z</time></trkpt><trkpt lat="45.1795492" lon="9.3929076"><ele>68.0</ele><time>2026-03-29T16:40:52.382Z</time></trkpt><trkpt lat="45.1799721" lon="9.3932086"><ele>68.0</ele><time>2026-03-29T16:40:54.402Z</time></trkpt><trkpt lat="45.1803531" lon="9.3935605"><ele>68.0</ele><time>2026-03-29T16:40:56.366Z</time></trkpt><trkpt lat="45.1805277" lon="9.3937238"><ele>68.0</ele><time>2026-03-29T16:40:57.373Z</time></trkpt><trkpt lat="45.1808796" lon="9.3940041"><ele>68.0</ele><time>2026-03-29T16:40:59.38Z</time></trkpt><trkpt lat="45.1812642" lon="9.3941789"><ele>68.0</ele><time>2026-03-29T16:41:01.369Z</time></trkpt><trkpt lat="45.1814684" lon="9.3942288"><ele>68.0</ele><time>2026-03-29T16:41:02.383Z</time></trkpt><trkpt lat="45.1816787" lon="9.3942628"><ele>68.0</ele><time>2026-03-29T16:41:03.393Z</time></trkpt><trkpt lat="45.1820921" lon="9.3943059"><ele>68.0</ele><time>2026-03-29T16:41:05.373Z</time></trkpt><trkpt lat="45.1822967" lon="9.3943278"><ele>68.0</ele><time>2026-03-29T16:41:06.379Z</time></trkpt><trkpt lat="45.1826766" lon="9.394375"><ele>68.0</ele><time>2026-03-29T16:41:08.376Z</time></trkpt><trkpt lat="45.1830149" lon="9.3944129"><ele>68.0</ele><time>2026-03-29T16:41:10.373Z</time></trkpt><trkpt lat="45.1833502" lon="9.3944508"><ele>68.0</ele><time>2026-03-29T16:41:12.377Z</time></trkpt><trkpt lat="45.1837102" lon="9.3944904"><ele>68.0</ele><time>2026-03-29T16:41:14.363Z</time></trkpt><trkpt lat="45.1838962" lon="9.3945098"><ele>67.66666666666667</ele><time>2026-03-29T16:41:15.371Z</time></trkpt><trkpt lat="45.1840835" lon="9.3945299"><ele>67.33333333333333</ele><time>2026-03-29T16:41:16.375Z</time></trkpt><trkpt lat="45.1842636" lon="9.3945568"><ele>67.0</ele><time>2026-03-29T16:41:17.382Z</time></trkpt><trkpt lat="45.1846156" lon="9.3946448"><ele>67.0</ele><time>2026-03-29T16:41:19.389Z</time></trkpt><trkpt lat="45.1847846" lon="9.3946926"><ele>67.0</ele><time>2026-03-29T16:41:20.425Z</time></trkpt><trkpt lat="45.1851067" lon="9.3947686"><ele>67.0</ele><time>2026-03-29T16:41:22.379Z</time></trkpt><trkpt lat="45.1852647" lon="9.3947808"><ele>67.0</ele><time>2026-03-29T16:41:23.398Z</time></trkpt><trkpt lat="45.1855687" lon="9.3947456"><ele>69.5</ele><time>2026-03-29T16:41:25.375Z</time></trkpt><trkpt lat="45.1858144" lon="9.3946625"><ele>72.0</ele><time>2026-03-29T16:41:27.372Z</time></trkpt><trkpt lat="45.1860129" lon="9.394561"><ele>72.0</ele><time>2026-03-29T16:41:29.36Z</time></trkpt><trkpt lat="45.1861149" lon="9.3944939"><ele>72.0</ele><time>2026-03-29T16:41:30.361Z</time></trkpt><trkpt lat="45.1862186" lon="9.3944123"><ele>72.0</ele><time>2026-03-29T16:41:31.361Z</time></trkpt><trkpt lat="45.1864347" lon="9.3941956"><ele>71.5</ele><time>2026-03-29T16:41:33.367Z</time></trkpt><trkpt lat="45.1865544" lon="9.3940616"><ele>71.0</ele><time>2026-03-29T16:41:34.366Z</time></trkpt><trkpt lat="45.1868107" lon="9.3937599"><ele>71.66666666666667</ele><time>2026-03-29T16:41:36.36Z</time></trkpt><trkpt lat="45.186947" lon="9.3935999"><ele>72.33333333333333</ele><time>2026-03-29T16:41:37.361Z</time></trkpt><trkpt lat="45.187086" lon="9.3934341"><ele>73.0</ele><time>2026-03-29T16:41:38.373Z</time></trkpt><trkpt lat="45.1873581" lon="9.3931146"><ele>73.5</ele><time>2026-03-29T16:41:40.363Z</time></trkpt><trkpt lat="45.1874822" lon="9.3929674"><ele>74.0</ele><time>2026-03-29T16:41:41.37Z</time></trkpt><trkpt lat="45.1877166" lon="9.392698"><ele>74.0</ele><time>2026-03-29T16:41:43.375Z</time></trkpt><trkpt lat="45.1878356" lon="9.3925631"><ele>74.0</ele><time>2026-03-29T16:41:44.388Z</time></trkpt><trkpt lat="45.188069" lon="9.392287"><ele>75.0</ele><time>2026-03-29T16:41:46.406Z</time></trkpt><trkpt lat="45.1882434" lon="9.3920768"><ele>76.0</ele><time>2026-03-29T16:41:48.408Z</time></trkpt><trkpt lat="45.1883602" lon="9.3919443"><ele>77.0</ele><time>2026-03-29T16:41:50.402Z</time></trkpt><trkpt lat="45.1884646" lon="9.3918756"><ele>77.0</ele><time>2026-03-29T16:41:52.363Z</time></trkpt><trkpt lat="45.1885292" lon="9.3918676"><ele>77.0</ele><time>2026-03-29T16:41:53.374Z</time></trkpt><trkpt lat="45.1886557" lon="9.3918161"><ele>77.0</ele><time>2026-03-29T16:41:55.366Z</time></trkpt><trkpt lat="45.1887324" lon="9.3916834"><ele>77.0</ele><time>2026-03-29T16:41:57.369Z</time></trkpt><trkpt lat="45.1887774" lon="9.3914785"><ele>77.0</ele><time>2026-03-29T16:41:59.393Z</time></trkpt><trkpt lat="45.1889102" lon="9.3912573"><ele>77.0</ele><time>2026-03-29T16:42:01.372Z</time></trkpt><trkpt lat="45.1890115" lon="9.3911378"><ele>77.0</ele><time>2026-03-29T16:42:02.385Z</time></trkpt><trkpt lat="45.1892541" lon="9.3908416"><ele>77.0</ele><time>2026-03-29T16:42:04.401Z</time></trkpt><trkpt lat="45.1894984" lon="9.3905168"><ele>77.0</ele><time>2026-03-29T16:42:06.358Z</time></trkpt><trkpt lat="45.1897686" lon="9.3901874"><ele>76.0</ele><time>2026-03-29T16:42:08.365Z</time></trkpt><trkpt lat="45.1898991" lon="9.3900438"><ele>75.0</ele><time>2026-03-29T16:42:09.373Z</time></trkpt><trkpt lat="45.1900187" lon="9.3899158"><ele>74.0</ele><time>2026-03-29T16:42:10.374Z</time></trkpt><trkpt lat="45.1902064" lon="9.3897013"><ele>73.33333333333334</ele><time>2026-03-29T16:42:12.372Z</time></trkpt><trkpt lat="45.1903477" lon="9.3895343"><ele>72.66666666666667</ele><time>2026-03-29T16:42:14.382Z</time></trkpt><trkpt lat="45.1905027" lon="9.3893493"><ele>72.0</ele><time>2026-03-29T16:42:16.357Z</time></trkpt><trkpt lat="45.1906136" lon="9.3892169"><ele>72.0</ele><time>2026-03-29T16:42:17.384Z</time></trkpt><trkpt lat="45.1909494" lon="9.3888215"><ele>72.0</ele><time>2026-03-29T16:42:19.38Z</time></trkpt><trkpt lat="45.1914091" lon="9.3882781"><ele>72.0</ele><time>2026-03-29T16:42:21.35Z</time></trkpt><trkpt lat="45.1916702" lon="9.3879634"><ele>72.0</ele><time>2026-03-29T16:42:22.354Z</time></trkpt><trkpt lat="45.1919505" lon="9.3876316"><ele>72.0</ele><time>2026-03-29T16:42:23.356Z</time></trkpt><trkpt lat="45.1922394" lon="9.3872898"><ele>72.0</ele><time>2026-03-29T16:42:24.367Z</time></trkpt><trkpt lat="45.1927611" lon="9.3866648"><ele>72.0</ele><time>2026-03-29T16:42:26.376Z</time></trkpt><trkpt lat="45.1929941" lon="9.3863873"><ele>72.0</ele><time>2026-03-29T16:42:27.376Z</time></trkpt><trkpt lat="45.193209" lon="9.3861326"><ele>73.0</ele><time>2026-03-29T16:42:28.377Z</time></trkpt><trkpt lat="45.1935834" lon="9.3856931"><ele>72.5</ele><time>2026-03-29T16:42:30.375Z</time></trkpt><trkpt lat="45.1939285" lon="9.3852868"><ele>72.0</ele><time>2026-03-29T16:42:32.359Z</time></trkpt><trkpt lat="45.1942694" lon="9.3848829"><ele>72.0</ele><time>2026-03-29T16:42:34.36Z</time></trkpt><trkpt lat="45.1944397" lon="9.3846798"><ele>72.0</ele><time>2026-03-29T16:42:35.365Z</time></trkpt><trkpt lat="45.1947726" lon="9.3842818"><ele>72.0</ele><time>2026-03-29T16:42:37.364Z</time></trkpt><trkpt lat="45.1949356" lon="9.3840866"><ele>72.0</ele><time>2026-03-29T16:42:38.397Z</time></trkpt><trkpt lat="45.1952519" lon="9.3837093"><ele>72.0</ele><time>2026-03-29T16:42:40.371Z</time></trkpt><trkpt lat="45.1955477" lon="9.3833604"><ele>72.0</ele><time>2026-03-29T16:42:42.375Z</time></trkpt><trkpt lat="45.1956911" lon="9.3831926"><ele>71.5</ele><time>2026-03-29T16:42:43.378Z</time></trkpt><trkpt lat="45.1959741" lon="9.3828558"><ele>71.0</ele><time>2026-03-29T16:42:45.363Z</time></trkpt><trkpt lat="45.1962551" lon="9.3825229"><ele>71.0</ele><time>2026-03-29T16:42:47.363Z</time></trkpt><trkpt lat="45.1965407" lon="9.3821853"><ele>71.0</ele><time>2026-03-29T16:42:49.359Z</time></trkpt><trkpt lat="45.1966829" lon="9.3820168"><ele>71.0</ele><time>2026-03-29T16:42:50.379Z</time></trkpt><trkpt lat="45.1968211" lon="9.3818556"><ele>71.0</ele><time>2026-03-29T16:42:51.41Z</time></trkpt><trkpt lat="45.1970985" lon="9.3815451"><ele>71.0</ele><time>2026-03-29T16:42:53.368Z</time></trkpt><trkpt lat="45.1972546" lon="9.3813834"><ele>71.0</ele><time>2026-03-29T16:42:54.37Z</time></trkpt><trkpt lat="45.1974251" lon="9.3812184"><ele>71.0</ele><time>2026-03-29T16:42:55.375Z</time></trkpt><trkpt lat="45.1976007" lon="9.381062"><ele>71.5</ele><time>2026-03-29T16:42:56.382Z</time></trkpt><trkpt lat="45.1977727" lon="9.3809185"><ele>72.0</ele><time>2026-03-29T16:42:57.389Z</time></trkpt><trkpt lat="45.1980999" lon="9.3806709"><ele>72.5</ele><time>2026-03-29T16:42:59.378Z</time></trkpt><trkpt lat="45.1982661" lon="9.3805536"><ele>73.0</ele><time>2026-03-29T16:43:00.389Z</time></trkpt><trkpt lat="45.1986319" lon="9.3803244"><ele>72.0</ele><time>2026-03-29T16:43:02.358Z</time></trkpt><trkpt lat="45.1990427" lon="9.3801171"><ele>71.0</ele><time>2026-03-29T16:43:04.359Z</time></trkpt><trkpt lat="45.1992449" lon="9.3800323"><ele>71.0</ele><time>2026-03-29T16:43:05.364Z</time></trkpt><trkpt lat="45.1996094" lon="9.3799021"><ele>71.0</ele><time>2026-03-29T16:43:07.363Z</time></trkpt><trkpt lat="45.1997746" lon="9.3798543"><ele>71.0</ele><time>2026-03-29T16:43:08.362Z</time></trkpt><trkpt lat="45.2001034" lon="9.3797706"><ele>71.0</ele><time>2026-03-29T16:43:10.37Z</time></trkpt><trkpt lat="45.2002787" lon="9.3797243"><ele>71.0</ele><time>2026-03-29T16:43:11.379Z</time></trkpt><trkpt lat="45.2006314" lon="9.3796328"><ele>71.0</ele><time>2026-03-29T16:43:13.353Z</time></trkpt><trkpt lat="45.2008092" lon="9.3795903"><ele>71.0</ele><time>2026-03-29T16:43:14.357Z</time></trkpt><trkpt lat="45.2011666" lon="9.3795024"><ele>71.0</ele><time>2026-03-29T16:43:16.345Z</time></trkpt><trkpt lat="45.2013517" lon="9.3794579"><ele>71.0</ele><time>2026-03-29T16:43:17.353Z</time></trkpt><trkpt lat="45.2015354" lon="9.3794148"><ele>71.0</ele><time>2026-03-29T16:43:18.355Z</time></trkpt><trkpt lat="45.2018896" lon="9.3793241"><ele>71.0</ele><time>2026-03-29T16:43:20.346Z</time></trkpt><trkpt lat="45.2020522" lon="9.379284"><ele>71.0</ele><time>2026-03-29T16:43:21.356Z</time></trkpt><trkpt lat="45.2023646" lon="9.3792083"><ele>71.33333333333334</ele><time>2026-03-29T16:43:23.348Z</time></trkpt><trkpt lat="45.2025262" lon="9.3791651"><ele>71.66666666666667</ele><time>2026-03-29T16:43:24.349Z</time></trkpt><trkpt lat="45.202689" lon="9.3791111"><ele>72.0</ele><time>2026-03-29T16:43:25.36Z</time></trkpt><trkpt lat="45.2028549" lon="9.3790411"><ele>72.0</ele><time>2026-03-29T16:43:26.36Z</time></trkpt><trkpt lat="45.2031867" lon="9.3788519"><ele>72.0</ele><time>2026-03-29T16:43:28.359Z</time></trkpt><trkpt lat="45.2035189" lon="9.3785939"><ele>72.0</ele><time>2026-03-29T16:43:30.357Z</time></trkpt><trkpt lat="45.2038576" lon="9.3782676"><ele>72.0</ele><time>2026-03-29T16:43:32.36Z</time></trkpt><trkpt lat="45.2041984" lon="9.3779273"><ele>71.5</ele><time>2026-03-29T16:43:34.372Z</time></trkpt><trkpt lat="45.2043596" lon="9.3777658"><ele>71.0</ele><time>2026-03-29T16:43:35.377Z</time></trkpt><trkpt lat="45.2046734" lon="9.3774533"><ele>71.66666666666667</ele><time>2026-03-29T16:43:37.351Z</time></trkpt><trkpt lat="45.2048294" lon="9.3772956"><ele>72.33333333333333</ele><time>2026-03-29T16:43:38.354Z</time></trkpt><trkpt lat="45.2049861" lon="9.3771364"><ele>73.0</ele><time>2026-03-29T16:43:39.356Z</time></trkpt><trkpt lat="45.2051427" lon="9.3769771"><ele>73.0</ele><time>2026-03-29T16:43:40.365Z</time></trkpt><trkpt lat="45.205461" lon="9.3766616"><ele>73.0</ele><time>2026-03-29T16:43:42.351Z</time></trkpt><trkpt lat="45.2056201" lon="9.3765013"><ele>72.5</ele><time>2026-03-29T16:43:43.354Z</time></trkpt><trkpt lat="45.2057807" lon="9.3763376"><ele>72.0</ele><time>2026-03-29T16:43:44.354Z</time></trkpt><trkpt lat="45.2061105" lon="9.3760054"><ele>72.0</ele><time>2026-03-29T16:43:46.353Z</time></trkpt><trkpt lat="45.2064477" lon="9.3756648"><ele>72.0</ele><time>2026-03-29T16:43:48.352Z</time></trkpt><trkpt lat="45.2067887" lon="9.375321"><ele>72.0</ele><time>2026-03-29T16:43:50.355Z</time></trkpt><trkpt lat="45.2071319" lon="9.3749774"><ele>72.0</ele><time>2026-03-29T16:43:52.352Z</time></trkpt><trkpt lat="45.2073047" lon="9.3748046"><ele>72.0</ele><time>2026-03-29T16:43:53.354Z</time></trkpt><trkpt lat="45.2074791" lon="9.3746323"><ele>72.0</ele><time>2026-03-29T16:43:54.372Z</time></trkpt><trkpt lat="45.2078279" lon="9.3742848"><ele>72.0</ele><time>2026-03-29T16:43:56.349Z</time></trkpt><trkpt lat="45.2080012" lon="9.3741076"><ele>72.0</ele><time>2026-03-29T16:43:57.354Z</time></trkpt><trkpt lat="45.2081736" lon="9.3739291"><ele>72.0</ele><time>2026-03-29T16:43:58.356Z</time></trkpt><trkpt lat="45.2085111" lon="9.3735571"><ele>72.5</ele><time>2026-03-29T16:44:00.391Z</time></trkpt><trkpt lat="45.2088281" lon="9.3731428"><ele>73.0</ele><time>2026-03-29T16:44:02.349Z</time></trkpt><trkpt lat="45.2089822" lon="9.3729248"><ele>74.5</ele><time>2026-03-29T16:44:03.351Z</time></trkpt><trkpt lat="45.2092799" lon="9.3725009"><ele>76.0</ele><time>2026-03-29T16:44:05.356Z</time></trkpt><trkpt lat="45.2094172" lon="9.3723059"><ele>75.0</ele><time>2026-03-29T16:44:06.363Z</time></trkpt><trkpt lat="45.2095452" lon="9.3721241"><ele>74.0</ele><time>2026-03-29T16:44:07.376Z</time></trkpt><trkpt lat="45.2097737" lon="9.3717968"><ele>73.33333333333334</ele><time>2026-03-29T16:44:09.357Z</time></trkpt><trkpt lat="45.2099794" lon="9.3715071"><ele>72.66666666666667</ele><time>2026-03-29T16:44:11.35Z</time></trkpt><trkpt lat="45.2100772" lon="9.3713676"><ele>72.0</ele><time>2026-03-29T16:44:12.365Z</time></trkpt><trkpt lat="45.2101744" lon="9.3712268"><ele>72.0</ele><time>2026-03-29T16:44:13.367Z</time></trkpt><trkpt lat="45.2103784" lon="9.3709273"><ele>72.0</ele><time>2026-03-29T16:44:15.352Z</time></trkpt><trkpt lat="45.2105994" lon="9.3705973"><ele>72.5</ele><time>2026-03-29T16:44:17.353Z</time></trkpt><trkpt lat="45.2108299" lon="9.3702309"><ele>73.0</ele><time>2026-03-29T16:44:19.364Z</time></trkpt><trkpt lat="45.2110344" lon="9.3698741"><ele>73.0</ele><time>2026-03-29T16:44:21.354Z</time></trkpt><trkpt lat="45.2111221" lon="9.3697085"><ele>73.0</ele><time>2026-03-29T16:44:22.358Z</time></trkpt><trkpt lat="45.2111992" lon="9.3695559"><ele>73.0</ele><time>2026-03-29T16:44:23.358Z</time></trkpt><trkpt lat="45.2113217" lon="9.3693076"><ele>73.0</ele><time>2026-03-29T16:44:25.354Z</time></trkpt><trkpt lat="45.2113694" lon="9.3692104"><ele>73.0</ele><time>2026-03-29T16:44:26.358Z</time></trkpt><trkpt lat="45.2114091" lon="9.3691303"><ele>73.0</ele><time>2026-03-29T16:44:27.364Z</time></trkpt><trkpt lat="45.2114914" lon="9.3689668"><ele>73.0</ele><time>2026-03-29T16:44:30.383Z</time></trkpt><trkpt lat="45.2115319" lon="9.3688969"><ele>73.0</ele><time>2026-03-29T16:44:32.357Z</time></trkpt><trkpt lat="45.2116077" lon="9.3687783"><ele>73.0</ele><time>2026-03-29T16:44:35.358Z</time></trkpt><trkpt lat="45.2117049" lon="9.3686861"><ele>73.0</ele><time>2026-03-29T16:44:37.351Z</time></trkpt><trkpt lat="45.2117647" lon="9.3686333"><ele>73.0</ele><time>2026-03-29T16:44:38.356Z</time></trkpt><trkpt lat="45.2118224" lon="9.3685593"><ele>73.0</ele><time>2026-03-29T16:44:39.356Z</time></trkpt><trkpt lat="45.2118612" lon="9.3684559"><ele>73.0</ele><time>2026-03-29T16:44:40.363Z</time></trkpt><trkpt lat="45.2119002" lon="9.3682016"><ele>73.0</ele><time>2026-03-29T16:44:42.356Z</time></trkpt><trkpt lat="45.2119392" lon="9.3680665"><ele>73.0</ele><time>2026-03-29T16:44:43.362Z</time></trkpt><trkpt lat="45.2120712" lon="9.3677916"><ele>73.0</ele><time>2026-03-29T16:44:45.361Z</time></trkpt><trkpt lat="45.2122514" lon="9.3675066"><ele>73.0</ele><time>2026-03-29T16:44:47.357Z</time></trkpt><trkpt lat="45.2123426" lon="9.3673694"><ele>73.0</ele><time>2026-03-29T16:44:48.356Z</time></trkpt><trkpt lat="45.2124289" lon="9.3672426"><ele>73.0</ele><time>2026-03-29T16:44:49.36Z</time></trkpt><trkpt lat="45.2125107" lon="9.3671268"><ele>73.0</ele><time>2026-03-29T16:44:50.36Z</time></trkpt><trkpt lat="45.2125881" lon="9.3670214"><ele>73.0</ele><time>2026-03-29T16:44:51.372Z</time></trkpt><trkpt lat="45.2127179" lon="9.3668554"><ele>73.0</ele><time>2026-03-29T16:44:53.358Z</time></trkpt><trkpt lat="45.2128242" lon="9.3667291"><ele>73.0</ele><time>2026-03-29T16:44:55.351Z</time></trkpt><trkpt lat="45.2128782" lon="9.366668"><ele>73.0</ele><time>2026-03-29T16:44:56.356Z</time></trkpt><trkpt lat="45.2129917" lon="9.3665393"><ele>73.0</ele><time>2026-03-29T16:44:58.351Z</time></trkpt><trkpt lat="45.2130466" lon="9.36648"><ele>73.0</ele><time>2026-03-29T16:44:59.354Z</time></trkpt><trkpt lat="45.2131439" lon="9.3663778"><ele>73.0</ele><time>2026-03-29T16:45:01.36Z</time></trkpt><trkpt lat="45.2132319" lon="9.3663064"><ele>73.0</ele><time>2026-03-29T16:45:03.388Z</time></trkpt><trkpt lat="45.2133311" lon="9.3662793"><ele>73.0</ele><time>2026-03-29T16:45:05.348Z</time></trkpt><trkpt lat="45.2133942" lon="9.3662944"><ele>73.5</ele><time>2026-03-29T16:45:06.366Z</time></trkpt><trkpt lat="45.2135227" lon="9.3664018"><ele>74.0</ele><time>2026-03-29T16:45:08.361Z</time></trkpt><trkpt lat="45.2135781" lon="9.3664948"><ele>74.5</ele><time>2026-03-29T16:45:09.365Z</time></trkpt><trkpt lat="45.2136976" lon="9.3667393"><ele>75.0</ele><time>2026-03-29T16:45:11.374Z</time></trkpt><trkpt lat="45.2138664" lon="9.3670344"><ele>75.0</ele><time>2026-03-29T16:45:13.373Z</time></trkpt><trkpt lat="45.2140844" lon="9.3673504"><ele>75.0</ele><time>2026-03-29T16:45:15.362Z</time></trkpt><trkpt lat="45.2142009" lon="9.3675056"><ele>75.0</ele><time>2026-03-29T16:45:16.376Z</time></trkpt><trkpt lat="45.2143192" lon="9.3676529"><ele>75.0</ele><time>2026-03-29T16:45:17.39Z</time></trkpt><trkpt lat="45.2145607" lon="9.3679216"><ele>75.66666666666667</ele><time>2026-03-29T16:45:19.371Z</time></trkpt><trkpt lat="45.2148052" lon="9.3681539"><ele>76.33333333333334</ele><time>2026-03-29T16:45:21.342Z</time></trkpt><trkpt lat="45.2149267" lon="9.3682623"><ele>77.0</ele><time>2026-03-29T16:45:22.343Z</time></trkpt><trkpt lat="45.2150541" lon="9.3683684"><ele>75.0</ele><time>2026-03-29T16:45:23.35Z</time></trkpt><trkpt lat="45.2151854" lon="9.3684689"><ele>73.0</ele><time>2026-03-29T16:45:24.378Z</time></trkpt><trkpt lat="45.2154569" lon="9.3686518"><ele>73.0</ele><time>2026-03-29T16:45:26.356Z</time></trkpt><trkpt lat="45.2157269" lon="9.3688269"><ele>73.0</ele><time>2026-03-29T16:45:28.354Z</time></trkpt><trkpt lat="45.2158627" lon="9.3689151"><ele>73.0</ele><time>2026-03-29T16:45:29.359Z</time></trkpt><trkpt lat="45.2159964" lon="9.3690003"><ele>73.66666666666666</ele><time>2026-03-29T16:45:30.363Z</time></trkpt><trkpt lat="45.216254" lon="9.3691591"><ele>74.33333333333333</ele><time>2026-03-29T16:45:32.357Z</time></trkpt><trkpt lat="45.2163814" lon="9.3692376"><ele>75.0</ele><time>2026-03-29T16:45:33.363Z</time></trkpt><trkpt lat="45.2165102" lon="9.3693175"><ele>75.0</ele><time>2026-03-29T16:45:34.363Z</time></trkpt><trkpt lat="45.2167784" lon="9.3694813"><ele>75.0</ele><time>2026-03-29T16:45:36.361Z</time></trkpt><trkpt lat="45.2170604" lon="9.3696554"><ele>73.5</ele><time>2026-03-29T16:45:38.361Z</time></trkpt><trkpt lat="45.2172057" lon="9.3697463"><ele>72.0</ele><time>2026-03-29T16:45:39.368Z</time></trkpt><trkpt lat="45.2175027" lon="9.3699295"><ele>72.0</ele><time>2026-03-29T16:45:41.363Z</time></trkpt><trkpt lat="45.2176532" lon="9.3700221"><ele>72.0</ele><time>2026-03-29T16:45:42.367Z</time></trkpt><trkpt lat="45.2179517" lon="9.3702098"><ele>72.0</ele><time>2026-03-29T16:45:44.352Z</time></trkpt><trkpt lat="45.2180946" lon="9.3703001"><ele>72.0</ele><time>2026-03-29T16:45:45.37Z</time></trkpt><trkpt lat="45.2183869" lon="9.3704816"><ele>72.0</ele><time>2026-03-29T16:45:47.363Z</time></trkpt><trkpt lat="45.2185352" lon="9.3705749"><ele>72.0</ele><time>2026-03-29T16:45:48.376Z</time></trkpt><trkpt lat="45.2188311" lon="9.3707693"><ele>72.0</ele><time>2026-03-29T16:45:50.357Z</time></trkpt><trkpt lat="45.2189794" lon="9.3708758"><ele>72.0</ele><time>2026-03-29T16:45:51.36Z</time></trkpt><trkpt lat="45.2192711" lon="9.3711006"><ele>72.5</ele><time>2026-03-29T16:45:53.355Z</time></trkpt><trkpt lat="45.219414" lon="9.3712193"><ele>73.0</ele><time>2026-03-29T16:45:54.361Z</time></trkpt><trkpt lat="45.2196812" lon="9.3714539"><ele>72.5</ele><time>2026-03-29T16:45:56.359Z</time></trkpt><trkpt lat="45.2199356" lon="9.3716956"><ele>72.0</ele><time>2026-03-29T16:45:58.385Z</time></trkpt><trkpt lat="45.2201925" lon="9.3719614"><ele>72.0</ele><time>2026-03-29T16:46:00.358Z</time></trkpt><trkpt lat="45.2203166" lon="9.3720948"><ele>72.0</ele><time>2026-03-29T16:46:01.398Z</time></trkpt><trkpt lat="45.2205442" lon="9.3723444"><ele>72.0</ele><time>2026-03-29T16:46:03.354Z</time></trkpt><trkpt lat="45.2206485" lon="9.3724619"><ele>71.75</ele><time>2026-03-29T16:46:04.358Z</time></trkpt><trkpt lat="45.220748" lon="9.3725729"><ele>71.5</ele><time>2026-03-29T16:46:05.36Z</time></trkpt><trkpt lat="45.220841" lon="9.3726781"><ele>71.25</ele><time>2026-03-29T16:46:06.37Z</time></trkpt><trkpt lat="45.2209849" lon="9.3728819"><ele>71.0</ele><time>2026-03-29T16:46:08.369Z</time></trkpt><trkpt lat="45.2210287" lon="9.3729901"><ele>70.75</ele><time>2026-03-29T16:46:09.372Z</time></trkpt><trkpt lat="45.2210649" lon="9.3730971"><ele>70.5</ele><time>2026-03-29T16:46:10.37Z</time></trkpt><trkpt lat="45.2211862" lon="9.3732739"><ele>70.25</ele><time>2026-03-29T16:46:12.365Z</time></trkpt><trkpt lat="45.2212816" lon="9.3733325"><ele>70.0</ele><time>2026-03-29T16:46:13.365Z</time></trkpt><trkpt lat="45.2213887" lon="9.3733941"><ele>70.66666666666666</ele><time>2026-03-29T16:46:14.371Z</time></trkpt><trkpt lat="45.2216039" lon="9.3736146"><ele>71.33333333333333</ele><time>2026-03-29T16:46:16.364Z</time></trkpt><trkpt lat="45.2217131" lon="9.3737604"><ele>72.0</ele><time>2026-03-29T16:46:17.364Z</time></trkpt><trkpt lat="45.2218289" lon="9.3739096"><ele>72.0</ele><time>2026-03-29T16:46:18.377Z</time></trkpt><trkpt lat="45.2219451" lon="9.3740553"><ele>72.0</ele><time>2026-03-29T16:46:19.392Z</time></trkpt><trkpt lat="45.2221702" lon="9.3743338"><ele>71.5</ele><time>2026-03-29T16:46:21.384Z</time></trkpt><trkpt lat="45.2223837" lon="9.374608"><ele>71.0</ele><time>2026-03-29T16:46:23.367Z</time></trkpt><trkpt lat="45.2225711" lon="9.3748571"><ele>71.0</ele><time>2026-03-29T16:46:25.356Z</time></trkpt><trkpt lat="45.22276" lon="9.3751064"><ele>71.0</ele><time>2026-03-29T16:46:27.352Z</time></trkpt><trkpt lat="45.2228571" lon="9.3752351"><ele>71.0</ele><time>2026-03-29T16:46:28.391Z</time></trkpt><trkpt lat="45.2230569" lon="9.3755011"><ele>71.0</ele><time>2026-03-29T16:46:30.354Z</time></trkpt><trkpt lat="45.2231622" lon="9.3756423"><ele>71.0</ele><time>2026-03-29T16:46:31.356Z</time></trkpt><trkpt lat="45.2232661" lon="9.3757831"><ele>71.0</ele><time>2026-03-29T16:46:32.356Z</time></trkpt><trkpt lat="45.2233696" lon="9.3759283"><ele>71.0</ele><time>2026-03-29T16:46:33.361Z</time></trkpt><trkpt lat="45.2234732" lon="9.3760816"><ele>71.0</ele><time>2026-03-29T16:46:34.36Z</time></trkpt><trkpt lat="45.2236747" lon="9.3763873"><ele>71.0</ele><time>2026-03-29T16:46:36.355Z</time></trkpt><trkpt lat="45.2238716" lon="9.3766946"><ele>71.0</ele><time>2026-03-29T16:46:38.355Z</time></trkpt><trkpt lat="45.2239721" lon="9.3768573"><ele>71.0</ele><time>2026-03-29T16:46:39.356Z</time></trkpt><trkpt lat="45.2240771" lon="9.3770286"><ele>71.0</ele><time>2026-03-29T16:46:40.356Z</time></trkpt><trkpt lat="45.2241839" lon="9.3772053"><ele>71.5</ele><time>2026-03-29T16:46:41.357Z</time></trkpt><trkpt lat="45.2244022" lon="9.3775728"><ele>72.0</ele><time>2026-03-29T16:46:43.357Z</time></trkpt><trkpt lat="45.2245104" lon="9.3777626"><ele>72.0</ele><time>2026-03-29T16:46:44.364Z</time></trkpt><trkpt lat="45.2247176" lon="9.3781546"><ele>72.0</ele><time>2026-03-29T16:46:46.357Z</time></trkpt><trkpt lat="45.2249102" lon="9.3785518"><ele>72.0</ele><time>2026-03-29T16:46:48.364Z</time></trkpt><trkpt lat="45.2250881" lon="9.3789344"><ele>72.0</ele><time>2026-03-29T16:46:50.366Z</time></trkpt><trkpt lat="45.2252556" lon="9.3792941"><ele>72.0</ele><time>2026-03-29T16:46:52.356Z</time></trkpt><trkpt lat="45.2254262" lon="9.3796606"><ele>72.0</ele><time>2026-03-29T16:46:54.355Z</time></trkpt><trkpt lat="45.2256059" lon="9.3800464"><ele>71.66666666666667</ele><time>2026-03-29T16:46:56.354Z</time></trkpt><trkpt lat="45.2257019" lon="9.3802544"><ele>71.33333333333334</ele><time>2026-03-29T16:46:57.354Z</time></trkpt><trkpt lat="45.225803" lon="9.3804731"><ele>71.0</ele><time>2026-03-29T16:46:58.354Z</time></trkpt><trkpt lat="45.2259102" lon="9.3807033"><ele>71.0</ele><time>2026-03-29T16:46:59.354Z</time></trkpt><trkpt lat="45.2260217" lon="9.3809425"><ele>71.0</ele><time>2026-03-29T16:47:00.36Z</time></trkpt><trkpt lat="45.2262554" lon="9.3814401"><ele>71.0</ele><time>2026-03-29T16:47:02.361Z</time></trkpt><trkpt lat="45.2264972" lon="9.3819575"><ele>71.0</ele><time>2026-03-29T16:47:04.361Z</time></trkpt><trkpt lat="45.2267551" lon="9.3824968"><ele>73.0</ele><time>2026-03-29T16:47:06.359Z</time></trkpt><trkpt lat="45.2270254" lon="9.3830341"><ele>73.0</ele><time>2026-03-29T16:47:08.357Z</time></trkpt><trkpt lat="45.2271702" lon="9.3832889"><ele>73.0</ele><time>2026-03-29T16:47:09.364Z</time></trkpt><trkpt lat="45.2274977" lon="9.383736"><ele>72.0</ele><time>2026-03-29T16:47:11.359Z</time></trkpt><trkpt lat="45.2276564" lon="9.3839343"><ele>71.0</ele><time>2026-03-29T16:47:12.362Z</time></trkpt><trkpt lat="45.2278069" lon="9.3841263"><ele>70.0</ele><time>2026-03-29T16:47:13.378Z</time></trkpt><trkpt lat="45.2280917" lon="9.3844948"><ele>70.33333333333333</ele><time>2026-03-29T16:47:15.357Z</time></trkpt><trkpt lat="45.2282291" lon="9.3846755"><ele>70.66666666666667</ele><time>2026-03-29T16:47:16.363Z</time></trkpt><trkpt lat="45.2283664" lon="9.3848533"><ele>71.0</ele><time>2026-03-29T16:47:17.368Z</time></trkpt><trkpt lat="45.2285022" lon="9.3850264"><ele>71.0</ele><time>2026-03-29T16:47:18.376Z</time></trkpt><trkpt lat="45.2287779" lon="9.3853755"><ele>71.0</ele><time>2026-03-29T16:47:20.357Z</time></trkpt><trkpt lat="45.2289179" lon="9.3855525"><ele>70.5</ele><time>2026-03-29T16:47:21.365Z</time></trkpt><trkpt lat="45.2290596" lon="9.3857311"><ele>70.0</ele><time>2026-03-29T16:47:22.365Z</time></trkpt><trkpt lat="45.2293434" lon="9.3860899"><ele>70.0</ele><time>2026-03-29T16:47:24.365Z</time></trkpt><trkpt lat="45.2296277" lon="9.3864573"><ele>70.0</ele><time>2026-03-29T16:47:26.395Z</time></trkpt><trkpt lat="45.2298979" lon="9.3868088"><ele>70.0</ele><time>2026-03-29T16:47:28.357Z</time></trkpt><trkpt lat="45.2300197" lon="9.3869664"><ele>70.0</ele><time>2026-03-29T16:47:29.366Z</time></trkpt><trkpt lat="45.2301352" lon="9.3871153"><ele>70.0</ele><time>2026-03-29T16:47:30.367Z</time></trkpt><trkpt lat="45.230344" lon="9.3873838"><ele>70.0</ele><time>2026-03-29T16:47:32.368Z</time></trkpt><trkpt lat="45.230532" lon="9.3876258"><ele>70.0</ele><time>2026-03-29T16:47:34.359Z</time></trkpt><trkpt lat="45.2306202" lon="9.3877391"><ele>70.0</ele><time>2026-03-29T16:47:35.357Z</time></trkpt><trkpt lat="45.2307079" lon="9.3878501"><ele>70.0</ele><time>2026-03-29T16:47:36.359Z</time></trkpt><trkpt lat="45.2307982" lon="9.3879623"><ele>70.0</ele><time>2026-03-29T16:47:37.365Z</time></trkpt><trkpt lat="45.2308909" lon="9.388073"><ele>70.0</ele><time>2026-03-29T16:47:38.366Z</time></trkpt><trkpt lat="45.2310849" lon="9.3882831"><ele>70.75</ele><time>2026-03-29T16:47:40.372Z</time></trkpt><trkpt lat="45.2311805" lon="9.3883799"><ele>71.5</ele><time>2026-03-29T16:47:41.375Z</time></trkpt><trkpt lat="45.2312679" lon="9.3884656"><ele>72.25</ele><time>2026-03-29T16:47:42.375Z</time></trkpt><trkpt lat="45.2314104" lon="9.3886126"><ele>73.0</ele><time>2026-03-29T16:47:44.363Z</time></trkpt><trkpt lat="45.2314667" lon="9.3886796"><ele>72.6</ele><time>2026-03-29T16:47:45.363Z</time></trkpt><trkpt lat="45.2315149" lon="9.3887553"><ele>72.19999999999999</ele><time>2026-03-29T16:47:46.377Z</time></trkpt><trkpt lat="45.2315552" lon="9.3888496"><ele>71.8</ele><time>2026-03-29T16:47:47.378Z</time></trkpt><trkpt lat="45.2316261" lon="9.3890716"><ele>71.39999999999999</ele><time>2026-03-29T16:47:49.371Z</time></trkpt><trkpt lat="45.2316857" lon="9.3891691"><ele>71.0</ele><time>2026-03-29T16:47:50.378Z</time></trkpt><trkpt lat="45.2318452" lon="9.3892308"><ele>71.0</ele><time>2026-03-29T16:47:52.382Z</time></trkpt><trkpt lat="45.2319934" lon="9.3890944"><ele>71.0</ele><time>2026-03-29T16:47:54.398Z</time></trkpt><trkpt lat="45.2321664" lon="9.3889276"><ele>71.0</ele><time>2026-03-29T16:47:56.388Z</time></trkpt><trkpt lat="45.2322892" lon="9.3888681"><ele>69.0</ele><time>2026-03-29T16:47:57.399Z</time></trkpt><trkpt lat="45.2325992" lon="9.3887901"><ele>67.0</ele><time>2026-03-29T16:47:59.381Z</time></trkpt><trkpt lat="45.2329664" lon="9.3887433"><ele>67.0</ele><time>2026-03-29T16:48:01.357Z</time></trkpt><trkpt lat="45.2331646" lon="9.3887196"><ele>67.0</ele><time>2026-03-29T16:48:02.396Z</time></trkpt><trkpt lat="45.2335581" lon="9.3886705"><ele>67.0</ele><time>2026-03-29T16:48:04.351Z</time></trkpt><trkpt lat="45.2337492" lon="9.3886431"><ele>67.0</ele><time>2026-03-29T16:48:05.37Z</time></trkpt><trkpt lat="45.2341127" lon="9.3885994"><ele>67.0</ele><time>2026-03-29T16:48:07.36Z</time></trkpt><trkpt lat="45.2344691" lon="9.3885563"><ele>67.0</ele><time>2026-03-29T16:48:09.359Z</time></trkpt><trkpt lat="45.2346481" lon="9.3885338"><ele>68.5</ele><time>2026-03-29T16:48:10.362Z</time></trkpt><trkpt lat="45.2350051" lon="9.3884886"><ele>70.0</ele><time>2026-03-29T16:48:12.355Z</time></trkpt><trkpt lat="45.2351839" lon="9.3884688"><ele>70.0</ele><time>2026-03-29T16:48:13.361Z</time></trkpt><trkpt lat="45.2355456" lon="9.3884268"><ele>70.0</ele><time>2026-03-29T16:48:15.36Z</time></trkpt><trkpt lat="45.2357286" lon="9.3884048"><ele>69.5</ele><time>2026-03-29T16:48:16.36Z</time></trkpt><trkpt lat="45.2360987" lon="9.3883645"><ele>69.0</ele><time>2026-03-29T16:48:18.36Z</time></trkpt><trkpt lat="45.2362857" lon="9.3883379"><ele>69.5</ele><time>2026-03-29T16:48:19.36Z</time></trkpt><trkpt lat="45.236664" lon="9.3882949"><ele>70.0</ele><time>2026-03-29T16:48:21.36Z</time></trkpt><trkpt lat="45.2370499" lon="9.3882523"><ele>70.0</ele><time>2026-03-29T16:48:23.358Z</time></trkpt><trkpt lat="45.2372454" lon="9.3882273"><ele>70.0</ele><time>2026-03-29T16:48:24.357Z</time></trkpt><trkpt lat="45.2374429" lon="9.3882031"><ele>70.0</ele><time>2026-03-29T16:48:25.367Z</time></trkpt><trkpt lat="45.2376432" lon="9.3881801"><ele>70.0</ele><time>2026-03-29T16:48:26.401Z</time></trkpt><trkpt lat="45.2380531" lon="9.3881301"><ele>70.0</ele><time>2026-03-29T16:48:28.363Z</time></trkpt><trkpt lat="45.2384829" lon="9.3880773"><ele>71.0</ele><time>2026-03-29T16:48:30.36Z</time></trkpt><trkpt lat="45.2387061" lon="9.3880523"><ele>72.0</ele><time>2026-03-29T16:48:31.361Z</time></trkpt><trkpt lat="45.2389337" lon="9.3880226"><ele>73.0</ele><time>2026-03-29T16:48:32.365Z</time></trkpt><trkpt lat="45.2394006" lon="9.3879643"><ele>73.0</ele><time>2026-03-29T16:48:34.361Z</time></trkpt><trkpt lat="45.2396387" lon="9.3879394"><ele>73.0</ele><time>2026-03-29T16:48:35.367Z</time></trkpt><trkpt lat="45.2401062" lon="9.3879174"><ele>73.0</ele><time>2026-03-29T16:48:37.361Z</time></trkpt><trkpt lat="45.2403296" lon="9.3879333"><ele>73.0</ele><time>2026-03-29T16:48:38.364Z</time></trkpt><trkpt lat="45.2405432" lon="9.3879724"><ele>73.0</ele><time>2026-03-29T16:48:39.367Z</time></trkpt><trkpt lat="45.240948" lon="9.3881085"><ele>72.0</ele><time>2026-03-29T16:48:41.366Z</time></trkpt><trkpt lat="45.2413246" lon="9.3883136"><ele>71.0</ele><time>2026-03-29T16:48:43.366Z</time></trkpt><trkpt lat="45.2414922" lon="9.3884453"><ele>71.0</ele><time>2026-03-29T16:48:44.367Z</time></trkpt><trkpt lat="45.2417782" lon="9.3887646"><ele>71.0</ele><time>2026-03-29T16:48:46.369Z</time></trkpt><trkpt lat="45.2418846" lon="9.3889231"><ele>70.66666666666667</ele><time>2026-03-29T16:48:47.375Z</time></trkpt><trkpt lat="45.2419724" lon="9.3890713"><ele>70.33333333333333</ele><time>2026-03-29T16:48:48.375Z</time></trkpt><trkpt lat="45.2421259" lon="9.3893736"><ele>70.0</ele><time>2026-03-29T16:48:50.369Z</time></trkpt><trkpt lat="45.2422676" lon="9.3896756"><ele>70.33333333333333</ele><time>2026-03-29T16:48:52.368Z</time></trkpt><trkpt lat="45.2424201" lon="9.3899824"><ele>70.66666666666667</ele><time>2026-03-29T16:48:54.359Z</time></trkpt><trkpt lat="45.2425122" lon="9.3901638"><ele>71.0</ele><time>2026-03-29T16:48:55.373Z</time></trkpt><trkpt lat="45.2427154" lon="9.3905711"><ele>71.0</ele><time>2026-03-29T16:48:57.369Z</time></trkpt><trkpt lat="45.2429281" lon="9.3910488"><ele>71.0</ele><time>2026-03-29T16:48:59.363Z</time></trkpt><trkpt lat="45.2430324" lon="9.3913134"><ele>72.0</ele><time>2026-03-29T16:49:00.362Z</time></trkpt><trkpt lat="45.2432262" lon="9.3918913"><ele>72.5</ele><time>2026-03-29T16:49:02.358Z</time></trkpt><trkpt lat="45.2433137" lon="9.3922001"><ele>73.0</ele><time>2026-03-29T16:49:03.358Z</time></trkpt><trkpt lat="45.2433997" lon="9.3925211"><ele>73.0</ele><time>2026-03-29T16:49:04.364Z</time></trkpt><trkpt lat="45.2434854" lon="9.3928479"><ele>73.0</ele><time>2026-03-29T16:49:05.384Z</time></trkpt><trkpt lat="45.2436539" lon="9.3934998"><ele>73.0</ele><time>2026-03-29T16:49:07.367Z</time></trkpt><trkpt lat="45.2437404" lon="9.3938178"><ele>73.0</ele><time>2026-03-29T16:49:08.373Z</time></trkpt><trkpt lat="45.2439011" lon="9.3944133"><ele>71.5</ele><time>2026-03-29T16:49:10.37Z</time></trkpt><trkpt lat="45.2439751" lon="9.3946908"><ele>70.0</ele><time>2026-03-29T16:49:11.375Z</time></trkpt><trkpt lat="45.2441166" lon="9.3952251"><ele>70.5</ele><time>2026-03-29T16:49:13.357Z</time></trkpt><trkpt lat="45.2442569" lon="9.3957581"><ele>71.0</ele><time>2026-03-29T16:49:15.357Z</time></trkpt><trkpt lat="45.2443292" lon="9.3960321"><ele>71.0</ele><time>2026-03-29T16:49:16.362Z</time></trkpt><trkpt lat="45.2444019" lon="9.3963134"><ele>71.0</ele><time>2026-03-29T16:49:17.367Z</time></trkpt><trkpt lat="45.244541" lon="9.3968548"><ele>71.0</ele><time>2026-03-29T16:49:19.357Z</time></trkpt><trkpt lat="45.2446686" lon="9.3973541"><ele>71.0</ele><time>2026-03-29T16:49:21.364Z</time></trkpt><trkpt lat="45.2447942" lon="9.3978346"><ele>71.0</ele><time>2026-03-29T16:49:23.363Z</time></trkpt><trkpt lat="45.2448582" lon="9.3980803"><ele>71.0</ele><time>2026-03-29T16:49:24.367Z</time></trkpt><trkpt lat="45.2449224" lon="9.3983283"><ele>71.0</ele><time>2026-03-29T16:49:25.368Z</time></trkpt><trkpt lat="45.2449852" lon="9.3985723"><ele>70.0</ele><time>2026-03-29T16:49:26.385Z</time></trkpt><trkpt lat="45.2451002" lon="9.3990118"><ele>69.0</ele><time>2026-03-29T16:49:28.374Z</time></trkpt><trkpt lat="45.2451555" lon="9.3991996"><ele>69.0</ele><time>2026-03-29T16:49:29.387Z</time></trkpt><trkpt lat="45.2452574" lon="9.3995219"><ele>69.0</ele><time>2026-03-29T16:49:31.37Z</time></trkpt><trkpt lat="45.2452929" lon="9.3996688"><ele>69.0</ele><time>2026-03-29T16:49:32.382Z</time></trkpt><trkpt lat="45.2453092" lon="9.3998133"><ele>69.33333333333333</ele><time>2026-03-29T16:49:33.403Z</time></trkpt><trkpt lat="45.2452641" lon="9.4000669"><ele>69.66666666666666</ele><time>2026-03-29T16:49:35.396Z</time></trkpt><trkpt lat="45.2451321" lon="9.4002518"><ele>70.0</ele><time>2026-03-29T16:49:37.371Z</time></trkpt><trkpt lat="45.2450711" lon="9.4003558"><ele>70.0</ele><time>2026-03-29T16:49:38.392Z</time></trkpt><trkpt lat="45.2450332" lon="9.4004901"><ele>70.0</ele><time>2026-03-29T16:49:39.394Z</time></trkpt><trkpt lat="45.2450521" lon="9.4008289"><ele>70.0</ele><time>2026-03-29T16:49:41.37Z</time></trkpt><trkpt lat="45.2451047" lon="9.4010261"><ele>72.0</ele><time>2026-03-29T16:49:42.379Z</time></trkpt><trkpt lat="45.2452534" lon="9.4014508"><ele>74.0</ele><time>2026-03-29T16:49:44.395Z</time></trkpt><trkpt lat="45.2454151" lon="9.4018336"><ele>74.0</ele><time>2026-03-29T16:49:46.367Z</time></trkpt><trkpt lat="45.2454871" lon="9.4019931"><ele>74.0</ele><time>2026-03-29T16:49:47.386Z</time></trkpt><trkpt lat="45.2455482" lon="9.4021361"><ele>74.0</ele><time>2026-03-29T16:49:48.393Z</time></trkpt><trkpt lat="45.2456324" lon="9.4023713"><ele>74.0</ele><time>2026-03-29T16:49:50.368Z</time></trkpt><trkpt lat="45.2456566" lon="9.4024623"><ele>73.0</ele><time>2026-03-29T16:49:51.367Z</time></trkpt><trkpt lat="45.2456849" lon="9.4025861"><ele>72.0</ele><time>2026-03-29T16:49:53.357Z</time></trkpt><trkpt lat="45.2456992" lon="9.4026858"><ele>71.0</ele><time>2026-03-29T16:49:56.372Z</time></trkpt><trkpt lat="45.2457072" lon="9.4027996"><ele>70.0</ele><time>2026-03-29T16:50:05.37Z</time></trkpt><trkpt lat="45.2457157" lon="9.4028913"><ele>69.0</ele><time>2026-03-29T16:50:06.379Z</time></trkpt><trkpt lat="45.2457645" lon="9.4031288"><ele>69.0</ele><time>2026-03-29T16:50:08.375Z</time></trkpt><trkpt lat="45.2458931" lon="9.4033006"><ele>69.0</ele><time>2026-03-29T16:50:10.343Z</time></trkpt><trkpt lat="45.2459817" lon="9.4033304"><ele>69.0</ele><time>2026-03-29T16:50:11.359Z</time></trkpt><trkpt lat="45.2461969" lon="9.4032734"><ele>69.0</ele><time>2026-03-29T16:50:13.357Z</time></trkpt><trkpt lat="45.2463247" lon="9.4031933"><ele>69.0</ele><time>2026-03-29T16:50:14.358Z</time></trkpt><trkpt lat="45.2466139" lon="9.4029868"><ele>67.0</ele><time>2026-03-29T16:50:16.378Z</time></trkpt><trkpt lat="45.2469329" lon="9.4027446"><ele>65.0</ele><time>2026-03-29T16:50:18.362Z</time></trkpt><trkpt lat="45.2470972" lon="9.4026158"><ele>65.0</ele><time>2026-03-29T16:50:19.361Z</time></trkpt><trkpt lat="45.2474334" lon="9.4023556"><ele>65.0</ele><time>2026-03-29T16:50:21.368Z</time></trkpt><trkpt lat="45.2477591" lon="9.4021214"><ele>65.5</ele><time>2026-03-29T16:50:23.359Z</time></trkpt><trkpt lat="45.2479256" lon="9.4020204"><ele>66.0</ele><time>2026-03-29T16:50:24.361Z</time></trkpt><trkpt lat="45.2482589" lon="9.4018418"><ele>68.0</ele><time>2026-03-29T16:50:26.368Z</time></trkpt><trkpt lat="45.2485717" lon="9.4016759"><ele>70.0</ele><time>2026-03-29T16:50:28.363Z</time></trkpt><trkpt lat="45.2487254" lon="9.4015948"><ele>69.0</ele><time>2026-03-29T16:50:29.368Z</time></trkpt><trkpt lat="45.2490297" lon="9.4014309"><ele>68.0</ele><time>2026-03-29T16:50:31.356Z</time></trkpt><trkpt lat="45.2493406" lon="9.4012625"><ele>68.0</ele><time>2026-03-29T16:50:33.358Z</time></trkpt><trkpt lat="45.2495006" lon="9.4011771"><ele>68.0</ele><time>2026-03-29T16:50:34.363Z</time></trkpt><trkpt lat="45.2498244" lon="9.4009909"><ele>67.66666666666667</ele><time>2026-03-29T16:50:36.351Z</time></trkpt><trkpt lat="45.2499892" lon="9.4008906"><ele>67.33333333333333</ele><time>2026-03-29T16:50:37.354Z</time></trkpt><trkpt lat="45.2501567" lon="9.4007878"><ele>67.0</ele><time>2026-03-29T16:50:38.364Z</time></trkpt><trkpt lat="45.2504944" lon="9.4005834"><ele>67.0</ele><time>2026-03-29T16:50:40.358Z</time></trkpt><trkpt lat="45.2506637" lon="9.4004816"><ele>67.0</ele><time>2026-03-29T16:50:41.36Z</time></trkpt><trkpt lat="45.2510014" lon="9.4002746"><ele>67.0</ele><time>2026-03-29T16:50:43.364Z</time></trkpt><trkpt lat="45.2513362" lon="9.4000683"><ele>67.0</ele><time>2026-03-29T16:50:45.354Z</time></trkpt><trkpt lat="45.2515034" lon="9.3999674"><ele>68.0</ele><time>2026-03-29T16:50:46.358Z</time></trkpt><trkpt lat="45.2518344" lon="9.3997664"><ele>69.0</ele><time>2026-03-29T16:50:48.356Z</time></trkpt><trkpt lat="45.2519982" lon="9.3996666"><ele>69.0</ele><time>2026-03-29T16:50:49.355Z</time></trkpt><trkpt lat="45.2521601" lon="9.3995686"><ele>69.0</ele><time>2026-03-29T16:50:50.363Z</time></trkpt><trkpt lat="45.2524701" lon="9.399381"><ele>69.0</ele><time>2026-03-29T16:50:52.359Z</time></trkpt><trkpt lat="45.2527649" lon="9.3992021"><ele>69.0</ele><time>2026-03-29T16:50:54.357Z</time></trkpt><trkpt lat="45.2529035" lon="9.3991211"><ele>69.66666666666667</ele><time>2026-03-29T16:50:55.362Z</time></trkpt><trkpt lat="45.2531606" lon="9.3989689"><ele>70.33333333333334</ele><time>2026-03-29T16:50:57.35Z</time></trkpt><trkpt lat="45.2532806" lon="9.3988983"><ele>71.0</ele><time>2026-03-29T16:50:58.36Z</time></trkpt><trkpt lat="45.2535056" lon="9.3987628"><ele>71.0</ele><time>2026-03-29T16:51:00.356Z</time></trkpt><trkpt lat="45.2536089" lon="9.3986991"><ele>71.0</ele><time>2026-03-29T16:51:01.364Z</time></trkpt><trkpt lat="45.2537081" lon="9.3986443"><ele>71.0</ele><time>2026-03-29T16:51:02.369Z</time></trkpt><trkpt lat="45.2539062" lon="9.3985335"><ele>71.0</ele><time>2026-03-29T16:51:04.358Z</time></trkpt><trkpt lat="45.2540079" lon="9.3984765"><ele>72.0</ele><time>2026-03-29T16:51:05.361Z</time></trkpt><trkpt lat="45.2542221" lon="9.3983499"><ele>73.0</ele><time>2026-03-29T16:51:07.35Z</time></trkpt><trkpt lat="45.2543357" lon="9.3982819"><ele>74.0</ele><time>2026-03-29T16:51:08.361Z</time></trkpt><trkpt lat="45.2545801" lon="9.3981356"><ele>72.66666666666667</ele><time>2026-03-29T16:51:10.362Z</time></trkpt><trkpt lat="45.2548462" lon="9.3979671"><ele>71.33333333333333</ele><time>2026-03-29T16:51:12.355Z</time></trkpt><trkpt lat="45.2549852" lon="9.3978704"><ele>70.0</ele><time>2026-03-29T16:51:13.365Z</time></trkpt><trkpt lat="45.2552657" lon="9.3976699"><ele>70.0</ele><time>2026-03-29T16:51:15.353Z</time></trkpt><trkpt lat="45.2555599" lon="9.3974683"><ele>70.0</ele><time>2026-03-29T16:51:17.359Z</time></trkpt><trkpt lat="45.2557141" lon="9.397367"><ele>70.5</ele><time>2026-03-29T16:51:18.359Z</time></trkpt><trkpt lat="45.2558722" lon="9.3972673"><ele>71.0</ele><time>2026-03-29T16:51:19.362Z</time></trkpt><trkpt lat="45.2562051" lon="9.3970921"><ele>71.5</ele><time>2026-03-29T16:51:21.36Z</time></trkpt><trkpt lat="45.2563757" lon="9.3970155"><ele>72.0</ele><time>2026-03-29T16:51:22.375Z</time></trkpt><trkpt lat="45.2567142" lon="9.3968743"><ele>72.0</ele><time>2026-03-29T16:51:24.372Z</time></trkpt><trkpt lat="45.2568737" lon="9.3968071"><ele>72.0</ele><time>2026-03-29T16:51:25.374Z</time></trkpt><trkpt lat="45.2570231" lon="9.3967446"><ele>72.0</ele><time>2026-03-29T16:51:26.378Z</time></trkpt><trkpt lat="45.2572837" lon="9.3966198"><ele>72.33333333333333</ele><time>2026-03-29T16:51:28.376Z</time></trkpt><trkpt lat="45.2574961" lon="9.3965118"><ele>72.66666666666666</ele><time>2026-03-29T16:51:30.361Z</time></trkpt><trkpt lat="45.2575896" lon="9.396479"><ele>73.0</ele><time>2026-03-29T16:51:31.379Z</time></trkpt><trkpt lat="45.2577652" lon="9.3964316"><ele>73.0</ele><time>2026-03-29T16:51:33.362Z</time></trkpt><trkpt lat="45.2578572" lon="9.3963673"><ele>73.0</ele><time>2026-03-29T16:51:34.368Z</time></trkpt><trkpt lat="45.2580944" lon="9.396177"><ele>73.0</ele><time>2026-03-29T16:51:36.373Z</time></trkpt><trkpt lat="45.2584164" lon="9.3959676"><ele>72.33333333333333</ele><time>2026-03-29T16:51:38.36Z</time></trkpt><trkpt lat="45.2586011" lon="9.3958494"><ele>71.66666666666667</ele><time>2026-03-29T16:51:39.365Z</time></trkpt><trkpt lat="45.2588004" lon="9.3957169"><ele>71.0</ele><time>2026-03-29T16:51:40.369Z</time></trkpt><trkpt lat="45.2591781" lon="9.3954466"><ele>70.0</ele><time>2026-03-29T16:51:42.365Z</time></trkpt><trkpt lat="45.2595089" lon="9.3951446"><ele>69.0</ele><time>2026-03-29T16:51:44.361Z</time></trkpt><trkpt lat="45.2598099" lon="9.3947809"><ele>70.0</ele><time>2026-03-29T16:51:46.397Z</time></trkpt><trkpt lat="45.2601272" lon="9.3943651"><ele>71.0</ele><time>2026-03-29T16:51:48.363Z</time></trkpt><trkpt lat="45.2605034" lon="9.3938768"><ele>71.0</ele><time>2026-03-29T16:51:50.36Z</time></trkpt><trkpt lat="45.260927" lon="9.3933393"><ele>71.0</ele><time>2026-03-29T16:51:52.367Z</time></trkpt><trkpt lat="45.2611289" lon="9.3930836"><ele>71.0</ele><time>2026-03-29T16:51:53.37Z</time></trkpt><trkpt lat="45.2613232" lon="9.3928359"><ele>72.0</ele><time>2026-03-29T16:51:54.369Z</time></trkpt><trkpt lat="45.2616819" lon="9.3923205"><ele>73.0</ele><time>2026-03-29T16:51:56.362Z</time></trkpt><trkpt lat="45.2620021" lon="9.3917536"><ele>73.0</ele><time>2026-03-29T16:51:58.37Z</time></trkpt><trkpt lat="45.262156" lon="9.3914576"><ele>73.0</ele><time>2026-03-29T16:51:59.383Z</time></trkpt><trkpt lat="45.2624672" lon="9.390872"><ele>71.0</ele><time>2026-03-29T16:52:01.367Z</time></trkpt><trkpt lat="45.2628101" lon="9.3903318"><ele>71.0</ele><time>2026-03-29T16:52:03.354Z</time></trkpt><trkpt lat="45.2630001" lon="9.3900891"><ele>71.0</ele><time>2026-03-29T16:52:04.359Z</time></trkpt><trkpt lat="45.263408" lon="9.3896541"><ele>70.5</ele><time>2026-03-29T16:52:06.349Z</time></trkpt><trkpt lat="45.2636171" lon="9.3894463"><ele>70.0</ele><time>2026-03-29T16:52:07.354Z</time></trkpt><trkpt lat="45.2638214" lon="9.3892269"><ele>74.0</ele><time>2026-03-29T16:52:08.361Z</time></trkpt><trkpt lat="45.2642074" lon="9.3887345"><ele>74.0</ele><time>2026-03-29T16:52:10.357Z</time></trkpt><trkpt lat="45.2643917" lon="9.3884831"><ele>74.0</ele><time>2026-03-29T16:52:11.362Z</time></trkpt><trkpt lat="45.2647446" lon="9.3880164"><ele>73.0</ele><time>2026-03-29T16:52:13.346Z</time></trkpt><trkpt lat="45.2649196" lon="9.3877908"><ele>72.0</ele><time>2026-03-29T16:52:14.354Z</time></trkpt><trkpt lat="45.265282" lon="9.3873629"><ele>71.5</ele><time>2026-03-29T16:52:16.359Z</time></trkpt><trkpt lat="45.2654707" lon="9.3871734"><ele>71.0</ele><time>2026-03-29T16:52:17.366Z</time></trkpt><trkpt lat="45.2658534" lon="9.3868494"><ele>75.0</ele><time>2026-03-29T16:52:19.356Z</time></trkpt><trkpt lat="45.2662607" lon="9.3865433"><ele>74.5</ele><time>2026-03-29T16:52:21.35Z</time></trkpt><trkpt lat="45.2664789" lon="9.3863855"><ele>74.0</ele><time>2026-03-29T16:52:22.35Z</time></trkpt><trkpt lat="45.2667082" lon="9.3862198"><ele>74.0</ele><time>2026-03-29T16:52:23.355Z</time></trkpt><trkpt lat="45.2669439" lon="9.3860498"><ele>74.0</ele><time>2026-03-29T16:52:24.373Z</time></trkpt><trkpt lat="45.267399" lon="9.3857343"><ele>74.0</ele><time>2026-03-29T16:52:26.359Z</time></trkpt><trkpt lat="45.2676246" lon="9.3855923"><ele>74.0</ele><time>2026-03-29T16:52:27.363Z</time></trkpt><trkpt lat="45.2680802" lon="9.3853418"><ele>74.5</ele><time>2026-03-29T16:52:29.366Z</time></trkpt><trkpt lat="45.2683077" lon="9.3852426"><ele>75.0</ele><time>2026-03-29T16:52:30.376Z</time></trkpt><trkpt lat="45.2687596" lon="9.3851036"><ele>75.0</ele><time>2026-03-29T16:52:32.382Z</time></trkpt><trkpt lat="45.2689852" lon="9.3850608"><ele>75.0</ele><time>2026-03-29T16:52:33.384Z</time></trkpt><trkpt lat="45.2694314" lon="9.3849956"><ele>75.0</ele><time>2026-03-29T16:52:35.352Z</time></trkpt><trkpt lat="45.2696579" lon="9.3849606"><ele>75.0</ele><time>2026-03-29T16:52:36.36Z</time></trkpt><trkpt lat="45.2698947" lon="9.3849231"><ele>74.33333333333333</ele><time>2026-03-29T16:52:37.367Z</time></trkpt><trkpt lat="45.2701217" lon="9.3848876"><ele>73.66666666666666</ele><time>2026-03-29T16:52:38.37Z</time></trkpt><trkpt lat="45.2703104" lon="9.3848461"><ele>73.0</ele><time>2026-03-29T16:52:39.371Z</time></trkpt><trkpt lat="45.2705734" lon="9.3847738"><ele>73.25</ele><time>2026-03-29T16:52:41.364Z</time></trkpt><trkpt lat="45.2706791" lon="9.3847471"><ele>73.5</ele><time>2026-03-29T16:52:42.37Z</time></trkpt><trkpt lat="45.2707872" lon="9.3847363"><ele>73.75</ele><time>2026-03-29T16:52:43.371Z</time></trkpt><trkpt lat="45.271003" lon="9.3847704"><ele>74.0</ele><time>2026-03-29T16:52:45.359Z</time></trkpt><trkpt lat="45.2711739" lon="9.3846394"><ele>74.33333333333334</ele><time>2026-03-29T16:52:47.357Z</time></trkpt><trkpt lat="45.2712394" lon="9.3845183"><ele>74.66666666666667</ele><time>2026-03-29T16:52:48.364Z</time></trkpt><trkpt lat="45.2713085" lon="9.3843976"><ele>75.0</ele><time>2026-03-29T16:52:49.372Z</time></trkpt><trkpt lat="45.2715101" lon="9.3841705"><ele>75.5</ele><time>2026-03-29T16:52:51.366Z</time></trkpt><trkpt lat="45.2717706" lon="9.3839376"><ele>76.0</ele><time>2026-03-29T16:52:53.358Z</time></trkpt><trkpt lat="45.2719075" lon="9.3838134"><ele>76.5</ele><time>2026-03-29T16:52:54.364Z</time></trkpt><trkpt lat="45.2720477" lon="9.3836889"><ele>77.0</ele><time>2026-03-29T16:52:55.369Z</time></trkpt><trkpt lat="45.2723284" lon="9.3834711"><ele>76.33333333333334</ele><time>2026-03-29T16:52:57.36Z</time></trkpt><trkpt lat="45.2724735" lon="9.383382"><ele>75.66666666666667</ele><time>2026-03-29T16:52:58.361Z</time></trkpt><trkpt lat="45.2726242" lon="9.3833046"><ele>75.0</ele><time>2026-03-29T16:52:59.367Z</time></trkpt><trkpt lat="45.2727781" lon="9.3832403"><ele>75.0</ele><time>2026-03-29T16:53:00.37Z</time></trkpt><trkpt lat="45.2731044" lon="9.3831533"><ele>75.0</ele><time>2026-03-29T16:53:02.362Z</time></trkpt><trkpt lat="45.2734969" lon="9.3831099"><ele>76.5</ele><time>2026-03-29T16:53:04.363Z</time></trkpt><trkpt lat="45.2737247" lon="9.3831038"><ele>78.0</ele><time>2026-03-29T16:53:05.366Z</time></trkpt><trkpt lat="45.2742456" lon="9.3830705"><ele>79.0</ele><time>2026-03-29T16:53:07.36Z</time></trkpt><trkpt lat="45.2748409" lon="9.3829733"><ele>79.0</ele><time>2026-03-29T16:53:09.362Z</time></trkpt><trkpt lat="45.2751501" lon="9.3829041"><ele>79.0</ele><time>2026-03-29T16:53:10.369Z</time></trkpt><trkpt lat="45.2754444" lon="9.3828286"><ele>78.0</ele><time>2026-03-29T16:53:11.38Z</time></trkpt><trkpt lat="45.2759822" lon="9.3826761"><ele>78.0</ele><time>2026-03-29T16:53:13.364Z</time></trkpt><trkpt lat="45.2762175" lon="9.3826056"><ele>78.0</ele><time>2026-03-29T16:53:14.379Z</time></trkpt><trkpt lat="45.2764252" lon="9.3825444"><ele>77.0</ele><time>2026-03-29T16:53:15.38Z</time></trkpt><trkpt lat="45.2767827" lon="9.3824438"><ele>76.0</ele><time>2026-03-29T16:53:17.362Z</time></trkpt><trkpt lat="45.2769562" lon="9.3823923"><ele>76.0</ele><time>2026-03-29T16:53:18.363Z</time></trkpt><trkpt lat="45.2771327" lon="9.3823399"><ele>76.0</ele><time>2026-03-29T16:53:19.362Z</time></trkpt><trkpt lat="45.2773122" lon="9.3822856"><ele>76.0</ele><time>2026-03-29T16:53:20.369Z</time></trkpt><trkpt lat="45.2776797" lon="9.3821763"><ele>76.5</ele><time>2026-03-29T16:53:22.363Z</time></trkpt><trkpt lat="45.2780509" lon="9.3820723"><ele>77.0</ele><time>2026-03-29T16:53:24.359Z</time></trkpt><trkpt lat="45.2782377" lon="9.3820131"><ele>77.0</ele><time>2026-03-29T16:53:25.358Z</time></trkpt><trkpt lat="45.2786416" lon="9.3818626"><ele>77.0</ele><time>2026-03-29T16:53:27.358Z</time></trkpt><trkpt lat="45.2788642" lon="9.3817845"><ele>77.5</ele><time>2026-03-29T16:53:28.36Z</time></trkpt><trkpt lat="45.2791019" lon="9.3817079"><ele>78.0</ele><time>2026-03-29T16:53:29.36Z</time></trkpt><trkpt lat="45.2796126" lon="9.3815491"><ele>77.0</ele><time>2026-03-29T16:53:31.353Z</time></trkpt><trkpt lat="45.2798809" lon="9.3814589"><ele>76.0</ele><time>2026-03-29T16:53:32.353Z</time></trkpt><trkpt lat="45.2801576" lon="9.3813638"><ele>76.5</ele><time>2026-03-29T16:53:33.355Z</time></trkpt><trkpt lat="45.2804384" lon="9.3812661"><ele>77.0</ele><time>2026-03-29T16:53:34.357Z</time></trkpt><trkpt lat="45.2810114" lon="9.3810735"><ele>77.0</ele><time>2026-03-29T16:53:36.355Z</time></trkpt><trkpt lat="45.2813049" lon="9.3809761"><ele>77.0</ele><time>2026-03-29T16:53:37.361Z</time></trkpt><trkpt lat="45.2815982" lon="9.3808809"><ele>80.0</ele><time>2026-03-29T16:53:38.364Z</time></trkpt><trkpt lat="45.2821446" lon="9.3807121"><ele>79.0</ele><time>2026-03-29T16:53:40.364Z</time></trkpt><trkpt lat="45.2823865" lon="9.3806386"><ele>78.0</ele><time>2026-03-29T16:53:41.368Z</time></trkpt><trkpt lat="45.2828285" lon="9.3805086"><ele>78.0</ele><time>2026-03-29T16:53:43.362Z</time></trkpt><trkpt lat="45.2830306" lon="9.3804418"><ele>78.0</ele><time>2026-03-29T16:53:44.362Z</time></trkpt><trkpt lat="45.2832192" lon="9.380377"><ele>78.0</ele><time>2026-03-29T16:53:45.366Z</time></trkpt><trkpt lat="45.2835571" lon="9.3802535"><ele>77.5</ele><time>2026-03-29T16:53:47.36Z</time></trkpt><trkpt lat="45.2837101" lon="9.3801943"><ele>77.0</ele><time>2026-03-29T16:53:48.37Z</time></trkpt><trkpt lat="45.2839964" lon="9.3801184"><ele>77.0</ele><time>2026-03-29T16:53:50.371Z</time></trkpt><trkpt lat="45.2842435" lon="9.3801514"><ele>77.0</ele><time>2026-03-29T16:53:52.369Z</time></trkpt><trkpt lat="45.2843465" lon="9.380132"><ele>77.0</ele><time>2026-03-29T16:53:53.371Z</time></trkpt><trkpt lat="45.2845616" lon="9.3799593"><ele>78.5</ele><time>2026-03-29T16:53:55.369Z</time></trkpt><trkpt lat="45.2849041" lon="9.379789"><ele>80.0</ele><time>2026-03-29T16:53:57.364Z</time></trkpt><trkpt lat="45.2853569" lon="9.3796199"><ele>80.0</ele><time>2026-03-29T16:53:59.372Z</time></trkpt><trkpt lat="45.2855861" lon="9.3795273"><ele>80.0</ele><time>2026-03-29T16:54:00.395Z</time></trkpt><trkpt lat="45.2860206" lon="9.3793508"><ele>80.0</ele><time>2026-03-29T16:54:02.358Z</time></trkpt><trkpt lat="45.2862152" lon="9.379273"><ele>80.0</ele><time>2026-03-29T16:54:03.359Z</time></trkpt><trkpt lat="45.2864002" lon="9.3791995"><ele>80.0</ele><time>2026-03-29T16:54:04.37Z</time></trkpt><trkpt lat="45.2867691" lon="9.3790523"><ele>80.0</ele><time>2026-03-29T16:54:06.356Z</time></trkpt><trkpt lat="45.2869606" lon="9.3789786"><ele>80.0</ele><time>2026-03-29T16:54:07.356Z</time></trkpt><trkpt lat="45.2871579" lon="9.3789008"><ele>80.0</ele><time>2026-03-29T16:54:08.369Z</time></trkpt><trkpt lat="45.2875684" lon="9.3787398"><ele>80.0</ele><time>2026-03-29T16:54:10.361Z</time></trkpt><trkpt lat="45.2879982" lon="9.3785753"><ele>80.0</ele><time>2026-03-29T16:54:12.367Z</time></trkpt><trkpt lat="45.2884419" lon="9.3783954"><ele>80.5</ele><time>2026-03-29T16:54:14.361Z</time></trkpt><trkpt lat="45.2886629" lon="9.3782928"><ele>81.0</ele><time>2026-03-29T16:54:15.364Z</time></trkpt><trkpt lat="45.2890892" lon="9.3780491"><ele>80.5</ele><time>2026-03-29T16:54:17.357Z</time></trkpt><trkpt lat="45.2892962" lon="9.3779044"><ele>80.0</ele><time>2026-03-29T16:54:18.365Z</time></trkpt><trkpt lat="45.2896865" lon="9.3775929"><ele>80.5</ele><time>2026-03-29T16:54:20.352Z</time></trkpt><trkpt lat="45.2900601" lon="9.3772815"><ele>81.0</ele><time>2026-03-29T16:54:22.371Z</time></trkpt><trkpt lat="45.2904035" lon="9.3769961"><ele>80.5</ele><time>2026-03-29T16:54:24.374Z</time></trkpt><trkpt lat="45.2905629" lon="9.3768699"><ele>80.0</ele><time>2026-03-29T16:54:25.4Z</time></trkpt><trkpt lat="45.2908704" lon="9.3766684"><ele>80.0</ele><time>2026-03-29T16:54:27.366Z</time></trkpt><trkpt lat="45.2911899" lon="9.3765088"><ele>80.0</ele><time>2026-03-29T16:54:29.359Z</time></trkpt><trkpt lat="45.2913544" lon="9.3764118"><ele>81.0</ele><time>2026-03-29T16:54:30.362Z</time></trkpt><trkpt lat="45.2915211" lon="9.3762863"><ele>82.0</ele><time>2026-03-29T16:54:31.362Z</time></trkpt><trkpt lat="45.2918561" lon="9.3759573"><ele>82.0</ele><time>2026-03-29T16:54:33.361Z</time></trkpt><trkpt lat="45.2921942" lon="9.3755709"><ele>82.0</ele><time>2026-03-29T16:54:35.361Z</time></trkpt><trkpt lat="45.2925626" lon="9.3752051"><ele>81.0</ele><time>2026-03-29T16:54:37.361Z</time></trkpt><trkpt lat="45.2929676" lon="9.3748613"><ele>83.0</ele><time>2026-03-29T16:54:39.362Z</time></trkpt><trkpt lat="45.2933982" lon="9.3745436"><ele>83.0</ele><time>2026-03-29T16:54:41.36Z</time></trkpt><trkpt lat="45.2938544" lon="9.3742841"><ele>82.5</ele><time>2026-03-29T16:54:43.361Z</time></trkpt><trkpt lat="45.2940919" lon="9.3741738"><ele>82.0</ele><time>2026-03-29T16:54:44.364Z</time></trkpt><trkpt lat="45.2945789" lon="9.3739734"><ele>81.0</ele><time>2026-03-29T16:54:46.358Z</time></trkpt><trkpt lat="45.2948271" lon="9.3738729"><ele>80.0</ele><time>2026-03-29T16:54:47.358Z</time></trkpt><trkpt lat="45.2953219" lon="9.3736683"><ele>80.0</ele><time>2026-03-29T16:54:49.359Z</time></trkpt><trkpt lat="45.2955707" lon="9.3735658"><ele>80.0</ele><time>2026-03-29T16:54:50.374Z</time></trkpt><trkpt lat="45.2960611" lon="9.3733598"><ele>80.0</ele><time>2026-03-29T16:54:52.37Z</time></trkpt><trkpt lat="45.2962909" lon="9.3732634"><ele>80.0</ele><time>2026-03-29T16:54:53.369Z</time></trkpt><trkpt lat="45.2965107" lon="9.3731696"><ele>81.0</ele><time>2026-03-29T16:54:54.374Z</time></trkpt><trkpt lat="45.2968952" lon="9.3730019"><ele>82.0</ele><time>2026-03-29T16:54:56.372Z</time></trkpt><trkpt lat="45.2970549" lon="9.3729376"><ele>82.0</ele><time>2026-03-29T16:54:57.375Z</time></trkpt><trkpt lat="45.2973389" lon="9.3728944"><ele>82.0</ele><time>2026-03-29T16:54:59.361Z</time></trkpt><trkpt lat="45.2974785" lon="9.3729126"><ele>82.0</ele><time>2026-03-29T16:55:00.373Z</time></trkpt><trkpt lat="45.2977447" lon="9.3728894"><ele>82.0</ele><time>2026-03-29T16:55:02.372Z</time></trkpt><trkpt lat="45.2979677" lon="9.3726468"><ele>82.0</ele><time>2026-03-29T16:55:04.361Z</time></trkpt><trkpt lat="45.2980876" lon="9.3724841"><ele>82.0</ele><time>2026-03-29T16:55:05.365Z</time></trkpt><trkpt lat="45.2982386" lon="9.3723238"><ele>81.5</ele><time>2026-03-29T16:55:06.374Z</time></trkpt><trkpt lat="45.2984256" lon="9.3721738"><ele>81.0</ele><time>2026-03-29T16:55:07.374Z</time></trkpt><trkpt lat="45.2987984" lon="9.3718798"><ele>81.0</ele><time>2026-03-29T16:55:09.367Z</time></trkpt><trkpt lat="45.2989669" lon="9.3717068"><ele>81.0</ele><time>2026-03-29T16:55:10.371Z</time></trkpt><trkpt lat="45.2991216" lon="9.3715203"><ele>81.0</ele><time>2026-03-29T16:55:11.384Z</time></trkpt><trkpt lat="45.2994042" lon="9.3711296"><ele>79.5</ele><time>2026-03-29T16:55:13.364Z</time></trkpt><trkpt lat="45.2996796" lon="9.3707268"><ele>78.0</ele><time>2026-03-29T16:55:15.366Z</time></trkpt><trkpt lat="45.2999567" lon="9.3703119"><ele>78.0</ele><time>2026-03-29T16:55:17.365Z</time></trkpt><trkpt lat="45.3002334" lon="9.3698916"><ele>78.0</ele><time>2026-03-29T16:55:19.361Z</time></trkpt><trkpt lat="45.3003649" lon="9.3696898"><ele>76.5</ele><time>2026-03-29T16:55:20.364Z</time></trkpt><trkpt lat="45.3006159" lon="9.3693038"><ele>75.0</ele><time>2026-03-29T16:55:22.355Z</time></trkpt><trkpt lat="45.3008604" lon="9.3689238"><ele>75.5</ele><time>2026-03-29T16:55:24.357Z</time></trkpt><trkpt lat="45.3010904" lon="9.3685653"><ele>76.0</ele><time>2026-03-29T16:55:26.367Z</time></trkpt><trkpt lat="45.3013054" lon="9.3682279"><ele>76.0</ele><time>2026-03-29T16:55:28.354Z</time></trkpt><trkpt lat="45.301411" lon="9.3680621"><ele>76.0</ele><time>2026-03-29T16:55:29.359Z</time></trkpt><trkpt lat="45.301516" lon="9.3678961"><ele>76.0</ele><time>2026-03-29T16:55:30.363Z</time></trkpt><trkpt lat="45.3017191" lon="9.3675774"><ele>75.0</ele><time>2026-03-29T16:55:32.366Z</time></trkpt><trkpt lat="45.3018139" lon="9.3674294"><ele>74.0</ele><time>2026-03-29T16:55:33.371Z</time></trkpt><trkpt lat="45.3019056" lon="9.3672861"><ele>73.0</ele><time>2026-03-29T16:55:34.372Z</time></trkpt><trkpt lat="45.3020882" lon="9.3669994"><ele>72.66666666666666</ele><time>2026-03-29T16:55:36.36Z</time></trkpt><trkpt lat="45.3021755" lon="9.3668569"><ele>72.33333333333333</ele><time>2026-03-29T16:55:37.362Z</time></trkpt><trkpt lat="45.3023312" lon="9.3666044"><ele>72.0</ele><time>2026-03-29T16:55:39.368Z</time></trkpt><trkpt lat="45.3024024" lon="9.3664961"><ele>72.25</ele><time>2026-03-29T16:55:40.37Z</time></trkpt><trkpt lat="45.3025792" lon="9.3663348"><ele>72.5</ele><time>2026-03-29T16:55:42.37Z</time></trkpt><trkpt lat="45.3026776" lon="9.3662723"><ele>72.75</ele><time>2026-03-29T16:55:43.369Z</time></trkpt><trkpt lat="45.3027582" lon="9.3661934"><ele>73.0</ele><time>2026-03-29T16:55:44.372Z</time></trkpt><trkpt lat="45.3028567" lon="9.3659504"><ele>73.0</ele><time>2026-03-29T16:55:46.372Z</time></trkpt><trkpt lat="45.3029046" lon="9.3657963"><ele>73.0</ele><time>2026-03-29T16:55:47.375Z</time></trkpt><trkpt lat="45.3030651" lon="9.3654719"><ele>73.0</ele><time>2026-03-29T16:55:49.37Z</time></trkpt><trkpt lat="45.3032962" lon="9.3651079"><ele>73.0</ele><time>2026-03-29T16:55:51.374Z</time></trkpt><trkpt lat="45.3035589" lon="9.3647003"><ele>73.0</ele><time>2026-03-29T16:55:53.361Z</time></trkpt><trkpt lat="45.3038134" lon="9.3642999"><ele>75.0</ele><time>2026-03-29T16:55:55.375Z</time></trkpt><trkpt lat="45.3039327" lon="9.3641099"><ele>77.0</ele><time>2026-03-29T16:55:56.397Z</time></trkpt><trkpt lat="45.304173" lon="9.3637319"><ele>77.0</ele><time>2026-03-29T16:55:58.363Z</time></trkpt><trkpt lat="45.3042959" lon="9.3635416"><ele>77.0</ele><time>2026-03-29T16:55:59.363Z</time></trkpt><trkpt lat="45.3044195" lon="9.3633499"><ele>77.0</ele><time>2026-03-29T16:56:00.363Z</time></trkpt><trkpt lat="45.3045427" lon="9.363156"><ele>78.0</ele><time>2026-03-29T16:56:01.389Z</time></trkpt><trkpt lat="45.3047894" lon="9.3627728"><ele>79.0</ele><time>2026-03-29T16:56:03.369Z</time></trkpt><trkpt lat="45.3050311" lon="9.3623983"><ele>79.0</ele><time>2026-03-29T16:56:05.366Z</time></trkpt><trkpt lat="45.3051506" lon="9.3622119"><ele>79.0</ele><time>2026-03-29T16:56:06.371Z</time></trkpt><trkpt lat="45.3053929" lon="9.361833"><ele>79.0</ele><time>2026-03-29T16:56:08.359Z</time></trkpt><trkpt lat="45.3055179" lon="9.361638"><ele>79.0</ele><time>2026-03-29T16:56:09.364Z</time></trkpt><trkpt lat="45.3056397" lon="9.3614321"><ele>79.0</ele><time>2026-03-29T16:56:10.369Z</time></trkpt><trkpt lat="45.3057691" lon="9.3612264"><ele>79.0</ele><time>2026-03-29T16:56:11.374Z</time></trkpt><trkpt lat="45.3059047" lon="9.3610193"><ele>79.0</ele><time>2026-03-29T16:56:12.384Z</time></trkpt><trkpt lat="45.3061636" lon="9.3606171"><ele>78.5</ele><time>2026-03-29T16:56:14.367Z</time></trkpt><trkpt lat="45.3062909" lon="9.3604196"><ele>78.0</ele><time>2026-03-29T16:56:15.384Z</time></trkpt><trkpt lat="45.3065429" lon="9.3600319"><ele>79.0</ele><time>2026-03-29T16:56:17.374Z</time></trkpt><trkpt lat="45.3067782" lon="9.3596694"><ele>80.0</ele><time>2026-03-29T16:56:19.355Z</time></trkpt><trkpt lat="45.3068951" lon="9.3594906"><ele>80.0</ele><time>2026-03-29T16:56:20.356Z</time></trkpt><trkpt lat="45.3071232" lon="9.359134"><ele>80.0</ele><time>2026-03-29T16:56:22.356Z</time></trkpt><trkpt lat="45.3072374" lon="9.3589564"><ele>80.0</ele><time>2026-03-29T16:56:23.358Z</time></trkpt><trkpt lat="45.307353" lon="9.3587763"><ele>80.0</ele><time>2026-03-29T16:56:24.359Z</time></trkpt><trkpt lat="45.3075914" lon="9.3584068"><ele>80.0</ele><time>2026-03-29T16:56:26.352Z</time></trkpt><trkpt lat="45.3077145" lon="9.3582154"><ele>80.0</ele><time>2026-03-29T16:56:27.36Z</time></trkpt><trkpt lat="45.3079684" lon="9.3578185"><ele>79.66666666666667</ele><time>2026-03-29T16:56:29.354Z</time></trkpt><trkpt lat="45.308101" lon="9.3576129"><ele>79.33333333333333</ele><time>2026-03-29T16:56:30.361Z</time></trkpt><trkpt lat="45.3082346" lon="9.3574066"><ele>79.0</ele><time>2026-03-29T16:56:31.363Z</time></trkpt><trkpt lat="45.3083645" lon="9.3572081"><ele>79.0</ele><time>2026-03-29T16:56:32.367Z</time></trkpt><trkpt lat="45.3086286" lon="9.3568244"><ele>79.0</ele><time>2026-03-29T16:56:34.358Z</time></trkpt><trkpt lat="45.3087672" lon="9.3566399"><ele>79.5</ele><time>2026-03-29T16:56:35.359Z</time></trkpt><trkpt lat="45.3090609" lon="9.3562806"><ele>80.0</ele><time>2026-03-29T16:56:37.364Z</time></trkpt><trkpt lat="45.3092172" lon="9.3561026"><ele>80.0</ele><time>2026-03-29T16:56:38.368Z</time></trkpt><trkpt lat="45.3095427" lon="9.3557455"><ele>80.0</ele><time>2026-03-29T16:56:40.366Z</time></trkpt><trkpt lat="45.3098912" lon="9.3553929"><ele>79.0</ele><time>2026-03-29T16:56:42.36Z</time></trkpt><trkpt lat="45.3100629" lon="9.3552236"><ele>78.0</ele><time>2026-03-29T16:56:43.363Z</time></trkpt><trkpt lat="45.3102271" lon="9.3550594"><ele>77.0</ele><time>2026-03-29T16:56:44.365Z</time></trkpt><trkpt lat="45.310541" lon="9.3547456"><ele>76.5</ele><time>2026-03-29T16:56:46.362Z</time></trkpt><trkpt lat="45.3108472" lon="9.3544359"><ele>76.0</ele><time>2026-03-29T16:56:48.368Z</time></trkpt><trkpt lat="45.3109949" lon="9.3542874"><ele>76.0</ele><time>2026-03-29T16:56:49.372Z</time></trkpt><trkpt lat="45.3112716" lon="9.3540109"><ele>76.0</ele><time>2026-03-29T16:56:51.361Z</time></trkpt><trkpt lat="45.3114012" lon="9.3538818"><ele>76.5</ele><time>2026-03-29T16:56:52.365Z</time></trkpt><trkpt lat="45.3116502" lon="9.3536509"><ele>77.0</ele><time>2026-03-29T16:56:54.365Z</time></trkpt><trkpt lat="45.3119179" lon="9.3534486"><ele>77.0</ele><time>2026-03-29T16:56:56.362Z</time></trkpt><trkpt lat="45.3122091" lon="9.3532655"><ele>77.0</ele><time>2026-03-29T16:56:58.364Z</time></trkpt><trkpt lat="45.3123561" lon="9.3531579"><ele>79.0</ele><time>2026-03-29T16:56:59.367Z</time></trkpt><trkpt lat="45.3126395" lon="9.3528834"><ele>81.0</ele><time>2026-03-29T16:57:01.361Z</time></trkpt><trkpt lat="45.3127742" lon="9.3527108"><ele>81.0</ele><time>2026-03-29T16:57:02.363Z</time></trkpt><trkpt lat="45.3129049" lon="9.3525241"><ele>81.0</ele><time>2026-03-29T16:57:03.364Z</time></trkpt><trkpt lat="45.3131787" lon="9.352147"><ele>80.0</ele><time>2026-03-29T16:57:05.365Z</time></trkpt><trkpt lat="45.3133289" lon="9.3519726"><ele>79.0</ele><time>2026-03-29T16:57:06.37Z</time></trkpt><trkpt lat="45.3136551" lon="9.3516389"><ele>79.0</ele><time>2026-03-29T16:57:08.357Z</time></trkpt><trkpt lat="45.3138269" lon="9.3514683"><ele>79.0</ele><time>2026-03-29T16:57:09.36Z</time></trkpt><trkpt lat="45.3141879" lon="9.3510996"><ele>80.0</ele><time>2026-03-29T16:57:11.357Z</time></trkpt><trkpt lat="45.3145709" lon="9.3507061"><ele>80.5</ele><time>2026-03-29T16:57:13.357Z</time></trkpt><trkpt lat="45.3147666" lon="9.3505105"><ele>81.0</ele><time>2026-03-29T16:57:14.368Z</time></trkpt><trkpt lat="45.3151634" lon="9.3501044"><ele>81.0</ele><time>2026-03-29T16:57:16.357Z</time></trkpt><trkpt lat="45.3153667" lon="9.3499011"><ele>81.0</ele><time>2026-03-29T16:57:17.361Z</time></trkpt><trkpt lat="45.3155717" lon="9.3496978"><ele>81.0</ele><time>2026-03-29T16:57:18.368Z</time></trkpt><trkpt lat="45.3159696" lon="9.3493055"><ele>81.0</ele><time>2026-03-29T16:57:20.365Z</time></trkpt><trkpt lat="45.3161559" lon="9.3491203"><ele>81.0</ele><time>2026-03-29T16:57:21.367Z</time></trkpt><trkpt lat="45.3165204" lon="9.3487494"><ele>82.5</ele><time>2026-03-29T16:57:23.36Z</time></trkpt><trkpt lat="45.3167079" lon="9.348561"><ele>84.0</ele><time>2026-03-29T16:57:24.36Z</time></trkpt><trkpt lat="45.3171052" lon="9.3481705"><ele>82.0</ele><time>2026-03-29T16:57:26.355Z</time></trkpt><trkpt lat="45.3173149" lon="9.3479683"><ele>80.0</ele><time>2026-03-29T16:57:27.356Z</time></trkpt><trkpt lat="45.3175311" lon="9.3477601"><ele>80.0</ele><time>2026-03-29T16:57:28.356Z</time></trkpt><trkpt lat="45.3177521" lon="9.3475451"><ele>80.0</ele><time>2026-03-29T16:57:29.359Z</time></trkpt><trkpt lat="45.3182052" lon="9.3470949"><ele>82.0</ele><time>2026-03-29T16:57:31.356Z</time></trkpt><trkpt lat="45.3184386" lon="9.3468631"><ele>84.0</ele><time>2026-03-29T16:57:32.356Z</time></trkpt><trkpt lat="45.3189167" lon="9.3463899"><ele>83.5</ele><time>2026-03-29T16:57:34.358Z</time></trkpt><trkpt lat="45.3191607" lon="9.3461481"><ele>83.0</ele><time>2026-03-29T16:57:35.357Z</time></trkpt><trkpt lat="45.3194074" lon="9.3459026"><ele>83.0</ele><time>2026-03-29T16:57:36.36Z</time></trkpt><trkpt lat="45.3199032" lon="9.3454031"><ele>83.0</ele><time>2026-03-29T16:57:38.362Z</time></trkpt><trkpt lat="45.3204042" lon="9.3449061"><ele>82.0</ele><time>2026-03-29T16:57:40.353Z</time></trkpt><trkpt lat="45.3206549" lon="9.3446583"><ele>81.0</ele><time>2026-03-29T16:57:41.359Z</time></trkpt><trkpt lat="45.3211577" lon="9.3441586"><ele>82.0</ele><time>2026-03-29T16:57:43.358Z</time></trkpt><trkpt lat="45.3216639" lon="9.3436566"><ele>82.0</ele><time>2026-03-29T16:57:45.358Z</time></trkpt><trkpt lat="45.3219179" lon="9.3434068"><ele>82.0</ele><time>2026-03-29T16:57:46.361Z</time></trkpt><trkpt lat="45.3221717" lon="9.3431546"><ele>81.5</ele><time>2026-03-29T16:57:47.362Z</time></trkpt><trkpt lat="45.3224237" lon="9.3429019"><ele>81.0</ele><time>2026-03-29T16:57:48.366Z</time></trkpt><trkpt lat="45.3226654" lon="9.3426571"><ele>81.0</ele><time>2026-03-29T16:57:49.366Z</time></trkpt><trkpt lat="45.3231149" lon="9.3422021"><ele>81.0</ele><time>2026-03-29T16:57:51.381Z</time></trkpt><trkpt lat="45.3233251" lon="9.3419899"><ele>81.0</ele><time>2026-03-29T16:57:52.384Z</time></trkpt><trkpt lat="45.3237169" lon="9.3415981"><ele>81.0</ele><time>2026-03-29T16:57:54.37Z</time></trkpt><trkpt lat="45.3240771" lon="9.3412428"><ele>81.0</ele><time>2026-03-29T16:57:56.372Z</time></trkpt><trkpt lat="45.3242442" lon="9.3410789"><ele>81.0</ele><time>2026-03-29T16:57:57.388Z</time></trkpt><trkpt lat="45.3245304" lon="9.3407734"><ele>81.0</ele><time>2026-03-29T16:57:59.384Z</time></trkpt><trkpt lat="45.3247554" lon="9.3405061"><ele>81.66666666666667</ele><time>2026-03-29T16:58:01.376Z</time></trkpt><trkpt lat="45.3248617" lon="9.3403989"><ele>82.33333333333334</ele><time>2026-03-29T16:58:02.397Z</time></trkpt><trkpt lat="45.3250752" lon="9.3402571"><ele>83.0</ele><time>2026-03-29T16:58:04.376Z</time></trkpt><trkpt lat="45.3252629" lon="9.3400549"><ele>83.0</ele><time>2026-03-29T16:58:06.369Z</time></trkpt><trkpt lat="45.3253612" lon="9.3399259"><ele>83.0</ele><time>2026-03-29T16:58:07.374Z</time></trkpt><trkpt lat="45.3256185" lon="9.3396798"><ele>83.0</ele><time>2026-03-29T16:58:09.363Z</time></trkpt><trkpt lat="45.3257714" lon="9.3395501"><ele>83.5</ele><time>2026-03-29T16:58:10.368Z</time></trkpt><trkpt lat="45.3260934" lon="9.3392523"><ele>84.0</ele><time>2026-03-29T16:58:12.372Z</time></trkpt><trkpt lat="45.3264081" lon="9.3389404"><ele>83.5</ele><time>2026-03-29T16:58:14.361Z</time></trkpt><trkpt lat="45.3265587" lon="9.3387881"><ele>83.0</ele><time>2026-03-29T16:58:15.362Z</time></trkpt><trkpt lat="45.3268571" lon="9.3384886"><ele>83.0</ele><time>2026-03-29T16:58:17.354Z</time></trkpt><trkpt lat="45.3270005" lon="9.338348"><ele>83.0</ele><time>2026-03-29T16:58:18.358Z</time></trkpt><trkpt lat="45.3271422" lon="9.3382081"><ele>83.0</ele><time>2026-03-29T16:58:19.363Z</time></trkpt><trkpt lat="45.3272844" lon="9.3380669"><ele>83.5</ele><time>2026-03-29T16:58:20.368Z</time></trkpt><trkpt lat="45.3275794" lon="9.3377716"><ele>84.0</ele><time>2026-03-29T16:58:22.355Z</time></trkpt><trkpt lat="45.3277326" lon="9.3376173"><ele>84.0</ele><time>2026-03-29T16:58:23.363Z</time></trkpt><trkpt lat="45.3280487" lon="9.3372993"><ele>84.0</ele><time>2026-03-29T16:58:25.358Z</time></trkpt><trkpt lat="45.328213" lon="9.3371356"><ele>83.5</ele><time>2026-03-29T16:58:26.363Z</time></trkpt><trkpt lat="45.3285552" lon="9.3367973"><ele>83.0</ele><time>2026-03-29T16:58:28.356Z</time></trkpt><trkpt lat="45.3288942" lon="9.3364619"><ele>83.0</ele><time>2026-03-29T16:58:30.36Z</time></trkpt><trkpt lat="45.3290614" lon="9.3362944"><ele>83.0</ele><time>2026-03-29T16:58:31.364Z</time></trkpt><trkpt lat="45.3293807" lon="9.3359766"><ele>83.0</ele><time>2026-03-29T16:58:33.368Z</time></trkpt><trkpt lat="45.3296829" lon="9.335676"><ele>83.0</ele><time>2026-03-29T16:58:35.354Z</time></trkpt><trkpt lat="45.3298345" lon="9.3355256"><ele>83.0</ele><time>2026-03-29T16:58:36.374Z</time></trkpt><trkpt lat="45.3301361" lon="9.3352259"><ele>83.0</ele><time>2026-03-29T16:58:38.36Z</time></trkpt><trkpt lat="45.3304416" lon="9.3349243"><ele>82.5</ele><time>2026-03-29T16:58:40.358Z</time></trkpt><trkpt lat="45.3307534" lon="9.3346148"><ele>82.0</ele><time>2026-03-29T16:58:42.361Z</time></trkpt><trkpt lat="45.3309107" lon="9.3344621"><ele>82.0</ele><time>2026-03-29T16:58:43.361Z</time></trkpt><trkpt lat="45.3310679" lon="9.3343138"><ele>82.0</ele><time>2026-03-29T16:58:44.366Z</time></trkpt><trkpt lat="45.3312224" lon="9.334178"><ele>82.0</ele><time>2026-03-29T16:58:45.374Z</time></trkpt><trkpt lat="45.3315197" lon="9.3339468"><ele>83.5</ele><time>2026-03-29T16:58:47.361Z</time></trkpt><trkpt lat="45.3318064" lon="9.3337679"><ele>85.0</ele><time>2026-03-29T16:58:49.367Z</time></trkpt><trkpt lat="45.3320914" lon="9.3336439"><ele>84.66666666666666</ele><time>2026-03-29T16:58:51.367Z</time></trkpt><trkpt lat="45.3323561" lon="9.3335894"><ele>84.33333333333333</ele><time>2026-03-29T16:58:53.357Z</time></trkpt><trkpt lat="45.3324635" lon="9.3335866"><ele>84.0</ele><time>2026-03-29T16:58:54.367Z</time></trkpt><trkpt lat="45.3326374" lon="9.3335913"><ele>84.0</ele><time>2026-03-29T16:58:56.352Z</time></trkpt><trkpt lat="45.3327144" lon="9.3335995"><ele>84.0</ele><time>2026-03-29T16:58:57.36Z</time></trkpt><trkpt lat="45.3327907" lon="9.3336279"><ele>84.0</ele><time>2026-03-29T16:58:58.365Z</time></trkpt><trkpt lat="45.3328639" lon="9.3336836"><ele>84.0</ele><time>2026-03-29T16:58:59.366Z</time></trkpt><trkpt lat="45.3329352" lon="9.3337419"><ele>84.0</ele><time>2026-03-29T16:59:00.37Z</time></trkpt><trkpt lat="45.3330844" lon="9.3337539"><ele>84.2</ele><time>2026-03-29T16:59:02.37Z</time></trkpt><trkpt lat="45.3331499" lon="9.3337006"><ele>84.4</ele><time>2026-03-29T16:59:03.369Z</time></trkpt><trkpt lat="45.3332056" lon="9.3336211"><ele>84.6</ele><time>2026-03-29T16:59:04.376Z</time></trkpt><trkpt lat="45.3333392" lon="9.3334406"><ele>84.8</ele><time>2026-03-29T16:59:06.372Z</time></trkpt><trkpt lat="45.3334316" lon="9.3333638"><ele>85.0</ele><time>2026-03-29T16:59:07.377Z</time></trkpt><trkpt lat="45.3336549" lon="9.3332294"><ele>85.0</ele><time>2026-03-29T16:59:09.357Z</time></trkpt><trkpt lat="45.3337742" lon="9.3331649"><ele>85.0</ele><time>2026-03-29T16:59:10.358Z</time></trkpt><trkpt lat="45.3338964" lon="9.3331008"><ele>85.0</ele><time>2026-03-29T16:59:11.362Z</time></trkpt><trkpt lat="45.3340219" lon="9.3330353"><ele>85.0</ele><time>2026-03-29T16:59:12.362Z</time></trkpt><trkpt lat="45.3342716" lon="9.3328979"><ele>84.66666666666666</ele><time>2026-03-29T16:59:14.381Z</time></trkpt><trkpt lat="45.3344946" lon="9.3327336"><ele>84.33333333333333</ele><time>2026-03-29T16:59:16.363Z</time></trkpt><trkpt lat="45.3345955" lon="9.3326399"><ele>84.0</ele><time>2026-03-29T16:59:17.37Z</time></trkpt><trkpt lat="45.3347712" lon="9.3324541"><ele>84.0</ele><time>2026-03-29T16:59:19.367Z</time></trkpt><trkpt lat="45.3349214" lon="9.3323021"><ele>84.0</ele><time>2026-03-29T16:59:21.367Z</time></trkpt><trkpt lat="45.3349869" lon="9.3322498"><ele>84.0</ele><time>2026-03-29T16:59:22.373Z</time></trkpt><trkpt lat="45.3351369" lon="9.3321883"><ele>84.0</ele><time>2026-03-29T16:59:24.369Z</time></trkpt><trkpt lat="45.3353334" lon="9.3321105"><ele>84.25</ele><time>2026-03-29T16:59:26.364Z</time></trkpt><trkpt lat="45.3354426" lon="9.3320201"><ele>84.5</ele><time>2026-03-29T16:59:27.366Z</time></trkpt><trkpt lat="45.3355674" lon="9.3319346"><ele>84.75</ele><time>2026-03-29T16:59:28.37Z</time></trkpt><trkpt lat="45.3357136" lon="9.3318691"><ele>85.0</ele><time>2026-03-29T16:59:29.371Z</time></trkpt><trkpt lat="45.3360724" lon="9.3317918"><ele>85.66666666666666</ele><time>2026-03-29T16:59:31.364Z</time></trkpt><trkpt lat="45.3362867" lon="9.3317683"><ele>86.33333333333333</ele><time>2026-03-29T16:59:32.368Z</time></trkpt><trkpt lat="45.3364954" lon="9.3317543"><ele>87.0</ele><time>2026-03-29T16:59:33.374Z</time></trkpt><trkpt lat="45.3366909" lon="9.3317519"><ele>87.0</ele><time>2026-03-29T16:59:34.377Z</time></trkpt><trkpt lat="45.3370636" lon="9.3317728"><ele>87.0</ele><time>2026-03-29T16:59:36.377Z</time></trkpt><trkpt lat="45.3374031" lon="9.3318161"><ele>86.66666666666667</ele><time>2026-03-29T16:59:38.366Z</time></trkpt><trkpt lat="45.337571" lon="9.3318423"><ele>86.33333333333334</ele><time>2026-03-29T16:59:39.366Z</time></trkpt><trkpt lat="45.3377397" lon="9.3318716"><ele>86.0</ele><time>2026-03-29T16:59:40.372Z</time></trkpt><trkpt lat="45.3380924" lon="9.3319414"><ele>86.0</ele><time>2026-03-29T16:59:42.371Z</time></trkpt><trkpt lat="45.3384637" lon="9.3320169"><ele>86.0</ele><time>2026-03-29T16:59:44.362Z</time></trkpt><trkpt lat="45.3388564" lon="9.3320889"><ele>86.0</ele><time>2026-03-29T16:59:46.365Z</time></trkpt><trkpt lat="45.3392422" lon="9.3321314"><ele>86.0</ele><time>2026-03-29T16:59:48.366Z</time></trkpt><trkpt lat="45.3396387" lon="9.332129"><ele>85.66666666666667</ele><time>2026-03-29T16:59:50.349Z</time></trkpt><trkpt lat="45.3398366" lon="9.3321116"><ele>85.33333333333333</ele><time>2026-03-29T16:59:51.358Z</time></trkpt><trkpt lat="45.3400279" lon="9.3320868"><ele>85.0</ele><time>2026-03-29T16:59:52.372Z</time></trkpt><trkpt lat="45.3403722" lon="9.3320119"><ele>85.0</ele><time>2026-03-29T16:59:54.352Z</time></trkpt><trkpt lat="45.3405241" lon="9.3319703"><ele>85.0</ele><time>2026-03-29T16:59:55.355Z</time></trkpt><trkpt lat="45.3408166" lon="9.3318646"><ele>85.0</ele><time>2026-03-29T16:59:57.357Z</time></trkpt><trkpt lat="45.3409564" lon="9.3318041"><ele>85.0</ele><time>2026-03-29T16:59:58.364Z</time></trkpt><trkpt lat="45.341085" lon="9.3317483"><ele>85.0</ele><time>2026-03-29T16:59:59.364Z</time></trkpt><trkpt lat="45.3412032" lon="9.3316981"><ele>85.0</ele><time>2026-03-29T17:00:00.378Z</time></trkpt><trkpt lat="45.3414122" lon="9.3316179"><ele>85.0</ele><time>2026-03-29T17:00:02.359Z</time></trkpt><trkpt lat="45.3415052" lon="9.3315868"><ele>85.0</ele><time>2026-03-29T17:00:03.372Z</time></trkpt><trkpt lat="45.3416761" lon="9.3315356"><ele>85.0</ele><time>2026-03-29T17:00:05.36Z</time></trkpt><trkpt lat="45.3417617" lon="9.3315156"><ele>85.0</ele><time>2026-03-29T17:00:06.36Z</time></trkpt><trkpt lat="45.3418561" lon="9.3315123"><ele>85.0</ele><time>2026-03-29T17:00:07.367Z</time></trkpt><trkpt lat="45.3419619" lon="9.3315269"><ele>85.0</ele><time>2026-03-29T17:00:08.392Z</time></trkpt><trkpt lat="45.3421982" lon="9.3316226"><ele>85.0</ele><time>2026-03-29T17:00:10.373Z</time></trkpt><trkpt lat="45.3424749" lon="9.331875"><ele>85.5</ele><time>2026-03-29T17:00:12.365Z</time></trkpt><trkpt lat="45.3426264" lon="9.3320476"><ele>86.0</ele><time>2026-03-29T17:00:13.366Z</time></trkpt><trkpt lat="45.3429504" lon="9.3324358"><ele>84.5</ele><time>2026-03-29T17:00:15.361Z</time></trkpt><trkpt lat="45.3431202" lon="9.3326446"><ele>83.0</ele><time>2026-03-29T17:00:16.382Z</time></trkpt><trkpt lat="45.3434629" lon="9.3330851"><ele>82.5</ele><time>2026-03-29T17:00:18.343Z</time></trkpt><trkpt lat="45.3436321" lon="9.3333163"><ele>82.0</ele><time>2026-03-29T17:00:19.363Z</time></trkpt><trkpt lat="45.3439547" lon="9.3337883"><ele>79.5</ele><time>2026-03-29T17:00:21.348Z</time></trkpt><trkpt lat="45.3441102" lon="9.3340284"><ele>77.0</ele><time>2026-03-29T17:00:22.376Z</time></trkpt><trkpt lat="45.3444084" lon="9.3345168"><ele>76.5</ele><time>2026-03-29T17:00:24.346Z</time></trkpt><trkpt lat="45.3445452" lon="9.3347588"><ele>76.0</ele><time>2026-03-29T17:00:25.361Z</time></trkpt><trkpt lat="45.3448044" lon="9.3352419"><ele>76.0</ele><time>2026-03-29T17:00:27.355Z</time></trkpt><trkpt lat="45.3449304" lon="9.3354921"><ele>76.0</ele><time>2026-03-29T17:00:28.364Z</time></trkpt><trkpt lat="45.3451754" lon="9.3360208"><ele>82.0</ele><time>2026-03-29T17:00:30.355Z</time></trkpt><trkpt lat="45.3454115" lon="9.3365709"><ele>81.0</ele><time>2026-03-29T17:00:32.359Z</time></trkpt><trkpt lat="45.3456327" lon="9.3371446"><ele>81.5</ele><time>2026-03-29T17:00:34.366Z</time></trkpt><trkpt lat="45.3457401" lon="9.3374403"><ele>82.0</ele><time>2026-03-29T17:00:35.369Z</time></trkpt><trkpt lat="45.3458449" lon="9.3377441"><ele>81.0</ele><time>2026-03-29T17:00:36.37Z</time></trkpt><trkpt lat="45.3460449" lon="9.3383806"><ele>81.0</ele><time>2026-03-29T17:00:38.369Z</time></trkpt><trkpt lat="45.3461352" lon="9.3387019"><ele>81.0</ele><time>2026-03-29T17:00:39.371Z</time></trkpt><trkpt lat="45.3462936" lon="9.3393366"><ele>81.0</ele><time>2026-03-29T17:00:41.356Z</time></trkpt><trkpt lat="45.3463732" lon="9.3396653"><ele>81.0</ele><time>2026-03-29T17:00:42.364Z</time></trkpt><trkpt lat="45.3465332" lon="9.3403451"><ele>82.0</ele><time>2026-03-29T17:00:44.361Z</time></trkpt><trkpt lat="45.3466116" lon="9.3406891"><ele>83.0</ele><time>2026-03-29T17:00:45.36Z</time></trkpt><trkpt lat="45.3466834" lon="9.3410243"><ele>84.0</ele><time>2026-03-29T17:00:46.375Z</time></trkpt><trkpt lat="45.3468206" lon="9.3416628"><ele>84.0</ele><time>2026-03-29T17:00:48.361Z</time></trkpt><trkpt lat="45.3468872" lon="9.3419689"><ele>84.0</ele><time>2026-03-29T17:00:49.375Z</time></trkpt><trkpt lat="45.3470249" lon="9.3425883"><ele>83.0</ele><time>2026-03-29T17:00:51.359Z</time></trkpt><trkpt lat="45.3471661" lon="9.3432173"><ele>84.0</ele><time>2026-03-29T17:00:53.354Z</time></trkpt><trkpt lat="45.3472369" lon="9.3435314"><ele>85.0</ele><time>2026-03-29T17:00:54.354Z</time></trkpt><trkpt lat="45.3473041" lon="9.3438496"><ele>84.5</ele><time>2026-03-29T17:00:55.36Z</time></trkpt><trkpt lat="45.3473604" lon="9.3441683"><ele>84.0</ele><time>2026-03-29T17:00:56.366Z</time></trkpt><trkpt lat="45.3474036" lon="9.3444896"><ele>84.0</ele><time>2026-03-29T17:00:57.383Z</time></trkpt><trkpt lat="45.3474457" lon="9.3451246"><ele>84.0</ele><time>2026-03-29T17:00:59.371Z</time></trkpt><trkpt lat="45.3474424" lon="9.3454271"><ele>84.5</ele><time>2026-03-29T17:01:00.374Z</time></trkpt><trkpt lat="45.3473974" lon="9.3459821"><ele>85.0</ele><time>2026-03-29T17:01:02.366Z</time></trkpt><trkpt lat="45.3473582" lon="9.3462349"><ele>85.0</ele><time>2026-03-29T17:01:03.376Z</time></trkpt><trkpt lat="45.3472402" lon="9.3467023"><ele>85.0</ele><time>2026-03-29T17:01:05.361Z</time></trkpt><trkpt lat="45.3471611" lon="9.3469206"><ele>85.5</ele><time>2026-03-29T17:01:06.394Z</time></trkpt><trkpt lat="45.3469676" lon="9.3472901"><ele>86.0</ele><time>2026-03-29T17:01:08.365Z</time></trkpt><trkpt lat="45.3468621" lon="9.3474439"><ele>86.0</ele><time>2026-03-29T17:01:09.373Z</time></trkpt><trkpt lat="45.3466491" lon="9.3477115"><ele>86.0</ele><time>2026-03-29T17:01:11.353Z</time></trkpt><trkpt lat="45.3465387" lon="9.3478421"><ele>86.0</ele><time>2026-03-29T17:01:12.357Z</time></trkpt><trkpt lat="45.3464269" lon="9.3479781"><ele>86.0</ele><time>2026-03-29T17:01:13.364Z</time></trkpt><trkpt lat="45.3463206" lon="9.3481176"><ele>86.0</ele><time>2026-03-29T17:01:14.377Z</time></trkpt><trkpt lat="45.3461402" lon="9.3484196"><ele>86.0</ele><time>2026-03-29T17:01:16.37Z</time></trkpt><trkpt lat="45.3460234" lon="9.3487586"><ele>86.0</ele><time>2026-03-29T17:01:18.371Z</time></trkpt><trkpt lat="45.3459964" lon="9.3489313"><ele>86.0</ele><time>2026-03-29T17:01:19.372Z</time></trkpt><trkpt lat="45.3459981" lon="9.3492591"><ele>86.0</ele><time>2026-03-29T17:01:21.38Z</time></trkpt><trkpt lat="45.3460221" lon="9.3494106"><ele>86.0</ele><time>2026-03-29T17:01:22.382Z</time></trkpt><trkpt lat="45.3461017" lon="9.3496666"><ele>86.0</ele><time>2026-03-29T17:01:24.375Z</time></trkpt><trkpt lat="45.3461827" lon="9.3498254"><ele>86.0</ele><time>2026-03-29T17:01:26.379Z</time></trkpt><trkpt lat="45.3462499" lon="9.3499413"><ele>86.0</ele><time>2026-03-29T17:01:28.373Z</time></trkpt><trkpt lat="45.3463105" lon="9.3501158"><ele>86.75</ele><time>2026-03-29T17:01:30.363Z</time></trkpt><trkpt lat="45.3463871" lon="9.3503094"><ele>87.5</ele><time>2026-03-29T17:01:32.359Z</time></trkpt><trkpt lat="45.3464542" lon="9.3503763"><ele>88.25</ele><time>2026-03-29T17:01:33.377Z</time></trkpt><trkpt lat="45.3465252" lon="9.3504079"><ele>89.0</ele><time>2026-03-29T17:01:34.382Z</time></trkpt><trkpt lat="45.3466607" lon="9.3503119"><ele>89.0</ele><time>2026-03-29T17:01:36.371Z</time></trkpt><trkpt lat="45.3467174" lon="9.3500746"><ele>89.0</ele><time>2026-03-29T17:01:38.371Z</time></trkpt><trkpt lat="45.3467114" lon="9.3499409"><ele>89.0</ele><time>2026-03-29T17:01:39.371Z</time></trkpt><trkpt lat="45.3466999" lon="9.3498039"><ele>89.0</ele><time>2026-03-29T17:01:40.375Z</time></trkpt><trkpt lat="45.3467376" lon="9.3495111"><ele>88.5</ele><time>2026-03-29T17:01:42.396Z</time></trkpt><trkpt lat="45.3468332" lon="9.3492005"><ele>88.0</ele><time>2026-03-29T17:01:44.374Z</time></trkpt><trkpt lat="45.3469302" lon="9.3488719"><ele>87.66666666666666</ele><time>2026-03-29T17:01:46.371Z</time></trkpt><trkpt lat="45.3470251" lon="9.3485493"><ele>87.33333333333333</ele><time>2026-03-29T17:01:48.358Z</time></trkpt><trkpt lat="45.3470669" lon="9.3484031"><ele>87.0</ele><time>2026-03-29T17:01:49.358Z</time></trkpt><trkpt lat="45.3471091" lon="9.3482471"><ele>86.0</ele><time>2026-03-29T17:01:50.366Z</time></trkpt><trkpt lat="45.3472241" lon="9.3478824"><ele>85.0</ele><time>2026-03-29T17:01:52.364Z</time></trkpt><trkpt lat="45.347298" lon="9.3476938"><ele>84.0</ele><time>2026-03-29T17:01:53.367Z</time></trkpt><trkpt lat="45.3473752" lon="9.3475188"><ele>84.33333333333333</ele><time>2026-03-29T17:01:54.369Z</time></trkpt><trkpt lat="45.3475429" lon="9.3471941"><ele>84.66666666666666</ele><time>2026-03-29T17:01:56.359Z</time></trkpt><trkpt lat="45.3476351" lon="9.3470368"><ele>85.0</ele><time>2026-03-29T17:01:57.363Z</time></trkpt><trkpt lat="45.3478396" lon="9.3467451"><ele>85.5</ele><time>2026-03-29T17:01:59.367Z</time></trkpt><trkpt lat="45.3480679" lon="9.3464663"><ele>86.0</ele><time>2026-03-29T17:02:01.366Z</time></trkpt><trkpt lat="45.3483091" lon="9.3461741"><ele>85.0</ele><time>2026-03-29T17:02:03.364Z</time></trkpt><trkpt lat="45.3484319" lon="9.3460201"><ele>84.0</ele><time>2026-03-29T17:02:04.398Z</time></trkpt><trkpt lat="45.3486895" lon="9.3457071"><ele>85.0</ele><time>2026-03-29T17:02:06.366Z</time></trkpt><trkpt lat="45.3489614" lon="9.3453759"><ele>86.0</ele><time>2026-03-29T17:02:08.357Z</time></trkpt><trkpt lat="45.3492409" lon="9.3450403"><ele>86.0</ele><time>2026-03-29T17:02:10.36Z</time></trkpt><trkpt lat="45.3495107" lon="9.3447114"><ele>86.0</ele><time>2026-03-29T17:02:12.359Z</time></trkpt><trkpt lat="45.349642" lon="9.3445403"><ele>86.0</ele><time>2026-03-29T17:02:13.363Z</time></trkpt><trkpt lat="45.3498967" lon="9.3441838"><ele>86.0</ele><time>2026-03-29T17:02:15.356Z</time></trkpt><trkpt lat="45.3500207" lon="9.3440013"><ele>86.5</ele><time>2026-03-29T17:02:16.367Z</time></trkpt><trkpt lat="45.3502522" lon="9.3436296"><ele>87.0</ele><time>2026-03-29T17:02:18.358Z</time></trkpt><trkpt lat="45.3503669" lon="9.3434383"><ele>87.0</ele><time>2026-03-29T17:02:19.362Z</time></trkpt><trkpt lat="45.3505992" lon="9.3430324"><ele>87.0</ele><time>2026-03-29T17:02:21.356Z</time></trkpt><trkpt lat="45.3507184" lon="9.3428256"><ele>87.0</ele><time>2026-03-29T17:02:22.357Z</time></trkpt><trkpt lat="45.3508324" lon="9.3426276"><ele>87.0</ele><time>2026-03-29T17:02:23.363Z</time></trkpt><trkpt lat="45.3510352" lon="9.3422763"><ele>87.33333333333333</ele><time>2026-03-29T17:02:25.357Z</time></trkpt><trkpt lat="45.3511235" lon="9.3421215"><ele>87.66666666666666</ele><time>2026-03-29T17:02:26.37Z</time></trkpt><trkpt lat="45.3512855" lon="9.3418398"><ele>88.0</ele><time>2026-03-29T17:02:28.365Z</time></trkpt><trkpt lat="45.3513579" lon="9.341714"><ele>88.0</ele><time>2026-03-29T17:02:29.377Z</time></trkpt><trkpt lat="45.3514909" lon="9.3414851"><ele>88.0</ele><time>2026-03-29T17:02:31.37Z</time></trkpt><trkpt lat="45.3516231" lon="9.3412566"><ele>88.0</ele><time>2026-03-29T17:02:33.362Z</time></trkpt><trkpt lat="45.3516924" lon="9.3411391"><ele>88.0</ele><time>2026-03-29T17:02:34.408Z</time></trkpt><trkpt lat="45.3518212" lon="9.3409365"><ele>88.0</ele><time>2026-03-29T17:02:36.37Z</time></trkpt><trkpt lat="45.3518996" lon="9.3408266"><ele>88.0</ele><time>2026-03-29T17:02:38.38Z</time></trkpt><trkpt lat="45.3519792" lon="9.3407301"><ele>88.0</ele><time>2026-03-29T17:02:42.372Z</time></trkpt><trkpt lat="45.3521144" lon="9.3406286"><ele>88.4</ele><time>2026-03-29T17:02:45.376Z</time></trkpt><trkpt lat="45.3522766" lon="9.3405724"><ele>88.80000000000001</ele><time>2026-03-29T17:02:47.364Z</time></trkpt><trkpt lat="45.3523682" lon="9.34057"><ele>89.2</ele><time>2026-03-29T17:02:48.368Z</time></trkpt><trkpt lat="45.3524531" lon="9.3405934"><ele>89.6</ele><time>2026-03-29T17:02:49.37Z</time></trkpt><trkpt lat="45.3525402" lon="9.3406281"><ele>90.0</ele><time>2026-03-29T17:02:50.374Z</time></trkpt><trkpt lat="45.3527362" lon="9.340697"><ele>90.0</ele><time>2026-03-29T17:02:52.367Z</time></trkpt><trkpt lat="45.3529299" lon="9.3407384"><ele>90.0</ele><time>2026-03-29T17:02:54.368Z</time></trkpt><trkpt lat="45.3531417" lon="9.3407776"><ele>90.0</ele><time>2026-03-29T17:02:56.369Z</time></trkpt><trkpt lat="45.353244" lon="9.3408043"><ele>90.33333333333333</ele><time>2026-03-29T17:02:57.368Z</time></trkpt><trkpt lat="45.3533416" lon="9.3408356"><ele>90.66666666666666</ele><time>2026-03-29T17:02:58.377Z</time></trkpt><trkpt lat="45.3535396" lon="9.3409226"><ele>91.0</ele><time>2026-03-29T17:03:00.377Z</time></trkpt><trkpt lat="45.3537447" lon="9.3410158"><ele>91.0</ele><time>2026-03-29T17:03:02.349Z</time></trkpt><trkpt lat="45.3538442" lon="9.3410608"><ele>91.0</ele><time>2026-03-29T17:03:03.363Z</time></trkpt><trkpt lat="45.3540544" lon="9.3411493"><ele>91.0</ele><time>2026-03-29T17:03:05.365Z</time></trkpt><trkpt lat="45.3542606" lon="9.3412116"><ele>90.75</ele><time>2026-03-29T17:03:07.373Z</time></trkpt><trkpt lat="45.3544507" lon="9.3412603"><ele>90.5</ele><time>2026-03-29T17:03:09.368Z</time></trkpt><trkpt lat="45.3545192" lon="9.3413141"><ele>90.25</ele><time>2026-03-29T17:03:10.399Z</time></trkpt><trkpt lat="45.3545874" lon="9.3414779"><ele>90.0</ele><time>2026-03-29T17:03:12.383Z</time></trkpt><trkpt lat="45.35463" lon="9.3417469"><ele>89.33333333333333</ele><time>2026-03-29T17:03:14.376Z</time></trkpt><trkpt lat="45.3546561" lon="9.3419211"><ele>88.66666666666666</ele><time>2026-03-29T17:03:15.376Z</time></trkpt><trkpt lat="45.3547211" lon="9.3422344"><ele>88.0</ele><time>2026-03-29T17:03:17.372Z</time></trkpt><trkpt lat="45.3548629" lon="9.3424444"><ele>88.0</ele><time>2026-03-29T17:03:19.344Z</time></trkpt><trkpt lat="45.354954" lon="9.3425011"><ele>88.0</ele><time>2026-03-29T17:03:20.352Z</time></trkpt><trkpt lat="45.3551191" lon="9.3426009"><ele>88.0</ele><time>2026-03-29T17:03:22.348Z</time></trkpt><trkpt lat="45.3552424" lon="9.3428031"><ele>88.0</ele><time>2026-03-29T17:03:24.341Z</time></trkpt><trkpt lat="45.3552791" lon="9.3429468"><ele>88.0</ele><time>2026-03-29T17:03:25.35Z</time></trkpt><trkpt lat="45.3553134" lon="9.3431084"><ele>88.0</ele><time>2026-03-29T17:03:26.353Z</time></trkpt><trkpt lat="45.3553572" lon="9.3432781"><ele>88.0</ele><time>2026-03-29T17:03:27.368Z</time></trkpt><trkpt lat="45.3554617" lon="9.3436451"><ele>88.33333333333333</ele><time>2026-03-29T17:03:29.344Z</time></trkpt><trkpt lat="45.355503" lon="9.343846"><ele>88.66666666666667</ele><time>2026-03-29T17:03:30.348Z</time></trkpt><trkpt lat="45.3555337" lon="9.3440505"><ele>89.0</ele><time>2026-03-29T17:03:31.379Z</time></trkpt><trkpt lat="45.3555829" lon="9.3444358"><ele>89.0</ele><time>2026-03-29T17:03:33.365Z</time></trkpt><trkpt lat="45.3556201" lon="9.3447624"><ele>89.0</ele><time>2026-03-29T17:03:35.363Z</time></trkpt><trkpt lat="45.3556474" lon="9.3450213"><ele>89.0</ele><time>2026-03-29T17:03:37.359Z</time></trkpt><trkpt lat="45.3556701" lon="9.3452346"><ele>89.0</ele><time>2026-03-29T17:03:39.346Z</time></trkpt><trkpt lat="45.3556826" lon="9.3453359"><ele>89.0</ele><time>2026-03-29T17:03:40.378Z</time></trkpt><trkpt lat="45.3557017" lon="9.3455268"><ele>89.0</ele><time>2026-03-29T17:03:42.344Z</time></trkpt><trkpt lat="45.3557089" lon="9.3456196"><ele>89.0</ele><time>2026-03-29T17:03:43.351Z</time></trkpt><trkpt lat="45.3557191" lon="9.3457208"><ele>89.0</ele><time>2026-03-29T17:03:44.353Z</time></trkpt><trkpt lat="45.3557434" lon="9.3459483"><ele>89.25</ele><time>2026-03-29T17:03:46.35Z</time></trkpt><trkpt lat="45.3557559" lon="9.3460625"><ele>89.5</ele><time>2026-03-29T17:03:47.351Z</time></trkpt><trkpt lat="45.3557746" lon="9.3462754"><ele>89.75</ele><time>2026-03-29T17:03:49.35Z</time></trkpt><trkpt lat="45.3557857" lon="9.3463833"><ele>90.0</ele><time>2026-03-29T17:03:50.352Z</time></trkpt><trkpt lat="45.3558104" lon="9.3465984"><ele>90.0</ele><time>2026-03-29T17:03:52.364Z</time></trkpt><trkpt lat="45.3558377" lon="9.3467944"><ele>90.0</ele><time>2026-03-29T17:03:54.353Z</time></trkpt><trkpt lat="45.3558649" lon="9.3469588"><ele>90.0</ele><time>2026-03-29T17:03:56.359Z</time></trkpt><trkpt lat="45.3558726" lon="9.3471165"><ele>90.0</ele><time>2026-03-29T17:03:58.354Z</time></trkpt><trkpt lat="45.3559014" lon="9.3472833"><ele>90.2</ele><time>2026-03-29T17:04:00.375Z</time></trkpt><trkpt lat="45.3560139" lon="9.3474109"><ele>90.4</ele><time>2026-03-29T17:04:02.354Z</time></trkpt><trkpt lat="45.3560919" lon="9.3474351"><ele>90.6</ele><time>2026-03-29T17:04:03.355Z</time></trkpt><trkpt lat="45.3561752" lon="9.3474383"><ele>90.8</ele><time>2026-03-29T17:04:04.368Z</time></trkpt><trkpt lat="45.3562614" lon="9.3474283"><ele>91.0</ele><time>2026-03-29T17:04:05.38Z</time></trkpt><trkpt lat="45.3564371" lon="9.3474066"><ele>90.33333333333333</ele><time>2026-03-29T17:04:07.348Z</time></trkpt><trkpt lat="45.3565932" lon="9.3473884"><ele>89.66666666666667</ele><time>2026-03-29T17:04:09.351Z</time></trkpt><trkpt lat="45.3567457" lon="9.3473768"><ele>89.0</ele><time>2026-03-29T17:04:11.35Z</time></trkpt><trkpt lat="45.3569026" lon="9.3473698"><ele>89.0</ele><time>2026-03-29T17:04:13.352Z</time></trkpt><trkpt lat="45.3569862" lon="9.3473639"><ele>89.0</ele><time>2026-03-29T17:04:14.354Z</time></trkpt><trkpt lat="45.3570687" lon="9.3473569"><ele>89.0</ele><time>2026-03-29T17:04:15.355Z</time></trkpt><trkpt lat="45.3572442" lon="9.3473436"><ele>89.0</ele><time>2026-03-29T17:04:17.349Z</time></trkpt><trkpt lat="45.3573424" lon="9.3473291"><ele>89.0</ele><time>2026-03-29T17:04:18.349Z</time></trkpt><trkpt lat="45.3574417" lon="9.347308"><ele>88.66666666666667</ele><time>2026-03-29T17:04:19.351Z</time></trkpt><trkpt lat="45.3576537" lon="9.3472489"><ele>88.33333333333333</ele><time>2026-03-29T17:04:21.353Z</time></trkpt><trkpt lat="45.3578719" lon="9.3471746"><ele>88.0</ele><time>2026-03-29T17:04:23.346Z</time></trkpt><trkpt lat="45.3579782" lon="9.3471374"><ele>88.0</ele><time>2026-03-29T17:04:24.366Z</time></trkpt><trkpt lat="45.3581391" lon="9.3470809"><ele>88.0</ele><time>2026-03-29T17:04:26.355Z</time></trkpt><trkpt lat="45.3582774" lon="9.3470396"><ele>88.0</ele><time>2026-03-29T17:04:28.346Z</time></trkpt><trkpt lat="45.3583534" lon="9.3470174"><ele>88.0</ele><time>2026-03-29T17:04:29.353Z</time></trkpt><trkpt lat="45.3584416" lon="9.3469909"><ele>88.0</ele><time>2026-03-29T17:04:30.36Z</time></trkpt><trkpt lat="45.3585421" lon="9.3469614"><ele>88.0</ele><time>2026-03-29T17:04:31.365Z</time></trkpt><trkpt lat="45.3587529" lon="9.3469034"><ele>88.0</ele><time>2026-03-29T17:04:33.369Z</time></trkpt><trkpt lat="45.3589449" lon="9.3468519"><ele>88.0</ele><time>2026-03-29T17:04:35.351Z</time></trkpt><trkpt lat="45.3590494" lon="9.3468326"><ele>88.0</ele><time>2026-03-29T17:04:36.353Z</time></trkpt><trkpt lat="45.3591607" lon="9.3468133"><ele>88.0</ele><time>2026-03-29T17:04:37.366Z</time></trkpt><trkpt lat="45.3592801" lon="9.3467989"><ele>88.0</ele><time>2026-03-29T17:04:38.373Z</time></trkpt><trkpt lat="45.3595292" lon="9.3467743"><ele>88.33333333333333</ele><time>2026-03-29T17:04:40.348Z</time></trkpt><trkpt lat="45.3597549" lon="9.3467494"><ele>88.66666666666667</ele><time>2026-03-29T17:04:42.335Z</time></trkpt><trkpt lat="45.3598619" lon="9.3467379"><ele>89.0</ele><time>2026-03-29T17:04:43.355Z</time></trkpt><trkpt lat="45.3600704" lon="9.3467181"><ele>89.0</ele><time>2026-03-29T17:04:45.346Z</time></trkpt><trkpt lat="45.3601821" lon="9.3467093"><ele>89.0</ele><time>2026-03-29T17:04:46.354Z</time></trkpt><trkpt lat="45.3602922" lon="9.346702"><ele>89.0</ele><time>2026-03-29T17:04:47.353Z</time></trkpt><trkpt lat="45.3603979" lon="9.3466924"><ele>89.0</ele><time>2026-03-29T17:04:48.354Z</time></trkpt><trkpt lat="45.3604977" lon="9.3466824"><ele>89.0</ele><time>2026-03-29T17:04:49.368Z</time></trkpt><trkpt lat="45.3605885" lon="9.3466733"><ele>89.16666666666667</ele><time>2026-03-29T17:04:50.37Z</time></trkpt><trkpt lat="45.3606647" lon="9.3466666"><ele>89.33333333333334</ele><time>2026-03-29T17:04:51.377Z</time></trkpt><trkpt lat="45.3607311" lon="9.3466629"><ele>89.5</ele><time>2026-03-29T17:04:52.389Z</time></trkpt><trkpt lat="45.3608429" lon="9.3466551"><ele>89.66666666666667</ele><time>2026-03-29T17:04:54.367Z</time></trkpt><trkpt lat="45.3609302" lon="9.3466283"><ele>89.83333333333333</ele><time>2026-03-29T17:04:56.387Z</time></trkpt><trkpt lat="45.3609764" lon="9.3465486"><ele>90.0</ele><time>2026-03-29T17:04:58.389Z</time></trkpt><trkpt lat="45.3609864" lon="9.346422"><ele>90.0</ele><time>2026-03-29T17:05:01.378Z</time></trkpt><trkpt lat="45.3609917" lon="9.3463184"><ele>90.0</ele><time>2026-03-29T17:05:04.377Z</time></trkpt><trkpt lat="45.3610202" lon="9.346221"><ele>90.0</ele><time>2026-03-29T17:05:07.37Z</time></trkpt><trkpt lat="45.3610677" lon="9.3461418"><ele>90.0</ele><time>2026-03-29T17:05:10.372Z</time></trkpt><trkpt lat="45.3610981" lon="9.3460493"><ele>90.0</ele><time>2026-03-29T17:05:15.359Z</time></trkpt></trkseg></trk></gpx>